<?xml version='1.0' encoding='UTF-8'?><gpx version="1.1" creator="JPX - https://github.com/jenetics/jpx" xmlns="http://www.topografix.com/GPX/1/1"><trk><trkseg><trkpt lat="45.19116885780373" lon="9.424882599432193"><ele>86.0</ele><time>2026-04-26T06:14:49Z</time></trkpt><trkpt lat="45.19109521898373" lon="9.424860734915333"><ele>86.0</ele><time>2026-04-26T06:15:54Z</time></trkpt><trkpt lat="45.19101391772672" lon="9.424881213075869"><ele>86.0</ele><time>2026-04-26T06:15:57Z</time></trkpt><trkpt lat="45.190945784545164" lon="9.424905094939243"><ele>86.0</ele><time>2026-04-26T06:15:59Z</time></trkpt><trkpt lat="45.19086427850728" lon="9.424895184575735"><ele>86.0</ele><time>2026-04-26T06:16:01Z</time></trkpt><trkpt lat="45.19077252406681" lon="9.424887540930067"><ele>86.0</ele><time>2026-04-26T06:16:03Z</time></trkpt><trkpt lat="45.190685696413375" lon="9.42488684441207"><ele>86.0</ele><time>2026-04-26T06:16:05Z</time></trkpt><trkpt lat="45.19061665825425" lon="9.42494972867288"><ele>86.0</ele><time>2026-04-26T06:16:08Z</time></trkpt><trkpt lat="45.190612141514684" lon="9.425040541305052"><ele>86.0</ele><time>2026-04-26T06:16:12Z</time></trkpt><trkpt lat="45.190693537211914" lon="9.425110933220267"><ele>86.0</ele><time>2026-04-26T06:16:15Z</time></trkpt><trkpt lat="45.19076550595176" lon="9.425170017623744"><ele>86.0</ele><time>2026-04-26T06:16:17Z</time></trkpt><trkpt lat="45.190848168324976" lon="9.425218619366943"><ele>86.0</ele><time>2026-04-26T06:16:19Z</time></trkpt><trkpt lat="45.190923092449516" lon="9.425277711353495"><ele>86.0</ele><time>2026-04-26T06:16:21Z</time></trkpt><trkpt lat="45.19103139080283" lon="9.425322476947182"><ele>86.0</ele><time>2026-04-26T06:16:23Z</time></trkpt><trkpt lat="45.19113745426188" lon="9.425354940000386"><ele>86.0</ele><time>2026-04-26T06:16:25Z</time></trkpt><trkpt lat="45.19124725470968" lon="9.425399013070429"><ele>86.0</ele><time>2026-04-26T06:16:27Z</time></trkpt><trkpt lat="45.19136550525188" lon="9.425451633070475"><ele>86.8</ele><time>2026-04-26T06:16:29Z</time></trkpt><trkpt lat="45.19147057563288" lon="9.425479821004792"><ele>87.6</ele><time>2026-04-26T06:16:31Z</time></trkpt><trkpt lat="45.19157772570688" lon="9.425493088184014"><ele>88.4</ele><time>2026-04-26T06:16:33Z</time></trkpt><trkpt lat="45.191687051123715" lon="9.425500787725165"><ele>89.2</ele><time>2026-04-26T06:16:35Z</time></trkpt><trkpt lat="45.19176022773115" lon="9.425520341963715"><ele>90.0</ele><time>2026-04-26T06:16:36.999Z</time></trkpt><trkpt lat="45.19187296472672" lon="9.425558785108157"><ele>90.0</ele><time>2026-04-26T06:16:38.999Z</time></trkpt><trkpt lat="45.19195799858144" lon="9.425617849591493"><ele>90.0</ele><time>2026-04-26T06:16:40.999Z</time></trkpt><trkpt lat="45.19203137853167" lon="9.42568484277224"><ele>90.0</ele><time>2026-04-26T06:16:42.999Z</time></trkpt><trkpt lat="45.19210605302776" lon="9.425752514390943"><ele>90.0</ele><time>2026-04-26T06:16:44.999Z</time></trkpt><trkpt lat="45.19216747903053" lon="9.425837229606007"><ele>90.0</ele><time>2026-04-26T06:16:46.999Z</time></trkpt><trkpt lat="45.19224070682221" lon="9.425914922944425"><ele>90.0</ele><time>2026-04-26T06:16:48.999Z</time></trkpt><trkpt lat="45.1922972861652" lon="9.425969758541212"><ele>90.5</ele><time>2026-04-26T06:16:50.999Z</time></trkpt><trkpt lat="45.192367492820246" lon="9.426005718883536"><ele>91.0</ele><time>2026-04-26T06:16:53.999Z</time></trkpt><trkpt lat="45.19242067535923" lon="9.42605388402816"><ele>91.5</ele><time>2026-04-26T06:16:55.999Z</time></trkpt><trkpt lat="45.192472908886785" lon="9.42612061890397"><ele>92.0</ele><time>2026-04-26T06:16:57.999Z</time></trkpt><trkpt lat="45.19254251876144" lon="9.426202010197365"><ele>92.5</ele><time>2026-04-26T06:17:00.999Z</time></trkpt><trkpt lat="45.19260614387358" lon="9.42626737389918"><ele>93.0</ele><time>2026-04-26T06:17:02.999Z</time></trkpt><trkpt lat="45.192683062278896" lon="9.426314341161296"><ele>93.66666666666667</ele><time>2026-04-26T06:17:06.999Z</time></trkpt><trkpt lat="45.19273821392052" lon="9.426392513767349"><ele>94.33333333333334</ele><time>2026-04-26T06:17:08.999Z</time></trkpt><trkpt lat="45.19282414645877" lon="9.426461958765257"><ele>95.0</ele><time>2026-04-26T06:17:11.999Z</time></trkpt><trkpt lat="45.192892851773756" lon="9.426495981897991"><ele>95.66666666666667</ele><time>2026-04-26T06:17:14.999Z</time></trkpt><trkpt lat="45.192955008478975" lon="9.426564223977628"><ele>96.33333333333334</ele><time>2026-04-26T06:17:16.999Z</time></trkpt><trkpt lat="45.19300821729589" lon="9.426645032862636"><ele>97.0</ele><time>2026-04-26T06:17:18.999Z</time></trkpt><trkpt lat="45.1930405167885" lon="9.426745511529933"><ele>97.00000000000001</ele><time>2026-04-26T06:17:21.999Z</time></trkpt><trkpt lat="45.193067119666615" lon="9.426851866725212"><ele>97.0</ele><time>2026-04-26T06:17:23.999Z</time></trkpt><trkpt lat="45.19309299005222" lon="9.42699220859986"><ele>97.0</ele><time>2026-04-26T06:17:26.999Z</time></trkpt><trkpt lat="45.19309104702232" lon="9.42709151679136"><ele>97.0</ele><time>2026-04-26T06:17:28.999Z</time></trkpt><trkpt lat="45.1931036347132" lon="9.427229868773532"><ele>97.00000000000001</ele><time>2026-04-26T06:17:30.999Z</time></trkpt><trkpt lat="45.19310857235066" lon="9.427345114839241"><ele>97.0</ele><time>2026-04-26T06:17:32.999Z</time></trkpt><trkpt lat="45.19313499265184" lon="9.42750083201394"><ele>97.66666666666667</ele><time>2026-04-26T06:17:34.999Z</time></trkpt><trkpt lat="45.19314454619836" lon="9.427606385471801"><ele>98.33333333333334</ele><time>2026-04-26T06:17:36.999Z</time></trkpt><trkpt lat="45.19313276306773" lon="9.427731137313428"><ele>99.0</ele><time>2026-04-26T06:17:38.999Z</time></trkpt><trkpt lat="45.1931050984132" lon="9.427848844110168"><ele>99.66666666666666</ele><time>2026-04-26T06:17:40.999Z</time></trkpt><trkpt lat="45.1930971219583" lon="9.427967788419569"><ele>100.33333333333333</ele><time>2026-04-26T06:17:42.999Z</time></trkpt><trkpt lat="45.193053538747584" lon="9.428078307047587"><ele>101.0</ele><time>2026-04-26T06:17:44.999Z</time></trkpt><trkpt lat="45.192989957824416" lon="9.428177303389136"><ele>101.66666666666666</ele><time>2026-04-26T06:17:46.999Z</time></trkpt><trkpt lat="45.192944260914025" lon="9.428277866453755"><ele>102.33333333333333</ele><time>2026-04-26T06:17:48.999Z</time></trkpt><trkpt lat="45.192882638179874" lon="9.428339639175661"><ele>103.0</ele><time>2026-04-26T06:17:50.999Z</time></trkpt><trkpt lat="45.19284697738658" lon="9.428450253628208"><ele>103.66666666666666</ele><time>2026-04-26T06:17:52.999Z</time></trkpt><trkpt lat="45.192795485834225" lon="9.428589069462232"><ele>104.33333333333333</ele><time>2026-04-26T06:17:54.999Z</time></trkpt><trkpt lat="45.192804238578" lon="9.428709204151582"><ele>105.0</ele><time>2026-04-26T06:17:56.999Z</time></trkpt><trkpt lat="45.19280730241675" lon="9.42883200763619"><ele>105.0</ele><time>2026-04-26T06:17:58.999Z</time></trkpt><trkpt lat="45.19280827006979" lon="9.42896448896966"><ele>105.0</ele><time>2026-04-26T06:18:00.999Z</time></trkpt><trkpt lat="45.19280775520834" lon="9.429080277512572"><ele>105.0</ele><time>2026-04-26T06:18:02.999Z</time></trkpt><trkpt lat="45.19280921000523" lon="9.429202810753315"><ele>105.0</ele><time>2026-04-26T06:18:04.999Z</time></trkpt><trkpt lat="45.19280849837633" lon="9.429293604428395"><ele>105.0</ele><time>2026-04-26T06:18:05.999Z</time></trkpt><trkpt lat="45.192817619952876" lon="9.429455345599711"><ele>105.0</ele><time>2026-04-26T06:18:07.999Z</time></trkpt><trkpt lat="45.192823069564604" lon="9.429627301542173"><ele>104.83333333333333</ele><time>2026-04-26T06:18:09.999Z</time></trkpt><trkpt lat="45.19283885577144" lon="9.429714948908508"><ele>104.66666666666666</ele><time>2026-04-26T06:18:10.999Z</time></trkpt><trkpt lat="45.192867455590914" lon="9.42987394429017"><ele>104.5</ele><time>2026-04-26T06:18:12.999Z</time></trkpt><trkpt lat="45.19287451227147" lon="9.429963202572242"><ele>104.33333333333333</ele><time>2026-04-26T06:18:13.999Z</time></trkpt><trkpt lat="45.19287907889323" lon="9.430054328782214"><ele>104.16666666666666</ele><time>2026-04-26T06:18:14.999Z</time></trkpt><trkpt lat="45.19287420686683" lon="9.430220803700077"><ele>104.0</ele><time>2026-04-26T06:18:16.999Z</time></trkpt><trkpt lat="45.19287109023257" lon="9.430394471655013"><ele>103.83333333333333</ele><time>2026-04-26T06:18:18.999Z</time></trkpt><trkpt lat="45.19285607225032" lon="9.430506530316698"><ele>103.66666666666666</ele><time>2026-04-26T06:18:19.999Z</time></trkpt><trkpt lat="45.19285382197721" lon="9.430611708092645"><ele>103.5</ele><time>2026-04-26T06:18:20.999Z</time></trkpt><trkpt lat="45.192852554872395" lon="9.430716069321853"><ele>103.33333333333334</ele><time>2026-04-26T06:18:21.999Z</time></trkpt><trkpt lat="45.192853531897796" lon="9.430816462666597"><ele>103.16666666666667</ele><time>2026-04-26T06:18:22.999Z</time></trkpt><trkpt lat="45.19285210176916" lon="9.430907064693654"><ele>103.0</ele><time>2026-04-26T06:18:23.999Z</time></trkpt><trkpt lat="45.19286211461636" lon="9.431087854140959"><ele>103.00000000000001</ele><time>2026-04-26T06:18:25.999Z</time></trkpt><trkpt lat="45.19286335125262" lon="9.431178012799728"><ele>103.0</ele><time>2026-04-26T06:18:26.999Z</time></trkpt><trkpt lat="45.19286543480956" lon="9.431278081371413"><ele>103.0</ele><time>2026-04-26T06:18:27.999Z</time></trkpt><trkpt lat="45.19285501481305" lon="9.4314346135635"><ele>103.0</ele><time>2026-04-26T06:18:29.999Z</time></trkpt><trkpt lat="45.19283928836502" lon="9.431529469737495"><ele>103.00000000000001</ele><time>2026-04-26T06:18:31.999Z</time></trkpt><trkpt lat="45.19282538668368" lon="9.431645398899105"><ele>103.0</ele><time>2026-04-26T06:18:33.999Z</time></trkpt><trkpt lat="45.192828616630564" lon="9.43182257634833"><ele>103.0</ele><time>2026-04-26T06:18:35.999Z</time></trkpt><trkpt lat="45.1928072318269" lon="9.431916489581448"><ele>103.0</ele><time>2026-04-26T06:18:38.999Z</time></trkpt><trkpt lat="45.19279913388045" lon="9.432012766202805"><ele>103.0</ele><time>2026-04-26T06:18:40.999Z</time></trkpt><trkpt lat="45.192786182909195" lon="9.432185785736962"><ele>103.0</ele><time>2026-04-26T06:18:42.999Z</time></trkpt><trkpt lat="45.19279061661074" lon="9.432389062037146"><ele>103.0</ele><time>2026-04-26T06:18:44.999Z</time></trkpt><trkpt lat="45.192781125121726" lon="9.432505436091937"><ele>103.00000000000001</ele><time>2026-04-26T06:18:45.999Z</time></trkpt><trkpt lat="45.192777189707684" lon="9.432621145433528"><ele>103.0</ele><time>2026-04-26T06:18:46.999Z</time></trkpt><trkpt lat="45.1927688838992" lon="9.432710691307086"><ele>103.0</ele><time>2026-04-26T06:18:47.999Z</time></trkpt><trkpt lat="45.19276635261139" lon="9.432816026407837"><ele>103.0</ele><time>2026-04-26T06:18:48.999Z</time></trkpt><trkpt lat="45.19276431344494" lon="9.432912660989729"><ele>103.00000000000001</ele><time>2026-04-26T06:18:49.999Z</time></trkpt><trkpt lat="45.192768147685626" lon="9.433014794395811"><ele>103.0</ele><time>2026-04-26T06:18:50.999Z</time></trkpt><trkpt lat="45.192754596881194" lon="9.433186871998798"><ele>103.4</ele><time>2026-04-26T06:18:52.999Z</time></trkpt><trkpt lat="45.192751351665045" lon="9.433277133674121"><ele>103.80000000000001</ele><time>2026-04-26T06:18:53.999Z</time></trkpt><trkpt lat="45.19275115213701" lon="9.433367203346055"><ele>104.2</ele><time>2026-04-26T06:18:54.999Z</time></trkpt><trkpt lat="45.1927441603058" lon="9.433530113507235"><ele>104.6</ele><time>2026-04-26T06:18:56.999Z</time></trkpt><trkpt lat="45.192743596543686" lon="9.433691026358506"><ele>105.0</ele><time>2026-04-26T06:18:58.999Z</time></trkpt><trkpt lat="45.19273198706796" lon="9.43383806037135"><ele>105.8</ele><time>2026-04-26T06:19:00.999Z</time></trkpt><trkpt lat="45.19271597538897" lon="9.43398659001689"><ele>106.6</ele><time>2026-04-26T06:19:02.998Z</time></trkpt><trkpt lat="45.19269675326332" lon="9.434134251596172"><ele>107.4</ele><time>2026-04-26T06:19:04.998Z</time></trkpt><trkpt lat="45.19267394729564" lon="9.43429167246309"><ele>108.2</ele><time>2026-04-26T06:19:06.998Z</time></trkpt><trkpt lat="45.192651635765394" lon="9.434432718145613"><ele>109.0</ele><time>2026-04-26T06:19:08.998Z</time></trkpt><trkpt lat="45.192637715840604" lon="9.434567511320882"><ele>109.00000000000001</ele><time>2026-04-26T06:19:10.998Z</time></trkpt><trkpt lat="45.19262870633788" lon="9.43469243989225"><ele>109.0</ele><time>2026-04-26T06:19:12.998Z</time></trkpt><trkpt lat="45.19262340534543" lon="9.434786060878821"><ele>109.0</ele><time>2026-04-26T06:19:14.998Z</time></trkpt><trkpt lat="45.192598519028664" lon="9.434936868305563"><ele>109.0</ele><time>2026-04-26T06:19:17.998Z</time></trkpt><trkpt lat="45.19259166881908" lon="9.435050708612408"><ele>109.00000000000001</ele><time>2026-04-26T06:19:19.998Z</time></trkpt><trkpt lat="45.19258537917867" lon="9.435176303280366"><ele>109.0</ele><time>2026-04-26T06:19:21.998Z</time></trkpt><trkpt lat="45.192564561631194" lon="9.43530257859684"><ele>109.00000000000001</ele><time>2026-04-26T06:19:23.998Z</time></trkpt><trkpt lat="45.19254547804568" lon="9.435407409830347"><ele>109.0</ele><time>2026-04-26T06:19:25.998Z</time></trkpt><trkpt lat="45.19252850182819" lon="9.43549471121962"><ele>109.0</ele><time>2026-04-26T06:19:28.998Z</time></trkpt><trkpt lat="45.1925513031175" lon="9.435580028550355"><ele>109.0</ele><time>2026-04-26T06:19:57.998Z</time></trkpt><trkpt lat="45.192615073636475" lon="9.435617282844426"><ele>109.00000000000001</ele><time>2026-04-26T06:19:59.998Z</time></trkpt><trkpt lat="45.19270932425016" lon="9.435637143946089"><ele>109.0</ele><time>2026-04-26T06:20:01.998Z</time></trkpt><trkpt lat="45.19281681441262" lon="9.435670907435647"><ele>109.16666666666667</ele><time>2026-04-26T06:20:03.998Z</time></trkpt><trkpt lat="45.19287962231856" lon="9.435699585132935"><ele>109.33333333333334</ele><time>2026-04-26T06:20:04.998Z</time></trkpt><trkpt lat="45.192945465646936" lon="9.435734720064001"><ele>109.5</ele><time>2026-04-26T06:20:05.998Z</time></trkpt><trkpt lat="45.19300444261179" lon="9.435766330556435"><ele>109.66666666666666</ele><time>2026-04-26T06:20:06.998Z</time></trkpt><trkpt lat="45.193114650770475" lon="9.43580875681747"><ele>109.83333333333333</ele><time>2026-04-26T06:20:08.998Z</time></trkpt><trkpt lat="45.193198754084214" lon="9.435851354573233"><ele>110.0</ele><time>2026-04-26T06:20:10.998Z</time></trkpt><trkpt lat="45.19321518618381" lon="9.435985363402754"><ele>110.0</ele><time>2026-04-26T06:20:14.998Z</time></trkpt><trkpt lat="45.193163372520054" lon="9.436115363499196"><ele>110.0</ele><time>2026-04-26T06:20:16.998Z</time></trkpt><trkpt lat="45.19312172478098" lon="9.436270173821326"><ele>110.0</ele><time>2026-04-26T06:20:18.998Z</time></trkpt><trkpt lat="45.19307516519607" lon="9.436421000741436"><ele>110.0</ele><time>2026-04-26T06:20:20.998Z</time></trkpt><trkpt lat="45.19304252346566" lon="9.436569994083381"><ele>110.0</ele><time>2026-04-26T06:20:22.998Z</time></trkpt><trkpt lat="45.193008038612604" lon="9.436721845863097"><ele>110.2</ele><time>2026-04-26T06:20:24.998Z</time></trkpt><trkpt lat="45.19297430836457" lon="9.436859575555701"><ele>110.4</ele><time>2026-04-26T06:20:26.998Z</time></trkpt><trkpt lat="45.19294009570177" lon="9.436993328886825"><ele>110.6</ele><time>2026-04-26T06:20:28.998Z</time></trkpt><trkpt lat="45.19289034722523" lon="9.437084713008872"><ele>110.8</ele><time>2026-04-26T06:20:30.998Z</time></trkpt><trkpt lat="45.19282779111986" lon="9.437202705813478"><ele>111.0</ele><time>2026-04-26T06:20:32.998Z</time></trkpt><trkpt lat="45.19276928002581" lon="9.437334822682589"><ele>111.4</ele><time>2026-04-26T06:20:34.998Z</time></trkpt><trkpt lat="45.19273086070212" lon="9.437451651702858"><ele>111.8</ele><time>2026-04-26T06:20:36.998Z</time></trkpt><trkpt lat="45.19267230403024" lon="9.437598590940617"><ele>112.20000000000002</ele><time>2026-04-26T06:20:38.998Z</time></trkpt><trkpt lat="45.192642043375926" lon="9.437734539967101"><ele>112.60000000000001</ele><time>2026-04-26T06:20:40.998Z</time></trkpt><trkpt lat="45.19261127393586" lon="9.437844211182869"><ele>113.0</ele><time>2026-04-26T06:20:42.998Z</time></trkpt><trkpt lat="45.192585651304384" lon="9.437980381562824"><ele>113.4</ele><time>2026-04-26T06:20:44.998Z</time></trkpt><trkpt lat="45.19255833204989" lon="9.438137195099747"><ele>113.80000000000001</ele><time>2026-04-26T06:20:46.998Z</time></trkpt><trkpt lat="45.19252629276254" lon="9.438284577812855"><ele>114.2</ele><time>2026-04-26T06:20:48.998Z</time></trkpt><trkpt lat="45.19249444539104" lon="9.438429929811855"><ele>114.6</ele><time>2026-04-26T06:20:50.998Z</time></trkpt><trkpt lat="45.192466246564585" lon="9.438566368355733"><ele>115.0</ele><time>2026-04-26T06:20:52.998Z</time></trkpt><trkpt lat="45.19244594159253" lon="9.438671425721346"><ele>115.00000000000001</ele><time>2026-04-26T06:20:54.998Z</time></trkpt><trkpt lat="45.19241245371498" lon="9.438782597333901"><ele>115.0</ele><time>2026-04-26T06:20:57.998Z</time></trkpt><trkpt lat="45.192334534663296" lon="9.438856407257425"><ele>115.0</ele><time>2026-04-26T06:21:09.998Z</time></trkpt><trkpt lat="45.19228089569623" lon="9.438903899421621"><ele>115.0</ele><time>2026-04-26T06:21:15.998Z</time></trkpt><trkpt lat="45.192223536684" lon="9.43883437673985"><ele>115.00000000000001</ele><time>2026-04-26T06:21:40.997Z</time></trkpt><trkpt lat="45.192169052966484" lon="9.438786089817789"><ele>115.0</ele><time>2026-04-26T06:21:54.997Z</time></trkpt><trkpt lat="45.1921028382944" lon="9.438750251588697"><ele>114.85714285714283</ele><time>2026-04-26T06:22:00.997Z</time></trkpt><trkpt lat="45.19210568407061" lon="9.438866573876833"><ele>114.71428571428571</ele><time>2026-04-26T06:22:34.997Z</time></trkpt><trkpt lat="45.19210495689904" lon="9.438766559448585"><ele>114.57142857142856</ele><time>2026-04-26T06:24:43.996Z</time></trkpt><trkpt lat="45.19217545927801" lon="9.438753646433653"><ele>114.42857142857142</ele><time>2026-04-26T06:24:48.996Z</time></trkpt><trkpt lat="45.1922117042086" lon="9.43884634776151"><ele>114.28571428571428</ele><time>2026-04-26T06:24:54.996Z</time></trkpt><trkpt lat="45.19221849977764" lon="9.43893955659494"><ele>114.14285714285714</ele><time>2026-04-26T06:25:06.996Z</time></trkpt><trkpt lat="45.19223548278228" lon="9.439043637596757"><ele>114.0</ele><time>2026-04-26T06:25:20.996Z</time></trkpt><trkpt lat="45.192304944586354" lon="9.438990749709559"><ele>114.0</ele><time>2026-04-26T06:27:45.995Z</time></trkpt><trkpt lat="45.192358348313576" lon="9.438931131509204"><ele>114.0</ele><time>2026-04-26T06:27:48.995Z</time></trkpt><trkpt lat="45.19238675910057" lon="9.438812710856086"><ele>114.0</ele><time>2026-04-26T06:27:50.995Z</time></trkpt><trkpt lat="45.19240632471391" lon="9.438687649263402"><ele>114.0</ele><time>2026-04-26T06:27:52.995Z</time></trkpt><trkpt lat="45.19242059644142" lon="9.438558323507564"><ele>114.0</ele><time>2026-04-26T06:27:54.995Z</time></trkpt><trkpt lat="45.19244429224707" lon="9.438430489284015"><ele>114.0</ele><time>2026-04-26T06:27:56.995Z</time></trkpt><trkpt lat="45.192463733797524" lon="9.438314837765095"><ele>114.2</ele><time>2026-04-26T06:27:58.995Z</time></trkpt><trkpt lat="45.19248688215122" lon="9.438188099581108"><ele>114.4</ele><time>2026-04-26T06:28:00.995Z</time></trkpt><trkpt lat="45.19251566664548" lon="9.438065979778715"><ele>114.6</ele><time>2026-04-26T06:28:02.995Z</time></trkpt><trkpt lat="45.19255219905376" lon="9.437928740839327"><ele>114.8</ele><time>2026-04-26T06:28:05.995Z</time></trkpt><trkpt lat="45.19257337465091" lon="9.437833456030187"><ele>115.0</ele><time>2026-04-26T06:28:07.995Z</time></trkpt><trkpt lat="45.19262874736285" lon="9.437701866393372"><ele>114.66666666666667</ele><time>2026-04-26T06:28:09.995Z</time></trkpt><trkpt lat="45.192668657704914" lon="9.43761274234291"><ele>114.33333333333334</ele><time>2026-04-26T06:28:10.995Z</time></trkpt><trkpt lat="45.19270186711276" lon="9.437530849423549"><ele>114.0</ele><time>2026-04-26T06:28:11.995Z</time></trkpt><trkpt lat="45.192739701723674" lon="9.437449228740018"><ele>113.66666666666666</ele><time>2026-04-26T06:28:12.995Z</time></trkpt><trkpt lat="45.192781030641804" lon="9.437348934153897"><ele>113.33333333333333</ele><time>2026-04-26T06:28:13.995Z</time></trkpt><trkpt lat="45.19281974035456" lon="9.437245758196674"><ele>113.0</ele><time>2026-04-26T06:28:14.995Z</time></trkpt><trkpt lat="45.19287499846127" lon="9.437137314159985"><ele>112.66666666666666</ele><time>2026-04-26T06:28:16.995Z</time></trkpt><trkpt lat="45.19292714823759" lon="9.436975593649466"><ele>112.33333333333333</ele><time>2026-04-26T06:28:18.995Z</time></trkpt><trkpt lat="45.192955920478894" lon="9.436892389605408"><ele>112.0</ele><time>2026-04-26T06:28:20.995Z</time></trkpt><trkpt lat="45.19298093730508" lon="9.436809263614467"><ele>111.66666666666666</ele><time>2026-04-26T06:28:21.995Z</time></trkpt><trkpt lat="45.19300748062217" lon="9.436717574388425"><ele>111.33333333333333</ele><time>2026-04-26T06:28:22.995Z</time></trkpt><trkpt lat="45.19303296436262" lon="9.4365903476622"><ele>111.0</ele><time>2026-04-26T06:28:23.995Z</time></trkpt><trkpt lat="45.19306241147091" lon="9.436498136189378"><ele>111.0</ele><time>2026-04-26T06:28:24.995Z</time></trkpt><trkpt lat="45.19311333346041" lon="9.436344883886944"><ele>111.0</ele><time>2026-04-26T06:28:26.995Z</time></trkpt><trkpt lat="45.1931442796799" lon="9.436236298926849"><ele>111.0</ele><time>2026-04-26T06:28:28.995Z</time></trkpt><trkpt lat="45.19317370252817" lon="9.436141033142526"><ele>111.0</ele><time>2026-04-26T06:28:30.995Z</time></trkpt><trkpt lat="45.19320124001732" lon="9.436055362391725"><ele>111.0</ele><time>2026-04-26T06:28:32.995Z</time></trkpt><trkpt lat="45.19323416922669" lon="9.435963287418549"><ele>111.0</ele><time>2026-04-26T06:28:35.995Z</time></trkpt><trkpt lat="45.193332340083046" lon="9.435933276691422"><ele>110.8</ele><time>2026-04-26T06:28:38.995Z</time></trkpt><trkpt lat="45.1934304619299" lon="9.435938183843229"><ele>110.6</ele><time>2026-04-26T06:28:40.995Z</time></trkpt><trkpt lat="45.193524272131334" lon="9.435949013453174"><ele>110.4</ele><time>2026-04-26T06:28:42.995Z</time></trkpt><trkpt lat="45.19360743735863" lon="9.435989002304353"><ele>110.2</ele><time>2026-04-26T06:28:44.995Z</time></trkpt><trkpt lat="45.1936976457402" lon="9.435994134893175"><ele>110.0</ele><time>2026-04-26T06:28:46.995Z</time></trkpt><trkpt lat="45.19379482049613" lon="9.436019326682818"><ele>110.0</ele><time>2026-04-26T06:28:48.995Z</time></trkpt><trkpt lat="45.193911567759564" lon="9.43604545880581"><ele>110.0</ele><time>2026-04-26T06:28:50.994Z</time></trkpt><trkpt lat="45.19401551743195" lon="9.436098543240956"><ele>110.0</ele><time>2026-04-26T06:28:52.994Z</time></trkpt><trkpt lat="45.19407784020253" lon="9.43611967783772"><ele>110.0</ele><time>2026-04-26T06:28:53.994Z</time></trkpt><trkpt lat="45.19415488283792" lon="9.4361395434497"><ele>110.0</ele><time>2026-04-26T06:28:54.994Z</time></trkpt><trkpt lat="45.194234531757786" lon="9.436179990449894"><ele>109.49999999999999</ele><time>2026-04-26T06:28:55.994Z</time></trkpt><trkpt lat="45.19430806497254" lon="9.436215891889711"><ele>109.0</ele><time>2026-04-26T06:28:56.994Z</time></trkpt><trkpt lat="45.194371624706235" lon="9.436244771381775"><ele>108.5</ele><time>2026-04-26T06:28:57.994Z</time></trkpt><trkpt lat="45.19443653195029" lon="9.436269786602592"><ele>108.0</ele><time>2026-04-26T06:28:58.994Z</time></trkpt><trkpt lat="45.19451640666993" lon="9.43628471498668"><ele>107.49999999999999</ele><time>2026-04-26T06:28:59.994Z</time></trkpt><trkpt lat="45.194597248309364" lon="9.436319083541564"><ele>107.0</ele><time>2026-04-26T06:29:00.994Z</time></trkpt><trkpt lat="45.19467050392477" lon="9.436362343298589"><ele>106.99999999999999</ele><time>2026-04-26T06:29:01.994Z</time></trkpt><trkpt lat="45.19474989165771" lon="9.436422735594345"><ele>107.0</ele><time>2026-04-26T06:29:02.994Z</time></trkpt><trkpt lat="45.19482683438063" lon="9.43645757760363"><ele>107.0</ele><time>2026-04-26T06:29:03.994Z</time></trkpt><trkpt lat="45.19490259075886" lon="9.436506217863535"><ele>107.0</ele><time>2026-04-26T06:29:04.994Z</time></trkpt><trkpt lat="45.194976842914485" lon="9.436564951254455"><ele>106.99999999999999</ele><time>2026-04-26T06:29:05.994Z</time></trkpt><trkpt lat="45.1950458554588" lon="9.436603334569044"><ele>107.0</ele><time>2026-04-26T06:29:06.994Z</time></trkpt><trkpt lat="45.19510435684153" lon="9.436650603412163"><ele>106.49999999999999</ele><time>2026-04-26T06:29:07.994Z</time></trkpt><trkpt lat="45.19518135237519" lon="9.436694541103599"><ele>106.0</ele><time>2026-04-26T06:29:08.994Z</time></trkpt><trkpt lat="45.19525686928078" lon="9.436742617149475"><ele>105.5</ele><time>2026-04-26T06:29:09.994Z</time></trkpt><trkpt lat="45.19534451806872" lon="9.436785232636284"><ele>105.0</ele><time>2026-04-26T06:29:10.994Z</time></trkpt><trkpt lat="45.19542446820301" lon="9.43683397088228"><ele>104.49999999999999</ele><time>2026-04-26T06:29:11.994Z</time></trkpt><trkpt lat="45.19549979006718" lon="9.43687625627413"><ele>104.0</ele><time>2026-04-26T06:29:12.994Z</time></trkpt><trkpt lat="45.195571979152994" lon="9.436917586546212"><ele>103.99999999999999</ele><time>2026-04-26T06:29:13.994Z</time></trkpt><trkpt lat="45.19566104866198" lon="9.436946208470657"><ele>104.0</ele><time>2026-04-26T06:29:14.994Z</time></trkpt><trkpt lat="45.19574150638139" lon="9.436962961981118"><ele>104.0</ele><time>2026-04-26T06:29:15.994Z</time></trkpt><trkpt lat="45.19581513029035" lon="9.436963874134037"><ele>104.0</ele><time>2026-04-26T06:29:16.994Z</time></trkpt><trkpt lat="45.1958810974442" lon="9.436954728481176"><ele>103.99999999999999</ele><time>2026-04-26T06:29:17.994Z</time></trkpt><trkpt lat="45.195953235835525" lon="9.436950987857337"><ele>104.0</ele><time>2026-04-26T06:29:18.994Z</time></trkpt><trkpt lat="45.19604034916019" lon="9.43693932684743"><ele>104.16666666666666</ele><time>2026-04-26T06:29:19.994Z</time></trkpt><trkpt lat="45.19612026797949" lon="9.436950207889094"><ele>104.33333333333333</ele><time>2026-04-26T06:29:20.994Z</time></trkpt><trkpt lat="45.19619912443908" lon="9.436942418561127"><ele>104.5</ele><time>2026-04-26T06:29:21.994Z</time></trkpt><trkpt lat="45.19626968624828" lon="9.436936319516638"><ele>104.66666666666666</ele><time>2026-04-26T06:29:22.994Z</time></trkpt><trkpt lat="45.1963413154722" lon="9.436930876975207"><ele>104.83333333333333</ele><time>2026-04-26T06:29:23.994Z</time></trkpt><trkpt lat="45.19646470970329" lon="9.436921300077922"><ele>105.0</ele><time>2026-04-26T06:29:25.994Z</time></trkpt><trkpt lat="45.196532986422056" lon="9.436928992676693"><ele>104.5</ele><time>2026-04-26T06:29:26.994Z</time></trkpt><trkpt lat="45.19661201692631" lon="9.436931567393284"><ele>104.0</ele><time>2026-04-26T06:29:27.994Z</time></trkpt><trkpt lat="45.19670157660454" lon="9.436925101609345"><ele>103.5</ele><time>2026-04-26T06:29:28.994Z</time></trkpt><trkpt lat="45.19678860668533" lon="9.436930333647595"><ele>103.0</ele><time>2026-04-26T06:29:29.994Z</time></trkpt><trkpt lat="45.19686931712434" lon="9.436936728157837"><ele>102.5</ele><time>2026-04-26T06:29:30.994Z</time></trkpt><trkpt lat="45.19694750676702" lon="9.436937674492286"><ele>102.0</ele><time>2026-04-26T06:29:31.994Z</time></trkpt><trkpt lat="45.19703272464997" lon="9.436932230954858"><ele>102.0</ele><time>2026-04-26T06:29:32.994Z</time></trkpt><trkpt lat="45.19711739144965" lon="9.436934711976859"><ele>102.0</ele><time>2026-04-26T06:29:33.994Z</time></trkpt><trkpt lat="45.1971977501667" lon="9.436928366865427"><ele>102.0</ele><time>2026-04-26T06:29:34.994Z</time></trkpt><trkpt lat="45.19727904857791" lon="9.436920830140458"><ele>102.0</ele><time>2026-04-26T06:29:35.994Z</time></trkpt><trkpt lat="45.197356962935466" lon="9.436926518681364"><ele>102.0</ele><time>2026-04-26T06:29:36.994Z</time></trkpt><trkpt lat="45.19743798079404" lon="9.43691483306774"><ele>102.0</ele><time>2026-04-26T06:29:37.994Z</time></trkpt><trkpt lat="45.19751627986246" lon="9.43691016263212"><ele>101.5</ele><time>2026-04-26T06:29:38.994Z</time></trkpt><trkpt lat="45.19760620646008" lon="9.436908435388515"><ele>101.0</ele><time>2026-04-26T06:29:39.994Z</time></trkpt><trkpt lat="45.19769685062365" lon="9.436909720964685"><ele>100.5</ele><time>2026-04-26T06:29:40.994Z</time></trkpt><trkpt lat="45.197776946724524" lon="9.436916685815039"><ele>100.0</ele><time>2026-04-26T06:29:41.994Z</time></trkpt><trkpt lat="45.19785695187765" lon="9.43692742537091"><ele>99.5</ele><time>2026-04-26T06:29:42.994Z</time></trkpt><trkpt lat="45.19793329299119" lon="9.436920092750118"><ele>99.0</ele><time>2026-04-26T06:29:43.994Z</time></trkpt><trkpt lat="45.198018682948835" lon="9.43692121186492"><ele>99.0</ele><time>2026-04-26T06:29:44.994Z</time></trkpt><trkpt lat="45.19810018486585" lon="9.436914458510476"><ele>99.0</ele><time>2026-04-26T06:29:45.994Z</time></trkpt><trkpt lat="45.19818226922323" lon="9.436911435799828"><ele>99.0</ele><time>2026-04-26T06:29:46.994Z</time></trkpt><trkpt lat="45.198262902809404" lon="9.436901221977175"><ele>99.0</ele><time>2026-04-26T06:29:47.994Z</time></trkpt><trkpt lat="45.198349209920835" lon="9.436888316740392"><ele>99.0</ele><time>2026-04-26T06:29:48.994Z</time></trkpt><trkpt lat="45.198428964624426" lon="9.436877863408876"><ele>99.0</ele><time>2026-04-26T06:29:49.994Z</time></trkpt><trkpt lat="45.19850064530124" lon="9.436863941765475"><ele>98.5</ele><time>2026-04-26T06:29:50.994Z</time></trkpt><trkpt lat="45.19857677612857" lon="9.436843896000571"><ele>98.0</ele><time>2026-04-26T06:29:51.994Z</time></trkpt><trkpt lat="45.198648001425" lon="9.436815025679735"><ele>97.5</ele><time>2026-04-26T06:29:52.994Z</time></trkpt><trkpt lat="45.19870864489294" lon="9.43678496846504"><ele>97.0</ele><time>2026-04-26T06:29:53.994Z</time></trkpt><trkpt lat="45.19877451881999" lon="9.436763178245531"><ele>96.5</ele><time>2026-04-26T06:29:54.994Z</time></trkpt><trkpt lat="45.198881503630965" lon="9.436733563337373"><ele>96.0</ele><time>2026-04-26T06:29:56.994Z</time></trkpt><trkpt lat="45.19896367075705" lon="9.43678113478869"><ele>96.0</ele><time>2026-04-26T06:29:58.994Z</time></trkpt><trkpt lat="45.198993278013" lon="9.436871122422504"><ele>96.0</ele><time>2026-04-26T06:30:00.994Z</time></trkpt><trkpt lat="45.19904714054556" lon="9.436972367202337"><ele>96.0</ele><time>2026-04-26T06:30:02.994Z</time></trkpt><trkpt lat="45.19909728097945" lon="9.437055260724332"><ele>96.0</ele><time>2026-04-26T06:30:04.994Z</time></trkpt><trkpt lat="45.19914538424545" lon="9.437132321695085"><ele>96.0</ele><time>2026-04-26T06:30:06.994Z</time></trkpt><trkpt lat="45.19918911862199" lon="9.437226557492776"><ele>96.0</ele><time>2026-04-26T06:30:08.994Z</time></trkpt><trkpt lat="45.19923924762369" lon="9.437333365604983"><ele>95.83333333333333</ele><time>2026-04-26T06:30:10.994Z</time></trkpt><trkpt lat="45.19930183006427" lon="9.437436534993425"><ele>95.66666666666667</ele><time>2026-04-26T06:30:12.994Z</time></trkpt><trkpt lat="45.19935030303558" lon="9.437533659419108"><ele>95.5</ele><time>2026-04-26T06:30:14.994Z</time></trkpt><trkpt lat="45.199391174475124" lon="9.43761194971861"><ele>95.33333333333334</ele><time>2026-04-26T06:30:16.994Z</time></trkpt><trkpt lat="45.199433263083094" lon="9.43768342592846"><ele>95.16666666666667</ele><time>2026-04-26T06:30:18.994Z</time></trkpt><trkpt lat="45.19947251202368" lon="9.437776169764865"><ele>95.0</ele><time>2026-04-26T06:30:21.994Z</time></trkpt><trkpt lat="45.19951282572852" lon="9.4378951558256"><ele>95.0</ele><time>2026-04-26T06:30:24.994Z</time></trkpt><trkpt lat="45.19953693771395" lon="9.437984956990912"><ele>95.0</ele><time>2026-04-26T06:30:26.994Z</time></trkpt><trkpt lat="45.19957928688308" lon="9.438072737176277"><ele>95.0</ele><time>2026-04-26T06:30:28.994Z</time></trkpt><trkpt lat="45.1996126049118" lon="9.438151102739145"><ele>95.0</ele><time>2026-04-26T06:30:30.994Z</time></trkpt><trkpt lat="45.19964734975181" lon="9.43825814661464"><ele>95.0</ele><time>2026-04-26T06:30:32.994Z</time></trkpt><trkpt lat="45.19969648896983" lon="9.438376378812107"><ele>95.0</ele><time>2026-04-26T06:30:36.994Z</time></trkpt><trkpt lat="45.19972558705986" lon="9.438474465495412"><ele>95.0</ele><time>2026-04-26T06:30:37.994Z</time></trkpt><trkpt lat="45.1997601874197" lon="9.438555886827357"><ele>95.0</ele><time>2026-04-26T06:30:38.994Z</time></trkpt><trkpt lat="45.19981260562818" lon="9.438672509777048"><ele>95.0</ele><time>2026-04-26T06:30:40.994Z</time></trkpt><trkpt lat="45.19987428045082" lon="9.438802718641021"><ele>95.0</ele><time>2026-04-26T06:30:42.994Z</time></trkpt><trkpt lat="45.19991996461817" lon="9.438910417704149"><ele>95.0</ele><time>2026-04-26T06:30:44.994Z</time></trkpt><trkpt lat="45.19998517423745" lon="9.439027190612977"><ele>93.83333333333334</ele><time>2026-04-26T06:30:46.994Z</time></trkpt><trkpt lat="45.20002232369035" lon="9.43910452757566"><ele>92.66666666666667</ele><time>2026-04-26T06:30:47.994Z</time></trkpt><trkpt lat="45.20006201031838" lon="9.439253091384852"><ele>91.5</ele><time>2026-04-26T06:30:49.994Z</time></trkpt><trkpt lat="45.20006671516864" lon="9.439383841786857"><ele>90.33333333333333</ele><time>2026-04-26T06:30:51.994Z</time></trkpt><trkpt lat="45.200108069087676" lon="9.439509980252923"><ele>89.16666666666666</ele><time>2026-04-26T06:30:53.994Z</time></trkpt><trkpt lat="45.2001219402475" lon="9.439618234068757"><ele>88.0</ele><time>2026-04-26T06:30:55.994Z</time></trkpt><trkpt lat="45.200158649532206" lon="9.439723649792208"><ele>87.83333333333333</ele><time>2026-04-26T06:30:57.994Z</time></trkpt><trkpt lat="45.20018101496847" lon="9.439816722476108"><ele>87.66666666666666</ele><time>2026-04-26T06:30:59.994Z</time></trkpt><trkpt lat="45.20022922133879" lon="9.439922704284687"><ele>87.5</ele><time>2026-04-26T06:31:01.994Z</time></trkpt><trkpt lat="45.20026885953595" lon="9.44000766686227"><ele>87.33333333333333</ele><time>2026-04-26T06:31:03.994Z</time></trkpt><trkpt lat="45.20030820270446" lon="9.440113891793569"><ele>87.16666666666667</ele><time>2026-04-26T06:31:06.994Z</time></trkpt><trkpt lat="45.20031670875063" lon="9.440249548731698"><ele>87.0</ele><time>2026-04-26T06:31:09.994Z</time></trkpt><trkpt lat="45.20030596532616" lon="9.4403385886094"><ele>87.0</ele><time>2026-04-26T06:31:11.994Z</time></trkpt><trkpt lat="45.20027554579356" lon="9.44042899014211"><ele>87.0</ele><time>2026-04-26T06:31:13.994Z</time></trkpt><trkpt lat="45.20026950664092" lon="9.440534831239193"><ele>87.0</ele><time>2026-04-26T06:31:15.993Z</time></trkpt><trkpt lat="45.20027628510049" lon="9.440675822127659"><ele>87.0</ele><time>2026-04-26T06:31:17.993Z</time></trkpt><trkpt lat="45.200287136648264" lon="9.440789979110448"><ele>87.0</ele><time>2026-04-26T06:31:19.993Z</time></trkpt><trkpt lat="45.20029272658555" lon="9.440884845138376"><ele>87.0</ele><time>2026-04-26T06:31:21.993Z</time></trkpt><trkpt lat="45.2003070450505" lon="9.441012734747723"><ele>86.5</ele><time>2026-04-26T06:31:24.993Z</time></trkpt><trkpt lat="45.20033555866877" lon="9.441123070540993"><ele>86.0</ele><time>2026-04-26T06:31:26.993Z</time></trkpt><trkpt lat="45.2003496680558" lon="9.441221142088445"><ele>85.5</ele><time>2026-04-26T06:31:28.993Z</time></trkpt><trkpt lat="45.20037521276169" lon="9.441331677703962"><ele>85.0</ele><time>2026-04-26T06:31:31.993Z</time></trkpt><trkpt lat="45.200401867614936" lon="9.44143813628842"><ele>84.5</ele><time>2026-04-26T06:31:34.993Z</time></trkpt><trkpt lat="45.20044197448076" lon="9.441553478870333"><ele>84.0</ele><time>2026-04-26T06:31:36.993Z</time></trkpt><trkpt lat="45.20050038708203" lon="9.441666763638073"><ele>83.16666666666667</ele><time>2026-04-26T06:31:38.993Z</time></trkpt><trkpt lat="45.200558011578295" lon="9.441776287318726"><ele>82.33333333333333</ele><time>2026-04-26T06:31:40.993Z</time></trkpt><trkpt lat="45.20059659240659" lon="9.441861077087033"><ele>81.5</ele><time>2026-04-26T06:31:43.993Z</time></trkpt><trkpt lat="45.2006305326791" lon="9.441955455136554"><ele>80.66666666666666</ele><time>2026-04-26T06:31:45.993Z</time></trkpt><trkpt lat="45.20062364742722" lon="9.442072318953555"><ele>79.83333333333333</ele><time>2026-04-26T06:31:47.993Z</time></trkpt><trkpt lat="45.200595073656224" lon="9.44216686765705"><ele>79.0</ele><time>2026-04-26T06:31:49.993Z</time></trkpt><trkpt lat="45.20053372153288" lon="9.442253453911189"><ele>78.85714285714286</ele><time>2026-04-26T06:31:52.993Z</time></trkpt><trkpt lat="45.20047267327825" lon="9.442299686109328"><ele>78.71428571428572</ele><time>2026-04-26T06:31:54.993Z</time></trkpt><trkpt lat="45.2004007211373" lon="9.442347735617311"><ele>78.57142857142858</ele><time>2026-04-26T06:31:56.993Z</time></trkpt><trkpt lat="45.2003262326455" lon="9.442373788024417"><ele>78.42857142857143</ele><time>2026-04-26T06:31:58.993Z</time></trkpt><trkpt lat="45.20025955692913" lon="9.442395033967685"><ele>78.28571428571428</ele><time>2026-04-26T06:32:00.993Z</time></trkpt><trkpt lat="45.20019804482413" lon="9.442418612328009"><ele>78.14285714285715</ele><time>2026-04-26T06:32:02.993Z</time></trkpt><trkpt lat="45.20013597011538" lon="9.44243561377844"><ele>78.0</ele><time>2026-04-26T06:32:04.993Z</time></trkpt><trkpt lat="45.200050419262986" lon="9.442492314329469"><ele>78.0</ele><time>2026-04-26T06:32:07.993Z</time></trkpt><trkpt lat="45.19998506794532" lon="9.442568034246166"><ele>78.0</ele><time>2026-04-26T06:32:10.993Z</time></trkpt><trkpt lat="45.1999304080201" lon="9.442642744486806"><ele>78.0</ele><time>2026-04-26T06:32:13.993Z</time></trkpt><trkpt lat="45.19987343310018" lon="9.442707438433068"><ele>78.0</ele><time>2026-04-26T06:32:16.993Z</time></trkpt><trkpt lat="45.199821518186" lon="9.44278593834647"><ele>78.0</ele><time>2026-04-26T06:32:19.993Z</time></trkpt><trkpt lat="45.19980864021046" lon="9.44290243766568"><ele>78.0</ele><time>2026-04-26T06:32:21.993Z</time></trkpt><trkpt lat="45.19983113971145" lon="9.44302346045883"><ele>78.0</ele><time>2026-04-26T06:32:23.993Z</time></trkpt><trkpt lat="45.199820790930076" lon="9.443143929985126"><ele>78.0</ele><time>2026-04-26T06:32:25.993Z</time></trkpt><trkpt lat="45.19982122661504" lon="9.443258594719884"><ele>78.0</ele><time>2026-04-26T06:32:27.993Z</time></trkpt><trkpt lat="45.199832730068934" lon="9.443356968098657"><ele>78.0</ele><time>2026-04-26T06:32:29.993Z</time></trkpt><trkpt lat="45.199839448489605" lon="9.443468862443293"><ele>78.0</ele><time>2026-04-26T06:32:31.993Z</time></trkpt><trkpt lat="45.19985001473922" lon="9.443595702660293"><ele>78.0</ele><time>2026-04-26T06:32:34.993Z</time></trkpt><trkpt lat="45.1998568166981" lon="9.443693624290027"><ele>78.0</ele><time>2026-04-26T06:32:37.993Z</time></trkpt><trkpt lat="45.199863925101525" lon="9.443794178596878"><ele>78.0</ele><time>2026-04-26T06:32:40.993Z</time></trkpt><trkpt lat="45.199888134150285" lon="9.443885386361558"><ele>78.0</ele><time>2026-04-26T06:32:44.993Z</time></trkpt><trkpt lat="45.199901484714374" lon="9.443981775021472"><ele>78.0</ele><time>2026-04-26T06:32:50.993Z</time></trkpt><trkpt lat="45.199928295071786" lon="9.444072199096958"><ele>78.0</ele><time>2026-04-26T06:33:03.993Z</time></trkpt><trkpt lat="45.19992658300157" lon="9.44418323685501"><ele>78.0</ele><time>2026-04-26T06:33:10.993Z</time></trkpt><trkpt lat="45.19993771690443" lon="9.444311062236274"><ele>78.0</ele><time>2026-04-26T06:33:13.993Z</time></trkpt><trkpt lat="45.1999009007186" lon="9.444404381080641"><ele>77.85714285714286</ele><time>2026-04-26T06:33:15.993Z</time></trkpt><trkpt lat="45.19984932023932" lon="9.444484990133553"><ele>77.71428571428571</ele><time>2026-04-26T06:33:17.993Z</time></trkpt><trkpt lat="45.199806120137374" lon="9.444575201020946"><ele>77.57142857142857</ele><time>2026-04-26T06:33:19.993Z</time></trkpt><trkpt lat="45.199765492209295" lon="9.444665587904298"><ele>77.42857142857143</ele><time>2026-04-26T06:33:21.993Z</time></trkpt><trkpt lat="45.199727152364765" lon="9.444747793970176"><ele>77.28571428571428</ele><time>2026-04-26T06:33:23.993Z</time></trkpt><trkpt lat="45.199677712459234" lon="9.44481485483984"><ele>77.14285714285714</ele><time>2026-04-26T06:33:25.993Z</time></trkpt><trkpt lat="45.19965045575381" lon="9.444900612882149"><ele>77.0</ele><time>2026-04-26T06:33:27.993Z</time></trkpt><trkpt lat="45.199609716799664" lon="9.444979746484773"><ele>77.0</ele><time>2026-04-26T06:33:30.993Z</time></trkpt><trkpt lat="45.19957765569336" lon="9.445065405911357"><ele>77.0</ele><time>2026-04-26T06:33:37.993Z</time></trkpt><trkpt lat="45.19951968926322" lon="9.445102377266453"><ele>77.0</ele><time>2026-04-26T06:33:44.992Z</time></trkpt><trkpt lat="45.199463217470836" lon="9.445149860561472"><ele>77.0</ele><time>2026-04-26T06:33:48.992Z</time></trkpt><trkpt lat="45.19945273371779" lon="9.445257765351087"><ele>77.0</ele><time>2026-04-26T06:33:51.992Z</time></trkpt><trkpt lat="45.19949193197918" lon="9.445330984130669"><ele>77.0</ele><time>2026-04-26T06:33:53.992Z</time></trkpt><trkpt lat="45.19955772116151" lon="9.445412425343537"><ele>77.0</ele><time>2026-04-26T06:33:55.992Z</time></trkpt><trkpt lat="45.19962705697595" lon="9.445509246313474"><ele>75.8</ele><time>2026-04-26T06:33:57.992Z</time></trkpt><trkpt lat="45.1996975228532" lon="9.445617893057232"><ele>74.6</ele><time>2026-04-26T06:33:59.992Z</time></trkpt><trkpt lat="45.199773241920155" lon="9.445723183159359"><ele>73.39999999999999</ele><time>2026-04-26T06:34:01.992Z</time></trkpt><trkpt lat="45.19984848786965" lon="9.445836129582219"><ele>72.2</ele><time>2026-04-26T06:34:04.007Z</time></trkpt><trkpt lat="45.199929035323294" lon="9.445953040883563"><ele>71.0</ele><time>2026-04-26T06:34:06.007Z</time></trkpt><trkpt lat="45.20001218442554" lon="9.446062378360109"><ele>71.0</ele><time>2026-04-26T06:34:08.007Z</time></trkpt><trkpt lat="45.200092086552885" lon="9.446177100290662"><ele>71.0</ele><time>2026-04-26T06:34:10.007Z</time></trkpt><trkpt lat="45.200171180459975" lon="9.44627967722328"><ele>71.0</ele><time>2026-04-26T06:34:12.007Z</time></trkpt><trkpt lat="45.20025304068188" lon="9.44637238950767"><ele>71.0</ele><time>2026-04-26T06:34:14.007Z</time></trkpt><trkpt lat="45.20033085536137" lon="9.446465824960779"><ele>71.0</ele><time>2026-04-26T06:34:16.007Z</time></trkpt><trkpt lat="45.20042105459042" lon="9.446578996635377"><ele>70.75</ele><time>2026-04-26T06:34:18.007Z</time></trkpt><trkpt lat="45.200514068363674" lon="9.446683679750763"><ele>70.5</ele><time>2026-04-26T06:34:20.007Z</time></trkpt><trkpt lat="45.20060404275386" lon="9.446777617286344"><ele>70.25</ele><time>2026-04-26T06:34:22.007Z</time></trkpt><trkpt lat="45.20069031634715" lon="9.446878189585483"><ele>70.0</ele><time>2026-04-26T06:34:24.007Z</time></trkpt><trkpt lat="45.20074258355944" lon="9.447023500364839"><ele>69.8</ele><time>2026-04-26T06:34:26.007Z</time></trkpt><trkpt lat="45.200724578447364" lon="9.447185455484227"><ele>69.6</ele><time>2026-04-26T06:34:28.007Z</time></trkpt><trkpt lat="45.200689604187566" lon="9.447332467856906"><ele>69.4</ele><time>2026-04-26T06:34:30.007Z</time></trkpt><trkpt lat="45.20067025302736" lon="9.447491466637263"><ele>69.2</ele><time>2026-04-26T06:34:32.007Z</time></trkpt><trkpt lat="45.200660397323595" lon="9.447580630472844"><ele>69.0</ele><time>2026-04-26T06:34:33.007Z</time></trkpt><trkpt lat="45.200637049406645" lon="9.447754719274128"><ele>69.0</ele><time>2026-04-26T06:34:35.007Z</time></trkpt><trkpt lat="45.200618559188406" lon="9.447842942126007"><ele>69.0</ele><time>2026-04-26T06:34:36.007Z</time></trkpt><trkpt lat="45.20060368726271" lon="9.447935229785323"><ele>69.0</ele><time>2026-04-26T06:34:37.007Z</time></trkpt><trkpt lat="45.20059149683026" lon="9.448024544078944"><ele>69.0</ele><time>2026-04-26T06:34:38.007Z</time></trkpt><trkpt lat="45.20056650585647" lon="9.448202850071805"><ele>69.0</ele><time>2026-04-26T06:34:40.007Z</time></trkpt><trkpt lat="45.20054951101952" lon="9.448290808052183"><ele>69.0</ele><time>2026-04-26T06:34:41.007Z</time></trkpt><trkpt lat="45.200536166223635" lon="9.448383344820982"><ele>69.0</ele><time>2026-04-26T06:34:42.007Z</time></trkpt><trkpt lat="45.20052577344775" lon="9.4484774807618"><ele>69.0</ele><time>2026-04-26T06:34:43.007Z</time></trkpt><trkpt lat="45.20051688681297" lon="9.44856700651185"><ele>69.0</ele><time>2026-04-26T06:34:44.007Z</time></trkpt><trkpt lat="45.200486945388505" lon="9.448739455158375"><ele>69.0</ele><time>2026-04-26T06:34:46.007Z</time></trkpt><trkpt lat="45.200475132902255" lon="9.448827745165952"><ele>69.0</ele><time>2026-04-26T06:34:47.007Z</time></trkpt><trkpt lat="45.20045304819251" lon="9.449005156232106"><ele>69.0</ele><time>2026-04-26T06:34:49.007Z</time></trkpt><trkpt lat="45.200426706208596" lon="9.449168459216372"><ele>69.5</ele><time>2026-04-26T06:34:51.007Z</time></trkpt><trkpt lat="45.20040011144934" lon="9.449330574202778"><ele>70.0</ele><time>2026-04-26T06:34:53.007Z</time></trkpt><trkpt lat="45.200377144316064" lon="9.449494021848073"><ele>70.5</ele><time>2026-04-26T06:34:55.007Z</time></trkpt><trkpt lat="45.20035323422777" lon="9.449663440864413"><ele>71.0</ele><time>2026-04-26T06:34:57.007Z</time></trkpt><trkpt lat="45.20032883458538" lon="9.449833872406932"><ele>71.0</ele><time>2026-04-26T06:34:59.007Z</time></trkpt><trkpt lat="45.20030869223011" lon="9.450001964827225"><ele>71.0</ele><time>2026-04-26T06:35:01.007Z</time></trkpt><trkpt lat="45.200275529432695" lon="9.450166473230656"><ele>71.0</ele><time>2026-04-26T06:35:03.007Z</time></trkpt><trkpt lat="45.2002545370779" lon="9.450335931463718"><ele>71.0</ele><time>2026-04-26T06:35:05.007Z</time></trkpt><trkpt lat="45.20022948588514" lon="9.450498646181332"><ele>70.8</ele><time>2026-04-26T06:35:07.007Z</time></trkpt><trkpt lat="45.200206395321935" lon="9.450672005292924"><ele>70.6</ele><time>2026-04-26T06:35:09.007Z</time></trkpt><trkpt lat="45.200184062062384" lon="9.450843282214878"><ele>70.4</ele><time>2026-04-26T06:35:11.009Z</time></trkpt><trkpt lat="45.200177893789686" lon="9.450936105029399"><ele>70.2</ele><time>2026-04-26T06:35:12.009Z</time></trkpt><trkpt lat="45.20015719008164" lon="9.451109633471981"><ele>70.0</ele><time>2026-04-26T06:35:14.008Z</time></trkpt><trkpt lat="45.200140876886074" lon="9.451196133048875"><ele>70.0</ele><time>2026-04-26T06:35:15.009Z</time></trkpt><trkpt lat="45.200121487420176" lon="9.451356998362805"><ele>70.0</ele><time>2026-04-26T06:35:17.008Z</time></trkpt><trkpt lat="45.200095267254824" lon="9.451527956311738"><ele>70.0</ele><time>2026-04-26T06:35:19.009Z</time></trkpt><trkpt lat="45.20007331301893" lon="9.451688982635"><ele>70.0</ele><time>2026-04-26T06:35:21.008Z</time></trkpt><trkpt lat="45.20005259676857" lon="9.451859537212231"><ele>70.0</ele><time>2026-04-26T06:35:23.009Z</time></trkpt><trkpt lat="45.20004070635677" lon="9.451949966369593"><ele>70.0</ele><time>2026-04-26T06:35:24.009Z</time></trkpt><trkpt lat="45.20001269838822" lon="9.452117806894243"><ele>70.0</ele><time>2026-04-26T06:35:26.009Z</time></trkpt><trkpt lat="45.20000308437379" lon="9.452212044758173"><ele>70.0</ele><time>2026-04-26T06:35:27.009Z</time></trkpt><trkpt lat="45.199989102946944" lon="9.452308614930384"><ele>70.0</ele><time>2026-04-26T06:35:28.009Z</time></trkpt><trkpt lat="45.199975443194255" lon="9.452401825096501"><ele>70.0</ele><time>2026-04-26T06:35:29.009Z</time></trkpt><trkpt lat="45.199959626197774" lon="9.452492880117813"><ele>69.66666666666666</ele><time>2026-04-26T06:35:30.009Z</time></trkpt><trkpt lat="45.19994332969556" lon="9.45258371097554"><ele>69.33333333333333</ele><time>2026-04-26T06:35:31.009Z</time></trkpt><trkpt lat="45.199928472954134" lon="9.45267684915269"><ele>69.0</ele><time>2026-04-26T06:35:32.009Z</time></trkpt><trkpt lat="45.19992178110535" lon="9.45277183805923"><ele>68.66666666666667</ele><time>2026-04-26T06:35:33.009Z</time></trkpt><trkpt lat="45.19991269175056" lon="9.452861750614586"><ele>68.33333333333334</ele><time>2026-04-26T06:35:34.009Z</time></trkpt><trkpt lat="45.1998941088212" lon="9.453040062872502"><ele>68.0</ele><time>2026-04-26T06:35:36.009Z</time></trkpt><trkpt lat="45.19987263448774" lon="9.453214857719155"><ele>68.0</ele><time>2026-04-26T06:35:38.008Z</time></trkpt><trkpt lat="45.19985201420881" lon="9.45338699535946"><ele>68.0</ele><time>2026-04-26T06:35:40.008Z</time></trkpt><trkpt lat="45.19983432176029" lon="9.453560034049815"><ele>68.0</ele><time>2026-04-26T06:35:42.008Z</time></trkpt><trkpt lat="45.19980512461668" lon="9.453727924826637"><ele>68.0</ele><time>2026-04-26T06:35:44.008Z</time></trkpt><trkpt lat="45.19978537638899" lon="9.45388438473583"><ele>68.4</ele><time>2026-04-26T06:35:46.008Z</time></trkpt><trkpt lat="45.1997722099761" lon="9.454025812320552"><ele>68.8</ele><time>2026-04-26T06:35:48.008Z</time></trkpt><trkpt lat="45.19974359348122" lon="9.454173608700499"><ele>69.2</ele><time>2026-04-26T06:35:50.008Z</time></trkpt><trkpt lat="45.19972681156179" lon="9.454320719148212"><ele>69.6</ele><time>2026-04-26T06:35:52.008Z</time></trkpt><trkpt lat="45.19971285761364" lon="9.45447416438741"><ele>70.0</ele><time>2026-04-26T06:35:54.008Z</time></trkpt><trkpt lat="45.19969456014434" lon="9.45462319731724"><ele>70.2</ele><time>2026-04-26T06:35:56.008Z</time></trkpt><trkpt lat="45.199689805739645" lon="9.45476708880133"><ele>70.4</ele><time>2026-04-26T06:35:58.008Z</time></trkpt><trkpt lat="45.19967280737686" lon="9.45491158292454"><ele>70.6</ele><time>2026-04-26T06:36:00.008Z</time></trkpt><trkpt lat="45.19966112052614" lon="9.455037471849861"><ele>70.8</ele><time>2026-04-26T06:36:02.008Z</time></trkpt><trkpt lat="45.199644717980185" lon="9.4551670823134"><ele>71.0</ele><time>2026-04-26T06:36:04.008Z</time></trkpt><trkpt lat="45.199641512703934" lon="9.45529648169181"><ele>71.0</ele><time>2026-04-26T06:36:06.008Z</time></trkpt><trkpt lat="45.19962224320526" lon="9.455388698439572"><ele>71.0</ele><time>2026-04-26T06:36:08.008Z</time></trkpt><trkpt lat="45.199657487071526" lon="9.45547485410683"><ele>71.0</ele><time>2026-04-26T06:36:12.008Z</time></trkpt><trkpt lat="45.19973876756106" lon="9.455488466727433"><ele>71.0</ele><time>2026-04-26T06:36:14.008Z</time></trkpt><trkpt lat="45.199825476183136" lon="9.45550446871691"><ele>71.0</ele><time>2026-04-26T06:36:16.008Z</time></trkpt><trkpt lat="45.199913736376516" lon="9.455518591566445"><ele>71.0</ele><time>2026-04-26T06:36:18.008Z</time></trkpt><trkpt lat="45.199985868207825" lon="9.455568920658836"><ele>70.8</ele><time>2026-04-26T06:36:20.008Z</time></trkpt><trkpt lat="45.200005793055496" lon="9.455667660677296"><ele>70.6</ele><time>2026-04-26T06:36:22.008Z</time></trkpt><trkpt lat="45.199997026996996" lon="9.45580208182701"><ele>70.4</ele><time>2026-04-26T06:36:24.008Z</time></trkpt><trkpt lat="45.19998096152077" lon="9.455944284640976"><ele>70.2</ele><time>2026-04-26T06:36:26.008Z</time></trkpt><trkpt lat="45.199966884781134" lon="9.456083592098379"><ele>70.0</ele><time>2026-04-26T06:36:28.008Z</time></trkpt><trkpt lat="45.19996425659569" lon="9.456220940309102"><ele>70.16666666666666</ele><time>2026-04-26T06:36:30.008Z</time></trkpt><trkpt lat="45.1999621574636" lon="9.456321536631323"><ele>70.33333333333333</ele><time>2026-04-26T06:36:32.008Z</time></trkpt><trkpt lat="45.19995974556521" lon="9.456418974468423"><ele>70.5</ele><time>2026-04-26T06:36:34.008Z</time></trkpt><trkpt lat="45.199868968355574" lon="9.456432513766122"><ele>70.66666666666667</ele><time>2026-04-26T06:36:37.008Z</time></trkpt><trkpt lat="45.19976429616801" lon="9.456411431120769"><ele>70.83333333333334</ele><time>2026-04-26T06:36:39.008Z</time></trkpt><trkpt lat="45.1996548219817" lon="9.456400909992418"><ele>71.0</ele><time>2026-04-26T06:36:41.008Z</time></trkpt><trkpt lat="45.19956275739834" lon="9.456404411468766"><ele>71.0</ele><time>2026-04-26T06:36:43.008Z</time></trkpt><trkpt lat="45.199479739970045" lon="9.456453840056644"><ele>71.0</ele><time>2026-04-26T06:36:45.008Z</time></trkpt><trkpt lat="45.19943554940841" lon="9.456600300886047"><ele>71.0</ele><time>2026-04-26T06:36:47.008Z</time></trkpt><trkpt lat="45.19940633441436" lon="9.456750955408623"><ele>71.0</ele><time>2026-04-26T06:36:49.008Z</time></trkpt><trkpt lat="45.19936744004577" lon="9.456906145800417"><ele>71.0</ele><time>2026-04-26T06:36:51.008Z</time></trkpt><trkpt lat="45.19932694910061" lon="9.457060299763283"><ele>70.75</ele><time>2026-04-26T06:36:53.008Z</time></trkpt><trkpt lat="45.19929423081945" lon="9.457216052968619"><ele>70.5</ele><time>2026-04-26T06:36:55.008Z</time></trkpt><trkpt lat="45.199262905813384" lon="9.45736970958674"><ele>70.25</ele><time>2026-04-26T06:36:57.008Z</time></trkpt><trkpt lat="45.199232108478235" lon="9.457524749587897"><ele>70.0</ele><time>2026-04-26T06:36:59.008Z</time></trkpt><trkpt lat="45.1992051511422" lon="9.457681884711773"><ele>70.0</ele><time>2026-04-26T06:37:01.008Z</time></trkpt><trkpt lat="45.19916832756499" lon="9.457831941775662"><ele>70.0</ele><time>2026-04-26T06:37:03.008Z</time></trkpt><trkpt lat="45.19913240900521" lon="9.457978685006532"><ele>70.0</ele><time>2026-04-26T06:37:05.008Z</time></trkpt><trkpt lat="45.199094687500214" lon="9.458127692114969"><ele>70.0</ele><time>2026-04-26T06:37:07.008Z</time></trkpt><trkpt lat="45.19906542446968" lon="9.45827682223574"><ele>70.0</ele><time>2026-04-26T06:37:09.008Z</time></trkpt><trkpt lat="45.19903412177616" lon="9.458425291669386"><ele>70.0</ele><time>2026-04-26T06:37:11.008Z</time></trkpt><trkpt lat="45.19900216979638" lon="9.45857701120468"><ele>70.0</ele><time>2026-04-26T06:37:13.008Z</time></trkpt><trkpt lat="45.19897072310579" lon="9.458728590961218"><ele>70.0</ele><time>2026-04-26T06:37:15.008Z</time></trkpt><trkpt lat="45.198942961752394" lon="9.458883628242154"><ele>70.0</ele><time>2026-04-26T06:37:17.009Z</time></trkpt><trkpt lat="45.198914980150995" lon="9.459033181675368"><ele>70.0</ele><time>2026-04-26T06:37:19.009Z</time></trkpt><trkpt lat="45.19888216185396" lon="9.459182778008358"><ele>70.0</ele><time>2026-04-26T06:37:21.009Z</time></trkpt><trkpt lat="45.198846075351724" lon="9.459332654703882"><ele>70.0</ele><time>2026-04-26T06:37:23.01Z</time></trkpt><trkpt lat="45.19880489779884" lon="9.459480944135352"><ele>70.0</ele><time>2026-04-26T06:37:25.009Z</time></trkpt><trkpt lat="45.19876783137608" lon="9.45962798635946"><ele>70.0</ele><time>2026-04-26T06:37:27.009Z</time></trkpt><trkpt lat="45.19873722067506" lon="9.459752091504447"><ele>70.0</ele><time>2026-04-26T06:37:29.01Z</time></trkpt><trkpt lat="45.19870564429312" lon="9.45990514535576"><ele>70.0</ele><time>2026-04-26T06:37:31.009Z</time></trkpt><trkpt lat="45.19866781728987" lon="9.460050494728923"><ele>70.0</ele><time>2026-04-26T06:37:33.009Z</time></trkpt><trkpt lat="45.198632839802855" lon="9.460204798343797"><ele>70.0</ele><time>2026-04-26T06:37:35.009Z</time></trkpt><trkpt lat="45.198599294703335" lon="9.46035185697769"><ele>70.0</ele><time>2026-04-26T06:37:37.009Z</time></trkpt><trkpt lat="45.19856855558093" lon="9.46049787278164"><ele>70.0</ele><time>2026-04-26T06:37:39.009Z</time></trkpt><trkpt lat="45.19854017407107" lon="9.460648217949135"><ele>70.0</ele><time>2026-04-26T06:37:41.009Z</time></trkpt><trkpt lat="45.19853302777399" lon="9.460781080997158"><ele>70.0</ele><time>2026-04-26T06:37:43.009Z</time></trkpt><trkpt lat="45.19859286583209" lon="9.460867667098785"><ele>70.0</ele><time>2026-04-26T06:37:45.009Z</time></trkpt><trkpt lat="45.19869910067888" lon="9.460895072145858"><ele>70.0</ele><time>2026-04-26T06:37:47.009Z</time></trkpt><trkpt lat="45.19880626610341" lon="9.460934746727755"><ele>70.0</ele><time>2026-04-26T06:37:49.009Z</time></trkpt><trkpt lat="45.19889941855022" lon="9.460986992941185"><ele>70.0</ele><time>2026-04-26T06:37:51.009Z</time></trkpt><trkpt lat="45.1989987439061" lon="9.461035786645263"><ele>70.0</ele><time>2026-04-26T06:37:53.009Z</time></trkpt><trkpt lat="45.19909921648573" lon="9.46108939019885"><ele>70.0</ele><time>2026-04-26T06:37:55.009Z</time></trkpt><trkpt lat="45.19920169859463" lon="9.46114117632175"><ele>70.0</ele><time>2026-04-26T06:37:57.009Z</time></trkpt><trkpt lat="45.199298003101845" lon="9.461183016429535"><ele>70.0</ele><time>2026-04-26T06:37:59.009Z</time></trkpt><trkpt lat="45.1993918676123" lon="9.461221058241213"><ele>70.16666666666666</ele><time>2026-04-26T06:38:01.009Z</time></trkpt><trkpt lat="45.19948005750117" lon="9.461258944570476"><ele>70.33333333333333</ele><time>2026-04-26T06:38:03.009Z</time></trkpt><trkpt lat="45.19955857293701" lon="9.461296744924214"><ele>70.5</ele><time>2026-04-26T06:38:05.009Z</time></trkpt><trkpt lat="45.19964230130421" lon="9.461345259144903"><ele>70.66666666666667</ele><time>2026-04-26T06:38:07.009Z</time></trkpt><trkpt lat="45.19969015302487" lon="9.461424257425172"><ele>70.83333333333334</ele><time>2026-04-26T06:38:09.009Z</time></trkpt><trkpt lat="45.19967219356877" lon="9.461574206205606"><ele>71.0</ele><time>2026-04-26T06:38:11.009Z</time></trkpt><trkpt lat="45.19963398696241" lon="9.461717666441778"><ele>71.0</ele><time>2026-04-26T06:38:13.009Z</time></trkpt><trkpt lat="45.199598470579055" lon="9.46186844189557"><ele>71.0</ele><time>2026-04-26T06:38:15.009Z</time></trkpt><trkpt lat="45.1995587436175" lon="9.462017659392247"><ele>71.0</ele><time>2026-04-26T06:38:17.009Z</time></trkpt><trkpt lat="45.19952453527992" lon="9.462160829526832"><ele>71.0</ele><time>2026-04-26T06:38:19.009Z</time></trkpt><trkpt lat="45.19948455132145" lon="9.46230571428543"><ele>71.0</ele><time>2026-04-26T06:38:21.009Z</time></trkpt><trkpt lat="45.199438287678895" lon="9.462449198361186"><ele>70.75</ele><time>2026-04-26T06:38:23.009Z</time></trkpt><trkpt lat="45.199400912760126" lon="9.4625987445389"><ele>70.5</ele><time>2026-04-26T06:38:25.009Z</time></trkpt><trkpt lat="45.19936183596338" lon="9.462753625124218"><ele>70.25</ele><time>2026-04-26T06:38:27.009Z</time></trkpt><trkpt lat="45.19932315335996" lon="9.462903283390245"><ele>70.0</ele><time>2026-04-26T06:38:29.009Z</time></trkpt><trkpt lat="45.19927899075333" lon="9.463058206394516"><ele>69.75</ele><time>2026-04-26T06:38:31.009Z</time></trkpt><trkpt lat="45.1992377327098" lon="9.463213112307473"><ele>69.5</ele><time>2026-04-26T06:38:33.009Z</time></trkpt><trkpt lat="45.19919527663643" lon="9.46334877323542"><ele>69.25</ele><time>2026-04-26T06:38:35.009Z</time></trkpt><trkpt lat="45.1991611737849" lon="9.46350020863366"><ele>69.0</ele><time>2026-04-26T06:38:37.009Z</time></trkpt><trkpt lat="45.199124389960936" lon="9.463659899792258"><ele>69.0</ele><time>2026-04-26T06:38:39.009Z</time></trkpt><trkpt lat="45.199136080043125" lon="9.463804415727113"><ele>69.0</ele><time>2026-04-26T06:38:41.008Z</time></trkpt><trkpt lat="45.19915638481415" lon="9.463933286223893"><ele>69.0</ele><time>2026-04-26T06:38:43.008Z</time></trkpt><trkpt lat="45.19910399441349" lon="9.464080636278743"><ele>69.0</ele><time>2026-04-26T06:38:45.008Z</time></trkpt><trkpt lat="45.199046942498825" lon="9.4642377501846"><ele>69.0</ele><time>2026-04-26T06:38:47.008Z</time></trkpt><trkpt lat="45.19901028325114" lon="9.464397922226034"><ele>69.0</ele><time>2026-04-26T06:38:49.008Z</time></trkpt><trkpt lat="45.19897177199194" lon="9.464548470198414"><ele>69.0</ele><time>2026-04-26T06:38:51.008Z</time></trkpt><trkpt lat="45.19893385780915" lon="9.464696241328951"><ele>69.0</ele><time>2026-04-26T06:38:53.008Z</time></trkpt><trkpt lat="45.1988952929903" lon="9.46484285774475"><ele>69.0</ele><time>2026-04-26T06:38:55.008Z</time></trkpt><trkpt lat="45.198857941579625" lon="9.464991259085007"><ele>69.0</ele><time>2026-04-26T06:38:57.008Z</time></trkpt><trkpt lat="45.19883676104061" lon="9.465140326500626"><ele>69.0</ele><time>2026-04-26T06:38:59.008Z</time></trkpt><trkpt lat="45.19879465529891" lon="9.465284983398393"><ele>69.0</ele><time>2026-04-26T06:39:01.008Z</time></trkpt><trkpt lat="45.198754179693445" lon="9.46543270816954"><ele>69.0</ele><time>2026-04-26T06:39:03.008Z</time></trkpt><trkpt lat="45.1987107147063" lon="9.46558735040083"><ele>69.0</ele><time>2026-04-26T06:39:05.008Z</time></trkpt><trkpt lat="45.19866942264866" lon="9.465745846194855"><ele>69.0</ele><time>2026-04-26T06:39:07.008Z</time></trkpt><trkpt lat="45.198627112221075" lon="9.465878647552758"><ele>69.0</ele><time>2026-04-26T06:39:09.008Z</time></trkpt><trkpt lat="45.198586205294326" lon="9.466013409058025"><ele>69.0</ele><time>2026-04-26T06:39:11.008Z</time></trkpt><trkpt lat="45.19854767617206" lon="9.4661624236477"><ele>69.0</ele><time>2026-04-26T06:39:13.008Z</time></trkpt><trkpt lat="45.198508970311714" lon="9.4663032751709"><ele>69.0</ele><time>2026-04-26T06:39:15.008Z</time></trkpt><trkpt lat="45.19847690344058" lon="9.46644153121882"><ele>68.8</ele><time>2026-04-26T06:39:17.008Z</time></trkpt><trkpt lat="45.19842964288771" lon="9.46658164164338"><ele>68.60000000000001</ele><time>2026-04-26T06:39:19.008Z</time></trkpt><trkpt lat="45.19834393117839" lon="9.466643053244441"><ele>68.4</ele><time>2026-04-26T06:39:21.008Z</time></trkpt><trkpt lat="45.198263324007016" lon="9.466667561133782"><ele>68.2</ele><time>2026-04-26T06:39:23.01Z</time></trkpt><trkpt lat="45.198180065458914" lon="9.466660191864015"><ele>68.0</ele><time>2026-04-26T06:39:25.01Z</time></trkpt><trkpt lat="45.19807532154368" lon="9.466656625604458"><ele>68.6</ele><time>2026-04-26T06:39:27.01Z</time></trkpt><trkpt lat="45.19797298352591" lon="9.466691681251962"><ele>69.19999999999999</ele><time>2026-04-26T06:39:29.01Z</time></trkpt><trkpt lat="45.197873059346755" lon="9.466721478639649"><ele>69.8</ele><time>2026-04-26T06:39:31.01Z</time></trkpt><trkpt lat="45.19777213339113" lon="9.466749629456961"><ele>70.39999999999999</ele><time>2026-04-26T06:39:33.01Z</time></trkpt><trkpt lat="45.19767214019921" lon="9.466777749219787"><ele>71.0</ele><time>2026-04-26T06:39:35.01Z</time></trkpt><trkpt lat="45.19757222409784" lon="9.46681210103039"><ele>71.0</ele><time>2026-04-26T06:39:37.01Z</time></trkpt><trkpt lat="45.19746817436466" lon="9.466834197138692"><ele>71.0</ele><time>2026-04-26T06:39:39.01Z</time></trkpt><trkpt lat="45.19736725207928" lon="9.466861549724424"><ele>71.0</ele><time>2026-04-26T06:39:41.01Z</time></trkpt><trkpt lat="45.197276656834184" lon="9.466887498385438"><ele>71.0</ele><time>2026-04-26T06:39:43.01Z</time></trkpt><trkpt lat="45.19718573732994" lon="9.466901901947338"><ele>71.0</ele><time>2026-04-26T06:39:45.01Z</time></trkpt><trkpt lat="45.19708817951885" lon="9.466928567164839"><ele>70.6</ele><time>2026-04-26T06:39:47.01Z</time></trkpt><trkpt lat="45.196994486453875" lon="9.466997741228006"><ele>70.19999999999999</ele><time>2026-04-26T06:39:49.01Z</time></trkpt><trkpt lat="45.19693940979654" lon="9.467100990976355"><ele>69.80000000000001</ele><time>2026-04-26T06:39:51.01Z</time></trkpt><trkpt lat="45.1969013567733" lon="9.467219508718541"><ele>69.4</ele><time>2026-04-26T06:39:53.01Z</time></trkpt><trkpt lat="45.19684608694856" lon="9.467342772925873"><ele>69.0</ele><time>2026-04-26T06:39:55.01Z</time></trkpt><trkpt lat="45.19681038696071" lon="9.467464491266888"><ele>69.0</ele><time>2026-04-26T06:39:57.01Z</time></trkpt><trkpt lat="45.196776078342396" lon="9.467586362795902"><ele>69.0</ele><time>2026-04-26T06:39:59.01Z</time></trkpt><trkpt lat="45.19672265733104" lon="9.467708644193848"><ele>69.0</ele><time>2026-04-26T06:40:01.01Z</time></trkpt><trkpt lat="45.19668972016524" lon="9.467818388089734"><ele>69.0</ele><time>2026-04-26T06:40:03.01Z</time></trkpt><trkpt lat="45.196672557261216" lon="9.467918235088424"><ele>69.0</ele><time>2026-04-26T06:40:05.01Z</time></trkpt><trkpt lat="45.19667184444114" lon="9.468046232606437"><ele>69.0</ele><time>2026-04-26T06:40:07.01Z</time></trkpt><trkpt lat="45.19666900533833" lon="9.468239639801796"><ele>68.66666666666667</ele><time>2026-04-26T06:40:09.01Z</time></trkpt><trkpt lat="45.19665782421674" lon="9.468351993883974"><ele>68.33333333333333</ele><time>2026-04-26T06:40:10.01Z</time></trkpt><trkpt lat="45.19664391583919" lon="9.468462298425036"><ele>68.0</ele><time>2026-04-26T06:40:11.01Z</time></trkpt><trkpt lat="45.19662885335577" lon="9.468573528461558"><ele>67.66666666666666</ele><time>2026-04-26T06:40:12.01Z</time></trkpt><trkpt lat="45.1965974285108" lon="9.468677894892046"><ele>67.33333333333333</ele><time>2026-04-26T06:40:13.01Z</time></trkpt><trkpt lat="45.1965602807763" lon="9.468777121850417"><ele>67.0</ele><time>2026-04-26T06:40:14.01Z</time></trkpt><trkpt lat="45.1965127028306" lon="9.46887145539127"><ele>67.0</ele><time>2026-04-26T06:40:15.01Z</time></trkpt><trkpt lat="45.19644612530808" lon="9.468957889187774"><ele>67.0</ele><time>2026-04-26T06:40:16.009Z</time></trkpt><trkpt lat="45.19638950455492" lon="9.469051014976827"><ele>67.0</ele><time>2026-04-26T06:40:17.009Z</time></trkpt><trkpt lat="45.19632483942777" lon="9.469126054699238"><ele>67.0</ele><time>2026-04-26T06:40:18.009Z</time></trkpt><trkpt lat="45.196263094917356" lon="9.469204645470102"><ele>67.0</ele><time>2026-04-26T06:40:19.009Z</time></trkpt><trkpt lat="45.1962065380273" lon="9.469272638835413"><ele>67.0</ele><time>2026-04-26T06:40:20.009Z</time></trkpt><trkpt lat="45.19615187109149" lon="9.469330594619334"><ele>67.0</ele><time>2026-04-26T06:40:21.009Z</time></trkpt><trkpt lat="45.19610429087032" lon="9.46939316632713"><ele>67.0</ele><time>2026-04-26T06:40:22.009Z</time></trkpt><trkpt lat="45.19605821984394" lon="9.469457123247606"><ele>67.0</ele><time>2026-04-26T06:40:23.009Z</time></trkpt><trkpt lat="45.1959637974626" lon="9.469557850945414"><ele>67.0</ele><time>2026-04-26T06:40:25.009Z</time></trkpt><trkpt lat="45.19587063372868" lon="9.469647516959897"><ele>67.0</ele><time>2026-04-26T06:40:27.009Z</time></trkpt><trkpt lat="45.19576667032061" lon="9.469748530936835"><ele>66.6</ele><time>2026-04-26T06:40:29.009Z</time></trkpt><trkpt lat="45.195715626123544" lon="9.469802461964745"><ele>66.2</ele><time>2026-04-26T06:40:30.009Z</time></trkpt><trkpt lat="45.195635203705514" lon="9.469903663871422"><ele>65.8</ele><time>2026-04-26T06:40:32.009Z</time></trkpt><trkpt lat="45.19555831062341" lon="9.470002705406069"><ele>65.4</ele><time>2026-04-26T06:40:34.009Z</time></trkpt><trkpt lat="45.1954587203" lon="9.470095239166222"><ele>65.0</ele><time>2026-04-26T06:40:36.009Z</time></trkpt><trkpt lat="45.19539811246558" lon="9.470192809570698"><ele>65.33333333333334</ele><time>2026-04-26T06:40:38.009Z</time></trkpt><trkpt lat="45.19537059183481" lon="9.470300600776664"><ele>65.66666666666667</ele><time>2026-04-26T06:40:40.009Z</time></trkpt><trkpt lat="45.19533694039212" lon="9.470405517930896"><ele>66.0</ele><time>2026-04-26T06:40:42.009Z</time></trkpt><trkpt lat="45.19529923134941" lon="9.470533718995702"><ele>66.33333333333333</ele><time>2026-04-26T06:40:44.009Z</time></trkpt><trkpt lat="45.19525353322893" lon="9.470636511613586"><ele>66.66666666666666</ele><time>2026-04-26T06:40:46.009Z</time></trkpt><trkpt lat="45.19522944187109" lon="9.470764496273134"><ele>67.0</ele><time>2026-04-26T06:40:48.009Z</time></trkpt><trkpt lat="45.19518636480063" lon="9.470889659932"><ele>67.0</ele><time>2026-04-26T06:40:50.009Z</time></trkpt><trkpt lat="45.19517046942108" lon="9.47099961781537"><ele>67.0</ele><time>2026-04-26T06:40:52.009Z</time></trkpt><trkpt lat="45.19512185391613" lon="9.471142832097398"><ele>67.0</ele><time>2026-04-26T06:40:54.009Z</time></trkpt><trkpt lat="45.195070666358696" lon="9.47127792199626"><ele>67.0</ele><time>2026-04-26T06:40:56.009Z</time></trkpt><trkpt lat="45.19503418770523" lon="9.471429375389295"><ele>67.0</ele><time>2026-04-26T06:40:58.009Z</time></trkpt><trkpt lat="45.195013333775364" lon="9.471588452038693"><ele>66.8</ele><time>2026-04-26T06:41:00.009Z</time></trkpt><trkpt lat="45.19498010718115" lon="9.471720675503803"><ele>66.6</ele><time>2026-04-26T06:41:02.009Z</time></trkpt><trkpt lat="45.19493910281294" lon="9.471855593455627"><ele>66.39999999999999</ele><time>2026-04-26T06:41:04.009Z</time></trkpt><trkpt lat="45.19488124812435" lon="9.471988674389111"><ele>66.2</ele><time>2026-04-26T06:41:06.009Z</time></trkpt><trkpt lat="45.19481757228788" lon="9.47208904333146"><ele>66.0</ele><time>2026-04-26T06:41:08.009Z</time></trkpt><trkpt lat="45.19477536227969" lon="9.472183553959047"><ele>66.5</ele><time>2026-04-26T06:41:10.009Z</time></trkpt><trkpt lat="45.19473755075203" lon="9.472258180322966"><ele>67.0</ele><time>2026-04-26T06:41:12.009Z</time></trkpt><trkpt lat="45.194689322143496" lon="9.472318683046558"><ele>67.5</ele><time>2026-04-26T06:41:14.009Z</time></trkpt><trkpt lat="45.19461950270935" lon="9.472411532146145"><ele>68.0</ele><time>2026-04-26T06:41:17.009Z</time></trkpt><trkpt lat="45.194571065574564" lon="9.472499184006066"><ele>68.5</ele><time>2026-04-26T06:41:19.009Z</time></trkpt><trkpt lat="45.19452298650331" lon="9.472597888919646"><ele>69.0</ele><time>2026-04-26T06:41:21.009Z</time></trkpt><trkpt lat="45.194449253264274" lon="9.472697690470172"><ele>69.0</ele><time>2026-04-26T06:41:23.009Z</time></trkpt><trkpt lat="45.194392851349384" lon="9.472809443400694"><ele>69.0</ele><time>2026-04-26T06:41:25.009Z</time></trkpt><trkpt lat="45.19433091413981" lon="9.472916768839156"><ele>69.0</ele><time>2026-04-26T06:41:27.009Z</time></trkpt><trkpt lat="45.19427650469775" lon="9.473042487254606"><ele>69.0</ele><time>2026-04-26T06:41:29.011Z</time></trkpt><trkpt lat="45.194232792275486" lon="9.473161546104919"><ele>69.0</ele><time>2026-04-26T06:41:31.011Z</time></trkpt><trkpt lat="45.194184920977015" lon="9.473293824303665"><ele>69.0</ele><time>2026-04-26T06:41:33.011Z</time></trkpt><trkpt lat="45.194135152517056" lon="9.473437503128443"><ele>69.0</ele><time>2026-04-26T06:41:35.011Z</time></trkpt><trkpt lat="45.194094465803104" lon="9.473538484802894"><ele>69.0</ele><time>2026-04-26T06:41:37.011Z</time></trkpt><trkpt lat="45.19402690536447" lon="9.473635333449302"><ele>69.0</ele><time>2026-04-26T06:41:39.011Z</time></trkpt><trkpt lat="45.193979060174726" lon="9.473723896710204"><ele>69.0</ele><time>2026-04-26T06:41:41.011Z</time></trkpt><trkpt lat="45.19391557383558" lon="9.473802699154607"><ele>69.0</ele><time>2026-04-26T06:41:43.01Z</time></trkpt><trkpt lat="45.193841987634336" lon="9.473874081615616"><ele>69.0</ele><time>2026-04-26T06:41:45.01Z</time></trkpt><trkpt lat="45.193795712306866" lon="9.473973501400035"><ele>69.0</ele><time>2026-04-26T06:41:47.01Z</time></trkpt><trkpt lat="45.193729668478824" lon="9.474099940777032"><ele>69.0</ele><time>2026-04-26T06:41:49.01Z</time></trkpt><trkpt lat="45.1936857056117" lon="9.474245314720458"><ele>69.0</ele><time>2026-04-26T06:41:51.01Z</time></trkpt><trkpt lat="45.19366075739111" lon="9.474328930306138"><ele>69.0</ele><time>2026-04-26T06:41:52.01Z</time></trkpt><trkpt lat="45.19362102406436" lon="9.474474405774233"><ele>69.0</ele><time>2026-04-26T06:41:54.01Z</time></trkpt><trkpt lat="45.1935997599427" lon="9.474565865826918"><ele>69.0</ele><time>2026-04-26T06:41:55.01Z</time></trkpt><trkpt lat="45.193569340435175" lon="9.474695582513927"><ele>69.0</ele><time>2026-04-26T06:41:57.01Z</time></trkpt><trkpt lat="45.193534576919276" lon="9.474826610244726"><ele>69.0</ele><time>2026-04-26T06:41:59.01Z</time></trkpt><trkpt lat="45.19349456682441" lon="9.474922838631961"><ele>68.60000000000001</ele><time>2026-04-26T06:42:01.01Z</time></trkpt><trkpt lat="45.19344128526423" lon="9.47503811032535"><ele>68.2</ele><time>2026-04-26T06:42:03.01Z</time></trkpt><trkpt lat="45.19339112516109" lon="9.475152096312518"><ele>67.80000000000001</ele><time>2026-04-26T06:42:05.01Z</time></trkpt><trkpt lat="45.19334439290298" lon="9.475271224855277"><ele>67.4</ele><time>2026-04-26T06:42:07.01Z</time></trkpt><trkpt lat="45.19331166794994" lon="9.475412120139646"><ele>67.0</ele><time>2026-04-26T06:42:09.01Z</time></trkpt><trkpt lat="45.193287047079025" lon="9.475555768754708"><ele>67.4</ele><time>2026-04-26T06:42:11.01Z</time></trkpt><trkpt lat="45.193238036594195" lon="9.47567041278193"><ele>67.80000000000001</ele><time>2026-04-26T06:42:13.01Z</time></trkpt><trkpt lat="45.193199658426934" lon="9.475801245872836"><ele>68.2</ele><time>2026-04-26T06:42:15.01Z</time></trkpt><trkpt lat="45.1931643641683" lon="9.47594767209895"><ele>68.60000000000001</ele><time>2026-04-26T06:42:17.01Z</time></trkpt><trkpt lat="45.19312232864237" lon="9.476115359641772"><ele>69.0</ele><time>2026-04-26T06:42:19.01Z</time></trkpt><trkpt lat="45.19310063138661" lon="9.47620250203487"><ele>68.60000000000001</ele><time>2026-04-26T06:42:20.01Z</time></trkpt><trkpt lat="45.193052372967756" lon="9.476325781338101"><ele>68.2</ele><time>2026-04-26T06:42:22.01Z</time></trkpt><trkpt lat="45.19300958448775" lon="9.47644929644036"><ele>67.80000000000001</ele><time>2026-04-26T06:42:24.01Z</time></trkpt><trkpt lat="45.19296782861087" lon="9.476591224971187"><ele>67.4</ele><time>2026-04-26T06:42:26.01Z</time></trkpt><trkpt lat="45.192898494267446" lon="9.476749048008609"><ele>67.0</ele><time>2026-04-26T06:42:28.01Z</time></trkpt><trkpt lat="45.19286182205551" lon="9.47682721910431"><ele>67.0</ele><time>2026-04-26T06:42:29.01Z</time></trkpt><trkpt lat="45.192820156297024" lon="9.476899787929481"><ele>67.0</ele><time>2026-04-26T06:42:30.01Z</time></trkpt><trkpt lat="45.192748944033" lon="9.477030925080895"><ele>67.0</ele><time>2026-04-26T06:42:32.01Z</time></trkpt><trkpt lat="45.19268624523872" lon="9.477178886416988"><ele>67.0</ele><time>2026-04-26T06:42:34.01Z</time></trkpt><trkpt lat="45.19264176629435" lon="9.47731831568637"><ele>67.0</ele><time>2026-04-26T06:42:36.01Z</time></trkpt><trkpt lat="45.192592293074405" lon="9.477447891109264"><ele>66.25</ele><time>2026-04-26T06:42:38.01Z</time></trkpt><trkpt lat="45.1925505285131" lon="9.47758115154169"><ele>65.5</ele><time>2026-04-26T06:42:40.01Z</time></trkpt><trkpt lat="45.192490119362105" lon="9.47772745131735"><ele>64.75</ele><time>2026-04-26T06:42:42.01Z</time></trkpt><trkpt lat="45.192422390128534" lon="9.4778480400024"><ele>64.0</ele><time>2026-04-26T06:42:44.01Z</time></trkpt><trkpt lat="45.19235843471146" lon="9.477990607984372"><ele>64.2</ele><time>2026-04-26T06:42:46.01Z</time></trkpt><trkpt lat="45.19227752559469" lon="9.47810125979934"><ele>64.4</ele><time>2026-04-26T06:42:48.01Z</time></trkpt><trkpt lat="45.192198577977145" lon="9.47821445489547"><ele>64.6</ele><time>2026-04-26T06:42:50.01Z</time></trkpt><trkpt lat="45.19210213134979" lon="9.47831421319301"><ele>64.8</ele><time>2026-04-26T06:42:52.01Z</time></trkpt><trkpt lat="45.19204800444719" lon="9.478365140876733"><ele>65.0</ele><time>2026-04-26T06:42:53.01Z</time></trkpt><trkpt lat="45.191958069759785" lon="9.478438883008542"><ele>65.0</ele><time>2026-04-26T06:42:55.01Z</time></trkpt><trkpt lat="45.19185918184696" lon="9.478497507093468"><ele>65.0</ele><time>2026-04-26T06:42:57.01Z</time></trkpt><trkpt lat="45.191754919077596" lon="9.478551963858427"><ele>65.0</ele><time>2026-04-26T06:42:59.01Z</time></trkpt><trkpt lat="45.19164923535978" lon="9.478602175919006"><ele>65.0</ele><time>2026-04-26T06:43:01.01Z</time></trkpt><trkpt lat="45.191544335455035" lon="9.478659902211762"><ele>65.0</ele><time>2026-04-26T06:43:03.01Z</time></trkpt><trkpt lat="45.191440992978805" lon="9.4787142300788"><ele>65.5</ele><time>2026-04-26T06:43:05.01Z</time></trkpt><trkpt lat="45.19134233519028" lon="9.478752751627944"><ele>66.0</ele><time>2026-04-26T06:43:07.01Z</time></trkpt><trkpt lat="45.191283147753474" lon="9.478791071379911"><ele>66.5</ele><time>2026-04-26T06:43:08.01Z</time></trkpt><trkpt lat="45.19113383352148" lon="9.478931759068182"><ele>67.0</ele><time>2026-04-26T06:43:11.01Z</time></trkpt><trkpt lat="45.191042618747545" lon="9.479032905416666"><ele>67.2</ele><time>2026-04-26T06:43:13.01Z</time></trkpt><trkpt lat="45.190953309766535" lon="9.479130586841185"><ele>67.4</ele><time>2026-04-26T06:43:15.01Z</time></trkpt><trkpt lat="45.19086448900041" lon="9.479242280472203"><ele>67.6</ele><time>2026-04-26T06:43:17.01Z</time></trkpt><trkpt lat="45.1908109298945" lon="9.479292757773242"><ele>67.8</ele><time>2026-04-26T06:43:18.01Z</time></trkpt><trkpt lat="45.190719872200695" lon="9.479396426118123"><ele>68.0</ele><time>2026-04-26T06:43:20.01Z</time></trkpt><trkpt lat="45.19062487658164" lon="9.479487114438323"><ele>68.25</ele><time>2026-04-26T06:43:22.01Z</time></trkpt><trkpt lat="45.1905264508961" lon="9.479571218003791"><ele>68.5</ele><time>2026-04-26T06:43:24.01Z</time></trkpt><trkpt lat="45.1904260153739" lon="9.479650308433715"><ele>68.75</ele><time>2026-04-26T06:43:26.01Z</time></trkpt><trkpt lat="45.19031818195995" lon="9.479721692290994"><ele>69.0</ele><time>2026-04-26T06:43:28.01Z</time></trkpt><trkpt lat="45.19020930944381" lon="9.479787909351497"><ele>69.0</ele><time>2026-04-26T06:43:30.01Z</time></trkpt><trkpt lat="45.19010829459461" lon="9.479861113598288"><ele>69.0</ele><time>2026-04-26T06:43:32.01Z</time></trkpt><trkpt lat="45.189994252129175" lon="9.479926407988522"><ele>69.0</ele><time>2026-04-26T06:43:34.01Z</time></trkpt><trkpt lat="45.18993503117644" lon="9.479967108064713"><ele>69.0</ele><time>2026-04-26T06:43:35.011Z</time></trkpt><trkpt lat="45.189829532754715" lon="9.480036953970185"><ele>69.0</ele><time>2026-04-26T06:43:37.011Z</time></trkpt><trkpt lat="45.189718728109526" lon="9.480102396963229"><ele>68.8</ele><time>2026-04-26T06:43:39.011Z</time></trkpt><trkpt lat="45.18962275081199" lon="9.48014752074302"><ele>68.60000000000001</ele><time>2026-04-26T06:43:41.012Z</time></trkpt><trkpt lat="45.18951691480596" lon="9.48018874665526"><ele>68.4</ele><time>2026-04-26T06:43:43.012Z</time></trkpt><trkpt lat="45.189409118725465" lon="9.480227795528382"><ele>68.2</ele><time>2026-04-26T06:43:45.012Z</time></trkpt><trkpt lat="45.18929555424232" lon="9.4802714218041"><ele>68.0</ele><time>2026-04-26T06:43:47.012Z</time></trkpt><trkpt lat="45.18923107671122" lon="9.480306785758852"><ele>67.99999999999999</ele><time>2026-04-26T06:43:48.012Z</time></trkpt><trkpt lat="45.189171031405955" lon="9.48033862681529"><ele>68.0</ele><time>2026-04-26T06:43:49.012Z</time></trkpt><trkpt lat="45.18909756764927" lon="9.480360860038164"><ele>68.0</ele><time>2026-04-26T06:43:50.012Z</time></trkpt><trkpt lat="45.1890347260131" lon="9.480391867610523"><ele>68.0</ele><time>2026-04-26T06:43:51.012Z</time></trkpt><trkpt lat="45.18896570311698" lon="9.480414019959305"><ele>68.0</ele><time>2026-04-26T06:43:52.012Z</time></trkpt><trkpt lat="45.18890681952818" lon="9.480445971655424"><ele>67.99999999999999</ele><time>2026-04-26T06:43:53.012Z</time></trkpt><trkpt lat="45.18884463575539" lon="9.480469920471721"><ele>68.0</ele><time>2026-04-26T06:43:54.012Z</time></trkpt><trkpt lat="45.188724326597615" lon="9.480522506904984"><ele>68.16666666666667</ele><time>2026-04-26T06:43:56.012Z</time></trkpt><trkpt lat="45.188653474894494" lon="9.480550677090264"><ele>68.33333333333334</ele><time>2026-04-26T06:43:57.012Z</time></trkpt><trkpt lat="45.18859171110291" lon="9.480579530187416"><ele>68.5</ele><time>2026-04-26T06:43:58.012Z</time></trkpt><trkpt lat="45.18852766211046" lon="9.480602056229177"><ele>68.66666666666667</ele><time>2026-04-26T06:43:59.012Z</time></trkpt><trkpt lat="45.18846397782107" lon="9.480637899510578"><ele>68.83333333333333</ele><time>2026-04-26T06:44:00.012Z</time></trkpt><trkpt lat="45.18834454112075" lon="9.480695922536055"><ele>69.0</ele><time>2026-04-26T06:44:02.012Z</time></trkpt><trkpt lat="45.18828220900385" lon="9.480724225691542"><ele>69.0</ele><time>2026-04-26T06:44:03.012Z</time></trkpt><trkpt lat="45.18821803700644" lon="9.480755494089799"><ele>69.0</ele><time>2026-04-26T06:44:04.012Z</time></trkpt><trkpt lat="45.18814755547438" lon="9.480781639012891"><ele>69.0</ele><time>2026-04-26T06:44:05.012Z</time></trkpt><trkpt lat="45.18808779688083" lon="9.4808114143758"><ele>69.0</ele><time>2026-04-26T06:44:06.012Z</time></trkpt><trkpt lat="45.1880205250368" lon="9.480839413071543"><ele>69.0</ele><time>2026-04-26T06:44:07.012Z</time></trkpt><trkpt lat="45.187915970172824" lon="9.480900149800334"><ele>69.0</ele><time>2026-04-26T06:44:09.012Z</time></trkpt><trkpt lat="45.18779181620033" lon="9.480959832871923"><ele>68.5</ele><time>2026-04-26T06:44:11.012Z</time></trkpt><trkpt lat="45.18769052389035" lon="9.481023851734308"><ele>68.0</ele><time>2026-04-26T06:44:13.012Z</time></trkpt><trkpt lat="45.18759211840446" lon="9.481102274272963"><ele>67.5</ele><time>2026-04-26T06:44:15.012Z</time></trkpt><trkpt lat="45.18748414408787" lon="9.481161756711494"><ele>67.0</ele><time>2026-04-26T06:44:17.012Z</time></trkpt><trkpt lat="45.18737264271104" lon="9.48121218040887"><ele>67.0</ele><time>2026-04-26T06:44:19.012Z</time></trkpt><trkpt lat="45.187268919636786" lon="9.48127235084394"><ele>67.0</ele><time>2026-04-26T06:44:21.012Z</time></trkpt><trkpt lat="45.187174109172446" lon="9.481319371993584"><ele>67.0</ele><time>2026-04-26T06:44:23.012Z</time></trkpt><trkpt lat="45.18709964370643" lon="9.481363305925704"><ele>67.0</ele><time>2026-04-26T06:44:25.011Z</time></trkpt><trkpt lat="45.187049972912945" lon="9.481424822228878"><ele>67.0</ele><time>2026-04-26T06:44:27.011Z</time></trkpt><trkpt lat="45.1870030197893" lon="9.481515201149085"><ele>67.0</ele><time>2026-04-26T06:44:29.011Z</time></trkpt><trkpt lat="45.186965798293315" lon="9.481667344589914"><ele>67.0</ele><time>2026-04-26T06:44:31.011Z</time></trkpt><trkpt lat="45.18695495207029" lon="9.48184378968056"><ele>67.0</ele><time>2026-04-26T06:44:33.011Z</time></trkpt><trkpt lat="45.18696676852796" lon="9.482005265632898"><ele>67.0</ele><time>2026-04-26T06:44:35.011Z</time></trkpt><trkpt lat="45.18697827638301" lon="9.482160667475839"><ele>67.0</ele><time>2026-04-26T06:44:37.011Z</time></trkpt><trkpt lat="45.186993885369894" lon="9.482313461741553"><ele>67.0</ele><time>2026-04-26T06:44:39.011Z</time></trkpt><trkpt lat="45.186998446879095" lon="9.482408237943082"><ele>67.0</ele><time>2026-04-26T06:44:40.011Z</time></trkpt><trkpt lat="45.187006676419486" lon="9.482579625523236"><ele>67.0</ele><time>2026-04-26T06:44:42.011Z</time></trkpt><trkpt lat="45.187013769399286" lon="9.482678439704394"><ele>67.0</ele><time>2026-04-26T06:44:43.011Z</time></trkpt><trkpt lat="45.187020175788874" lon="9.482768872599419"><ele>67.0</ele><time>2026-04-26T06:44:44.011Z</time></trkpt><trkpt lat="45.18702838269025" lon="9.482942438958467"><ele>67.0</ele><time>2026-04-26T06:44:46.011Z</time></trkpt><trkpt lat="45.187038680504195" lon="9.483112469498348"><ele>67.16666666666666</ele><time>2026-04-26T06:44:48.011Z</time></trkpt><trkpt lat="45.18704183356328" lon="9.483209615857488"><ele>67.33333333333333</ele><time>2026-04-26T06:44:49.011Z</time></trkpt><trkpt lat="45.18705322013187" lon="9.483302314346862"><ele>67.5</ele><time>2026-04-26T06:44:50.011Z</time></trkpt><trkpt lat="45.187063524212846" lon="9.483393907120446"><ele>67.66666666666667</ele><time>2026-04-26T06:44:51.011Z</time></trkpt><trkpt lat="45.18707133692493" lon="9.483483273277324"><ele>67.83333333333334</ele><time>2026-04-26T06:44:52.011Z</time></trkpt><trkpt lat="45.187081430784545" lon="9.483651798243889"><ele>68.0</ele><time>2026-04-26T06:44:54.011Z</time></trkpt><trkpt lat="45.187101327271094" lon="9.483825890567129"><ele>68.2</ele><time>2026-04-26T06:44:56.011Z</time></trkpt><trkpt lat="45.187105548212735" lon="9.484010100938006"><ele>68.4</ele><time>2026-04-26T06:44:58.011Z</time></trkpt><trkpt lat="45.187116366222746" lon="9.484174586925601"><ele>68.60000000000001</ele><time>2026-04-26T06:45:00.011Z</time></trkpt><trkpt lat="45.18712980600995" lon="9.484341817520038"><ele>68.8</ele><time>2026-04-26T06:45:02.011Z</time></trkpt><trkpt lat="45.18713437870255" lon="9.48443851642612"><ele>69.0</ele><time>2026-04-26T06:45:03.011Z</time></trkpt><trkpt lat="45.18714163164548" lon="9.484606067586938"><ele>69.0</ele><time>2026-04-26T06:45:05.011Z</time></trkpt><trkpt lat="45.18715251259317" lon="9.484769341085565"><ele>69.0</ele><time>2026-04-26T06:45:07.011Z</time></trkpt><trkpt lat="45.18716242078101" lon="9.484860514545726"><ele>69.0</ele><time>2026-04-26T06:45:08.011Z</time></trkpt><trkpt lat="45.18717182191882" lon="9.485024166570351"><ele>69.0</ele><time>2026-04-26T06:45:10.011Z</time></trkpt><trkpt lat="45.18718630969884" lon="9.485187944474166"><ele>69.0</ele><time>2026-04-26T06:45:12.011Z</time></trkpt><trkpt lat="45.18719738776298" lon="9.485356636747387"><ele>68.8</ele><time>2026-04-26T06:45:14.011Z</time></trkpt><trkpt lat="45.187207598757176" lon="9.485527992841705"><ele>68.60000000000001</ele><time>2026-04-26T06:45:16.011Z</time></trkpt><trkpt lat="45.18722058056875" lon="9.48569233134567"><ele>68.4</ele><time>2026-04-26T06:45:18.011Z</time></trkpt><trkpt lat="45.187228592017" lon="9.485784846225402"><ele>68.2</ele><time>2026-04-26T06:45:19.011Z</time></trkpt><trkpt lat="45.1872442736577" lon="9.485963996606358"><ele>68.0</ele><time>2026-04-26T06:45:21.011Z</time></trkpt><trkpt lat="45.18725819523583" lon="9.486140773616999"><ele>67.99999999999999</ele><time>2026-04-26T06:45:23.011Z</time></trkpt><trkpt lat="45.18726484157497" lon="9.486235040682583"><ele>68.0</ele><time>2026-04-26T06:45:24.011Z</time></trkpt><trkpt lat="45.187270651669486" lon="9.48632830674288"><ele>68.0</ele><time>2026-04-26T06:45:25.011Z</time></trkpt><trkpt lat="45.1872764801217" lon="9.486433758364306"><ele>68.0</ele><time>2026-04-26T06:45:26.011Z</time></trkpt><trkpt lat="45.18728279445635" lon="9.486524114215726"><ele>68.0</ele><time>2026-04-26T06:45:27.011Z</time></trkpt><trkpt lat="45.187288242299424" lon="9.486621970287093"><ele>67.99999999999999</ele><time>2026-04-26T06:45:28.011Z</time></trkpt><trkpt lat="45.18729768656375" lon="9.486730207618985"><ele>68.0</ele><time>2026-04-26T06:45:29.011Z</time></trkpt><trkpt lat="45.18730447132802" lon="9.486928809967981"><ele>67.71428571428571</ele><time>2026-04-26T06:45:31.011Z</time></trkpt><trkpt lat="45.18731403546728" lon="9.487028729002102"><ele>67.42857142857143</ele><time>2026-04-26T06:45:32.011Z</time></trkpt><trkpt lat="45.18731925621338" lon="9.48713258558842"><ele>67.14285714285714</ele><time>2026-04-26T06:45:33.011Z</time></trkpt><trkpt lat="45.18732300742968" lon="9.487232090018034"><ele>66.85714285714286</ele><time>2026-04-26T06:45:34.011Z</time></trkpt><trkpt lat="45.1873266667628" lon="9.487339496825236"><ele>66.57142857142857</ele><time>2026-04-26T06:45:35.011Z</time></trkpt><trkpt lat="45.187336789617945" lon="9.487443903928348"><ele>66.28571428571428</ele><time>2026-04-26T06:45:36.011Z</time></trkpt><trkpt lat="45.18734743838166" lon="9.487553273152288"><ele>66.0</ele><time>2026-04-26T06:45:37.011Z</time></trkpt><trkpt lat="45.187355311554896" lon="9.487646997682477"><ele>65.83333333333333</ele><time>2026-04-26T06:45:38.011Z</time></trkpt><trkpt lat="45.18736777513145" lon="9.487772114442937"><ele>65.66666666666667</ele><time>2026-04-26T06:45:39.011Z</time></trkpt><trkpt lat="45.1873726480344" lon="9.48787382497035"><ele>65.5</ele><time>2026-04-26T06:45:40.011Z</time></trkpt><trkpt lat="45.187379217517815" lon="9.487979884916312"><ele>65.33333333333334</ele><time>2026-04-26T06:45:41.012Z</time></trkpt><trkpt lat="45.18738680066351" lon="9.488091625694702"><ele>65.16666666666667</ele><time>2026-04-26T06:45:42.013Z</time></trkpt><trkpt lat="45.18739301425527" lon="9.488199248714986"><ele>65.0</ele><time>2026-04-26T06:45:43.013Z</time></trkpt><trkpt lat="45.18739716900583" lon="9.488300745888782"><ele>64.57142857142858</ele><time>2026-04-26T06:45:44.013Z</time></trkpt><trkpt lat="45.18740145842966" lon="9.488412373200921"><ele>64.14285714285714</ele><time>2026-04-26T06:45:45.012Z</time></trkpt><trkpt lat="45.18740675139499" lon="9.488512191470837"><ele>63.71428571428572</ele><time>2026-04-26T06:45:46.012Z</time></trkpt><trkpt lat="45.18740845836041" lon="9.488622167145152"><ele>63.28571428571429</ele><time>2026-04-26T06:45:47.013Z</time></trkpt><trkpt lat="45.18740763531938" lon="9.488722288352616"><ele>62.85714285714286</ele><time>2026-04-26T06:45:48.012Z</time></trkpt><trkpt lat="45.18740228018056" lon="9.488826123425412"><ele>62.42857142857143</ele><time>2026-04-26T06:45:49.012Z</time></trkpt><trkpt lat="45.18740089618632" lon="9.488932199547042"><ele>62.0</ele><time>2026-04-26T06:45:50.012Z</time></trkpt><trkpt lat="45.18739587690358" lon="9.489043296248518"><ele>61.85714285714286</ele><time>2026-04-26T06:45:51.013Z</time></trkpt><trkpt lat="45.18738624565499" lon="9.489148676581532"><ele>61.71428571428572</ele><time>2026-04-26T06:45:52.013Z</time></trkpt><trkpt lat="45.187372520985484" lon="9.48924126942858"><ele>61.57142857142857</ele><time>2026-04-26T06:45:53.013Z</time></trkpt><trkpt lat="45.18736260976059" lon="9.489341149191207"><ele>61.42857142857143</ele><time>2026-04-26T06:45:54.013Z</time></trkpt><trkpt lat="45.18735215506342" lon="9.48945267059498"><ele>61.285714285714285</ele><time>2026-04-26T06:45:55.013Z</time></trkpt><trkpt lat="45.187334524144305" lon="9.489541732293977"><ele>61.14285714285714</ele><time>2026-04-26T06:45:56.013Z</time></trkpt><trkpt lat="45.18731759683645" lon="9.48964963467909"><ele>60.99999999999999</ele><time>2026-04-26T06:45:57.013Z</time></trkpt><trkpt lat="45.18729346340447" lon="9.489746774193026"><ele>61.428571428571416</ele><time>2026-04-26T06:45:58.013Z</time></trkpt><trkpt lat="45.18726918457018" lon="9.489842168883904"><ele>61.857142857142854</ele><time>2026-04-26T06:45:59.013Z</time></trkpt><trkpt lat="45.18724180755515" lon="9.489944212193857"><ele>62.28571428571428</ele><time>2026-04-26T06:46:00.013Z</time></trkpt><trkpt lat="45.187216820889304" lon="9.490037894560485"><ele>62.71428571428571</ele><time>2026-04-26T06:46:01.013Z</time></trkpt><trkpt lat="45.18719105004686" lon="9.490127923265876"><ele>63.14285714285714</ele><time>2026-04-26T06:46:02.012Z</time></trkpt><trkpt lat="45.18715994892949" lon="9.490219941686895"><ele>63.57142857142857</ele><time>2026-04-26T06:46:03.012Z</time></trkpt><trkpt lat="45.18713004715687" lon="9.490312224772268"><ele>64.0</ele><time>2026-04-26T06:46:04.012Z</time></trkpt><trkpt lat="45.18709507137632" lon="9.490407114790301"><ele>64.14285714285714</ele><time>2026-04-26T06:46:05.012Z</time></trkpt><trkpt lat="45.18705878921992" lon="9.490496162217564"><ele>64.28571428571428</ele><time>2026-04-26T06:46:06.012Z</time></trkpt><trkpt lat="45.18702076686155" lon="9.490583232815728"><ele>64.42857142857143</ele><time>2026-04-26T06:46:07.012Z</time></trkpt><trkpt lat="45.186981075282354" lon="9.490672629711167"><ele>64.57142857142857</ele><time>2026-04-26T06:46:08.012Z</time></trkpt><trkpt lat="45.18694660791119" lon="9.490752652404247"><ele>64.71428571428572</ele><time>2026-04-26T06:46:09.012Z</time></trkpt><trkpt lat="45.18690523578525" lon="9.490835499091233"><ele>64.85714285714286</ele><time>2026-04-26T06:46:10.012Z</time></trkpt><trkpt lat="45.18685740817408" lon="9.490921172925015"><ele>65.0</ele><time>2026-04-26T06:46:11.012Z</time></trkpt><trkpt lat="45.18681241103906" lon="9.491009335650133"><ele>65.0</ele><time>2026-04-26T06:46:12.012Z</time></trkpt><trkpt lat="45.18677168595615" lon="9.4910817592917"><ele>65.0</ele><time>2026-04-26T06:46:13.012Z</time></trkpt><trkpt lat="45.18672513552391" lon="9.491145198352653"><ele>65.0</ele><time>2026-04-26T06:46:14.012Z</time></trkpt><trkpt lat="45.18666522412903" lon="9.491210647088444"><ele>65.0</ele><time>2026-04-26T06:46:15.012Z</time></trkpt><trkpt lat="45.1865462950242" lon="9.491318286224862"><ele>65.0</ele><time>2026-04-26T06:46:17.012Z</time></trkpt><trkpt lat="45.186501041854825" lon="9.491473664042516"><ele>65.0</ele><time>2026-04-26T06:46:19.012Z</time></trkpt><trkpt lat="45.18652869567713" lon="9.491566271930177"><ele>65.0</ele><time>2026-04-26T06:46:20.012Z</time></trkpt><trkpt lat="45.186580856706534" lon="9.491630580504767"><ele>65.0</ele><time>2026-04-26T06:46:21.012Z</time></trkpt><trkpt lat="45.186649532399215" lon="9.491680606041639"><ele>65.0</ele><time>2026-04-26T06:46:22.012Z</time></trkpt><trkpt lat="45.186718882189425" lon="9.491735070447318"><ele>65.0</ele><time>2026-04-26T06:46:23.012Z</time></trkpt><trkpt lat="45.18685476436086" lon="9.491853375700083"><ele>65.0</ele><time>2026-04-26T06:46:25.012Z</time></trkpt><trkpt lat="45.18692300319386" lon="9.491916397518443"><ele>65.0</ele><time>2026-04-26T06:46:26.012Z</time></trkpt><trkpt lat="45.18698812199394" lon="9.49197792388028"><ele>65.0</ele><time>2026-04-26T06:46:27.012Z</time></trkpt><trkpt lat="45.18705226376926" lon="9.49204368463171"><ele>65.0</ele><time>2026-04-26T06:46:28.012Z</time></trkpt><trkpt lat="45.18711555978888" lon="9.492107620761406"><ele>65.0</ele><time>2026-04-26T06:46:29.012Z</time></trkpt><trkpt lat="45.187179465912216" lon="9.492176770627424"><ele>65.0</ele><time>2026-04-26T06:46:30.012Z</time></trkpt><trkpt lat="45.187243275191115" lon="9.492254866596898"><ele>65.5</ele><time>2026-04-26T06:46:31.012Z</time></trkpt><trkpt lat="45.18730799810937" lon="9.49232846324112"><ele>66.0</ele><time>2026-04-26T06:46:32.012Z</time></trkpt><trkpt lat="45.18737125790998" lon="9.49239861211534"><ele>66.5</ele><time>2026-04-26T06:46:33.012Z</time></trkpt><trkpt lat="45.18743845540002" lon="9.492479545541727"><ele>67.0</ele><time>2026-04-26T06:46:34.012Z</time></trkpt><trkpt lat="45.187500937423486" lon="9.492557428922453"><ele>67.5</ele><time>2026-04-26T06:46:35.012Z</time></trkpt><trkpt lat="45.187571827955516" lon="9.492646311740165"><ele>68.0</ele><time>2026-04-26T06:46:36.012Z</time></trkpt><trkpt lat="45.18763111604948" lon="9.492719567893316"><ele>67.33333333333334</ele><time>2026-04-26T06:46:37.012Z</time></trkpt><trkpt lat="45.18769925463236" lon="9.49280559803962"><ele>66.66666666666667</ele><time>2026-04-26T06:46:38.012Z</time></trkpt><trkpt lat="45.18776173659904" lon="9.492882503181917"><ele>66.0</ele><time>2026-04-26T06:46:39.012Z</time></trkpt><trkpt lat="45.18782970499215" lon="9.492963896019736"><ele>65.33333333333333</ele><time>2026-04-26T06:46:40.012Z</time></trkpt><trkpt lat="45.18790382839611" lon="9.493052249289324"><ele>64.66666666666666</ele><time>2026-04-26T06:46:41.012Z</time></trkpt><trkpt lat="45.18796391842668" lon="9.49312897744925"><ele>64.0</ele><time>2026-04-26T06:46:42.012Z</time></trkpt><trkpt lat="45.18802799784026" lon="9.493205794947034"><ele>63.99999999999999</ele><time>2026-04-26T06:46:43.012Z</time></trkpt><trkpt lat="45.18809291074473" lon="9.493285217364082"><ele>64.0</ele><time>2026-04-26T06:46:44.012Z</time></trkpt><trkpt lat="45.188158289860965" lon="9.493369500343146"><ele>64.0</ele><time>2026-04-26T06:46:45.012Z</time></trkpt><trkpt lat="45.18822030781119" lon="9.493444766510095"><ele>64.0</ele><time>2026-04-26T06:46:46.012Z</time></trkpt><trkpt lat="45.1882834852585" lon="9.493524531234327"><ele>63.99999999999999</ele><time>2026-04-26T06:46:47.012Z</time></trkpt><trkpt lat="45.188348013878674" lon="9.493604959768287"><ele>64.0</ele><time>2026-04-26T06:46:48.012Z</time></trkpt><trkpt lat="45.188411816267646" lon="9.493692599564477"><ele>63.166666666666664</ele><time>2026-04-26T06:46:49.012Z</time></trkpt><trkpt lat="45.188477563784446" lon="9.493765397644998"><ele>62.33333333333333</ele><time>2026-04-26T06:46:50.012Z</time></trkpt><trkpt lat="45.188539016773724" lon="9.493845688222454"><ele>61.5</ele><time>2026-04-26T06:46:51.012Z</time></trkpt><trkpt lat="45.188600897936745" lon="9.493919769631617"><ele>60.66666666666667</ele><time>2026-04-26T06:46:52.012Z</time></trkpt><trkpt lat="45.18865708742152" lon="9.494004219934777"><ele>59.833333333333336</ele><time>2026-04-26T06:46:53.012Z</time></trkpt><trkpt lat="45.188721408234365" lon="9.494081180945956"><ele>59.0</ele><time>2026-04-26T06:46:54.012Z</time></trkpt><trkpt lat="45.188789538093154" lon="9.494161477856398"><ele>59.0</ele><time>2026-04-26T06:46:55.012Z</time></trkpt><trkpt lat="45.18884544929916" lon="9.49423859892818"><ele>59.0</ele><time>2026-04-26T06:46:56.012Z</time></trkpt><trkpt lat="45.18889848066231" lon="9.494297986805675"><ele>59.0</ele><time>2026-04-26T06:46:57.012Z</time></trkpt><trkpt lat="45.18895529193357" lon="9.494371932389345"><ele>59.0</ele><time>2026-04-26T06:46:58.012Z</time></trkpt><trkpt lat="45.1890126522193" lon="9.49443592434376"><ele>59.0</ele><time>2026-04-26T06:46:59.012Z</time></trkpt><trkpt lat="45.18906284655613" lon="9.49451274551007"><ele>59.0</ele><time>2026-04-26T06:47:00.012Z</time></trkpt><trkpt lat="45.18912104357582" lon="9.494590204590565"><ele>59.0</ele><time>2026-04-26T06:47:01.012Z</time></trkpt><trkpt lat="45.18917646739076" lon="9.494658624071379"><ele>57.66666666666667</ele><time>2026-04-26T06:47:02.012Z</time></trkpt><trkpt lat="45.18922829074711" lon="9.494727011791968"><ele>56.333333333333336</ele><time>2026-04-26T06:47:03.012Z</time></trkpt><trkpt lat="45.1892780670777" lon="9.494793655807037"><ele>55.0</ele><time>2026-04-26T06:47:04.012Z</time></trkpt><trkpt lat="45.18934238607421" lon="9.494877728996286"><ele>53.66666666666667</ele><time>2026-04-26T06:47:05.012Z</time></trkpt><trkpt lat="45.189401817742365" lon="9.494959542332442"><ele>52.333333333333336</ele><time>2026-04-26T06:47:06.012Z</time></trkpt><trkpt lat="45.18946324656304" lon="9.495044212690356"><ele>51.0</ele><time>2026-04-26T06:47:07.012Z</time></trkpt><trkpt lat="45.18951697403783" lon="9.495115624731117"><ele>51.0</ele><time>2026-04-26T06:47:08.012Z</time></trkpt><trkpt lat="45.18957237088512" lon="9.49518693965885"><ele>51.0</ele><time>2026-04-26T06:47:09.012Z</time></trkpt><trkpt lat="45.18962164421107" lon="9.495254517509663"><ele>51.0</ele><time>2026-04-26T06:47:10.012Z</time></trkpt><trkpt lat="45.189719582697386" lon="9.495397093749888"><ele>51.0</ele><time>2026-04-26T06:47:12.012Z</time></trkpt><trkpt lat="45.1897766160724" lon="9.495477169277171"><ele>51.0</ele><time>2026-04-26T06:47:13.012Z</time></trkpt><trkpt lat="45.189830532306594" lon="9.495550253730235"><ele>51.0</ele><time>2026-04-26T06:47:14.012Z</time></trkpt><trkpt lat="45.189892764523" lon="9.495630561523816"><ele>51.5</ele><time>2026-04-26T06:47:15.012Z</time></trkpt><trkpt lat="45.189948652569576" lon="9.495703069550279"><ele>52.0</ele><time>2026-04-26T06:47:16.012Z</time></trkpt><trkpt lat="45.19000751850714" lon="9.495778557803513"><ele>52.5</ele><time>2026-04-26T06:47:17.012Z</time></trkpt><trkpt lat="45.19006843511532" lon="9.495853318168152"><ele>53.0</ele><time>2026-04-26T06:47:18.012Z</time></trkpt><trkpt lat="45.19012575619542" lon="9.495926689072"><ele>53.5</ele><time>2026-04-26T06:47:19.012Z</time></trkpt><trkpt lat="45.190180288484676" lon="9.495996517476264"><ele>54.0</ele><time>2026-04-26T06:47:20.012Z</time></trkpt><trkpt lat="45.19023983705893" lon="9.49607671515206"><ele>54.0</ele><time>2026-04-26T06:47:21.012Z</time></trkpt><trkpt lat="45.19029219993108" lon="9.496157564731162"><ele>54.0</ele><time>2026-04-26T06:47:22.012Z</time></trkpt><trkpt lat="45.19034854643161" lon="9.496232849227662"><ele>54.0</ele><time>2026-04-26T06:47:23.012Z</time></trkpt><trkpt lat="45.1903975169156" lon="9.496308543751093"><ele>54.0</ele><time>2026-04-26T06:47:24.012Z</time></trkpt><trkpt lat="45.190421946166225" lon="9.49639926346766"><ele>54.0</ele><time>2026-04-26T06:47:25.012Z</time></trkpt><trkpt lat="45.19041712153451" lon="9.496496807917683"><ele>54.0</ele><time>2026-04-26T06:47:26.012Z</time></trkpt><trkpt lat="45.190388091704484" lon="9.4966113805995"><ele>54.0</ele><time>2026-04-26T06:47:27.012Z</time></trkpt><trkpt lat="45.190348660513614" lon="9.496717212923738"><ele>54.0</ele><time>2026-04-26T06:47:28.012Z</time></trkpt><trkpt lat="45.19032665884164" lon="9.496837353168218"><ele>54.0</ele><time>2026-04-26T06:47:29.012Z</time></trkpt><trkpt lat="45.19031014295358" lon="9.496958855625122"><ele>54.0</ele><time>2026-04-26T06:47:30.012Z</time></trkpt><trkpt lat="45.19029559186859" lon="9.497075319348948"><ele>54.0</ele><time>2026-04-26T06:47:31.012Z</time></trkpt><trkpt lat="45.19028312659244" lon="9.497186484057362"><ele>54.0</ele><time>2026-04-26T06:47:32.012Z</time></trkpt><trkpt lat="45.190264353790496" lon="9.497295598422232"><ele>54.0</ele><time>2026-04-26T06:47:33.012Z</time></trkpt><trkpt lat="45.19024772975668" lon="9.497416271363866"><ele>54.0</ele><time>2026-04-26T06:47:34.012Z</time></trkpt><trkpt lat="45.19022949119115" lon="9.497535911555616"><ele>54.0</ele><time>2026-04-26T06:47:35.012Z</time></trkpt><trkpt lat="45.19021458551598" lon="9.497655464688982"><ele>54.0</ele><time>2026-04-26T06:47:36.012Z</time></trkpt><trkpt lat="45.19019888193027" lon="9.497768276023198"><ele>54.0</ele><time>2026-04-26T06:47:37.012Z</time></trkpt><trkpt lat="45.19018154093971" lon="9.49788271803878"><ele>54.0</ele><time>2026-04-26T06:47:38.012Z</time></trkpt><trkpt lat="45.19016788833413" lon="9.497998545583446"><ele>54.0</ele><time>2026-04-26T06:47:39.012Z</time></trkpt><trkpt lat="45.19015160600417" lon="9.498110583855818"><ele>54.0</ele><time>2026-04-26T06:47:40.012Z</time></trkpt><trkpt lat="45.19013608724738" lon="9.498230001196665"><ele>54.0</ele><time>2026-04-26T06:47:41.012Z</time></trkpt><trkpt lat="45.19011836396277" lon="9.498336823986572"><ele>54.0</ele><time>2026-04-26T06:47:42.012Z</time></trkpt><trkpt lat="45.19010054324666" lon="9.498445396374263"><ele>54.0</ele><time>2026-04-26T06:47:43.012Z</time></trkpt><trkpt lat="45.19008684574162" lon="9.498557143481387"><ele>54.0</ele><time>2026-04-26T06:47:44.012Z</time></trkpt><trkpt lat="45.190067108914846" lon="9.498660211846568"><ele>53.833333333333336</ele><time>2026-04-26T06:47:45.012Z</time></trkpt><trkpt lat="45.19005172715805" lon="9.498771230922111"><ele>53.66666666666667</ele><time>2026-04-26T06:47:46.012Z</time></trkpt><trkpt lat="45.190033266586404" lon="9.498891642048795"><ele>53.5</ele><time>2026-04-26T06:47:47.013Z</time></trkpt><trkpt lat="45.19001177856031" lon="9.4989982299791"><ele>53.333333333333336</ele><time>2026-04-26T06:47:48.013Z</time></trkpt><trkpt lat="45.189997241070635" lon="9.499115556737115"><ele>53.16666666666667</ele><time>2026-04-26T06:47:49.013Z</time></trkpt><trkpt lat="45.189988776587505" lon="9.49922975666489"><ele>53.0</ele><time>2026-04-26T06:47:50.014Z</time></trkpt><trkpt lat="45.18999621239658" lon="9.499344845685858"><ele>53.00000000000001</ele><time>2026-04-26T06:47:51.013Z</time></trkpt><trkpt lat="45.19002058488858" lon="9.499447849897438"><ele>53.0</ele><time>2026-04-26T06:47:52.013Z</time></trkpt><trkpt lat="45.19004727733309" lon="9.499548487539245"><ele>53.0</ele><time>2026-04-26T06:47:53.013Z</time></trkpt><trkpt lat="45.19007599896127" lon="9.499645498885393"><ele>53.0</ele><time>2026-04-26T06:47:54.013Z</time></trkpt><trkpt lat="45.19010981527347" lon="9.499757439514205"><ele>53.00000000000001</ele><time>2026-04-26T06:47:55.013Z</time></trkpt><trkpt lat="45.19012617692516" lon="9.499866412587068"><ele>53.0</ele><time>2026-04-26T06:47:56.012Z</time></trkpt><trkpt lat="45.190127015228796" lon="9.499979863808191"><ele>53.16666666666667</ele><time>2026-04-26T06:47:57.012Z</time></trkpt><trkpt lat="45.190104107525755" lon="9.500088097471334"><ele>53.333333333333336</ele><time>2026-04-26T06:47:58.012Z</time></trkpt><trkpt lat="45.190079702485754" lon="9.500200580871883"><ele>53.5</ele><time>2026-04-26T06:47:59.012Z</time></trkpt><trkpt lat="45.19005419935082" lon="9.50031159876381"><ele>53.66666666666667</ele><time>2026-04-26T06:48:00.012Z</time></trkpt><trkpt lat="45.19002516310394" lon="9.500422094629613"><ele>53.833333333333336</ele><time>2026-04-26T06:48:01.011Z</time></trkpt><trkpt lat="45.18999386270824" lon="9.500529135492133"><ele>54.0</ele><time>2026-04-26T06:48:02.011Z</time></trkpt><trkpt lat="45.18996632731691" lon="9.50063702578838"><ele>54.0</ele><time>2026-04-26T06:48:03.011Z</time></trkpt><trkpt lat="45.189949124921235" lon="9.500741545088527"><ele>54.0</ele><time>2026-04-26T06:48:04.011Z</time></trkpt><trkpt lat="45.18995037909095" lon="9.500850191802282"><ele>54.0</ele><time>2026-04-26T06:48:05.011Z</time></trkpt><trkpt lat="45.1899680103682" lon="9.500960020782596"><ele>54.0</ele><time>2026-04-26T06:48:06.011Z</time></trkpt><trkpt lat="45.19000481181335" lon="9.50106508741582"><ele>54.0</ele><time>2026-04-26T06:48:07.011Z</time></trkpt><trkpt lat="45.190042393847556" lon="9.501174788315595"><ele>54.0</ele><time>2026-04-26T06:48:08.01Z</time></trkpt><trkpt lat="45.19006967330112" lon="9.50128467822786"><ele>54.166666666666664</ele><time>2026-04-26T06:48:09.01Z</time></trkpt><trkpt lat="45.19010063207587" lon="9.501393111650303"><ele>54.33333333333333</ele><time>2026-04-26T06:48:10.01Z</time></trkpt><trkpt lat="45.19012789445889" lon="9.501490353249984"><ele>54.5</ele><time>2026-04-26T06:48:11.01Z</time></trkpt><trkpt lat="45.190158270937076" lon="9.501593934899612"><ele>54.666666666666664</ele><time>2026-04-26T06:48:12.01Z</time></trkpt><trkpt lat="45.19018562357126" lon="9.501693748212467"><ele>54.83333333333333</ele><time>2026-04-26T06:48:13.01Z</time></trkpt><trkpt lat="45.190218626212534" lon="9.501795049404658"><ele>55.0</ele><time>2026-04-26T06:48:14.01Z</time></trkpt><trkpt lat="45.19025681216616" lon="9.501890852777542"><ele>54.99999999999999</ele><time>2026-04-26T06:48:15.01Z</time></trkpt><trkpt lat="45.190296387345" lon="9.501989719100873"><ele>55.0</ele><time>2026-04-26T06:48:16.01Z</time></trkpt><trkpt lat="45.19033297806526" lon="9.502076343979468"><ele>55.0</ele><time>2026-04-26T06:48:17.01Z</time></trkpt><trkpt lat="45.19037460857793" lon="9.502164377584807"><ele>55.0</ele><time>2026-04-26T06:48:18.01Z</time></trkpt><trkpt lat="45.19041799646176" lon="9.502256754294146"><ele>54.99999999999999</ele><time>2026-04-26T06:48:19.01Z</time></trkpt><trkpt lat="45.19045725714396" lon="9.50234330432237"><ele>55.0</ele><time>2026-04-26T06:48:20.01Z</time></trkpt><trkpt lat="45.19049716043374" lon="9.502439641377025"><ele>54.83333333333333</ele><time>2026-04-26T06:48:21.009Z</time></trkpt><trkpt lat="45.190538652680445" lon="9.50252928103199"><ele>54.666666666666664</ele><time>2026-04-26T06:48:22.009Z</time></trkpt><trkpt lat="45.19058009649981" lon="9.502613011426565"><ele>54.5</ele><time>2026-04-26T06:48:23.009Z</time></trkpt><trkpt lat="45.19062367576892" lon="9.502705323597757"><ele>54.33333333333333</ele><time>2026-04-26T06:48:24.009Z</time></trkpt><trkpt lat="45.19066807246717" lon="9.50279472878495"><ele>54.166666666666664</ele><time>2026-04-26T06:48:25.009Z</time></trkpt><trkpt lat="45.19071300233503" lon="9.502880075106317"><ele>54.0</ele><time>2026-04-26T06:48:26.009Z</time></trkpt><trkpt lat="45.19075736217104" lon="9.502965831689206"><ele>54.0</ele><time>2026-04-26T06:48:27.009Z</time></trkpt><trkpt lat="45.19079959225148" lon="9.503050600810708"><ele>54.0</ele><time>2026-04-26T06:48:28.009Z</time></trkpt><trkpt lat="45.19084071924769" lon="9.503145855822403"><ele>54.0</ele><time>2026-04-26T06:48:29.009Z</time></trkpt><trkpt lat="45.19087025309574" lon="9.503246146732765"><ele>54.0</ele><time>2026-04-26T06:48:30.009Z</time></trkpt><trkpt lat="45.19089284774171" lon="9.503344797098205"><ele>54.0</ele><time>2026-04-26T06:48:31.009Z</time></trkpt><trkpt lat="45.19091722284081" lon="9.503447231681474"><ele>54.0</ele><time>2026-04-26T06:48:32.009Z</time></trkpt><trkpt lat="45.190939697372585" lon="9.503542007204091"><ele>54.0</ele><time>2026-04-26T06:48:33.009Z</time></trkpt><trkpt lat="45.19096727312389" lon="9.50364859093545"><ele>54.5</ele><time>2026-04-26T06:48:34.009Z</time></trkpt><trkpt lat="45.19099676288845" lon="9.50374823714765"><ele>55.0</ele><time>2026-04-26T06:48:35.009Z</time></trkpt><trkpt lat="45.191024580899175" lon="9.503851018212952"><ele>55.5</ele><time>2026-04-26T06:48:36.009Z</time></trkpt><trkpt lat="45.19105072724715" lon="9.503949486049104"><ele>56.0</ele><time>2026-04-26T06:48:37.009Z</time></trkpt><trkpt lat="45.191074462122536" lon="9.50405108098793"><ele>56.5</ele><time>2026-04-26T06:48:38.009Z</time></trkpt><trkpt lat="45.19110624767758" lon="9.50416078869273"><ele>57.0</ele><time>2026-04-26T06:48:39.009Z</time></trkpt><trkpt lat="45.19113447068847" lon="9.504262708468998"><ele>57.0</ele><time>2026-04-26T06:48:40.009Z</time></trkpt><trkpt lat="45.19116013747774" lon="9.504370590162289"><ele>57.0</ele><time>2026-04-26T06:48:41.009Z</time></trkpt><trkpt lat="45.191169095610796" lon="9.504484696462193"><ele>57.0</ele><time>2026-04-26T06:48:42.009Z</time></trkpt><trkpt lat="45.191157593283386" lon="9.504595399949737"><ele>57.0</ele><time>2026-04-26T06:48:43.009Z</time></trkpt><trkpt lat="45.19112358669807" lon="9.504712744575045"><ele>57.0</ele><time>2026-04-26T06:48:44.009Z</time></trkpt><trkpt lat="45.191074644446836" lon="9.504802985715688"><ele>57.0</ele><time>2026-04-26T06:48:45.009Z</time></trkpt><trkpt lat="45.19102629836844" lon="9.504897540537419"><ele>56.833333333333336</ele><time>2026-04-26T06:48:46.009Z</time></trkpt><trkpt lat="45.19098342446759" lon="9.504993492011062"><ele>56.66666666666667</ele><time>2026-04-26T06:48:47.009Z</time></trkpt><trkpt lat="45.19094651399253" lon="9.505098750230083"><ele>56.5</ele><time>2026-04-26T06:48:48.009Z</time></trkpt><trkpt lat="45.19091146391231" lon="9.505204063751474"><ele>56.333333333333336</ele><time>2026-04-26T06:48:49.009Z</time></trkpt><trkpt lat="45.1908765331227" lon="9.505310836767235"><ele>56.16666666666667</ele><time>2026-04-26T06:48:50.009Z</time></trkpt><trkpt lat="45.19084092145" lon="9.505410674377108"><ele>56.0</ele><time>2026-04-26T06:48:51.009Z</time></trkpt><trkpt lat="45.19080309625387" lon="9.5055085685455"><ele>56.00000000000001</ele><time>2026-04-26T06:48:52.009Z</time></trkpt><trkpt lat="45.19077092080654" lon="9.505609106303497"><ele>56.0</ele><time>2026-04-26T06:48:53.009Z</time></trkpt><trkpt lat="45.19073264790502" lon="9.505705548406416"><ele>56.0</ele><time>2026-04-26T06:48:54.009Z</time></trkpt><trkpt lat="45.19069606535896" lon="9.505809600410865"><ele>56.0</ele><time>2026-04-26T06:48:55.009Z</time></trkpt><trkpt lat="45.19065741544579" lon="9.505910548607407"><ele>56.00000000000001</ele><time>2026-04-26T06:48:56.009Z</time></trkpt><trkpt lat="45.19061948937384" lon="9.50600612536471"><ele>56.0</ele><time>2026-04-26T06:48:57.008Z</time></trkpt><trkpt lat="45.1905793516237" lon="9.506099609474523"><ele>55.833333333333336</ele><time>2026-04-26T06:48:58.008Z</time></trkpt><trkpt lat="45.190539031900805" lon="9.506202930685676"><ele>55.66666666666667</ele><time>2026-04-26T06:48:59.008Z</time></trkpt><trkpt lat="45.19050699572095" lon="9.50630830600047"><ele>55.5</ele><time>2026-04-26T06:49:00.008Z</time></trkpt><trkpt lat="45.19047701816832" lon="9.506415094464225"><ele>55.33333333333333</ele><time>2026-04-26T06:49:01.008Z</time></trkpt><trkpt lat="45.19044487566382" lon="9.50652491089206"><ele>55.166666666666664</ele><time>2026-04-26T06:49:02.008Z</time></trkpt><trkpt lat="45.19040420268931" lon="9.506622753320842"><ele>55.0</ele><time>2026-04-26T06:49:03.008Z</time></trkpt><trkpt lat="45.190374873080486" lon="9.506730162724615"><ele>54.99999999999999</ele><time>2026-04-26T06:49:04.008Z</time></trkpt><trkpt lat="45.19034159765523" lon="9.506829828614812"><ele>55.0</ele><time>2026-04-26T06:49:05.008Z</time></trkpt><trkpt lat="45.190313098460884" lon="9.506942572456063"><ele>55.0</ele><time>2026-04-26T06:49:06.008Z</time></trkpt><trkpt lat="45.19028924970315" lon="9.507050216976863"><ele>55.0</ele><time>2026-04-26T06:49:07.008Z</time></trkpt><trkpt lat="45.190262716244916" lon="9.507152565581528"><ele>54.99999999999999</ele><time>2026-04-26T06:49:08.008Z</time></trkpt><trkpt lat="45.19023579642864" lon="9.507252950819774"><ele>55.0</ele><time>2026-04-26T06:49:09.008Z</time></trkpt><trkpt lat="45.190208796375444" lon="9.5073581105416"><ele>54.99999999999999</ele><time>2026-04-26T06:49:10.008Z</time></trkpt><trkpt lat="45.19017961670654" lon="9.507459204732577"><ele>55.0</ele><time>2026-04-26T06:49:11.008Z</time></trkpt><trkpt lat="45.190149720363706" lon="9.507558134325954"><ele>55.0</ele><time>2026-04-26T06:49:12.008Z</time></trkpt><trkpt lat="45.190125149010804" lon="9.5076636272406"><ele>55.0</ele><time>2026-04-26T06:49:13.008Z</time></trkpt><trkpt lat="45.19010446472232" lon="9.507772933428202"><ele>54.99999999999999</ele><time>2026-04-26T06:49:14.008Z</time></trkpt><trkpt lat="45.19008100267082" lon="9.507881116209505"><ele>55.0</ele><time>2026-04-26T06:49:15.008Z</time></trkpt><trkpt lat="45.19005319355554" lon="9.507968673800889"><ele>54.857142857142854</ele><time>2026-04-26T06:49:16.008Z</time></trkpt><trkpt lat="45.19002878568327" lon="9.508055859378276"><ele>54.714285714285715</ele><time>2026-04-26T06:49:17.008Z</time></trkpt><trkpt lat="45.19001147910298" lon="9.508160181706222"><ele>54.57142857142857</ele><time>2026-04-26T06:49:18.008Z</time></trkpt><trkpt lat="45.189990689589365" lon="9.508258015729464"><ele>54.42857142857143</ele><time>2026-04-26T06:49:19.008Z</time></trkpt><trkpt lat="45.189968035422034" lon="9.508355351683479"><ele>54.285714285714285</ele><time>2026-04-26T06:49:20.008Z</time></trkpt><trkpt lat="45.18994457474274" lon="9.508458765168989"><ele>54.14285714285714</ele><time>2026-04-26T06:49:21.008Z</time></trkpt><trkpt lat="45.18991955475457" lon="9.508560082821404"><ele>54.0</ele><time>2026-04-26T06:49:22.008Z</time></trkpt><trkpt lat="45.1898997906312" lon="9.508656978975365"><ele>53.857142857142854</ele><time>2026-04-26T06:49:23.008Z</time></trkpt><trkpt lat="45.18987872807167" lon="9.50876693397517"><ele>53.71428571428571</ele><time>2026-04-26T06:49:24.008Z</time></trkpt><trkpt lat="45.189863798701886" lon="9.508867141498747"><ele>53.57142857142857</ele><time>2026-04-26T06:49:25.008Z</time></trkpt><trkpt lat="45.189846273089536" lon="9.508968796772198"><ele>53.42857142857143</ele><time>2026-04-26T06:49:26.008Z</time></trkpt><trkpt lat="45.18983254872773" lon="9.509068653336213"><ele>53.285714285714285</ele><time>2026-04-26T06:49:27.008Z</time></trkpt><trkpt lat="45.18982127443669" lon="9.509168042149149"><ele>53.142857142857146</ele><time>2026-04-26T06:49:28.008Z</time></trkpt><trkpt lat="45.189809633383035" lon="9.50926567568447"><ele>53.0</ele><time>2026-04-26T06:49:29.008Z</time></trkpt><trkpt lat="45.18980369480482" lon="9.50936624155055"><ele>53.0</ele><time>2026-04-26T06:49:30.008Z</time></trkpt><trkpt lat="45.1897994410133" lon="9.509462917924003"><ele>53.0</ele><time>2026-04-26T06:49:31.008Z</time></trkpt><trkpt lat="45.18979164475396" lon="9.509558192027997"><ele>53.0</ele><time>2026-04-26T06:49:32.008Z</time></trkpt><trkpt lat="45.189784822398245" lon="9.509656070029676"><ele>53.0</ele><time>2026-04-26T06:49:33.008Z</time></trkpt><trkpt lat="45.18977822430968" lon="9.509757072113587"><ele>53.0</ele><time>2026-04-26T06:49:34.008Z</time></trkpt><trkpt lat="45.189764577273195" lon="9.509849010562927"><ele>53.0</ele><time>2026-04-26T06:49:35.008Z</time></trkpt><trkpt lat="45.189747288694804" lon="9.50994539961839"><ele>53.0</ele><time>2026-04-26T06:49:36.008Z</time></trkpt><trkpt lat="45.18972063052157" lon="9.510033720638177"><ele>53.0</ele><time>2026-04-26T06:49:37.008Z</time></trkpt><trkpt lat="45.18968945864339" lon="9.510123994417508"><ele>53.0</ele><time>2026-04-26T06:49:38.008Z</time></trkpt><trkpt lat="45.18965904584285" lon="9.510209656971348"><ele>53.0</ele><time>2026-04-26T06:49:39.008Z</time></trkpt><trkpt lat="45.18963937900934" lon="9.51031104188002"><ele>53.0</ele><time>2026-04-26T06:49:40.008Z</time></trkpt><trkpt lat="45.18962684051973" lon="9.510407423077572"><ele>53.0</ele><time>2026-04-26T06:49:41.008Z</time></trkpt><trkpt lat="45.18961039801208" lon="9.510504263269492"><ele>53.0</ele><time>2026-04-26T06:49:42.008Z</time></trkpt><trkpt lat="45.18960024208441" lon="9.510597344134059"><ele>53.0</ele><time>2026-04-26T06:49:43.008Z</time></trkpt><trkpt lat="45.18957858513329" lon="9.510694630856023"><ele>53.142857142857146</ele><time>2026-04-26T06:49:44.008Z</time></trkpt><trkpt lat="45.189545911859184" lon="9.510790242553869"><ele>53.285714285714285</ele><time>2026-04-26T06:49:45.008Z</time></trkpt><trkpt lat="45.18950822985262" lon="9.510877593874703"><ele>53.42857142857143</ele><time>2026-04-26T06:49:46.008Z</time></trkpt><trkpt lat="45.189474214193645" lon="9.5109620686928"><ele>53.57142857142857</ele><time>2026-04-26T06:49:47.008Z</time></trkpt><trkpt lat="45.18945039374941" lon="9.511045210029168"><ele>53.71428571428571</ele><time>2026-04-26T06:49:48.008Z</time></trkpt><trkpt lat="45.18940551899407" lon="9.51113031226156"><ele>53.857142857142854</ele><time>2026-04-26T06:49:49.008Z</time></trkpt><trkpt lat="45.18936729894726" lon="9.511226387781354"><ele>54.0</ele><time>2026-04-26T06:49:50.008Z</time></trkpt><trkpt lat="45.18933315401131" lon="9.511322316748675"><ele>54.0</ele><time>2026-04-26T06:49:51.008Z</time></trkpt><trkpt lat="45.189304879757" lon="9.511418851027075"><ele>54.0</ele><time>2026-04-26T06:49:52.008Z</time></trkpt><trkpt lat="45.1892666220046" lon="9.511594940709177"><ele>54.0</ele><time>2026-04-26T06:49:54.01Z</time></trkpt><trkpt lat="45.189243867228754" lon="9.51169645750512"><ele>54.0</ele><time>2026-04-26T06:49:55.01Z</time></trkpt><trkpt lat="45.18922363382538" lon="9.511790081290581"><ele>54.0</ele><time>2026-04-26T06:49:56.01Z</time></trkpt><trkpt lat="45.18921199096139" lon="9.511880144899933"><ele>54.0</ele><time>2026-04-26T06:49:57.01Z</time></trkpt><trkpt lat="45.189207801972316" lon="9.511984710166391"><ele>54.0</ele><time>2026-04-26T06:49:58.01Z</time></trkpt><trkpt lat="45.189197769877346" lon="9.512085063330698"><ele>54.0</ele><time>2026-04-26T06:49:59.009Z</time></trkpt><trkpt lat="45.189183312150085" lon="9.512183100613578"><ele>54.0</ele><time>2026-04-26T06:50:00.01Z</time></trkpt><trkpt lat="45.189169958038086" lon="9.512287621064345"><ele>54.0</ele><time>2026-04-26T06:50:01.01Z</time></trkpt><trkpt lat="45.18915583397059" lon="9.512388275064106"><ele>54.0</ele><time>2026-04-26T06:50:02.009Z</time></trkpt><trkpt lat="45.18914383096483" lon="9.512491552792804"><ele>54.0</ele><time>2026-04-26T06:50:03.01Z</time></trkpt><trkpt lat="45.18912557075614" lon="9.51258234235373"><ele>54.0</ele><time>2026-04-26T06:50:04.01Z</time></trkpt><trkpt lat="45.18910951442611" lon="9.512683918674476"><ele>54.0</ele><time>2026-04-26T06:50:05.01Z</time></trkpt><trkpt lat="45.1890948215847" lon="9.512773282528922"><ele>54.0</ele><time>2026-04-26T06:50:06.01Z</time></trkpt><trkpt lat="45.18908081219306" lon="9.512867008762782"><ele>54.0</ele><time>2026-04-26T06:50:07.01Z</time></trkpt><trkpt lat="45.189060866554186" lon="9.512970849283061"><ele>54.0</ele><time>2026-04-26T06:50:08.01Z</time></trkpt><trkpt lat="45.18903850558341" lon="9.513073041376744"><ele>54.0</ele><time>2026-04-26T06:50:09.01Z</time></trkpt><trkpt lat="45.189015398647804" lon="9.513167917698668"><ele>54.0</ele><time>2026-04-26T06:50:10.01Z</time></trkpt><trkpt lat="45.18899060193636" lon="9.51326339272712"><ele>54.0</ele><time>2026-04-26T06:50:11.01Z</time></trkpt><trkpt lat="45.18896611801035" lon="9.513359834080713"><ele>53.57142857142857</ele><time>2026-04-26T06:50:12.01Z</time></trkpt><trkpt lat="45.18894264988259" lon="9.513454210143308"><ele>53.14285714285714</ele><time>2026-04-26T06:50:13.01Z</time></trkpt><trkpt lat="45.188919332491956" lon="9.513550726800522"><ele>52.714285714285715</ele><time>2026-04-26T06:50:14.01Z</time></trkpt><trkpt lat="45.188894579398294" lon="9.513663202333662"><ele>52.285714285714285</ele><time>2026-04-26T06:50:15.01Z</time></trkpt><trkpt lat="45.18885902649687" lon="9.513745637842455"><ele>51.85714285714286</ele><time>2026-04-26T06:50:16.01Z</time></trkpt><trkpt lat="45.188825440304555" lon="9.513834074752296"><ele>51.42857142857143</ele><time>2026-04-26T06:50:17.01Z</time></trkpt><trkpt lat="45.18878820452945" lon="9.513926517194484"><ele>51.0</ele><time>2026-04-26T06:50:18.01Z</time></trkpt><trkpt lat="45.188746989275096" lon="9.514007852565463"><ele>51.0</ele><time>2026-04-26T06:50:19.01Z</time></trkpt><trkpt lat="45.188708987766375" lon="9.514089716612213"><ele>51.0</ele><time>2026-04-26T06:50:20.01Z</time></trkpt><trkpt lat="45.188670259295044" lon="9.51417781619358"><ele>51.0</ele><time>2026-04-26T06:50:21.01Z</time></trkpt><trkpt lat="45.18863187862704" lon="9.5142554401746"><ele>51.0</ele><time>2026-04-26T06:50:22.01Z</time></trkpt><trkpt lat="45.18859665934989" lon="9.514331021301588"><ele>51.0</ele><time>2026-04-26T06:50:23.01Z</time></trkpt><trkpt lat="45.18855515189312" lon="9.514404190540484"><ele>51.0</ele><time>2026-04-26T06:50:24.01Z</time></trkpt><trkpt lat="45.18848334009285" lon="9.51455270072561"><ele>51.5</ele><time>2026-04-26T06:50:26.01Z</time></trkpt><trkpt lat="45.18844672954641" lon="9.514632214485456"><ele>52.0</ele><time>2026-04-26T06:50:27.01Z</time></trkpt><trkpt lat="45.188400951402194" lon="9.514712264066947"><ele>52.5</ele><time>2026-04-26T06:50:28.01Z</time></trkpt><trkpt lat="45.18834426643883" lon="9.51480018426267"><ele>53.0</ele><time>2026-04-26T06:50:29.01Z</time></trkpt><trkpt lat="45.18828931876778" lon="9.514883519662432"><ele>53.5</ele><time>2026-04-26T06:50:30.01Z</time></trkpt><trkpt lat="45.188235602023276" lon="9.514962910723957"><ele>54.0</ele><time>2026-04-26T06:50:31.01Z</time></trkpt><trkpt lat="45.18818406257336" lon="9.515033981833534"><ele>53.6</ele><time>2026-04-26T06:50:32.01Z</time></trkpt><trkpt lat="45.188104767089484" lon="9.515164345885257"><ele>53.2</ele><time>2026-04-26T06:50:34.01Z</time></trkpt><trkpt lat="45.1880562255346" lon="9.51525825679621"><ele>52.800000000000004</ele><time>2026-04-26T06:50:36.01Z</time></trkpt><trkpt lat="45.18798133060493" lon="9.515319324563318"><ele>52.400000000000006</ele><time>2026-04-26T06:50:37.01Z</time></trkpt><trkpt lat="45.1879109609569" lon="9.515397297435118"><ele>52.0</ele><time>2026-04-26T06:50:38.01Z</time></trkpt><trkpt lat="45.18782763700209" lon="9.515494069230359"><ele>52.0</ele><time>2026-04-26T06:50:40.01Z</time></trkpt><trkpt lat="45.187765408165305" lon="9.515553186291584"><ele>52.0</ele><time>2026-04-26T06:50:41.01Z</time></trkpt><trkpt lat="45.18771613284254" lon="9.515616436467008"><ele>52.0</ele><time>2026-04-26T06:50:42.01Z</time></trkpt><trkpt lat="45.18766631770062" lon="9.515676291315929"><ele>52.0</ele><time>2026-04-26T06:50:43.01Z</time></trkpt><trkpt lat="45.18755693808199" lon="9.515768664552242"><ele>52.0</ele><time>2026-04-26T06:50:45.01Z</time></trkpt><trkpt lat="45.18745981425061" lon="9.515858111200389"><ele>51.99999999999999</ele><time>2026-04-26T06:50:47.01Z</time></trkpt><trkpt lat="45.187392418100465" lon="9.515899493652544"><ele>52.0</ele><time>2026-04-26T06:50:48.01Z</time></trkpt><trkpt lat="45.187329571146094" lon="9.515949126653839"><ele>52.0</ele><time>2026-04-26T06:50:49.01Z</time></trkpt><trkpt lat="45.18725423040924" lon="9.515992350528112"><ele>52.0</ele><time>2026-04-26T06:50:50.01Z</time></trkpt><trkpt lat="45.18716834345363" lon="9.51603488940893"><ele>51.99999999999999</ele><time>2026-04-26T06:50:51.01Z</time></trkpt><trkpt lat="45.187085532377374" lon="9.516076361365458"><ele>52.0</ele><time>2026-04-26T06:50:52.01Z</time></trkpt><trkpt lat="45.187017250470035" lon="9.5161253920395"><ele>51.99999999999999</ele><time>2026-04-26T06:50:53.01Z</time></trkpt><trkpt lat="45.186950139895934" lon="9.516181796798218"><ele>52.0</ele><time>2026-04-26T06:50:54.01Z</time></trkpt><trkpt lat="45.18688690080209" lon="9.51623898607963"><ele>52.0</ele><time>2026-04-26T06:50:55.01Z</time></trkpt><trkpt lat="45.18682426788057" lon="9.516308070722554"><ele>52.0</ele><time>2026-04-26T06:50:56.01Z</time></trkpt><trkpt lat="45.18677864481814" lon="9.516380690861702"><ele>51.99999999999999</ele><time>2026-04-26T06:50:57.01Z</time></trkpt><trkpt lat="45.18672406499264" lon="9.516452388094631"><ele>52.0</ele><time>2026-04-26T06:50:58.009Z</time></trkpt><trkpt lat="45.18666725814385" lon="9.516524312526679"><ele>52.0</ele><time>2026-04-26T06:50:59.009Z</time></trkpt><trkpt lat="45.18661728106252" lon="9.516594103408746"><ele>52.0</ele><time>2026-04-26T06:51:00.009Z</time></trkpt><trkpt lat="45.18656135261592" lon="9.51665903729624"><ele>52.0</ele><time>2026-04-26T06:51:01.009Z</time></trkpt><trkpt lat="45.186508428856094" lon="9.516725252469957"><ele>52.0</ele><time>2026-04-26T06:51:02.009Z</time></trkpt><trkpt lat="45.18645435666851" lon="9.516791576228117"><ele>52.0</ele><time>2026-04-26T06:51:03.009Z</time></trkpt><trkpt lat="45.18639965737381" lon="9.51684317201131"><ele>52.0</ele><time>2026-04-26T06:51:04.009Z</time></trkpt><trkpt lat="45.18634054324753" lon="9.516896328662309"><ele>52.0</ele><time>2026-04-26T06:51:05.009Z</time></trkpt><trkpt lat="45.18628684194195" lon="9.51695162923888"><ele>52.166666666666664</ele><time>2026-04-26T06:51:06.009Z</time></trkpt><trkpt lat="45.186244183260335" lon="9.51702431727607"><ele>52.33333333333333</ele><time>2026-04-26T06:51:07.009Z</time></trkpt><trkpt lat="45.18622612014721" lon="9.51711307145237"><ele>52.5</ele><time>2026-04-26T06:51:08.009Z</time></trkpt><trkpt lat="45.18623036835561" lon="9.51721720982374"><ele>52.66666666666667</ele><time>2026-04-26T06:51:09.009Z</time></trkpt><trkpt lat="45.18626187019755" lon="9.517303487668991"><ele>52.833333333333336</ele><time>2026-04-26T06:51:10.009Z</time></trkpt><trkpt lat="45.18629573052665" lon="9.517396037701996"><ele>53.0</ele><time>2026-04-26T06:51:11.009Z</time></trkpt><trkpt lat="45.18633403399594" lon="9.517568850167791"><ele>53.00000000000001</ele><time>2026-04-26T06:51:13.009Z</time></trkpt><trkpt lat="45.186354624960465" lon="9.517661616823835"><ele>53.0</ele><time>2026-04-26T06:51:14.009Z</time></trkpt><trkpt lat="45.18637109705681" lon="9.517750215081028"><ele>53.0</ele><time>2026-04-26T06:51:15.009Z</time></trkpt><trkpt lat="45.18638633290897" lon="9.517843389460205"><ele>53.0</ele><time>2026-04-26T06:51:16.009Z</time></trkpt><trkpt lat="45.18640163258507" lon="9.517932936885343"><ele>53.00000000000001</ele><time>2026-04-26T06:51:17.009Z</time></trkpt><trkpt lat="45.186409741573044" lon="9.5180276399878"><ele>53.0</ele><time>2026-04-26T06:51:18.009Z</time></trkpt><trkpt lat="45.1864025485595" lon="9.518201013259546"><ele>53.25</ele><time>2026-04-26T06:51:20.009Z</time></trkpt><trkpt lat="45.18637296551962" lon="9.518366161218916"><ele>53.5</ele><time>2026-04-26T06:51:22.009Z</time></trkpt><trkpt lat="45.1863537278054" lon="9.518536042736285"><ele>53.75</ele><time>2026-04-26T06:51:24.009Z</time></trkpt><trkpt lat="45.18635607844851" lon="9.518726047726574"><ele>54.0</ele><time>2026-04-26T06:51:26.009Z</time></trkpt><trkpt lat="45.18636741255331" lon="9.518906212449881"><ele>54.0</ele><time>2026-04-26T06:51:28.009Z</time></trkpt><trkpt lat="45.186377383434056" lon="9.519058624119614"><ele>54.0</ele><time>2026-04-26T06:51:30.009Z</time></trkpt><trkpt lat="45.18639390188889" lon="9.519145323599425"><ele>54.0</ele><time>2026-04-26T06:51:31.009Z</time></trkpt><trkpt lat="45.18641372980037" lon="9.519242826323914"><ele>54.0</ele><time>2026-04-26T06:51:32.009Z</time></trkpt><trkpt lat="45.18641598564464" lon="9.51933497887051"><ele>54.0</ele><time>2026-04-26T06:51:33.009Z</time></trkpt><trkpt lat="45.18643076008331" lon="9.519426426310176"><ele>54.0</ele><time>2026-04-26T06:51:34.009Z</time></trkpt><trkpt lat="45.18644866671521" lon="9.519575786117022"><ele>53.833333333333336</ele><time>2026-04-26T06:51:36.009Z</time></trkpt><trkpt lat="45.18645979270927" lon="9.519666166365184"><ele>53.66666666666667</ele><time>2026-04-26T06:51:37.009Z</time></trkpt><trkpt lat="45.186472023503846" lon="9.51977000215431"><ele>53.5</ele><time>2026-04-26T06:51:38.009Z</time></trkpt><trkpt lat="45.18648287549933" lon="9.519949164556245"><ele>53.333333333333336</ele><time>2026-04-26T06:51:40.009Z</time></trkpt><trkpt lat="45.18650679248137" lon="9.520044683339046"><ele>53.16666666666667</ele><time>2026-04-26T06:51:41.009Z</time></trkpt><trkpt lat="45.186522386875" lon="9.520139058248985"><ele>53.0</ele><time>2026-04-26T06:51:42.009Z</time></trkpt><trkpt lat="45.18656180078256" lon="9.520304109684185"><ele>53.333333333333336</ele><time>2026-04-26T06:51:44.009Z</time></trkpt><trkpt lat="45.18658985676431" lon="9.520404545572328"><ele>53.66666666666667</ele><time>2026-04-26T06:51:45.009Z</time></trkpt><trkpt lat="45.186623108639616" lon="9.520483321781585"><ele>54.0</ele><time>2026-04-26T06:51:46.009Z</time></trkpt><trkpt lat="45.18666306730173" lon="9.520558645992898"><ele>54.33333333333333</ele><time>2026-04-26T06:51:47.009Z</time></trkpt><trkpt lat="45.18670347179839" lon="9.520628722053587"><ele>54.666666666666664</ele><time>2026-04-26T06:51:48.009Z</time></trkpt><trkpt lat="45.18677341212179" lon="9.520748857869824"><ele>55.0</ele><time>2026-04-26T06:51:50.009Z</time></trkpt><trkpt lat="45.18684805406569" lon="9.520862229879734"><ele>55.0</ele><time>2026-04-26T06:51:52.009Z</time></trkpt><trkpt lat="45.18690593830289" lon="9.520969974024991"><ele>55.0</ele><time>2026-04-26T06:51:54.009Z</time></trkpt><trkpt lat="45.18696924237472" lon="9.52108836735645"><ele>55.0</ele><time>2026-04-26T06:51:56.009Z</time></trkpt><trkpt lat="45.187043448838615" lon="9.521190338928507"><ele>55.0</ele><time>2026-04-26T06:51:58.009Z</time></trkpt><trkpt lat="45.187078495629706" lon="9.52127300945423"><ele>55.0</ele><time>2026-04-26T06:51:59.01Z</time></trkpt><trkpt lat="45.18713819639963" lon="9.521397091150034"><ele>55.4</ele><time>2026-04-26T06:52:01.01Z</time></trkpt><trkpt lat="45.18721017610872" lon="9.521498511553714"><ele>55.8</ele><time>2026-04-26T06:52:03.009Z</time></trkpt><trkpt lat="45.187279674191814" lon="9.521605441129203"><ele>56.2</ele><time>2026-04-26T06:52:05.009Z</time></trkpt><trkpt lat="45.18734938437207" lon="9.521716161315211"><ele>56.6</ele><time>2026-04-26T06:52:07.01Z</time></trkpt><trkpt lat="45.187423053297785" lon="9.521809811094515"><ele>57.0</ele><time>2026-04-26T06:52:09.01Z</time></trkpt><trkpt lat="45.187503571119855" lon="9.52191021386058"><ele>57.6</ele><time>2026-04-26T06:52:11.01Z</time></trkpt><trkpt lat="45.18756838924992" lon="9.521997055279167"><ele>58.2</ele><time>2026-04-26T06:52:13.01Z</time></trkpt><trkpt lat="45.18761741305566" lon="9.522072698604473"><ele>58.8</ele><time>2026-04-26T06:52:15.01Z</time></trkpt><trkpt lat="45.18763699518092" lon="9.52221200995007"><ele>59.4</ele><time>2026-04-26T06:52:17.01Z</time></trkpt><trkpt lat="45.18759388773779" lon="9.522338850360988"><ele>60.0</ele><time>2026-04-26T06:52:19.01Z</time></trkpt><trkpt lat="45.18755764538837" lon="9.52246026571866"><ele>60.2</ele><time>2026-04-26T06:52:21.009Z</time></trkpt><trkpt lat="45.187533549271045" lon="9.522586329931066"><ele>60.4</ele><time>2026-04-26T06:52:23.009Z</time></trkpt><trkpt lat="45.1874970555708" lon="9.522667753467115"><ele>60.599999999999994</ele><time>2026-04-26T06:52:24.009Z</time></trkpt><trkpt lat="45.18743060929425" lon="9.522812582127168"><ele>60.8</ele><time>2026-04-26T06:52:26.009Z</time></trkpt><trkpt lat="45.187362360213974" lon="9.52294876669978"><ele>61.0</ele><time>2026-04-26T06:52:28.009Z</time></trkpt><trkpt lat="45.18727446961441" lon="9.523080092693558"><ele>61.166666666666664</ele><time>2026-04-26T06:52:30.009Z</time></trkpt><trkpt lat="45.187226214529666" lon="9.523145963507687"><ele>61.33333333333333</ele><time>2026-04-26T06:52:31.009Z</time></trkpt><trkpt lat="45.1871778497862" lon="9.523209208523216"><ele>61.5</ele><time>2026-04-26T06:52:32.009Z</time></trkpt><trkpt lat="45.18713384116171" lon="9.523274722037497"><ele>61.66666666666667</ele><time>2026-04-26T06:52:33.009Z</time></trkpt><trkpt lat="45.18708285661983" lon="9.523331751429291"><ele>61.833333333333336</ele><time>2026-04-26T06:52:34.009Z</time></trkpt><trkpt lat="45.18702572696602" lon="9.52338598734749"><ele>62.0</ele><time>2026-04-26T06:52:35.009Z</time></trkpt><trkpt lat="45.186925903926294" lon="9.523498157869835"><ele>62.0</ele><time>2026-04-26T06:52:37.009Z</time></trkpt><trkpt lat="45.18687009996414" lon="9.523561235929055"><ele>62.0</ele><time>2026-04-26T06:52:38.009Z</time></trkpt><trkpt lat="45.18676862065818" lon="9.523688910189577"><ele>62.0</ele><time>2026-04-26T06:52:40.009Z</time></trkpt><trkpt lat="45.18668718506853" lon="9.52382967681416"><ele>62.0</ele><time>2026-04-26T06:52:42.009Z</time></trkpt><trkpt lat="45.18665772331068" lon="9.523917719371953"><ele>62.0</ele><time>2026-04-26T06:52:43.009Z</time></trkpt><trkpt lat="45.186634427738355" lon="9.524008145486102"><ele>62.00000000000001</ele><time>2026-04-26T06:52:44.009Z</time></trkpt><trkpt lat="45.18663084658958" lon="9.524101012718852"><ele>62.0</ele><time>2026-04-26T06:52:45.009Z</time></trkpt><trkpt lat="45.186631076728986" lon="9.524196533227947"><ele>62.0</ele><time>2026-04-26T06:52:46.009Z</time></trkpt><trkpt lat="45.18665234828374" lon="9.524375356719892"><ele>62.0</ele><time>2026-04-26T06:52:48.009Z</time></trkpt><trkpt lat="45.18668012683017" lon="9.524473774297581"><ele>62.00000000000001</ele><time>2026-04-26T06:52:49.009Z</time></trkpt><trkpt lat="45.186712614116445" lon="9.524556957601503"><ele>62.0</ele><time>2026-04-26T06:52:50.009Z</time></trkpt><trkpt lat="45.1867538508825" lon="9.524630782924387"><ele>62.2</ele><time>2026-04-26T06:52:51.009Z</time></trkpt><trkpt lat="45.18679900802559" lon="9.52470051982155"><ele>62.400000000000006</ele><time>2026-04-26T06:52:52.009Z</time></trkpt><trkpt lat="45.18684481773292" lon="9.524763190562513"><ele>62.599999999999994</ele><time>2026-04-26T06:52:53.009Z</time></trkpt><trkpt lat="45.18692923414192" lon="9.524894679711256"><ele>62.8</ele><time>2026-04-26T06:52:55.009Z</time></trkpt><trkpt lat="45.18701086479345" lon="9.525009535082365"><ele>63.0</ele><time>2026-04-26T06:52:57.009Z</time></trkpt><trkpt lat="45.18709169883024" lon="9.525138610051394"><ele>63.0</ele><time>2026-04-26T06:52:59.009Z</time></trkpt><trkpt lat="45.18718380027205" lon="9.525263174886808"><ele>63.0</ele><time>2026-04-26T06:53:01.009Z</time></trkpt><trkpt lat="45.18726378984002" lon="9.525372808371163"><ele>63.0</ele><time>2026-04-26T06:53:03.009Z</time></trkpt><trkpt lat="45.18734031487725" lon="9.525484334334969"><ele>63.0</ele><time>2026-04-26T06:53:05.009Z</time></trkpt><trkpt lat="45.18738646405872" lon="9.525548644565998"><ele>63.0</ele><time>2026-04-26T06:53:06.009Z</time></trkpt><trkpt lat="45.187473938994515" lon="9.525662711689671"><ele>63.0</ele><time>2026-04-26T06:53:08.009Z</time></trkpt><trkpt lat="45.187555646726665" lon="9.525784229020605"><ele>63.0</ele><time>2026-04-26T06:53:10.009Z</time></trkpt><trkpt lat="45.1876456752542" lon="9.525914597611411"><ele>63.0</ele><time>2026-04-26T06:53:12.009Z</time></trkpt><trkpt lat="45.187725290887556" lon="9.52602445530106"><ele>63.0</ele><time>2026-04-26T06:53:14.009Z</time></trkpt><trkpt lat="45.187773782718175" lon="9.52608964804133"><ele>63.0</ele><time>2026-04-26T06:53:15.009Z</time></trkpt><trkpt lat="45.18786337062621" lon="9.526204379406229"><ele>63.0</ele><time>2026-04-26T06:53:17.009Z</time></trkpt><trkpt lat="45.187914318282864" lon="9.526266772238701"><ele>63.0</ele><time>2026-04-26T06:53:18.009Z</time></trkpt><trkpt lat="45.18800029306063" lon="9.526379784541337"><ele>63.0</ele><time>2026-04-26T06:53:20.009Z</time></trkpt><trkpt lat="45.188091009531696" lon="9.526505800937024"><ele>63.0</ele><time>2026-04-26T06:53:22.009Z</time></trkpt><trkpt lat="45.18817378390696" lon="9.526620949879007"><ele>63.0</ele><time>2026-04-26T06:53:24.009Z</time></trkpt><trkpt lat="45.18822301591056" lon="9.526689299065843"><ele>63.0</ele><time>2026-04-26T06:53:25.009Z</time></trkpt><trkpt lat="45.18827197256833" lon="9.526755689352376"><ele>63.0</ele><time>2026-04-26T06:53:26.009Z</time></trkpt><trkpt lat="45.18835996632147" lon="9.526882783349668"><ele>63.0</ele><time>2026-04-26T06:53:28.009Z</time></trkpt><trkpt lat="45.18844602968227" lon="9.527001683470354"><ele>63.0</ele><time>2026-04-26T06:53:30.009Z</time></trkpt><trkpt lat="45.18852788012118" lon="9.527130947704942"><ele>63.0</ele><time>2026-04-26T06:53:32.009Z</time></trkpt><trkpt lat="45.18856277391544" lon="9.52720547917696"><ele>63.0</ele><time>2026-04-26T06:53:33.009Z</time></trkpt><trkpt lat="45.188595658639166" lon="9.527283836567658"><ele>63.0</ele><time>2026-04-26T06:53:34.009Z</time></trkpt><trkpt lat="45.18866012441744" lon="9.527429156053556"><ele>63.0</ele><time>2026-04-26T06:53:36.009Z</time></trkpt><trkpt lat="45.18869921393629" lon="9.527504411404651"><ele>63.0</ele><time>2026-04-26T06:53:37.009Z</time></trkpt><trkpt lat="45.18876374841676" lon="9.527658488811309"><ele>63.0</ele><time>2026-04-26T06:53:39.009Z</time></trkpt><trkpt lat="45.1887959771552" lon="9.527736127635203"><ele>63.0</ele><time>2026-04-26T06:53:40.009Z</time></trkpt><trkpt lat="45.188825056543905" lon="9.527816535525636"><ele>63.0</ele><time>2026-04-26T06:53:41.009Z</time></trkpt><trkpt lat="45.188854021133636" lon="9.527897535330904"><ele>63.0</ele><time>2026-04-26T06:53:42.009Z</time></trkpt><trkpt lat="45.188908629904375" lon="9.5280629250551"><ele>63.0</ele><time>2026-04-26T06:53:44.009Z</time></trkpt><trkpt lat="45.1889349902725" lon="9.528148714770735"><ele>63.0</ele><time>2026-04-26T06:53:45.009Z</time></trkpt><trkpt lat="45.18897013129409" lon="9.528238613848558"><ele>63.0</ele><time>2026-04-26T06:53:46.009Z</time></trkpt><trkpt lat="45.18902842576946" lon="9.528403499390185"><ele>62.8</ele><time>2026-04-26T06:53:48.009Z</time></trkpt><trkpt lat="45.189055728120664" lon="9.528488018565701"><ele>62.599999999999994</ele><time>2026-04-26T06:53:49.009Z</time></trkpt><trkpt lat="45.189116839925575" lon="9.528661200531396"><ele>62.400000000000006</ele><time>2026-04-26T06:53:51.009Z</time></trkpt><trkpt lat="45.18917715808382" lon="9.528826550317302"><ele>62.2</ele><time>2026-04-26T06:53:53.009Z</time></trkpt><trkpt lat="45.18920247090322" lon="9.528911131749677"><ele>62.0</ele><time>2026-04-26T06:53:54.009Z</time></trkpt><trkpt lat="45.1892316967175" lon="9.528997777302536"><ele>62.16666666666667</ele><time>2026-04-26T06:53:55.009Z</time></trkpt><trkpt lat="45.18926304321422" lon="9.529086199471609"><ele>62.333333333333336</ele><time>2026-04-26T06:53:56.009Z</time></trkpt><trkpt lat="45.18929847568594" lon="9.52917941025457"><ele>62.5</ele><time>2026-04-26T06:53:57.009Z</time></trkpt><trkpt lat="45.18935613072077" lon="9.529343155919115"><ele>62.66666666666667</ele><time>2026-04-26T06:53:59.009Z</time></trkpt><trkpt lat="45.18938779008205" lon="9.529433087366044"><ele>62.833333333333336</ele><time>2026-04-26T06:54:00.009Z</time></trkpt><trkpt lat="45.189418449136305" lon="9.529521573260892"><ele>63.0</ele><time>2026-04-26T06:54:01.009Z</time></trkpt><trkpt lat="45.18944917396017" lon="9.52960101921146"><ele>63.0</ele><time>2026-04-26T06:54:02.009Z</time></trkpt><trkpt lat="45.18948342680864" lon="9.529698148376001"><ele>63.0</ele><time>2026-04-26T06:54:03.009Z</time></trkpt><trkpt lat="45.18951745481091" lon="9.529789603867938"><ele>63.0</ele><time>2026-04-26T06:54:04.009Z</time></trkpt><trkpt lat="45.18957612603485" lon="9.529962365752889"><ele>63.0</ele><time>2026-04-26T06:54:06.01Z</time></trkpt><trkpt lat="45.18961004641535" lon="9.53005814197345"><ele>63.0</ele><time>2026-04-26T06:54:07.01Z</time></trkpt><trkpt lat="45.1896375078565" lon="9.530147400417412"><ele>63.0</ele><time>2026-04-26T06:54:08.01Z</time></trkpt><trkpt lat="45.18966922947257" lon="9.530243117529478"><ele>63.0</ele><time>2026-04-26T06:54:09.01Z</time></trkpt><trkpt lat="45.1896958043752" lon="9.530337784079816"><ele>63.0</ele><time>2026-04-26T06:54:10.01Z</time></trkpt><trkpt lat="45.189723007835674" lon="9.530425064146783"><ele>63.0</ele><time>2026-04-26T06:54:11.01Z</time></trkpt><trkpt lat="45.18974818122118" lon="9.530518954574093"><ele>63.0</ele><time>2026-04-26T06:54:12.01Z</time></trkpt><trkpt lat="45.18977793003457" lon="9.530612843754884"><ele>63.0</ele><time>2026-04-26T06:54:13.01Z</time></trkpt><trkpt lat="45.1898057845272" lon="9.530707825602653"><ele>63.0</ele><time>2026-04-26T06:54:14.011Z</time></trkpt><trkpt lat="45.189833530687764" lon="9.530800985039969"><ele>63.0</ele><time>2026-04-26T06:54:15.01Z</time></trkpt><trkpt lat="45.18985978671285" lon="9.5308913707695"><ele>63.14285714285714</ele><time>2026-04-26T06:54:16.01Z</time></trkpt><trkpt lat="45.189884608285745" lon="9.530981027812242"><ele>63.285714285714285</ele><time>2026-04-26T06:54:17.01Z</time></trkpt><trkpt lat="45.18990883830854" lon="9.53106911117456"><ele>63.42857142857143</ele><time>2026-04-26T06:54:18.01Z</time></trkpt><trkpt lat="45.18993768617211" lon="9.53116810194846"><ele>63.57142857142857</ele><time>2026-04-26T06:54:19.01Z</time></trkpt><trkpt lat="45.18996355251857" lon="9.531260502179963"><ele>63.71428571428571</ele><time>2026-04-26T06:54:20.01Z</time></trkpt><trkpt lat="45.189987637074964" lon="9.53134491879229"><ele>63.857142857142854</ele><time>2026-04-26T06:54:21.01Z</time></trkpt><trkpt lat="45.190019747807305" lon="9.531435553600788"><ele>64.0</ele><time>2026-04-26T06:54:22.01Z</time></trkpt><trkpt lat="45.19004284240288" lon="9.531519864526638"><ele>63.71428571428571</ele><time>2026-04-26T06:54:23.01Z</time></trkpt><trkpt lat="45.19006751004702" lon="9.531610384368692"><ele>63.42857142857142</ele><time>2026-04-26T06:54:24.01Z</time></trkpt><trkpt lat="45.19009053464637" lon="9.531694959164193"><ele>63.14285714285714</ele><time>2026-04-26T06:54:25.01Z</time></trkpt><trkpt lat="45.19011833925733" lon="9.531788827539874"><ele>62.85714285714286</ele><time>2026-04-26T06:54:26.01Z</time></trkpt><trkpt lat="45.190142189114056" lon="9.531875110046489"><ele>62.57142857142858</ele><time>2026-04-26T06:54:27.01Z</time></trkpt><trkpt lat="45.19016851806195" lon="9.531963432942748"><ele>62.28571428571429</ele><time>2026-04-26T06:54:28.01Z</time></trkpt><trkpt lat="45.190195629935" lon="9.532051447984534"><ele>62.0</ele><time>2026-04-26T06:54:29.01Z</time></trkpt><trkpt lat="45.19022250072825" lon="9.532142806336312"><ele>61.85714285714286</ele><time>2026-04-26T06:54:30.01Z</time></trkpt><trkpt lat="45.19024766474337" lon="9.53223303150209"><ele>61.71428571428572</ele><time>2026-04-26T06:54:31.01Z</time></trkpt><trkpt lat="45.19027442844462" lon="9.53232237610822"><ele>61.57142857142857</ele><time>2026-04-26T06:54:32.01Z</time></trkpt><trkpt lat="45.190296627711476" lon="9.532411338050085"><ele>61.42857142857143</ele><time>2026-04-26T06:54:33.01Z</time></trkpt><trkpt lat="45.19031989260367" lon="9.532498803650524"><ele>61.285714285714285</ele><time>2026-04-26T06:54:34.01Z</time></trkpt><trkpt lat="45.190346464327696" lon="9.532589669481746"><ele>61.14285714285714</ele><time>2026-04-26T06:54:35.01Z</time></trkpt><trkpt lat="45.190371887287725" lon="9.532680919850709"><ele>60.99999999999999</ele><time>2026-04-26T06:54:36.01Z</time></trkpt><trkpt lat="45.19039773284047" lon="9.53277624588178"><ele>60.99999999999999</ele><time>2026-04-26T06:54:37.01Z</time></trkpt><trkpt lat="45.1904220239268" lon="9.532865318414034"><ele>61.0</ele><time>2026-04-26T06:54:38.01Z</time></trkpt><trkpt lat="45.19043970948047" lon="9.532960853308454"><ele>60.99999999999999</ele><time>2026-04-26T06:54:39.01Z</time></trkpt><trkpt lat="45.19043868686895" lon="9.533053694650793"><ele>60.99999999999999</ele><time>2026-04-26T06:54:40.01Z</time></trkpt><trkpt lat="45.19041476044839" lon="9.533145747877489"><ele>61.0</ele><time>2026-04-26T06:54:41.01Z</time></trkpt><trkpt lat="45.190353275136154" lon="9.533215490032404"><ele>60.99999999999999</ele><time>2026-04-26T06:54:42.01Z</time></trkpt><trkpt lat="45.19027757948463" lon="9.53324976309111"><ele>60.99999999999999</ele><time>2026-04-26T06:54:43.01Z</time></trkpt><trkpt lat="45.19020966291155" lon="9.53328408668799"><ele>61.33333333333333</ele><time>2026-04-26T06:54:44.01Z</time></trkpt><trkpt lat="45.19014871637609" lon="9.53333229340575"><ele>61.666666666666664</ele><time>2026-04-26T06:54:45.01Z</time></trkpt><trkpt lat="45.19009048532689" lon="9.53338028844216"><ele>62.0</ele><time>2026-04-26T06:54:46.01Z</time></trkpt><trkpt lat="45.19003351472176" lon="9.533423731462983"><ele>62.33333333333333</ele><time>2026-04-26T06:54:47.01Z</time></trkpt><trkpt lat="45.18993046226249" lon="9.533511948496377"><ele>62.666666666666664</ele><time>2026-04-26T06:54:49.01Z</time></trkpt><trkpt lat="45.18984843432282" lon="9.533624145165001"><ele>63.0</ele><time>2026-04-26T06:54:51.01Z</time></trkpt><trkpt lat="45.18982955506094" lon="9.53376040472061"><ele>63.4</ele><time>2026-04-26T06:54:53.01Z</time></trkpt><trkpt lat="45.189888277153266" lon="9.533909384781555"><ele>63.8</ele><time>2026-04-26T06:54:55.01Z</time></trkpt><trkpt lat="45.18992638856987" lon="9.533982729954367"><ele>64.2</ele><time>2026-04-26T06:54:56.01Z</time></trkpt><trkpt lat="45.18995601569724" lon="9.534067322748191"><ele>64.6</ele><time>2026-04-26T06:54:57.01Z</time></trkpt><trkpt lat="45.1900105004465" lon="9.534220409496866"><ele>65.0</ele><time>2026-04-26T06:54:59.01Z</time></trkpt><trkpt lat="45.19005883607968" lon="9.534376743007225"><ele>65.0</ele><time>2026-04-26T06:55:01.01Z</time></trkpt><trkpt lat="45.19009034906879" lon="9.534460146076047"><ele>65.0</ele><time>2026-04-26T06:55:02.009Z</time></trkpt><trkpt lat="45.19012085710096" lon="9.534550351433506"><ele>65.0</ele><time>2026-04-26T06:55:03.009Z</time></trkpt><trkpt lat="45.19015634749785" lon="9.534636118464297"><ele>65.0</ele><time>2026-04-26T06:55:04.009Z</time></trkpt><trkpt lat="45.19018633603043" lon="9.534722406635048"><ele>65.0</ele><time>2026-04-26T06:55:05.009Z</time></trkpt><trkpt lat="45.19023631834853" lon="9.534878789042395"><ele>65.0</ele><time>2026-04-26T06:55:07.009Z</time></trkpt><trkpt lat="45.19026168831382" lon="9.53499751705922"><ele>65.0</ele><time>2026-04-26T06:55:09.009Z</time></trkpt><trkpt lat="45.19024688656474" lon="9.534881182764138"><ele>65.0</ele><time>2026-04-26T06:55:21.009Z</time></trkpt><trkpt lat="45.190206682421426" lon="9.534759740485885"><ele>65.0</ele><time>2026-04-26T06:55:23.009Z</time></trkpt><trkpt lat="45.19015328279441" lon="9.534606275974918"><ele>65.0</ele><time>2026-04-26T06:55:25.009Z</time></trkpt><trkpt lat="45.19010168396058" lon="9.534454954758301"><ele>65.0</ele><time>2026-04-26T06:55:27.009Z</time></trkpt><trkpt lat="45.19004968148977" lon="9.534297291556067"><ele>65.0</ele><time>2026-04-26T06:55:29.009Z</time></trkpt><trkpt lat="45.1899883837556" lon="9.534138093176216"><ele>65.0</ele><time>2026-04-26T06:55:31.009Z</time></trkpt><trkpt lat="45.18995698046712" lon="9.534046828450988"><ele>65.0</ele><time>2026-04-26T06:55:32.009Z</time></trkpt><trkpt lat="45.18992644660479" lon="9.533953862725495"><ele>65.0</ele><time>2026-04-26T06:55:33.009Z</time></trkpt><trkpt lat="45.18989595261924" lon="9.533862844455491"><ele>65.0</ele><time>2026-04-26T06:55:34.009Z</time></trkpt><trkpt lat="45.18984347423173" lon="9.533729990077054"><ele>65.0</ele><time>2026-04-26T06:55:36.009Z</time></trkpt><trkpt lat="45.189764351225186" lon="9.533781179613513"><ele>65.0</ele><time>2026-04-26T06:55:39.009Z</time></trkpt><trkpt lat="45.189785598985004" lon="9.533917544878117"><ele>65.0</ele><time>2026-04-26T06:55:41.009Z</time></trkpt><trkpt lat="45.189857547783824" lon="9.534041983938348"><ele>65.0</ele><time>2026-04-26T06:55:43.009Z</time></trkpt><trkpt lat="45.189914629236306" lon="9.534190926509558"><ele>65.0</ele><time>2026-04-26T06:55:45.009Z</time></trkpt><trkpt lat="45.18997277815499" lon="9.534349470011998"><ele>65.0</ele><time>2026-04-26T06:55:47.009Z</time></trkpt><trkpt lat="45.19003037975977" lon="9.53451381574218"><ele>65.0</ele><time>2026-04-26T06:55:49.009Z</time></trkpt><trkpt lat="45.19005584063521" lon="9.534599959786418"><ele>65.0</ele><time>2026-04-26T06:55:50.009Z</time></trkpt><trkpt lat="45.19008934198264" lon="9.534684334989711"><ele>65.0</ele><time>2026-04-26T06:55:51.009Z</time></trkpt><trkpt lat="45.19011988593317" lon="9.53476825982557"><ele>65.0</ele><time>2026-04-26T06:55:52.009Z</time></trkpt><trkpt lat="45.190132199775306" lon="9.534937694051914"><ele>64.83333333333334</ele><time>2026-04-26T06:55:54.009Z</time></trkpt><trkpt lat="45.1900445529283" lon="9.53505714246094"><ele>64.66666666666667</ele><time>2026-04-26T06:55:56.009Z</time></trkpt><trkpt lat="45.18998356017952" lon="9.535089346532827"><ele>64.5</ele><time>2026-04-26T06:55:57.009Z</time></trkpt><trkpt lat="45.1899196533499" lon="9.535119012631554"><ele>64.33333333333333</ele><time>2026-04-26T06:55:58.009Z</time></trkpt><trkpt lat="45.18986020174013" lon="9.535156780516232"><ele>64.16666666666666</ele><time>2026-04-26T06:55:59.009Z</time></trkpt><trkpt lat="45.189801888149205" lon="9.535204163425917"><ele>64.0</ele><time>2026-04-26T06:56:00.009Z</time></trkpt><trkpt lat="45.18974138244739" lon="9.53524841693576"><ele>64.0</ele><time>2026-04-26T06:56:01.009Z</time></trkpt><trkpt lat="45.189681973898125" lon="9.535286710518758"><ele>63.99999999999999</ele><time>2026-04-26T06:56:02.009Z</time></trkpt><trkpt lat="45.189623047880374" lon="9.53533103659689"><ele>64.0</ele><time>2026-04-26T06:56:03.009Z</time></trkpt><trkpt lat="45.18956369423575" lon="9.535373420029211"><ele>64.0</ele><time>2026-04-26T06:56:04.009Z</time></trkpt><trkpt lat="45.18950212012666" lon="9.535416899633432"><ele>63.99999999999999</ele><time>2026-04-26T06:56:05.009Z</time></trkpt><trkpt lat="45.18944216441782" lon="9.535459924586538"><ele>64.0</ele><time>2026-04-26T06:56:06.009Z</time></trkpt><trkpt lat="45.18938318105177" lon="9.535504762753785"><ele>64.0</ele><time>2026-04-26T06:56:07.009Z</time></trkpt><trkpt lat="45.18932214677285" lon="9.535553696895443"><ele>63.800000000000004</ele><time>2026-04-26T06:56:08.009Z</time></trkpt><trkpt lat="45.18926570057964" lon="9.535596388124366"><ele>63.60000000000001</ele><time>2026-04-26T06:56:09.009Z</time></trkpt><trkpt lat="45.18916088949827" lon="9.535679327586294"><ele>63.4</ele><time>2026-04-26T06:56:11.011Z</time></trkpt><trkpt lat="45.189064529390926" lon="9.535755693446522"><ele>63.2</ele><time>2026-04-26T06:56:13.01Z</time></trkpt><trkpt lat="45.18894985317116" lon="9.53583285782929"><ele>63.0</ele><time>2026-04-26T06:56:15.01Z</time></trkpt><trkpt lat="45.18889117606247" lon="9.535872585186262"><ele>63.0</ele><time>2026-04-26T06:56:16.01Z</time></trkpt><trkpt lat="45.18883271087276" lon="9.535920445947143"><ele>63.0</ele><time>2026-04-26T06:56:17.011Z</time></trkpt><trkpt lat="45.18877425557112" lon="9.535962977508582"><ele>63.0</ele><time>2026-04-26T06:56:18.011Z</time></trkpt><trkpt lat="45.18871160590177" lon="9.536002744690208"><ele>63.0</ele><time>2026-04-26T06:56:19.01Z</time></trkpt><trkpt lat="45.18865188303033" lon="9.536045551241592"><ele>63.0</ele><time>2026-04-26T06:56:20.011Z</time></trkpt><trkpt lat="45.188594269392404" lon="9.536088203335426"><ele>63.0</ele><time>2026-04-26T06:56:21.011Z</time></trkpt><trkpt lat="45.188534659921864" lon="9.536131341539654"><ele>63.0</ele><time>2026-04-26T06:56:22.011Z</time></trkpt><trkpt lat="45.18847403719961" lon="9.53617836579115"><ele>62.85714285714286</ele><time>2026-04-26T06:56:23.01Z</time></trkpt><trkpt lat="45.188412628078346" lon="9.536224465392932"><ele>62.714285714285715</ele><time>2026-04-26T06:56:24.011Z</time></trkpt><trkpt lat="45.18835264367561" lon="9.536268998653323"><ele>62.57142857142857</ele><time>2026-04-26T06:56:25.011Z</time></trkpt><trkpt lat="45.18829246823967" lon="9.53631116346712"><ele>62.42857142857143</ele><time>2026-04-26T06:56:26.011Z</time></trkpt><trkpt lat="45.188230110193125" lon="9.536357150732089"><ele>62.28571428571429</ele><time>2026-04-26T06:56:27.01Z</time></trkpt><trkpt lat="45.18816746480954" lon="9.536401726383474"><ele>62.142857142857146</ele><time>2026-04-26T06:56:28.01Z</time></trkpt><trkpt lat="45.188109395867826" lon="9.536445150846317"><ele>62.0</ele><time>2026-04-26T06:56:29.01Z</time></trkpt><trkpt lat="45.188052825000284" lon="9.53648907798951"><ele>62.28571428571429</ele><time>2026-04-26T06:56:30.01Z</time></trkpt><trkpt lat="45.18799215056163" lon="9.536534612640821"><ele>62.57142857142858</ele><time>2026-04-26T06:56:31.01Z</time></trkpt><trkpt lat="45.18793077049142" lon="9.536577488855102"><ele>62.85714285714286</ele><time>2026-04-26T06:56:32.01Z</time></trkpt><trkpt lat="45.187867998806105" lon="9.536619717692808"><ele>63.14285714285714</ele><time>2026-04-26T06:56:33.01Z</time></trkpt><trkpt lat="45.187810117209445" lon="9.53666437625909"><ele>63.42857142857142</ele><time>2026-04-26T06:56:34.01Z</time></trkpt><trkpt lat="45.18774784748072" lon="9.536707176291268"><ele>63.71428571428571</ele><time>2026-04-26T06:56:35.01Z</time></trkpt><trkpt lat="45.18768927848122" lon="9.536749867609855"><ele>64.0</ele><time>2026-04-26T06:56:36.01Z</time></trkpt><trkpt lat="45.18763077531268" lon="9.53679252947594"><ele>63.99999999999999</ele><time>2026-04-26T06:56:37.01Z</time></trkpt><trkpt lat="45.18757215237313" lon="9.536841032542902"><ele>64.0</ele><time>2026-04-26T06:56:38.01Z</time></trkpt><trkpt lat="45.18751383594703" lon="9.53688453972394"><ele>64.0</ele><time>2026-04-26T06:56:39.01Z</time></trkpt><trkpt lat="45.187402008821124" lon="9.536971799745231"><ele>64.0</ele><time>2026-04-26T06:56:41.01Z</time></trkpt><trkpt lat="45.187344281934415" lon="9.537015961782851"><ele>63.99999999999999</ele><time>2026-04-26T06:56:42.01Z</time></trkpt><trkpt lat="45.18728237913803" lon="9.537060821724596"><ele>64.0</ele><time>2026-04-26T06:56:43.01Z</time></trkpt><trkpt lat="45.18721956343429" lon="9.537100632720207"><ele>63.857142857142854</ele><time>2026-04-26T06:56:44.01Z</time></trkpt><trkpt lat="45.187158960728986" lon="9.5371400788186"><ele>63.71428571428571</ele><time>2026-04-26T06:56:45.01Z</time></trkpt><trkpt lat="45.18709853921466" lon="9.537184008516164"><ele>63.57142857142857</ele><time>2026-04-26T06:56:46.01Z</time></trkpt><trkpt lat="45.18703667448682" lon="9.537229141445055"><ele>63.42857142857143</ele><time>2026-04-26T06:56:47.01Z</time></trkpt><trkpt lat="45.186975774892765" lon="9.537273364009168"><ele>63.285714285714285</ele><time>2026-04-26T06:56:48.01Z</time></trkpt><trkpt lat="45.18691277773401" lon="9.537314725097021"><ele>63.14285714285714</ele><time>2026-04-26T06:56:49.01Z</time></trkpt><trkpt lat="45.18685143694002" lon="9.537353885866978"><ele>63.0</ele><time>2026-04-26T06:56:50.01Z</time></trkpt><trkpt lat="45.18673261472223" lon="9.537437688656889"><ele>63.0</ele><time>2026-04-26T06:56:52.01Z</time></trkpt><trkpt lat="45.18667599288262" lon="9.53748141322248"><ele>63.0</ele><time>2026-04-26T06:56:53.01Z</time></trkpt><trkpt lat="45.1865937734375" lon="9.537555721292115"><ele>63.0</ele><time>2026-04-26T06:56:55.01Z</time></trkpt><trkpt lat="45.18652849708065" lon="9.537606790444588"><ele>63.0</ele><time>2026-04-26T06:56:56.01Z</time></trkpt><trkpt lat="45.18645887456999" lon="9.537657472976834"><ele>63.0</ele><time>2026-04-26T06:56:57.01Z</time></trkpt><trkpt lat="45.18639053335861" lon="9.53770260007955"><ele>63.0</ele><time>2026-04-26T06:56:58.01Z</time></trkpt><trkpt lat="45.18632923778412" lon="9.537748097905025"><ele>63.0</ele><time>2026-04-26T06:56:59.01Z</time></trkpt><trkpt lat="45.18626823499246" lon="9.53779324948353"><ele>63.0</ele><time>2026-04-26T06:57:00.01Z</time></trkpt><trkpt lat="45.18621211956762" lon="9.537841829956378"><ele>63.0</ele><time>2026-04-26T06:57:01.01Z</time></trkpt><trkpt lat="45.186154149561766" lon="9.537884559542011"><ele>63.0</ele><time>2026-04-26T06:57:02.01Z</time></trkpt><trkpt lat="45.186090035024314" lon="9.537921957357387"><ele>63.0</ele><time>2026-04-26T06:57:03.01Z</time></trkpt><trkpt lat="45.186027043655145" lon="9.537966579393673"><ele>63.0</ele><time>2026-04-26T06:57:04.01Z</time></trkpt><trkpt lat="45.185966785023005" lon="9.538009576790708"><ele>63.0</ele><time>2026-04-26T06:57:05.01Z</time></trkpt><trkpt lat="45.18590300825129" lon="9.538052194755204"><ele>63.0</ele><time>2026-04-26T06:57:06.01Z</time></trkpt><trkpt lat="45.185843256834346" lon="9.538095942723984"><ele>63.0</ele><time>2026-04-26T06:57:07.01Z</time></trkpt><trkpt lat="45.18578074568109" lon="9.538136459864736"><ele>63.0</ele><time>2026-04-26T06:57:08.01Z</time></trkpt><trkpt lat="45.18571793722135" lon="9.538183679343563"><ele>63.0</ele><time>2026-04-26T06:57:09.01Z</time></trkpt><trkpt lat="45.185657644915366" lon="9.538230498736546"><ele>63.0</ele><time>2026-04-26T06:57:10.01Z</time></trkpt><trkpt lat="45.1855956912321" lon="9.538273349864182"><ele>63.0</ele><time>2026-04-26T06:57:11.01Z</time></trkpt><trkpt lat="45.185480574012445" lon="9.538368925405443"><ele>63.166666666666664</ele><time>2026-04-26T06:57:13.01Z</time></trkpt><trkpt lat="45.18541946807192" lon="9.53840912321877"><ele>63.33333333333333</ele><time>2026-04-26T06:57:14.01Z</time></trkpt><trkpt lat="45.18536160378899" lon="9.538454596683719"><ele>63.5</ele><time>2026-04-26T06:57:15.01Z</time></trkpt><trkpt lat="45.18529849591449" lon="9.538498251626656"><ele>63.666666666666664</ele><time>2026-04-26T06:57:16.01Z</time></trkpt><trkpt lat="45.18523801856429" lon="9.538544499593513"><ele>63.83333333333333</ele><time>2026-04-26T06:57:17.01Z</time></trkpt><trkpt lat="45.185128550915714" lon="9.538633188375131"><ele>64.0</ele><time>2026-04-26T06:57:19.01Z</time></trkpt><trkpt lat="45.185062502119614" lon="9.538686427635396"><ele>64.0</ele><time>2026-04-26T06:57:20.01Z</time></trkpt><trkpt lat="45.18500223636669" lon="9.538730162699647"><ele>63.99999999999999</ele><time>2026-04-26T06:57:21.01Z</time></trkpt><trkpt lat="45.184940038234465" lon="9.538774632012833"><ele>64.0</ele><time>2026-04-26T06:57:22.01Z</time></trkpt><trkpt lat="45.184885061636045" lon="9.538823607708062"><ele>64.0</ele><time>2026-04-26T06:57:23.01Z</time></trkpt><trkpt lat="45.18482852939042" lon="9.538874177104564"><ele>63.99999999999999</ele><time>2026-04-26T06:57:24.01Z</time></trkpt><trkpt lat="45.18476645115433" lon="9.538922405283744"><ele>64.0</ele><time>2026-04-26T06:57:25.01Z</time></trkpt><trkpt lat="45.18469854102538" lon="9.538968845628705"><ele>64.0</ele><time>2026-04-26T06:57:26.01Z</time></trkpt><trkpt lat="45.184630607219106" lon="9.539015575268529"><ele>64.0</ele><time>2026-04-26T06:57:27.01Z</time></trkpt><trkpt lat="45.18456972982511" lon="9.539055703568474"><ele>63.99999999999999</ele><time>2026-04-26T06:57:28.01Z</time></trkpt><trkpt lat="45.184510674706345" lon="9.539096934456678"><ele>64.0</ele><time>2026-04-26T06:57:29.01Z</time></trkpt><trkpt lat="45.184449488775634" lon="9.539145704420513"><ele>64.0</ele><time>2026-04-26T06:57:30.01Z</time></trkpt><trkpt lat="45.18438455888961" lon="9.539184543909384"><ele>63.99999999999999</ele><time>2026-04-26T06:57:31.01Z</time></trkpt><trkpt lat="45.18432739294991" lon="9.539224992482712"><ele>64.0</ele><time>2026-04-26T06:57:32.01Z</time></trkpt><trkpt lat="45.18424437160287" lon="9.539320103119493"><ele>64.0</ele><time>2026-04-26T06:57:34.01Z</time></trkpt><trkpt lat="45.184206959755386" lon="9.539457649749274"><ele>63.57142857142857</ele><time>2026-04-26T06:57:36.01Z</time></trkpt><trkpt lat="45.184269842328874" lon="9.5395586509051"><ele>63.14285714285714</ele><time>2026-04-26T06:57:38.01Z</time></trkpt><trkpt lat="45.1843197150629" lon="9.539632268249505"><ele>62.71428571428571</ele><time>2026-04-26T06:57:39.01Z</time></trkpt><trkpt lat="45.18434940919959" lon="9.539718887488405"><ele>62.28571428571428</ele><time>2026-04-26T06:57:40.01Z</time></trkpt><trkpt lat="45.184368190506774" lon="9.539810591173758"><ele>61.857142857142854</ele><time>2026-04-26T06:57:41.01Z</time></trkpt><trkpt lat="45.184392836626905" lon="9.539901221005282"><ele>61.428571428571416</ele><time>2026-04-26T06:57:42.01Z</time></trkpt><trkpt lat="45.18441082785303" lon="9.539991385698176"><ele>60.99999999999999</ele><time>2026-04-26T06:57:43.01Z</time></trkpt><trkpt lat="45.18442521322285" lon="9.540083799120971"><ele>60.99999999999999</ele><time>2026-04-26T06:57:44.01Z</time></trkpt><trkpt lat="45.18443987853117" lon="9.540173502701562"><ele>61.0</ele><time>2026-04-26T06:57:45.01Z</time></trkpt><trkpt lat="45.18446411794467" lon="9.540353785960459"><ele>61.0</ele><time>2026-04-26T06:57:47.01Z</time></trkpt><trkpt lat="45.18447506319379" lon="9.540448532782431"><ele>61.0</ele><time>2026-04-26T06:57:48.01Z</time></trkpt><trkpt lat="45.184486691252594" lon="9.540546146747554"><ele>60.99999999999999</ele><time>2026-04-26T06:57:49.01Z</time></trkpt><trkpt lat="45.184499518268716" lon="9.540638985603463"><ele>61.0</ele><time>2026-04-26T06:57:50.01Z</time></trkpt><trkpt lat="45.18451116414151" lon="9.540734794808557"><ele>61.166666666666664</ele><time>2026-04-26T06:57:51.01Z</time></trkpt><trkpt lat="45.18453432298749" lon="9.540911868859059"><ele>61.33333333333333</ele><time>2026-04-26T06:57:53.01Z</time></trkpt><trkpt lat="45.184552334143746" lon="9.541010973238825"><ele>61.5</ele><time>2026-04-26T06:57:54.01Z</time></trkpt><trkpt lat="45.184569374442475" lon="9.541103522914405"><ele>61.66666666666667</ele><time>2026-04-26T06:57:55.01Z</time></trkpt><trkpt lat="45.18458664881487" lon="9.541192970710945"><ele>61.833333333333336</ele><time>2026-04-26T06:57:56.01Z</time></trkpt><trkpt lat="45.18460955995586" lon="9.541283372280889"><ele>62.0</ele><time>2026-04-26T06:57:57.01Z</time></trkpt><trkpt lat="45.18462489960387" lon="9.541375853848624"><ele>62.16666666666667</ele><time>2026-04-26T06:57:58.01Z</time></trkpt><trkpt lat="45.18467248858697" lon="9.541541375671567"><ele>62.333333333333336</ele><time>2026-04-26T06:58:00.01Z</time></trkpt><trkpt lat="45.18472492046171" lon="9.541705951936084"><ele>62.5</ele><time>2026-04-26T06:58:02.01Z</time></trkpt><trkpt lat="45.18475289564467" lon="9.541789393985892"><ele>62.66666666666667</ele><time>2026-04-26T06:58:03.01Z</time></trkpt><trkpt lat="45.18478345899354" lon="9.541868543419772"><ele>62.833333333333336</ele><time>2026-04-26T06:58:04.01Z</time></trkpt><trkpt lat="45.18481453916366" lon="9.54195079513456"><ele>63.0</ele><time>2026-04-26T06:58:05.01Z</time></trkpt><trkpt lat="45.18487342824085" lon="9.542099475805301"><ele>63.2</ele><time>2026-04-26T06:58:07.01Z</time></trkpt><trkpt lat="45.18493897822015" lon="9.542220188345478"><ele>63.4</ele><time>2026-04-26T06:58:09.01Z</time></trkpt><trkpt lat="45.18499867802405" lon="9.542339160856198"><ele>63.60000000000001</ele><time>2026-04-26T06:58:11.01Z</time></trkpt><trkpt lat="45.18504110685169" lon="9.542406477380837"><ele>63.800000000000004</ele><time>2026-04-26T06:58:12.01Z</time></trkpt><trkpt lat="45.18513307412187" lon="9.542525535366151"><ele>64.0</ele><time>2026-04-26T06:58:14.01Z</time></trkpt><trkpt lat="45.18522890777459" lon="9.542626299035659"><ele>64.0</ele><time>2026-04-26T06:58:16.01Z</time></trkpt><trkpt lat="45.18527975869097" lon="9.542681891086707"><ele>64.0</ele><time>2026-04-26T06:58:17.011Z</time></trkpt><trkpt lat="45.185331901279795" lon="9.54273531862147"><ele>64.0</ele><time>2026-04-26T06:58:18.011Z</time></trkpt><trkpt lat="45.185433469306915" lon="9.54284024217516"><ele>64.0</ele><time>2026-04-26T06:58:20.011Z</time></trkpt><trkpt lat="45.18553073744566" lon="9.542944662098936"><ele>64.0</ele><time>2026-04-26T06:58:22.011Z</time></trkpt><trkpt lat="45.18563089029821" lon="9.543041930955539"><ele>63.6</ele><time>2026-04-26T06:58:24.012Z</time></trkpt><trkpt lat="45.18572878570755" lon="9.543143867375846"><ele>63.2</ele><time>2026-04-26T06:58:26.011Z</time></trkpt><trkpt lat="45.18582796368949" lon="9.543249121122257"><ele>62.800000000000004</ele><time>2026-04-26T06:58:28.012Z</time></trkpt><trkpt lat="45.18592965519218" lon="9.543354556220597"><ele>62.400000000000006</ele><time>2026-04-26T06:58:30.011Z</time></trkpt><trkpt lat="45.18598072021217" lon="9.543412528979417"><ele>62.0</ele><time>2026-04-26T06:58:31.011Z</time></trkpt><trkpt lat="45.18606056385623" lon="9.543543903586889"><ele>62.0</ele><time>2026-04-26T06:58:33.011Z</time></trkpt><trkpt lat="45.186083976528806" lon="9.54362963312947"><ele>62.0</ele><time>2026-04-26T06:58:34.011Z</time></trkpt><trkpt lat="45.18610045922788" lon="9.54371652244674"><ele>62.0</ele><time>2026-04-26T06:58:35.011Z</time></trkpt><trkpt lat="45.18612739126944" lon="9.543895880726007"><ele>62.0</ele><time>2026-04-26T06:58:37.011Z</time></trkpt><trkpt lat="45.18615418993405" lon="9.544069979372786"><ele>62.0</ele><time>2026-04-26T06:58:39.011Z</time></trkpt><trkpt lat="45.18618499592957" lon="9.544234903258737"><ele>62.00000000000001</ele><time>2026-04-26T06:58:41.011Z</time></trkpt><trkpt lat="45.18620384727388" lon="9.544324617976374"><ele>62.0</ele><time>2026-04-26T06:58:42.011Z</time></trkpt><trkpt lat="45.18622222656154" lon="9.544413891253724"><ele>62.0</ele><time>2026-04-26T06:58:43.011Z</time></trkpt><trkpt lat="45.186239070652874" lon="9.544501855516199"><ele>62.0</ele><time>2026-04-26T06:58:44.011Z</time></trkpt><trkpt lat="45.18626629594508" lon="9.544645893161606"><ele>62.00000000000001</ele><time>2026-04-26T06:58:46.011Z</time></trkpt><trkpt lat="45.18630042581043" lon="9.544764448369236"><ele>62.0</ele><time>2026-04-26T06:58:48.011Z</time></trkpt><trkpt lat="45.186322751327694" lon="9.544875631062434"><ele>62.0</ele><time>2026-04-26T06:58:49.011Z</time></trkpt><trkpt lat="45.18634718901723" lon="9.544972800787603"><ele>62.00000000000001</ele><time>2026-04-26T06:58:50.011Z</time></trkpt><trkpt lat="45.18636882894491" lon="9.545060490998422"><ele>62.0</ele><time>2026-04-26T06:58:51.011Z</time></trkpt><trkpt lat="45.18639410756721" lon="9.545144031946547"><ele>62.0</ele><time>2026-04-26T06:58:52.011Z</time></trkpt><trkpt lat="45.186417407065726" lon="9.545235146013868"><ele>62.00000000000001</ele><time>2026-04-26T06:58:53.011Z</time></trkpt><trkpt lat="45.186436663887214" lon="9.545321087514639"><ele>62.0</ele><time>2026-04-26T06:58:54.011Z</time></trkpt><trkpt lat="45.186461537263284" lon="9.545404695742926"><ele>62.0</ele><time>2026-04-26T06:58:55.011Z</time></trkpt><trkpt lat="45.18648665903155" lon="9.545491451766571"><ele>62.2</ele><time>2026-04-26T06:58:56.011Z</time></trkpt><trkpt lat="45.18652237134313" lon="9.545575420082942"><ele>62.400000000000006</ele><time>2026-04-26T06:58:57.011Z</time></trkpt><trkpt lat="45.18658968075395" lon="9.545700903021848"><ele>62.599999999999994</ele><time>2026-04-26T06:58:59.011Z</time></trkpt><trkpt lat="45.18664610559444" lon="9.545829501551156"><ele>62.8</ele><time>2026-04-26T06:59:01.011Z</time></trkpt><trkpt lat="45.1866881096817" lon="9.545967197898687"><ele>63.0</ele><time>2026-04-26T06:59:03.011Z</time></trkpt><trkpt lat="45.18671213481161" lon="9.546114206037029"><ele>63.2</ele><time>2026-04-26T06:59:05.011Z</time></trkpt><trkpt lat="45.18674841651733" lon="9.546269477425813"><ele>63.4</ele><time>2026-04-26T06:59:07.011Z</time></trkpt><trkpt lat="45.186793953504655" lon="9.546415833901985"><ele>63.60000000000001</ele><time>2026-04-26T06:59:09.011Z</time></trkpt><trkpt lat="45.18683730385343" lon="9.546521266204214"><ele>63.800000000000004</ele><time>2026-04-26T06:59:11.011Z</time></trkpt><trkpt lat="45.18685794984023" lon="9.546616598216273"><ele>64.0</ele><time>2026-04-26T06:59:13.011Z</time></trkpt><trkpt lat="45.18683198780906" lon="9.546723965424828"><ele>64.0</ele><time>2026-04-26T06:59:16.011Z</time></trkpt><trkpt lat="45.1867574783512" lon="9.546761749444975"><ele>64.0</ele><time>2026-04-26T06:59:18.011Z</time></trkpt><trkpt lat="45.186646410254276" lon="9.546783913391618"><ele>64.0</ele><time>2026-04-26T06:59:20.011Z</time></trkpt><trkpt lat="45.186540134585556" lon="9.54684371454802"><ele>64.0</ele><time>2026-04-26T06:59:22.011Z</time></trkpt><trkpt lat="45.186429929989465" lon="9.54690328791151"><ele>64.0</ele><time>2026-04-26T06:59:24.011Z</time></trkpt><trkpt lat="45.1863237670353" lon="9.546969550737339"><ele>64.0</ele><time>2026-04-26T06:59:26.011Z</time></trkpt><trkpt lat="45.18622105648829" lon="9.547030664764481"><ele>64.0</ele><time>2026-04-26T06:59:28.011Z</time></trkpt><trkpt lat="45.186116248546" lon="9.547109407982312"><ele>64.0</ele><time>2026-04-26T06:59:30.011Z</time></trkpt><trkpt lat="45.18601259352895" lon="9.547195648622935"><ele>64.0</ele><time>2026-04-26T06:59:32.011Z</time></trkpt><trkpt lat="45.18590714526523" lon="9.547281399270357"><ele>63.83333333333333</ele><time>2026-04-26T06:59:34.011Z</time></trkpt><trkpt lat="45.18581291939283" lon="9.547372029198515"><ele>63.666666666666664</ele><time>2026-04-26T06:59:36.011Z</time></trkpt><trkpt lat="45.1857220499495" lon="9.54744593629896"><ele>63.5</ele><time>2026-04-26T06:59:38.011Z</time></trkpt><trkpt lat="45.18565146481405" lon="9.547489930001468"><ele>63.33333333333333</ele><time>2026-04-26T06:59:39.011Z</time></trkpt><trkpt lat="45.18558568731685" lon="9.547535123580081"><ele>63.166666666666664</ele><time>2026-04-26T06:59:40.011Z</time></trkpt><trkpt lat="45.18551077324413" lon="9.547569589115913"><ele>63.0</ele><time>2026-04-26T06:59:41.011Z</time></trkpt><trkpt lat="45.18544631665533" lon="9.547609752401161"><ele>63.0</ele><time>2026-04-26T06:59:42.011Z</time></trkpt><trkpt lat="45.18538206719178" lon="9.547641589921906"><ele>63.0</ele><time>2026-04-26T06:59:43.011Z</time></trkpt><trkpt lat="45.18530036371803" lon="9.547678103859864"><ele>63.0</ele><time>2026-04-26T06:59:44.011Z</time></trkpt><trkpt lat="45.18522834482372" lon="9.547711308530603"><ele>63.0</ele><time>2026-04-26T06:59:45.011Z</time></trkpt><trkpt lat="45.185155111954906" lon="9.54774736540506"><ele>63.0</ele><time>2026-04-26T06:59:46.011Z</time></trkpt><trkpt lat="45.185072888070785" lon="9.547784528807302"><ele>63.0</ele><time>2026-04-26T06:59:47.011Z</time></trkpt><trkpt lat="45.184993663707" lon="9.547830826726784"><ele>63.0</ele><time>2026-04-26T06:59:48.011Z</time></trkpt><trkpt lat="45.184915299485276" lon="9.54787106152448"><ele>63.0</ele><time>2026-04-26T06:59:49.01Z</time></trkpt><trkpt lat="45.18483778624916" lon="9.547913128070133"><ele>63.0</ele><time>2026-04-26T06:59:50.01Z</time></trkpt><trkpt lat="45.184766530705105" lon="9.54794847973193"><ele>63.0</ele><time>2026-04-26T06:59:51.01Z</time></trkpt><trkpt lat="45.18469205420796" lon="9.547987671906414"><ele>63.0</ele><time>2026-04-26T06:59:52.01Z</time></trkpt><trkpt lat="45.18461479389869" lon="9.548035593740789"><ele>63.0</ele><time>2026-04-26T06:59:53.01Z</time></trkpt><trkpt lat="45.18454370760478" lon="9.5480752776071"><ele>62.714285714285715</ele><time>2026-04-26T06:59:54.01Z</time></trkpt><trkpt lat="45.18447487309512" lon="9.548114384415392"><ele>62.42857142857143</ele><time>2026-04-26T06:59:55.01Z</time></trkpt><trkpt lat="45.184406174080564" lon="9.548155221953982"><ele>62.14285714285714</ele><time>2026-04-26T06:59:56.01Z</time></trkpt><trkpt lat="45.184335718063885" lon="9.548195827910659"><ele>61.857142857142854</ele><time>2026-04-26T06:59:57.01Z</time></trkpt><trkpt lat="45.18426796264315" lon="9.548229462568592"><ele>61.57142857142857</ele><time>2026-04-26T06:59:58.01Z</time></trkpt><trkpt lat="45.1841984845727" lon="9.548262749118084"><ele>61.28571428571428</ele><time>2026-04-26T06:59:59.01Z</time></trkpt><trkpt lat="45.18412644491486" lon="9.548294171484173"><ele>60.99999999999999</ele><time>2026-04-26T07:00:00.01Z</time></trkpt><trkpt lat="45.18405214971874" lon="9.548316009008625"><ele>61.14285714285714</ele><time>2026-04-26T07:00:01.01Z</time></trkpt><trkpt lat="45.18397809219274" lon="9.548333092427312"><ele>61.285714285714285</ele><time>2026-04-26T07:00:02.01Z</time></trkpt><trkpt lat="45.183903529493634" lon="9.548342995223681"><ele>61.42857142857143</ele><time>2026-04-26T07:00:03.01Z</time></trkpt><trkpt lat="45.18383056336599" lon="9.548341610203714"><ele>61.57142857142857</ele><time>2026-04-26T07:00:04.01Z</time></trkpt><trkpt lat="45.1837552180793" lon="9.548338142365163"><ele>61.71428571428572</ele><time>2026-04-26T07:00:05.01Z</time></trkpt><trkpt lat="45.1836849749384" lon="9.548324887914365"><ele>61.85714285714286</ele><time>2026-04-26T07:00:06.01Z</time></trkpt><trkpt lat="45.183611831139565" lon="9.54831554736505"><ele>62.0</ele><time>2026-04-26T07:00:07.01Z</time></trkpt><trkpt lat="45.18354388176474" lon="9.548307107026051"><ele>62.0</ele><time>2026-04-26T07:00:08.01Z</time></trkpt><trkpt lat="45.18347551107957" lon="9.548299350290982"><ele>62.00000000000001</ele><time>2026-04-26T07:00:09.01Z</time></trkpt><trkpt lat="45.18340375650682" lon="9.548297027140995"><ele>62.0</ele><time>2026-04-26T07:00:10.01Z</time></trkpt><trkpt lat="45.183333750953686" lon="9.548299548924273"><ele>62.0</ele><time>2026-04-26T07:00:11.01Z</time></trkpt><trkpt lat="45.18326144595998" lon="9.548301660679352"><ele>62.00000000000001</ele><time>2026-04-26T07:00:12.01Z</time></trkpt><trkpt lat="45.18319213666795" lon="9.54830261226515"><ele>62.0</ele><time>2026-04-26T07:00:13.01Z</time></trkpt><trkpt lat="45.18312357909452" lon="9.548312482646512"><ele>62.0</ele><time>2026-04-26T07:00:14.01Z</time></trkpt><trkpt lat="45.18305446263013" lon="9.54832282828777"><ele>62.142857142857146</ele><time>2026-04-26T07:00:15.01Z</time></trkpt><trkpt lat="45.182987058249054" lon="9.548334793757352"><ele>62.28571428571429</ele><time>2026-04-26T07:00:16.01Z</time></trkpt><trkpt lat="45.182916160261996" lon="9.548335319431468"><ele>62.42857142857143</ele><time>2026-04-26T07:00:17.01Z</time></trkpt><trkpt lat="45.18283948822652" lon="9.548336842030452"><ele>62.57142857142857</ele><time>2026-04-26T07:00:18.01Z</time></trkpt><trkpt lat="45.182768233577214" lon="9.548336123184416"><ele>62.714285714285715</ele><time>2026-04-26T07:00:19.01Z</time></trkpt><trkpt lat="45.182690702929676" lon="9.548340971855891"><ele>62.85714285714286</ele><time>2026-04-26T07:00:20.01Z</time></trkpt><trkpt lat="45.182617397524716" lon="9.548344430142446"><ele>63.0</ele><time>2026-04-26T07:00:21.01Z</time></trkpt><trkpt lat="45.182541636561325" lon="9.548347325769221"><ele>63.0</ele><time>2026-04-26T07:00:22.01Z</time></trkpt><trkpt lat="45.18246616091024" lon="9.548348049802472"><ele>63.0</ele><time>2026-04-26T07:00:23.011Z</time></trkpt><trkpt lat="45.182391285858465" lon="9.548352670968466"><ele>63.0</ele><time>2026-04-26T07:00:24.012Z</time></trkpt><trkpt lat="45.182317010148076" lon="9.548353208260949"><ele>63.0</ele><time>2026-04-26T07:00:25.012Z</time></trkpt><trkpt lat="45.18224593343782" lon="9.548354533619326"><ele>63.0</ele><time>2026-04-26T07:00:26.012Z</time></trkpt><trkpt lat="45.18217435082047" lon="9.548352173310619"><ele>63.0</ele><time>2026-04-26T07:00:27.012Z</time></trkpt><trkpt lat="45.18210306729627" lon="9.548360651972995"><ele>63.0</ele><time>2026-04-26T07:00:28.012Z</time></trkpt><trkpt lat="45.1820291622999" lon="9.548365283510691"><ele>62.85714285714286</ele><time>2026-04-26T07:00:29.012Z</time></trkpt><trkpt lat="45.18195464484751" lon="9.548365123558687"><ele>62.714285714285715</ele><time>2026-04-26T07:00:30.012Z</time></trkpt><trkpt lat="45.18188360085874" lon="9.548365721337552"><ele>62.57142857142857</ele><time>2026-04-26T07:00:31.012Z</time></trkpt><trkpt lat="45.1818094008208" lon="9.548366023297504"><ele>62.42857142857143</ele><time>2026-04-26T07:00:32.012Z</time></trkpt><trkpt lat="45.18173388434268" lon="9.548365921108024"><ele>62.28571428571429</ele><time>2026-04-26T07:00:33.012Z</time></trkpt><trkpt lat="45.18166015218598" lon="9.54836633589155"><ele>62.142857142857146</ele><time>2026-04-26T07:00:34.012Z</time></trkpt><trkpt lat="45.181583477589534" lon="9.548367184838952"><ele>62.0</ele><time>2026-04-26T07:00:35.012Z</time></trkpt><trkpt lat="45.18151258591511" lon="9.548370849471778"><ele>62.0</ele><time>2026-04-26T07:00:36.012Z</time></trkpt><trkpt lat="45.181437299356055" lon="9.54837174513429"><ele>62.00000000000001</ele><time>2026-04-26T07:00:37.012Z</time></trkpt><trkpt lat="45.18136179129023" lon="9.548382532669176"><ele>62.0</ele><time>2026-04-26T07:00:38.012Z</time></trkpt><trkpt lat="45.18129533268281" lon="9.548393693908492"><ele>62.0</ele><time>2026-04-26T07:00:39.012Z</time></trkpt><trkpt lat="45.18122543438713" lon="9.548423392886805"><ele>62.00000000000001</ele><time>2026-04-26T07:00:40.012Z</time></trkpt><trkpt lat="45.18115516626159" lon="9.548459963253714"><ele>62.0</ele><time>2026-04-26T07:00:41.012Z</time></trkpt><trkpt lat="45.1810913051874" lon="9.54850445443019"><ele>62.0</ele><time>2026-04-26T07:00:42.012Z</time></trkpt><trkpt lat="45.181023121581376" lon="9.548538586232056"><ele>62.0</ele><time>2026-04-26T07:00:43.012Z</time></trkpt><trkpt lat="45.18095574446246" lon="9.548575601833429"><ele>62.00000000000001</ele><time>2026-04-26T07:00:44.012Z</time></trkpt><trkpt lat="45.18088394650395" lon="9.548606151815866"><ele>62.0</ele><time>2026-04-26T07:00:45.012Z</time></trkpt><trkpt lat="45.18081151600627" lon="9.548647131710082"><ele>62.0</ele><time>2026-04-26T07:00:46.012Z</time></trkpt><trkpt lat="45.1807419662904" lon="9.548687787785465"><ele>62.00000000000001</ele><time>2026-04-26T07:00:47.012Z</time></trkpt><trkpt lat="45.18067444023384" lon="9.548730113525336"><ele>62.0</ele><time>2026-04-26T07:00:48.012Z</time></trkpt><trkpt lat="45.180605944401556" lon="9.54877093455799"><ele>62.0</ele><time>2026-04-26T07:00:49.012Z</time></trkpt><trkpt lat="45.18053928915897" lon="9.548808783193305"><ele>62.142857142857146</ele><time>2026-04-26T07:00:50.012Z</time></trkpt><trkpt lat="45.18047015012766" lon="9.548850177062288"><ele>62.28571428571429</ele><time>2026-04-26T07:00:51.012Z</time></trkpt><trkpt lat="45.180401414897865" lon="9.548893655529316"><ele>62.42857142857143</ele><time>2026-04-26T07:00:52.012Z</time></trkpt><trkpt lat="45.18033086552469" lon="9.548935317694626"><ele>62.57142857142857</ele><time>2026-04-26T07:00:53.012Z</time></trkpt><trkpt lat="45.180267747807" lon="9.548979173765483"><ele>62.714285714285715</ele><time>2026-04-26T07:00:54.012Z</time></trkpt><trkpt lat="45.180201832014845" lon="9.549023039657758"><ele>62.85714285714286</ele><time>2026-04-26T07:00:55.012Z</time></trkpt><trkpt lat="45.18013893065414" lon="9.549065010946478"><ele>63.0</ele><time>2026-04-26T07:00:56.012Z</time></trkpt><trkpt lat="45.180077134092656" lon="9.549105473413272"><ele>63.0</ele><time>2026-04-26T07:00:57.012Z</time></trkpt><trkpt lat="45.179960546815266" lon="9.549099290337212"><ele>63.0</ele><time>2026-04-26T07:00:59.012Z</time></trkpt><trkpt lat="45.17990222694643" lon="9.549041652103345"><ele>63.0</ele><time>2026-04-26T07:01:00.012Z</time></trkpt><trkpt lat="45.17984205384876" lon="9.548872264344883"><ele>63.0</ele><time>2026-04-26T07:01:02.012Z</time></trkpt><trkpt lat="45.17981764756265" lon="9.548776771270377"><ele>63.0</ele><time>2026-04-26T07:01:03.012Z</time></trkpt><trkpt lat="45.179792842457076" lon="9.548686679136098"><ele>62.85714285714286</ele><time>2026-04-26T07:01:04.012Z</time></trkpt><trkpt lat="45.1797572367456" lon="9.548589042719962"><ele>62.714285714285715</ele><time>2026-04-26T07:01:05.012Z</time></trkpt><trkpt lat="45.179723302514056" lon="9.548498632025403"><ele>62.57142857142857</ele><time>2026-04-26T07:01:06.012Z</time></trkpt><trkpt lat="45.17968888440162" lon="9.54840867140167"><ele>62.42857142857143</ele><time>2026-04-26T07:01:07.012Z</time></trkpt><trkpt lat="45.17965470432287" lon="9.548319147219086"><ele>62.28571428571429</ele><time>2026-04-26T07:01:08.012Z</time></trkpt><trkpt lat="45.17962308310657" lon="9.548227881815716"><ele>62.142857142857146</ele><time>2026-04-26T07:01:09.012Z</time></trkpt><trkpt lat="45.179588745789005" lon="9.548134829471884"><ele>62.0</ele><time>2026-04-26T07:01:10.012Z</time></trkpt><trkpt lat="45.179552546210225" lon="9.548041940004204"><ele>62.0</ele><time>2026-04-26T07:01:11.012Z</time></trkpt><trkpt lat="45.17951882010251" lon="9.547950754590376"><ele>62.00000000000001</ele><time>2026-04-26T07:01:12.012Z</time></trkpt><trkpt lat="45.17948063826291" lon="9.547862938778099"><ele>62.0</ele><time>2026-04-26T07:01:13.012Z</time></trkpt><trkpt lat="45.179446923227204" lon="9.547771618181992"><ele>62.0</ele><time>2026-04-26T07:01:14.012Z</time></trkpt><trkpt lat="45.179414928987" lon="9.54767712323917"><ele>62.00000000000001</ele><time>2026-04-26T07:01:15.012Z</time></trkpt><trkpt lat="45.17938271210567" lon="9.547586235076208"><ele>62.0</ele><time>2026-04-26T07:01:16.012Z</time></trkpt><trkpt lat="45.17934593541148" lon="9.54749872949604"><ele>62.0</ele><time>2026-04-26T07:01:17.012Z</time></trkpt><trkpt lat="45.179313496055464" lon="9.547408013120851"><ele>62.0</ele><time>2026-04-26T07:01:18.012Z</time></trkpt><trkpt lat="45.17928059233324" lon="9.547319835394342"><ele>62.00000000000001</ele><time>2026-04-26T07:01:19.012Z</time></trkpt><trkpt lat="45.179247219847994" lon="9.54722885961047"><ele>62.0</ele><time>2026-04-26T07:01:20.012Z</time></trkpt><trkpt lat="45.17921221578377" lon="9.547140268071514"><ele>62.0</ele><time>2026-04-26T07:01:21.012Z</time></trkpt><trkpt lat="45.17917814019556" lon="9.547049684726352"><ele>62.00000000000001</ele><time>2026-04-26T07:01:22.012Z</time></trkpt><trkpt lat="45.17914520685375" lon="9.546960851527407"><ele>62.0</ele><time>2026-04-26T07:01:23.012Z</time></trkpt><trkpt lat="45.17911317985752" lon="9.546873492970844"><ele>62.0</ele><time>2026-04-26T07:01:24.012Z</time></trkpt><trkpt lat="45.17907953545349" lon="9.546785005956572"><ele>62.0</ele><time>2026-04-26T07:01:25.012Z</time></trkpt><trkpt lat="45.17904620477581" lon="9.546698406589279"><ele>62.00000000000001</ele><time>2026-04-26T07:01:26.011Z</time></trkpt><trkpt lat="45.17901192075758" lon="9.546613884246144"><ele>62.0</ele><time>2026-04-26T07:01:27.011Z</time></trkpt><trkpt lat="45.17897769887777" lon="9.546528509069665"><ele>62.0</ele><time>2026-04-26T07:01:28.011Z</time></trkpt><trkpt lat="45.17894282332237" lon="9.546445417769842"><ele>62.00000000000001</ele><time>2026-04-26T07:01:29.011Z</time></trkpt><trkpt lat="45.17890812134486" lon="9.546353454352124"><ele>62.0</ele><time>2026-04-26T07:01:30.011Z</time></trkpt><trkpt lat="45.1788716640972" lon="9.54626546160535"><ele>62.0</ele><time>2026-04-26T07:01:31.011Z</time></trkpt><trkpt lat="45.17883415042787" lon="9.546173740730739"><ele>62.142857142857146</ele><time>2026-04-26T07:01:32.011Z</time></trkpt><trkpt lat="45.178802821612265" lon="9.546086340602287"><ele>62.28571428571429</ele><time>2026-04-26T07:01:33.011Z</time></trkpt><trkpt lat="45.17876728919719" lon="9.545993948411367"><ele>62.42857142857143</ele><time>2026-04-26T07:01:34.011Z</time></trkpt><trkpt lat="45.17873351830177" lon="9.545906481596882"><ele>62.57142857142857</ele><time>2026-04-26T07:01:35.011Z</time></trkpt><trkpt lat="45.178694412451584" lon="9.545809742196353"><ele>62.714285714285715</ele><time>2026-04-26T07:01:36.011Z</time></trkpt><trkpt lat="45.17866101232874" lon="9.545724280705103"><ele>62.85714285714286</ele><time>2026-04-26T07:01:37.011Z</time></trkpt><trkpt lat="45.17862323727905" lon="9.545633050524154"><ele>63.0</ele><time>2026-04-26T07:01:38.011Z</time></trkpt><trkpt lat="45.17859012215962" lon="9.545545983373641"><ele>63.0</ele><time>2026-04-26T07:01:39.011Z</time></trkpt><trkpt lat="45.17855443651609" lon="9.545452206292984"><ele>63.0</ele><time>2026-04-26T07:01:40.011Z</time></trkpt><trkpt lat="45.178523470118" lon="9.545360867150944"><ele>63.0</ele><time>2026-04-26T07:01:41.011Z</time></trkpt><trkpt lat="45.178488316656285" lon="9.54526848896708"><ele>63.0</ele><time>2026-04-26T07:01:42.011Z</time></trkpt><trkpt lat="45.17845334704006" lon="9.54517757267475"><ele>63.0</ele><time>2026-04-26T07:01:43.011Z</time></trkpt><trkpt lat="45.17841928267958" lon="9.545082949466575"><ele>63.0</ele><time>2026-04-26T07:01:44.011Z</time></trkpt><trkpt lat="45.17838482034183" lon="9.544991861082547"><ele>63.0</ele><time>2026-04-26T07:01:45.011Z</time></trkpt><trkpt lat="45.1783487324752" lon="9.54489827211283"><ele>63.0</ele><time>2026-04-26T07:01:46.011Z</time></trkpt><trkpt lat="45.17831090925131" lon="9.544808395047426"><ele>63.0</ele><time>2026-04-26T07:01:47.011Z</time></trkpt><trkpt lat="45.17827221015192" lon="9.54471466064032"><ele>63.0</ele><time>2026-04-26T07:01:48.011Z</time></trkpt><trkpt lat="45.178236999755" lon="9.544630018472757"><ele>63.0</ele><time>2026-04-26T07:01:49.011Z</time></trkpt><trkpt lat="45.178197217103424" lon="9.544545823705366"><ele>63.0</ele><time>2026-04-26T07:01:50.011Z</time></trkpt><trkpt lat="45.17816095920549" lon="9.544463463536632"><ele>63.0</ele><time>2026-04-26T07:01:51.011Z</time></trkpt><trkpt lat="45.17811963283679" lon="9.544372250828701"><ele>63.0</ele><time>2026-04-26T07:01:52.011Z</time></trkpt><trkpt lat="45.1780804145991" lon="9.544294335841244"><ele>63.0</ele><time>2026-04-26T07:01:53.011Z</time></trkpt><trkpt lat="45.17804192530386" lon="9.544211708010954"><ele>63.0</ele><time>2026-04-26T07:01:54.011Z</time></trkpt><trkpt lat="45.178001310377944" lon="9.544128328124863"><ele>63.0</ele><time>2026-04-26T07:01:55.011Z</time></trkpt><trkpt lat="45.17796275019998" lon="9.54404679348028"><ele>63.0</ele><time>2026-04-26T07:01:56.011Z</time></trkpt><trkpt lat="45.17792302561957" lon="9.543961793674795"><ele>63.0</ele><time>2026-04-26T07:01:57.011Z</time></trkpt><trkpt lat="45.17788641908262" lon="9.543882382275108"><ele>63.0</ele><time>2026-04-26T07:01:58.011Z</time></trkpt><trkpt lat="45.17784698304736" lon="9.543803658460037"><ele>63.0</ele><time>2026-04-26T07:01:59.011Z</time></trkpt><trkpt lat="45.177809323068125" lon="9.543729512290657"><ele>63.285714285714285</ele><time>2026-04-26T07:02:00.011Z</time></trkpt><trkpt lat="45.17776421577068" lon="9.54365529497066"><ele>63.57142857142857</ele><time>2026-04-26T07:02:01.011Z</time></trkpt><trkpt lat="45.17771856128264" lon="9.543577654287317"><ele>63.85714285714286</ele><time>2026-04-26T07:02:02.011Z</time></trkpt><trkpt lat="45.17768054140704" lon="9.54349885222484"><ele>64.14285714285714</ele><time>2026-04-26T07:02:03.011Z</time></trkpt><trkpt lat="45.177642498084424" lon="9.543415900697006"><ele>64.42857142857143</ele><time>2026-04-26T07:02:04.011Z</time></trkpt><trkpt lat="45.177610893552455" lon="9.54332905242475"><ele>64.71428571428572</ele><time>2026-04-26T07:02:05.011Z</time></trkpt><trkpt lat="45.177577298103465" lon="9.543238077460064"><ele>65.0</ele><time>2026-04-26T07:02:06.011Z</time></trkpt><trkpt lat="45.17754137609015" lon="9.543152415596317"><ele>65.00000000000001</ele><time>2026-04-26T07:02:07.011Z</time></trkpt><trkpt lat="45.17750634373535" lon="9.543062005166798"><ele>65.0</ele><time>2026-04-26T07:02:08.011Z</time></trkpt><trkpt lat="45.17747086033033" lon="9.542972427193988"><ele>65.0</ele><time>2026-04-26T07:02:09.011Z</time></trkpt><trkpt lat="45.17743519618563" lon="9.542882410831549"><ele>65.0</ele><time>2026-04-26T07:02:10.011Z</time></trkpt><trkpt lat="45.177398245446334" lon="9.542791629341915"><ele>65.0</ele><time>2026-04-26T07:02:11.011Z</time></trkpt><trkpt lat="45.1773606031929" lon="9.54270326664226"><ele>65.00000000000001</ele><time>2026-04-26T07:02:12.011Z</time></trkpt><trkpt lat="45.17732064967706" lon="9.542613490242976"><ele>65.0</ele><time>2026-04-26T07:02:13.011Z</time></trkpt><trkpt lat="45.17728745962335" lon="9.542526108357883"><ele>64.71428571428572</ele><time>2026-04-26T07:02:14.011Z</time></trkpt><trkpt lat="45.17724963327603" lon="9.542431659659675"><ele>64.42857142857143</ele><time>2026-04-26T07:02:15.011Z</time></trkpt><trkpt lat="45.17721892127677" lon="9.542347041757404"><ele>64.14285714285714</ele><time>2026-04-26T07:02:16.011Z</time></trkpt><trkpt lat="45.17718152824705" lon="9.542250001883952"><ele>63.85714285714286</ele><time>2026-04-26T07:02:17.011Z</time></trkpt><trkpt lat="45.17714583921543" lon="9.54215549283135"><ele>63.57142857142857</ele><time>2026-04-26T07:02:18.011Z</time></trkpt><trkpt lat="45.17710778696692" lon="9.54206571948916"><ele>63.285714285714285</ele><time>2026-04-26T07:02:19.011Z</time></trkpt><trkpt lat="45.17707398740805" lon="9.541977648902396"><ele>63.0</ele><time>2026-04-26T07:02:20.011Z</time></trkpt><trkpt lat="45.17703765044381" lon="9.541883795166418"><ele>63.0</ele><time>2026-04-26T07:02:21.011Z</time></trkpt><trkpt lat="45.17700662450316" lon="9.541794478686509"><ele>63.0</ele><time>2026-04-26T07:02:22.011Z</time></trkpt><trkpt lat="45.17697136614622" lon="9.541708023470758"><ele>63.0</ele><time>2026-04-26T07:02:23.011Z</time></trkpt><trkpt lat="45.17693566892395" lon="9.541618693552708"><ele>63.0</ele><time>2026-04-26T07:02:24.011Z</time></trkpt><trkpt lat="45.176903953198135" lon="9.5415312988442"><ele>63.0</ele><time>2026-04-26T07:02:25.011Z</time></trkpt><trkpt lat="45.17686613049565" lon="9.541441651267307"><ele>63.0</ele><time>2026-04-26T07:02:26.011Z</time></trkpt><trkpt lat="45.17682819072979" lon="9.541350125428853"><ele>63.0</ele><time>2026-04-26T07:02:27.011Z</time></trkpt><trkpt lat="45.17679278859238" lon="9.541260461851692"><ele>63.14285714285714</ele><time>2026-04-26T07:02:28.011Z</time></trkpt><trkpt lat="45.17675533537647" lon="9.541166239349556"><ele>63.285714285714285</ele><time>2026-04-26T07:02:29.012Z</time></trkpt><trkpt lat="45.176725350574124" lon="9.541080852949772"><ele>63.42857142857143</ele><time>2026-04-26T07:02:30.013Z</time></trkpt><trkpt lat="45.17668910104708" lon="9.540987647808107"><ele>63.57142857142857</ele><time>2026-04-26T07:02:31.013Z</time></trkpt><trkpt lat="45.17665449591929" lon="9.540896833663016"><ele>63.71428571428571</ele><time>2026-04-26T07:02:32.013Z</time></trkpt><trkpt lat="45.17662165093062" lon="9.540809162029763"><ele>63.857142857142854</ele><time>2026-04-26T07:02:33.012Z</time></trkpt><trkpt lat="45.17658454012808" lon="9.540717032036296"><ele>64.0</ele><time>2026-04-26T07:02:34.012Z</time></trkpt><trkpt lat="45.17655037923637" lon="9.54062877778796"><ele>64.0</ele><time>2026-04-26T07:02:35.012Z</time></trkpt><trkpt lat="45.176512310104414" lon="9.540537893251045"><ele>63.99999999999999</ele><time>2026-04-26T07:02:36.012Z</time></trkpt><trkpt lat="45.17647626781512" lon="9.540444169190259"><ele>64.0</ele><time>2026-04-26T07:02:37.012Z</time></trkpt><trkpt lat="45.17643937948025" lon="9.540355701633885"><ele>64.0</ele><time>2026-04-26T07:02:38.012Z</time></trkpt><trkpt lat="45.17640403180226" lon="9.540266723059766"><ele>63.99999999999999</ele><time>2026-04-26T07:02:39.013Z</time></trkpt><trkpt lat="45.17636761358103" lon="9.54017852105032"><ele>64.0</ele><time>2026-04-26T07:02:40.013Z</time></trkpt><trkpt lat="45.17633179792355" lon="9.540091828693535"><ele>64.0</ele><time>2026-04-26T07:02:41.012Z</time></trkpt><trkpt lat="45.176294485889684" lon="9.5400006703366"><ele>64.0</ele><time>2026-04-26T07:02:42.013Z</time></trkpt><trkpt lat="45.17626374906683" lon="9.539913123602162"><ele>63.99999999999999</ele><time>2026-04-26T07:02:43.013Z</time></trkpt><trkpt lat="45.1762287278491" lon="9.5398226973296"><ele>64.0</ele><time>2026-04-26T07:02:44.013Z</time></trkpt><trkpt lat="45.17619349054313" lon="9.539733262630177"><ele>64.0</ele><time>2026-04-26T07:02:45.013Z</time></trkpt><trkpt lat="45.176156655139174" lon="9.539643795487805"><ele>63.99999999999999</ele><time>2026-04-26T07:02:46.013Z</time></trkpt><trkpt lat="45.17611856692723" lon="9.539553183840775"><ele>64.0</ele><time>2026-04-26T07:02:47.013Z</time></trkpt><trkpt lat="45.17608316961691" lon="9.53946394773402"><ele>64.0</ele><time>2026-04-26T07:02:48.013Z</time></trkpt><trkpt lat="45.17604835792177" lon="9.53937874763139"><ele>64.28571428571428</ele><time>2026-04-26T07:02:49.013Z</time></trkpt><trkpt lat="45.17601300390444" lon="9.539288330776577"><ele>64.57142857142857</ele><time>2026-04-26T07:02:50.013Z</time></trkpt><trkpt lat="45.175977299360895" lon="9.53919494451104"><ele>64.85714285714286</ele><time>2026-04-26T07:02:51.013Z</time></trkpt><trkpt lat="45.17593780707877" lon="9.53910525694923"><ele>65.14285714285714</ele><time>2026-04-26T07:02:52.013Z</time></trkpt><trkpt lat="45.17590266885651" lon="9.539021832775914"><ele>65.42857142857143</ele><time>2026-04-26T07:02:53.013Z</time></trkpt><trkpt lat="45.17586519591491" lon="9.538933703516541"><ele>65.71428571428571</ele><time>2026-04-26T07:02:54.013Z</time></trkpt><trkpt lat="45.17582922443418" lon="9.538846723122559"><ele>66.0</ele><time>2026-04-26T07:02:55.013Z</time></trkpt><trkpt lat="45.17579495284689" lon="9.53875671723778"><ele>66.0</ele><time>2026-04-26T07:02:56.013Z</time></trkpt><trkpt lat="45.175757805695454" lon="9.538666045757195"><ele>66.0</ele><time>2026-04-26T07:02:57.013Z</time></trkpt><trkpt lat="45.17571978246794" lon="9.538574571719089"><ele>66.0</ele><time>2026-04-26T07:02:58.013Z</time></trkpt><trkpt lat="45.17568057660461" lon="9.53848580502085"><ele>66.0</ele><time>2026-04-26T07:02:59.013Z</time></trkpt><trkpt lat="45.17564266560536" lon="9.538394205985757"><ele>66.0</ele><time>2026-04-26T07:03:00.013Z</time></trkpt><trkpt lat="45.17560261748618" lon="9.538299877873559"><ele>66.0</ele><time>2026-04-26T07:03:01.013Z</time></trkpt><trkpt lat="45.175567385005664" lon="9.538208286482831"><ele>66.0</ele><time>2026-04-26T07:03:02.013Z</time></trkpt><trkpt lat="45.17553108972823" lon="9.538118475966785"><ele>65.57142857142857</ele><time>2026-04-26T07:03:03.013Z</time></trkpt><trkpt lat="45.175493025204446" lon="9.538029514094632"><ele>65.14285714285714</ele><time>2026-04-26T07:03:04.013Z</time></trkpt><trkpt lat="45.1754590822875" lon="9.537942518960199"><ele>64.71428571428572</ele><time>2026-04-26T07:03:05.013Z</time></trkpt><trkpt lat="45.17542060459007" lon="9.537851756669513"><ele>64.28571428571428</ele><time>2026-04-26T07:03:06.013Z</time></trkpt><trkpt lat="45.175384699044834" lon="9.537762168736958"><ele>63.85714285714286</ele><time>2026-04-26T07:03:07.013Z</time></trkpt><trkpt lat="45.175348968265475" lon="9.537670354157463"><ele>63.42857142857143</ele><time>2026-04-26T07:03:08.013Z</time></trkpt><trkpt lat="45.175316039129044" lon="9.537578971915076"><ele>63.0</ele><time>2026-04-26T07:03:09.013Z</time></trkpt><trkpt lat="45.175278535593584" lon="9.537485864427223"><ele>62.85714285714286</ele><time>2026-04-26T07:03:10.012Z</time></trkpt><trkpt lat="45.17523975007466" lon="9.537394744548008"><ele>62.714285714285715</ele><time>2026-04-26T07:03:11.012Z</time></trkpt><trkpt lat="45.175205807232665" lon="9.537302969694792"><ele>62.57142857142857</ele><time>2026-04-26T07:03:12.012Z</time></trkpt><trkpt lat="45.175174692438766" lon="9.537207824507817"><ele>62.42857142857143</ele><time>2026-04-26T07:03:13.012Z</time></trkpt><trkpt lat="45.17514051932773" lon="9.537107420424668"><ele>62.28571428571429</ele><time>2026-04-26T07:03:14.012Z</time></trkpt><trkpt lat="45.1751108147448" lon="9.537019590748336"><ele>62.142857142857146</ele><time>2026-04-26T07:03:15.012Z</time></trkpt><trkpt lat="45.175079049767035" lon="9.536933138861754"><ele>62.0</ele><time>2026-04-26T07:03:16.012Z</time></trkpt><trkpt lat="45.17504199091977" lon="9.536837298658618"><ele>62.0</ele><time>2026-04-26T07:03:17.012Z</time></trkpt><trkpt lat="45.17500545824845" lon="9.536743529429833"><ele>62.0</ele><time>2026-04-26T07:03:18.012Z</time></trkpt><trkpt lat="45.17497449927133" lon="9.53665271702794"><ele>62.0</ele><time>2026-04-26T07:03:19.012Z</time></trkpt><trkpt lat="45.17494315841918" lon="9.536568323749805"><ele>62.0</ele><time>2026-04-26T07:03:20.012Z</time></trkpt><trkpt lat="45.17487736066569" lon="9.536401129647825"><ele>62.0</ele><time>2026-04-26T07:03:22.012Z</time></trkpt><trkpt lat="45.174805461100725" lon="9.536222435591943"><ele>62.0</ele><time>2026-04-26T07:03:24.012Z</time></trkpt><trkpt lat="45.174775575993245" lon="9.536141560107913"><ele>62.0</ele><time>2026-04-26T07:03:25.012Z</time></trkpt><trkpt lat="45.17471467238201" lon="9.535975650810173"><ele>62.0</ele><time>2026-04-26T07:03:27.012Z</time></trkpt><trkpt lat="45.174677376640425" lon="9.535886668855298"><ele>62.0</ele><time>2026-04-26T07:03:28.012Z</time></trkpt><trkpt lat="45.174630544688334" lon="9.535821020585022"><ele>62.0</ele><time>2026-04-26T07:03:29.012Z</time></trkpt><trkpt lat="45.174508799339414" lon="9.53576238839276"><ele>62.0</ele><time>2026-04-26T07:03:31.012Z</time></trkpt><trkpt lat="45.17443411854801" lon="9.535724956630979"><ele>62.00000000000001</ele><time>2026-04-26T07:03:32.012Z</time></trkpt><trkpt lat="45.17435986373737" lon="9.53569967651952"><ele>62.0</ele><time>2026-04-26T07:03:33.012Z</time></trkpt><trkpt lat="45.174291355038754" lon="9.535663298582302"><ele>62.0</ele><time>2026-04-26T07:03:34.012Z</time></trkpt><trkpt lat="45.17422927243427" lon="9.535622448432527"><ele>62.00000000000001</ele><time>2026-04-26T07:03:35.012Z</time></trkpt><trkpt lat="45.17417287384724" lon="9.535566657843372"><ele>62.0</ele><time>2026-04-26T07:03:36.012Z</time></trkpt><trkpt lat="45.17411180226405" lon="9.53550548468922"><ele>62.0</ele><time>2026-04-26T07:03:37.012Z</time></trkpt><trkpt lat="45.17405175738502" lon="9.535436094257438"><ele>61.66666666666667</ele><time>2026-04-26T07:03:38.012Z</time></trkpt><trkpt lat="45.17399254821591" lon="9.53536631082376"><ele>61.333333333333336</ele><time>2026-04-26T07:03:39.012Z</time></trkpt><trkpt lat="45.17392821845308" lon="9.535306189671203"><ele>61.0</ele><time>2026-04-26T07:03:40.012Z</time></trkpt><trkpt lat="45.173864059840135" lon="9.535245846885061"><ele>60.66666666666667</ele><time>2026-04-26T07:03:41.012Z</time></trkpt><trkpt lat="45.17380285420665" lon="9.535179572369417"><ele>60.333333333333336</ele><time>2026-04-26T07:03:42.012Z</time></trkpt><trkpt lat="45.173744143923514" lon="9.53512140924569"><ele>60.0</ele><time>2026-04-26T07:03:43.012Z</time></trkpt><trkpt lat="45.17368535341783" lon="9.535062746240152"><ele>60.0</ele><time>2026-04-26T07:03:44.012Z</time></trkpt><trkpt lat="45.173621723975906" lon="9.534996592164502"><ele>60.0</ele><time>2026-04-26T07:03:45.012Z</time></trkpt><trkpt lat="45.17355931888862" lon="9.534935624159571"><ele>60.0</ele><time>2026-04-26T07:03:46.012Z</time></trkpt><trkpt lat="45.17350036132468" lon="9.53487376623834"><ele>60.0</ele><time>2026-04-26T07:03:47.012Z</time></trkpt><trkpt lat="45.17344315949175" lon="9.53481266343144"><ele>60.0</ele><time>2026-04-26T07:03:48.012Z</time></trkpt><trkpt lat="45.1733868667721" lon="9.534749541323377"><ele>60.0</ele><time>2026-04-26T07:03:49.012Z</time></trkpt><trkpt lat="45.173325418883906" lon="9.534688789536805"><ele>60.0</ele><time>2026-04-26T07:03:50.012Z</time></trkpt><trkpt lat="45.17326398419852" lon="9.534624055322485"><ele>60.0</ele><time>2026-04-26T07:03:51.012Z</time></trkpt><trkpt lat="45.173202094199965" lon="9.534562675011642"><ele>60.0</ele><time>2026-04-26T07:03:52.012Z</time></trkpt><trkpt lat="45.17313455370668" lon="9.534492291916541"><ele>60.0</ele><time>2026-04-26T07:03:53.012Z</time></trkpt><trkpt lat="45.17307108660162" lon="9.534423744735598"><ele>60.0</ele><time>2026-04-26T07:03:54.012Z</time></trkpt><trkpt lat="45.17301425057004" lon="9.53435762519446"><ele>60.0</ele><time>2026-04-26T07:03:55.012Z</time></trkpt><trkpt lat="45.17294692529582" lon="9.534286221712973"><ele>60.0</ele><time>2026-04-26T07:03:56.012Z</time></trkpt><trkpt lat="45.17287413444303" lon="9.53422888404527"><ele>59.5</ele><time>2026-04-26T07:03:57.012Z</time></trkpt><trkpt lat="45.17280300763332" lon="9.534197155337614"><ele>59.0</ele><time>2026-04-26T07:03:58.012Z</time></trkpt><trkpt lat="45.172717308156756" lon="9.53418355414127"><ele>58.5</ele><time>2026-04-26T07:03:59.012Z</time></trkpt><trkpt lat="45.17263146348651" lon="9.534175566883507"><ele>58.0</ele><time>2026-04-26T07:04:00.012Z</time></trkpt><trkpt lat="45.1725517658092" lon="9.534191489435123"><ele>57.5</ele><time>2026-04-26T07:04:01.012Z</time></trkpt><trkpt lat="45.172468370238214" lon="9.53419896023663"><ele>57.0</ele><time>2026-04-26T07:04:02.012Z</time></trkpt><trkpt lat="45.17238132165492" lon="9.534197980385352"><ele>56.666666666666664</ele><time>2026-04-26T07:04:03.012Z</time></trkpt><trkpt lat="45.17229756202704" lon="9.534204498821076"><ele>56.33333333333333</ele><time>2026-04-26T07:04:04.012Z</time></trkpt><trkpt lat="45.17221024489685" lon="9.53422035779358"><ele>56.0</ele><time>2026-04-26T07:04:05.012Z</time></trkpt><trkpt lat="45.17212128926466" lon="9.534231675079056"><ele>55.666666666666664</ele><time>2026-04-26T07:04:06.012Z</time></trkpt><trkpt lat="45.17203234400665" lon="9.534243399885495"><ele>55.33333333333333</ele><time>2026-04-26T07:04:07.012Z</time></trkpt><trkpt lat="45.171948125582546" lon="9.534260212139214"><ele>55.0</ele><time>2026-04-26T07:04:08.012Z</time></trkpt><trkpt lat="45.17185670676002" lon="9.534286205848604"><ele>54.99999999999999</ele><time>2026-04-26T07:04:09.012Z</time></trkpt><trkpt lat="45.171771616230444" lon="9.534309922711893"><ele>55.0</ele><time>2026-04-26T07:04:10.012Z</time></trkpt><trkpt lat="45.17169416131167" lon="9.534346497992939"><ele>55.0</ele><time>2026-04-26T07:04:11.012Z</time></trkpt><trkpt lat="45.17160737210854" lon="9.53438231323347"><ele>55.0</ele><time>2026-04-26T07:04:12.012Z</time></trkpt><trkpt lat="45.1715214536255" lon="9.534427473137354"><ele>54.99999999999999</ele><time>2026-04-26T07:04:13.012Z</time></trkpt><trkpt lat="45.17144154636037" lon="9.534468979326018"><ele>55.0</ele><time>2026-04-26T07:04:14.012Z</time></trkpt><trkpt lat="45.17136350208658" lon="9.534506854298066"><ele>54.99999999999999</ele><time>2026-04-26T07:04:15.012Z</time></trkpt><trkpt lat="45.17128124557192" lon="9.534545819667764"><ele>55.0</ele><time>2026-04-26T07:04:16.012Z</time></trkpt><trkpt lat="45.17120211661797" lon="9.534589786600119"><ele>55.0</ele><time>2026-04-26T07:04:17.012Z</time></trkpt><trkpt lat="45.171126963543664" lon="9.53464120044273"><ele>55.0</ele><time>2026-04-26T07:04:18.012Z</time></trkpt><trkpt lat="45.17104993500053" lon="9.534680670961864"><ele>54.99999999999999</ele><time>2026-04-26T07:04:19.012Z</time></trkpt><trkpt lat="45.170971859621375" lon="9.53472187363227"><ele>55.0</ele><time>2026-04-26T07:04:20.012Z</time></trkpt><trkpt lat="45.17089349997283" lon="9.534760892890596"><ele>54.99999999999999</ele><time>2026-04-26T07:04:21.012Z</time></trkpt><trkpt lat="45.17081420111404" lon="9.534805764672537"><ele>55.0</ele><time>2026-04-26T07:04:22.012Z</time></trkpt><trkpt lat="45.17074508426765" lon="9.534850059550868"><ele>55.0</ele><time>2026-04-26T07:04:23.012Z</time></trkpt><trkpt lat="45.170672602094264" lon="9.534900699315115"><ele>55.0</ele><time>2026-04-26T07:04:24.012Z</time></trkpt><trkpt lat="45.170609538372474" lon="9.534955241132833"><ele>54.99999999999999</ele><time>2026-04-26T07:04:25.012Z</time></trkpt><trkpt lat="45.17054169772475" lon="9.535011949953509"><ele>55.0</ele><time>2026-04-26T07:04:26.012Z</time></trkpt><trkpt lat="45.170474466177424" lon="9.535065612238686"><ele>54.42857142857142</ele><time>2026-04-26T07:04:27.012Z</time></trkpt><trkpt lat="45.170407960087154" lon="9.535118552566926"><ele>53.857142857142854</ele><time>2026-04-26T07:04:28.012Z</time></trkpt><trkpt lat="45.17034097410934" lon="9.535164929693888"><ele>53.285714285714285</ele><time>2026-04-26T07:04:29.012Z</time></trkpt><trkpt lat="45.17027517380541" lon="9.535196584364972"><ele>52.71428571428571</ele><time>2026-04-26T07:04:30.012Z</time></trkpt><trkpt lat="45.1702017476369" lon="9.53521807113969"><ele>52.142857142857146</ele><time>2026-04-26T07:04:31.012Z</time></trkpt><trkpt lat="45.170134941869605" lon="9.535231503290325"><ele>51.57142857142857</ele><time>2026-04-26T07:04:32.012Z</time></trkpt><trkpt lat="45.17005698907975" lon="9.535239027500738"><ele>51.0</ele><time>2026-04-26T07:04:33.012Z</time></trkpt><trkpt lat="45.16998677489955" lon="9.535238360055704"><ele>51.0</ele><time>2026-04-26T07:04:34.012Z</time></trkpt><trkpt lat="45.169915823227115" lon="9.535234608149171"><ele>51.0</ele><time>2026-04-26T07:04:35.013Z</time></trkpt><trkpt lat="45.169843984775135" lon="9.53523130376335"><ele>51.0</ele><time>2026-04-26T07:04:36.013Z</time></trkpt><trkpt lat="45.16976413470449" lon="9.535214382240618"><ele>51.0</ele><time>2026-04-26T07:04:37.013Z</time></trkpt><trkpt lat="45.16969096130724" lon="9.53521182472862"><ele>51.0</ele><time>2026-04-26T07:04:38.013Z</time></trkpt><trkpt lat="45.16961857659708" lon="9.535200317043541"><ele>51.0</ele><time>2026-04-26T07:04:39.012Z</time></trkpt><trkpt lat="45.16954678120881" lon="9.535190746449846"><ele>51.0</ele><time>2026-04-26T07:04:40.012Z</time></trkpt><trkpt lat="45.16947706738531" lon="9.535171815130374"><ele>51.0</ele><time>2026-04-26T07:04:41.013Z</time></trkpt><trkpt lat="45.169409501148415" lon="9.53515547100949"><ele>51.0</ele><time>2026-04-26T07:04:42.013Z</time></trkpt><trkpt lat="45.16933849122895" lon="9.5351468456361"><ele>51.0</ele><time>2026-04-26T07:04:43.013Z</time></trkpt><trkpt lat="45.16927237255065" lon="9.535131921383178"><ele>51.0</ele><time>2026-04-26T07:04:44.013Z</time></trkpt><trkpt lat="45.169208026630706" lon="9.535121310265557"><ele>51.0</ele><time>2026-04-26T07:04:45.013Z</time></trkpt><trkpt lat="45.16914538869843" lon="9.535103590382414"><ele>51.0</ele><time>2026-04-26T07:04:46.013Z</time></trkpt><trkpt lat="45.169082198348335" lon="9.535088130218517"><ele>51.0</ele><time>2026-04-26T07:04:47.013Z</time></trkpt><trkpt lat="45.169018149308506" lon="9.535072898923454"><ele>51.199999999999996</ele><time>2026-04-26T07:04:48.013Z</time></trkpt><trkpt lat="45.168901597494376" lon="9.535028433674706"><ele>51.4</ele><time>2026-04-26T07:04:50.013Z</time></trkpt><trkpt lat="45.16884250457217" lon="9.534995974874189"><ele>51.6</ele><time>2026-04-26T07:04:51.013Z</time></trkpt><trkpt lat="45.16872688422927" lon="9.53491792799658"><ele>51.8</ele><time>2026-04-26T07:04:53.013Z</time></trkpt><trkpt lat="45.16862986414322" lon="9.534805914541677"><ele>52.0</ele><time>2026-04-26T07:04:55.013Z</time></trkpt><trkpt lat="45.16857835566928" lon="9.534747235631123"><ele>52.0</ele><time>2026-04-26T07:04:56.013Z</time></trkpt><trkpt lat="45.16852787496514" lon="9.534683606774731"><ele>52.0</ele><time>2026-04-26T07:04:57.013Z</time></trkpt><trkpt lat="45.168473627249014" lon="9.534633533584714"><ele>52.0</ele><time>2026-04-26T07:04:58.013Z</time></trkpt><trkpt lat="45.16841359113597" lon="9.53460445404198"><ele>52.0</ele><time>2026-04-26T07:04:59.013Z</time></trkpt><trkpt lat="45.16834562994939" lon="9.534588315253504"><ele>52.0</ele><time>2026-04-26T07:05:00.013Z</time></trkpt><trkpt lat="45.168277047578044" lon="9.534585558298257"><ele>52.0</ele><time>2026-04-26T07:05:01.013Z</time></trkpt><trkpt lat="45.16820881184227" lon="9.534578730626105"><ele>52.0</ele><time>2026-04-26T07:05:02.013Z</time></trkpt><trkpt lat="45.168142123693904" lon="9.534572344417567"><ele>51.83333333333333</ele><time>2026-04-26T07:05:03.013Z</time></trkpt><trkpt lat="45.1680791328011" lon="9.534573661085858"><ele>51.666666666666664</ele><time>2026-04-26T07:05:04.013Z</time></trkpt><trkpt lat="45.168010883128595" lon="9.534573903828333"><ele>51.5</ele><time>2026-04-26T07:05:05.013Z</time></trkpt><trkpt lat="45.16794370380949" lon="9.534573391643596"><ele>51.33333333333333</ele><time>2026-04-26T07:05:06.013Z</time></trkpt><trkpt lat="45.16787623926736" lon="9.53457379507035"><ele>51.166666666666664</ele><time>2026-04-26T07:05:07.013Z</time></trkpt><trkpt lat="45.167812006864786" lon="9.534571465066296"><ele>51.0</ele><time>2026-04-26T07:05:08.013Z</time></trkpt><trkpt lat="45.167684345495424" lon="9.53456716690644"><ele>51.0</ele><time>2026-04-26T07:05:10.013Z</time></trkpt><trkpt lat="45.16761798705819" lon="9.53456537584979"><ele>51.0</ele><time>2026-04-26T07:05:11.013Z</time></trkpt><trkpt lat="45.16755432500108" lon="9.534564528127376"><ele>51.0</ele><time>2026-04-26T07:05:12.013Z</time></trkpt><trkpt lat="45.167488336286716" lon="9.534560175155422"><ele>51.0</ele><time>2026-04-26T07:05:13.013Z</time></trkpt><trkpt lat="45.16742035414251" lon="9.534554175079856"><ele>51.0</ele><time>2026-04-26T07:05:14.013Z</time></trkpt><trkpt lat="45.16735566832177" lon="9.534537169270465"><ele>51.0</ele><time>2026-04-26T07:05:15.013Z</time></trkpt><trkpt lat="45.1672926931363" lon="9.534507328581801"><ele>51.0</ele><time>2026-04-26T07:05:16.013Z</time></trkpt><trkpt lat="45.16724293358379" lon="9.534447216375755"><ele>51.0</ele><time>2026-04-26T07:05:17.012Z</time></trkpt><trkpt lat="45.16721172409325" lon="9.534363242162476"><ele>51.0</ele><time>2026-04-26T07:05:18.012Z</time></trkpt><trkpt lat="45.16719858504033" lon="9.534274826766781"><ele>51.0</ele><time>2026-04-26T07:05:19.012Z</time></trkpt><trkpt lat="45.167191649020324" lon="9.534185875616972"><ele>51.0</ele><time>2026-04-26T07:05:20.012Z</time></trkpt><trkpt lat="45.167172520387304" lon="9.5340144134966"><ele>51.0</ele><time>2026-04-26T07:05:22.012Z</time></trkpt><trkpt lat="45.16715597802515" lon="9.533837288348606"><ele>51.0</ele><time>2026-04-26T07:05:24.012Z</time></trkpt><trkpt lat="45.16713834430105" lon="9.533661857282315"><ele>51.166666666666664</ele><time>2026-04-26T07:05:26.012Z</time></trkpt><trkpt lat="45.1671301961519" lon="9.533571822990448"><ele>51.33333333333333</ele><time>2026-04-26T07:05:27.012Z</time></trkpt><trkpt lat="45.16711581261511" lon="9.533400288698315"><ele>51.5</ele><time>2026-04-26T07:05:29.012Z</time></trkpt><trkpt lat="45.16710504470672" lon="9.533312122088628"><ele>51.666666666666664</ele><time>2026-04-26T07:05:30.012Z</time></trkpt><trkpt lat="45.1670937254341" lon="9.533223332630063"><ele>51.83333333333333</ele><time>2026-04-26T07:05:31.012Z</time></trkpt><trkpt lat="45.167066327253096" lon="9.533063875028791"><ele>52.0</ele><time>2026-04-26T07:05:33.012Z</time></trkpt><trkpt lat="45.16702434272333" lon="9.5329040807141"><ele>51.5</ele><time>2026-04-26T07:05:35.012Z</time></trkpt><trkpt lat="45.166954049890094" lon="9.53276565779402"><ele>51.0</ele><time>2026-04-26T07:05:37.012Z</time></trkpt><trkpt lat="45.16685521726116" lon="9.53266380206025"><ele>50.5</ele><time>2026-04-26T07:05:39.012Z</time></trkpt><trkpt lat="45.1667596798051" lon="9.532576915150596"><ele>50.0</ele><time>2026-04-26T07:05:41.012Z</time></trkpt><trkpt lat="45.1666614007298" lon="9.532505842541463"><ele>50.0</ele><time>2026-04-26T07:05:43.012Z</time></trkpt><trkpt lat="45.16654819793555" lon="9.53246178563916"><ele>50.0</ele><time>2026-04-26T07:05:45.012Z</time></trkpt><trkpt lat="45.16643590850664" lon="9.532467810581876"><ele>50.0</ele><time>2026-04-26T07:05:47.012Z</time></trkpt><trkpt lat="45.166333405912425" lon="9.532531145524914"><ele>50.0</ele><time>2026-04-26T07:05:49.012Z</time></trkpt><trkpt lat="45.1662794231238" lon="9.532583619406527"><ele>50.0</ele><time>2026-04-26T07:05:50.012Z</time></trkpt><trkpt lat="45.16619497020473" lon="9.532677020272292"><ele>50.16666666666667</ele><time>2026-04-26T07:05:52.012Z</time></trkpt><trkpt lat="45.16611594974379" lon="9.532768926354585"><ele>50.333333333333336</ele><time>2026-04-26T07:05:54.012Z</time></trkpt><trkpt lat="45.16603161850923" lon="9.532856406774515"><ele>50.5</ele><time>2026-04-26T07:05:56.012Z</time></trkpt><trkpt lat="45.16596537706912" lon="9.532913300327682"><ele>50.66666666666667</ele><time>2026-04-26T07:05:58.012Z</time></trkpt><trkpt lat="45.16589453203118" lon="9.532952229826636"><ele>50.833333333333336</ele><time>2026-04-26T07:06:00.012Z</time></trkpt><trkpt lat="45.16582449855347" lon="9.5329331168072"><ele>51.0</ele><time>2026-04-26T07:06:03.012Z</time></trkpt><trkpt lat="45.16579944861843" lon="9.5328084601167"><ele>51.0</ele><time>2026-04-26T07:06:06.012Z</time></trkpt><trkpt lat="45.16579845769385" lon="9.532689096985969"><ele>51.0</ele><time>2026-04-26T07:06:08.012Z</time></trkpt><trkpt lat="45.16579406714865" lon="9.532566357157807"><ele>51.0</ele><time>2026-04-26T07:06:10.012Z</time></trkpt><trkpt lat="45.1657935178929" lon="9.532435038480463"><ele>51.0</ele><time>2026-04-26T07:06:12.012Z</time></trkpt><trkpt lat="45.16579255408576" lon="9.53229346011627"><ele>51.0</ele><time>2026-04-26T07:06:14.012Z</time></trkpt><trkpt lat="45.16579392579294" lon="9.532156891976"><ele>51.0</ele><time>2026-04-26T07:06:16.012Z</time></trkpt><trkpt lat="45.16579831592836" lon="9.532014939034802"><ele>51.0</ele><time>2026-04-26T07:06:18.012Z</time></trkpt><trkpt lat="45.16579867191165" lon="9.531880286036058"><ele>51.0</ele><time>2026-04-26T07:06:20.012Z</time></trkpt><trkpt lat="45.165794183207844" lon="9.53174207427043"><ele>51.0</ele><time>2026-04-26T07:06:22.012Z</time></trkpt><trkpt lat="45.1657906965553" lon="9.531601713321573"><ele>51.0</ele><time>2026-04-26T07:06:24.012Z</time></trkpt><trkpt lat="45.16579326754041" lon="9.531453395465036"><ele>51.0</ele><time>2026-04-26T07:06:26.012Z</time></trkpt><trkpt lat="45.16579611640669" lon="9.531301237859088"><ele>51.0</ele><time>2026-04-26T07:06:28.012Z</time></trkpt><trkpt lat="45.16579409523777" lon="9.531143912925103"><ele>51.0</ele><time>2026-04-26T07:06:30.012Z</time></trkpt><trkpt lat="45.16579734686217" lon="9.530978444276828"><ele>51.0</ele><time>2026-04-26T07:06:32.012Z</time></trkpt><trkpt lat="45.16578979149642" lon="9.530815453528065"><ele>51.25</ele><time>2026-04-26T07:06:34.012Z</time></trkpt><trkpt lat="45.16578398332903" lon="9.53066131987586"><ele>51.5</ele><time>2026-04-26T07:06:36.012Z</time></trkpt><trkpt lat="45.16578360725085" lon="9.530498884838513"><ele>51.75</ele><time>2026-04-26T07:06:38.012Z</time></trkpt><trkpt lat="45.16578605364536" lon="9.530329311830807"><ele>52.0</ele><time>2026-04-26T07:06:40.012Z</time></trkpt><trkpt lat="45.16578297964031" lon="9.53017335260013"><ele>52.0</ele><time>2026-04-26T07:06:42.014Z</time></trkpt><trkpt lat="45.165779871072374" lon="9.530009280833884"><ele>52.0</ele><time>2026-04-26T07:06:44.014Z</time></trkpt><trkpt lat="45.16578658118681" lon="9.529838978054649"><ele>52.0</ele><time>2026-04-26T07:06:46.013Z</time></trkpt><trkpt lat="45.165783980425026" lon="9.529670861722668"><ele>52.0</ele><time>2026-04-26T07:06:48.013Z</time></trkpt><trkpt lat="45.16578365930002" lon="9.52950374316179"><ele>52.0</ele><time>2026-04-26T07:06:50.013Z</time></trkpt><trkpt lat="45.16578599233714" lon="9.529330308362411"><ele>52.0</ele><time>2026-04-26T07:06:52.014Z</time></trkpt><trkpt lat="45.16578731999972" lon="9.529156388560564"><ele>52.0</ele><time>2026-04-26T07:06:54.013Z</time></trkpt><trkpt lat="45.16578639542094" lon="9.529063689227737"><ele>52.0</ele><time>2026-04-26T07:06:55.013Z</time></trkpt><trkpt lat="45.165788312391655" lon="9.528970219353909"><ele>52.0</ele><time>2026-04-26T07:06:56.013Z</time></trkpt><trkpt lat="45.16579110174073" lon="9.528800329996994"><ele>52.6</ele><time>2026-04-26T07:06:58.013Z</time></trkpt><trkpt lat="45.165789568409934" lon="9.52864790671683"><ele>53.2</ele><time>2026-04-26T07:07:00.013Z</time></trkpt><trkpt lat="45.16578132502967" lon="9.52848975853875"><ele>53.8</ele><time>2026-04-26T07:07:02.013Z</time></trkpt><trkpt lat="45.165771028376945" lon="9.528334365048865"><ele>54.4</ele><time>2026-04-26T07:07:04.013Z</time></trkpt><trkpt lat="45.165777914165005" lon="9.528174912521836"><ele>55.0</ele><time>2026-04-26T07:07:06.013Z</time></trkpt><trkpt lat="45.16577129625949" lon="9.52802885583566"><ele>55.4</ele><time>2026-04-26T07:07:08.013Z</time></trkpt><trkpt lat="45.16576598588906" lon="9.52786489144575"><ele>55.8</ele><time>2026-04-26T07:07:10.013Z</time></trkpt><trkpt lat="45.16576095422109" lon="9.527720860400708"><ele>56.2</ele><time>2026-04-26T07:07:12.013Z</time></trkpt><trkpt lat="45.16574832836647" lon="9.52758285566736"><ele>56.6</ele><time>2026-04-26T07:07:14.013Z</time></trkpt><trkpt lat="45.16572500934279" lon="9.527427109694987"><ele>57.0</ele><time>2026-04-26T07:07:16.013Z</time></trkpt><trkpt lat="45.16569850299695" lon="9.527283443911253"><ele>57.400000000000006</ele><time>2026-04-26T07:07:18.013Z</time></trkpt><trkpt lat="45.165666844844324" lon="9.527150057209226"><ele>57.800000000000004</ele><time>2026-04-26T07:07:20.013Z</time></trkpt><trkpt lat="45.1656183517421" lon="9.526992424292699"><ele>58.2</ele><time>2026-04-26T07:07:22.013Z</time></trkpt><trkpt lat="45.16553111629747" lon="9.526883020206961"><ele>58.6</ele><time>2026-04-26T07:07:24.013Z</time></trkpt><trkpt lat="45.16542830984987" lon="9.526849355299252"><ele>59.0</ele><time>2026-04-26T07:07:26.013Z</time></trkpt><trkpt lat="45.165316718735845" lon="9.526891004623065"><ele>59.0</ele><time>2026-04-26T07:07:28.013Z</time></trkpt><trkpt lat="45.16521315625385" lon="9.526981853582061"><ele>59.0</ele><time>2026-04-26T07:07:30.013Z</time></trkpt><trkpt lat="45.16512145842986" lon="9.52707788389143"><ele>59.0</ele><time>2026-04-26T07:07:32.013Z</time></trkpt><trkpt lat="45.16503220814515" lon="9.527157823807658"><ele>59.0</ele><time>2026-04-26T07:07:34.013Z</time></trkpt><trkpt lat="45.164937457807696" lon="9.52724697198241"><ele>59.6</ele><time>2026-04-26T07:07:36.013Z</time></trkpt><trkpt lat="45.16485189665534" lon="9.527331330423724"><ele>60.2</ele><time>2026-04-26T07:07:38.013Z</time></trkpt><trkpt lat="45.16475511206104" lon="9.52737702437463"><ele>60.800000000000004</ele><time>2026-04-26T07:07:40.013Z</time></trkpt><trkpt lat="45.16466433853156" lon="9.52740847079442"><ele>61.400000000000006</ele><time>2026-04-26T07:07:42.013Z</time></trkpt><trkpt lat="45.16457964278385" lon="9.52743405892917"><ele>62.0</ele><time>2026-04-26T07:07:44.013Z</time></trkpt><trkpt lat="45.164480529403654" lon="9.527465075025356"><ele>62.0</ele><time>2026-04-26T07:07:46.013Z</time></trkpt><trkpt lat="45.16439256629366" lon="9.527489656173787"><ele>62.0</ele><time>2026-04-26T07:07:48.013Z</time></trkpt><trkpt lat="45.16429969818457" lon="9.527510242935087"><ele>62.0</ele><time>2026-04-26T07:07:50.013Z</time></trkpt><trkpt lat="45.16420677637768" lon="9.527515021773418"><ele>62.0</ele><time>2026-04-26T07:07:52.013Z</time></trkpt><trkpt lat="45.164119977371946" lon="9.527529817361682"><ele>62.0</ele><time>2026-04-26T07:07:54.013Z</time></trkpt><trkpt lat="45.16401901584938" lon="9.527543291888707"><ele>62.0</ele><time>2026-04-26T07:07:56.012Z</time></trkpt><trkpt lat="45.16392855824541" lon="9.52755564708063"><ele>62.0</ele><time>2026-04-26T07:07:58.012Z</time></trkpt><trkpt lat="45.16384150874689" lon="9.527566840542827"><ele>62.0</ele><time>2026-04-26T07:08:00.012Z</time></trkpt><trkpt lat="45.16374809431426" lon="9.527585662244082"><ele>62.0</ele><time>2026-04-26T07:08:02.012Z</time></trkpt><trkpt lat="45.16364858332906" lon="9.52760761167588"><ele>62.0</ele><time>2026-04-26T07:08:04.012Z</time></trkpt><trkpt lat="45.16353982341067" lon="9.527617234814212"><ele>62.0</ele><time>2026-04-26T07:08:06.012Z</time></trkpt><trkpt lat="45.16343475755561" lon="9.527632383180146"><ele>62.0</ele><time>2026-04-26T07:08:08.012Z</time></trkpt><trkpt lat="45.163334411562765" lon="9.527642911209265"><ele>62.0</ele><time>2026-04-26T07:08:10.012Z</time></trkpt><trkpt lat="45.163231500679224" lon="9.527645921621131"><ele>62.0</ele><time>2026-04-26T07:08:12.012Z</time></trkpt><trkpt lat="45.163142032334434" lon="9.527662162757647"><ele>62.0</ele><time>2026-04-26T07:08:14.012Z</time></trkpt><trkpt lat="45.16304128474165" lon="9.527669715670756"><ele>62.2</ele><time>2026-04-26T07:08:16.012Z</time></trkpt><trkpt lat="45.162950004328046" lon="9.527677112237667"><ele>62.400000000000006</ele><time>2026-04-26T07:08:18.012Z</time></trkpt><trkpt lat="45.16284095189419" lon="9.527686819307236"><ele>62.599999999999994</ele><time>2026-04-26T07:08:20.012Z</time></trkpt><trkpt lat="45.16275110287213" lon="9.52769213831757"><ele>62.8</ele><time>2026-04-26T07:08:22.012Z</time></trkpt><trkpt lat="45.162648298338766" lon="9.527705916709603"><ele>63.0</ele><time>2026-04-26T07:08:24.012Z</time></trkpt><trkpt lat="45.162547877566205" lon="9.527723227504692"><ele>63.0</ele><time>2026-04-26T07:08:26.012Z</time></trkpt><trkpt lat="45.16244503723562" lon="9.527725446611361"><ele>63.0</ele><time>2026-04-26T07:08:28.012Z</time></trkpt><trkpt lat="45.162342749482534" lon="9.527733578353144"><ele>63.0</ele><time>2026-04-26T07:08:30.012Z</time></trkpt><trkpt lat="45.16224333603082" lon="9.527746746159886"><ele>63.0</ele><time>2026-04-26T07:08:32.012Z</time></trkpt><trkpt lat="45.16213504223276" lon="9.527724885813207"><ele>63.0</ele><time>2026-04-26T07:08:34.012Z</time></trkpt><trkpt lat="45.162029655959536" lon="9.527712306709766"><ele>62.5</ele><time>2026-04-26T07:08:36.012Z</time></trkpt><trkpt lat="45.16192385624107" lon="9.52768019325269"><ele>62.0</ele><time>2026-04-26T07:08:38.012Z</time></trkpt><trkpt lat="45.16180320990265" lon="9.52765758788278"><ele>61.5</ele><time>2026-04-26T07:08:40.012Z</time></trkpt><trkpt lat="45.161685669544205" lon="9.52763763263253"><ele>61.0</ele><time>2026-04-26T07:08:42.012Z</time></trkpt><trkpt lat="45.161579167186666" lon="9.527607879390333"><ele>60.75</ele><time>2026-04-26T07:08:44.012Z</time></trkpt><trkpt lat="45.161460891785545" lon="9.527580804148318"><ele>60.5</ele><time>2026-04-26T07:08:46.012Z</time></trkpt><trkpt lat="45.16134536084207" lon="9.527550974039784"><ele>60.25</ele><time>2026-04-26T07:08:48.013Z</time></trkpt><trkpt lat="45.16123090567059" lon="9.527525462334234"><ele>60.0</ele><time>2026-04-26T07:08:50.013Z</time></trkpt><trkpt lat="45.16111793709925" lon="9.527504410715434"><ele>60.0</ele><time>2026-04-26T07:08:52.014Z</time></trkpt><trkpt lat="45.161019683558735" lon="9.527481184279187"><ele>60.0</ele><time>2026-04-26T07:08:54.014Z</time></trkpt><trkpt lat="45.16095138414213" lon="9.527410055712663"><ele>60.0</ele><time>2026-04-26T07:08:56.014Z</time></trkpt><trkpt lat="45.160963554080055" lon="9.527294106606938"><ele>60.0</ele><time>2026-04-26T07:08:58.014Z</time></trkpt><trkpt lat="45.16101451890239" lon="9.52715055390435"><ele>60.0</ele><time>2026-04-26T07:09:00.014Z</time></trkpt><trkpt lat="45.161045073781075" lon="9.527010852807559"><ele>60.4</ele><time>2026-04-26T07:09:02.014Z</time></trkpt><trkpt lat="45.1610816729419" lon="9.526869131677628"><ele>60.8</ele><time>2026-04-26T07:09:04.014Z</time></trkpt><trkpt lat="45.161097109965716" lon="9.526757505075967"><ele>61.2</ele><time>2026-04-26T07:09:06.014Z</time></trkpt><trkpt lat="45.16112401520449" lon="9.526614639986619"><ele>61.6</ele><time>2026-04-26T07:09:08.014Z</time></trkpt><trkpt lat="45.16113859076431" lon="9.526462956078486"><ele>62.0</ele><time>2026-04-26T07:09:10.014Z</time></trkpt><trkpt lat="45.16114842251352" lon="9.52631371593041"><ele>62.400000000000006</ele><time>2026-04-26T07:09:12.014Z</time></trkpt><trkpt lat="45.16115703533207" lon="9.526150447686675"><ele>62.800000000000004</ele><time>2026-04-26T07:09:14.014Z</time></trkpt><trkpt lat="45.161153640810205" lon="9.52599980762744"><ele>63.2</ele><time>2026-04-26T07:09:16.014Z</time></trkpt><trkpt lat="45.16115310162666" lon="9.525844250744019"><ele>63.6</ele><time>2026-04-26T07:09:18.014Z</time></trkpt><trkpt lat="45.1611538548984" lon="9.525690114770798"><ele>64.0</ele><time>2026-04-26T07:09:20.014Z</time></trkpt><trkpt lat="45.161149748998916" lon="9.525543394523044"><ele>64.0</ele><time>2026-04-26T07:09:22.014Z</time></trkpt><trkpt lat="45.161153105842985" lon="9.52539436542418"><ele>64.0</ele><time>2026-04-26T07:09:24.014Z</time></trkpt><trkpt lat="45.16115561588527" lon="9.525244179539916"><ele>64.0</ele><time>2026-04-26T07:09:26.014Z</time></trkpt><trkpt lat="45.16115996768425" lon="9.525089119536776"><ele>64.0</ele><time>2026-04-26T07:09:28.014Z</time></trkpt><trkpt lat="45.16115322411412" lon="9.524932690917758"><ele>64.0</ele><time>2026-04-26T07:09:30.014Z</time></trkpt><trkpt lat="45.16114814109994" lon="9.524767785492601"><ele>64.0</ele><time>2026-04-26T07:09:32.014Z</time></trkpt><trkpt lat="45.16113981565009" lon="9.524595680476462"><ele>64.0</ele><time>2026-04-26T07:09:34.014Z</time></trkpt><trkpt lat="45.161143941816256" lon="9.524439289747301"><ele>64.0</ele><time>2026-04-26T07:09:36.013Z</time></trkpt><trkpt lat="45.161145621809005" lon="9.524273377660693"><ele>64.0</ele><time>2026-04-26T07:09:38.013Z</time></trkpt><trkpt lat="45.16114478287429" lon="9.524118472964462"><ele>63.800000000000004</ele><time>2026-04-26T07:09:40.013Z</time></trkpt><trkpt lat="45.16115054520924" lon="9.52396527989563"><ele>63.60000000000001</ele><time>2026-04-26T07:09:42.013Z</time></trkpt><trkpt lat="45.16114392919817" lon="9.52381432669317"><ele>63.4</ele><time>2026-04-26T07:09:44.013Z</time></trkpt><trkpt lat="45.16114185307033" lon="9.523669285003582"><ele>63.2</ele><time>2026-04-26T07:09:46.013Z</time></trkpt><trkpt lat="45.16114306068429" lon="9.523524757908826"><ele>63.0</ele><time>2026-04-26T07:09:48.013Z</time></trkpt><trkpt lat="45.16114737581593" lon="9.52337065518014"><ele>62.8</ele><time>2026-04-26T07:09:50.013Z</time></trkpt><trkpt lat="45.1611410308538" lon="9.523216411687846"><ele>62.599999999999994</ele><time>2026-04-26T07:09:52.013Z</time></trkpt><trkpt lat="45.161148191945614" lon="9.523069830892577"><ele>62.400000000000006</ele><time>2026-04-26T07:09:54.013Z</time></trkpt><trkpt lat="45.16115060484132" lon="9.522927314066395"><ele>62.2</ele><time>2026-04-26T07:09:56.013Z</time></trkpt><trkpt lat="45.16114878546195" lon="9.522786543383663"><ele>62.0</ele><time>2026-04-26T07:09:58.013Z</time></trkpt><trkpt lat="45.16114766266312" lon="9.522642479143487"><ele>61.8</ele><time>2026-04-26T07:10:00.013Z</time></trkpt><trkpt lat="45.161147334045424" lon="9.52249222227486"><ele>61.6</ele><time>2026-04-26T07:10:02.013Z</time></trkpt><trkpt lat="45.161141226951216" lon="9.522359067398435"><ele>61.39999999999999</ele><time>2026-04-26T07:10:04.013Z</time></trkpt><trkpt lat="45.16114199169478" lon="9.522221836925358"><ele>61.199999999999996</ele><time>2026-04-26T07:10:06.013Z</time></trkpt><trkpt lat="45.16113453225824" lon="9.522081917863645"><ele>61.0</ele><time>2026-04-26T07:10:08.013Z</time></trkpt><trkpt lat="45.16112606883508" lon="9.521949737184642"><ele>61.4</ele><time>2026-04-26T07:10:10.013Z</time></trkpt><trkpt lat="45.161111720372375" lon="9.521815898240183"><ele>61.8</ele><time>2026-04-26T07:10:12.013Z</time></trkpt><trkpt lat="45.161092586847644" lon="9.521675935926213"><ele>62.199999999999996</ele><time>2026-04-26T07:10:14.013Z</time></trkpt><trkpt lat="45.16107606067263" lon="9.52153523350766"><ele>62.599999999999994</ele><time>2026-04-26T07:10:16.013Z</time></trkpt><trkpt lat="45.16105975030907" lon="9.521401659080338"><ele>63.0</ele><time>2026-04-26T07:10:18.013Z</time></trkpt><trkpt lat="45.161036747098045" lon="9.52126924236628"><ele>62.8</ele><time>2026-04-26T07:10:20.013Z</time></trkpt><trkpt lat="45.16101575658793" lon="9.521142502144516"><ele>62.599999999999994</ele><time>2026-04-26T07:10:22.013Z</time></trkpt><trkpt lat="45.160998822365755" lon="9.521007563246435"><ele>62.400000000000006</ele><time>2026-04-26T07:10:24.013Z</time></trkpt><trkpt lat="45.1609756728583" lon="9.520881891856195"><ele>62.2</ele><time>2026-04-26T07:10:26.013Z</time></trkpt><trkpt lat="45.16095622845517" lon="9.520749753627848"><ele>62.0</ele><time>2026-04-26T07:10:28.013Z</time></trkpt><trkpt lat="45.16094037768007" lon="9.520627357979153"><ele>62.0</ele><time>2026-04-26T07:10:30.013Z</time></trkpt><trkpt lat="45.16092498665638" lon="9.520495565632679"><ele>62.0</ele><time>2026-04-26T07:10:32.013Z</time></trkpt><trkpt lat="45.16091103257128" lon="9.52036569538765"><ele>62.0</ele><time>2026-04-26T07:10:34.013Z</time></trkpt><trkpt lat="45.16089231905377" lon="9.520226716100295"><ele>62.0</ele><time>2026-04-26T07:10:36.013Z</time></trkpt><trkpt lat="45.1608720553605" lon="9.520095322780664"><ele>62.0</ele><time>2026-04-26T07:10:38.013Z</time></trkpt><trkpt lat="45.160856324497374" lon="9.519963724874426"><ele>62.0</ele><time>2026-04-26T07:10:40.013Z</time></trkpt><trkpt lat="45.160845212818344" lon="9.519830188546873"><ele>62.0</ele><time>2026-04-26T07:10:42.013Z</time></trkpt><trkpt lat="45.16082772128049" lon="9.519699949272862"><ele>62.0</ele><time>2026-04-26T07:10:44.013Z</time></trkpt><trkpt lat="45.16080087625362" lon="9.51956864832012"><ele>62.0</ele><time>2026-04-26T07:10:46.013Z</time></trkpt><trkpt lat="45.1607848239976" lon="9.51943833053615"><ele>62.0</ele><time>2026-04-26T07:10:48.013Z</time></trkpt><trkpt lat="45.16076394396191" lon="9.519312610484189"><ele>62.0</ele><time>2026-04-26T07:10:50.013Z</time></trkpt><trkpt lat="45.16074888809357" lon="9.519188699816082"><ele>62.0</ele><time>2026-04-26T07:10:52.013Z</time></trkpt><trkpt lat="45.160731264244674" lon="9.519054969936324"><ele>62.0</ele><time>2026-04-26T07:10:54.014Z</time></trkpt><trkpt lat="45.16071592021774" lon="9.518923504009825"><ele>62.0</ele><time>2026-04-26T07:10:56.014Z</time></trkpt><trkpt lat="45.16070231812416" lon="9.518791081232258"><ele>62.0</ele><time>2026-04-26T07:10:58.014Z</time></trkpt><trkpt lat="45.16068883989521" lon="9.518664380571629"><ele>62.400000000000006</ele><time>2026-04-26T07:11:00.014Z</time></trkpt><trkpt lat="45.160668772267876" lon="9.518533826138034"><ele>62.800000000000004</ele><time>2026-04-26T07:11:02.014Z</time></trkpt><trkpt lat="45.160651624818584" lon="9.518403721175009"><ele>63.2</ele><time>2026-04-26T07:11:04.014Z</time></trkpt><trkpt lat="45.16063250828002" lon="9.518278454692284"><ele>63.6</ele><time>2026-04-26T07:11:06.014Z</time></trkpt><trkpt lat="45.1606187291771" lon="9.518137364629261"><ele>64.0</ele><time>2026-04-26T07:11:08.014Z</time></trkpt><trkpt lat="45.16060019857828" lon="9.518004668573653"><ele>63.800000000000004</ele><time>2026-04-26T07:11:10.014Z</time></trkpt><trkpt lat="45.16057929982169" lon="9.517865387517649"><ele>63.60000000000001</ele><time>2026-04-26T07:11:12.014Z</time></trkpt><trkpt lat="45.16056565310049" lon="9.517729594671593"><ele>63.4</ele><time>2026-04-26T07:11:14.014Z</time></trkpt><trkpt lat="45.16054564349176" lon="9.51759896329977"><ele>63.2</ele><time>2026-04-26T07:11:16.014Z</time></trkpt><trkpt lat="45.160527081338046" lon="9.517467564850614"><ele>63.0</ele><time>2026-04-26T07:11:18.014Z</time></trkpt><trkpt lat="45.16050692460859" lon="9.517335083827804"><ele>63.0</ele><time>2026-04-26T07:11:20.014Z</time></trkpt><trkpt lat="45.16048693130148" lon="9.517203827778838"><ele>63.0</ele><time>2026-04-26T07:11:22.014Z</time></trkpt><trkpt lat="45.16047026205388" lon="9.517074987282657"><ele>63.0</ele><time>2026-04-26T07:11:24.014Z</time></trkpt><trkpt lat="45.16045017522018" lon="9.516943828397917"><ele>63.0</ele><time>2026-04-26T07:11:26.013Z</time></trkpt><trkpt lat="45.16042788637039" lon="9.516803892424553"><ele>63.0</ele><time>2026-04-26T07:11:28.013Z</time></trkpt><trkpt lat="45.16041145879983" lon="9.516657600718359"><ele>63.0</ele><time>2026-04-26T07:11:30.013Z</time></trkpt><trkpt lat="45.160394785150174" lon="9.516517505193153"><ele>63.0</ele><time>2026-04-26T07:11:32.013Z</time></trkpt><trkpt lat="45.16037036416994" lon="9.516378011868056"><ele>63.0</ele><time>2026-04-26T07:11:34.013Z</time></trkpt><trkpt lat="45.16035090207445" lon="9.516239822091254"><ele>63.0</ele><time>2026-04-26T07:11:36.013Z</time></trkpt><trkpt lat="45.16032210317083" lon="9.516102289175361"><ele>63.0</ele><time>2026-04-26T07:11:38.013Z</time></trkpt><trkpt lat="45.16029524075633" lon="9.515959924119683"><ele>63.0</ele><time>2026-04-26T07:11:40.013Z</time></trkpt><trkpt lat="45.160262598679324" lon="9.515809462826786"><ele>63.0</ele><time>2026-04-26T07:11:42.013Z</time></trkpt><trkpt lat="45.160231926898" lon="9.515670976374526"><ele>63.0</ele><time>2026-04-26T07:11:44.013Z</time></trkpt><trkpt lat="45.16020048598112" lon="9.515541309095461"><ele>63.0</ele><time>2026-04-26T07:11:46.013Z</time></trkpt><trkpt lat="45.1601694356094" lon="9.515408148692037"><ele>63.0</ele><time>2026-04-26T07:11:48.013Z</time></trkpt><trkpt lat="45.16013436789489" lon="9.515274941283392"><ele>62.599999999999994</ele><time>2026-04-26T07:11:50.013Z</time></trkpt><trkpt lat="45.16009845008686" lon="9.515145537533833"><ele>62.199999999999996</ele><time>2026-04-26T07:11:52.013Z</time></trkpt><trkpt lat="45.16006333638998" lon="9.515015105784274"><ele>61.8</ele><time>2026-04-26T07:11:54.013Z</time></trkpt><trkpt lat="45.16002564049125" lon="9.514887674371778"><ele>61.4</ele><time>2026-04-26T07:11:56.013Z</time></trkpt><trkpt lat="45.159986157705326" lon="9.514756718755347"><ele>61.0</ele><time>2026-04-26T07:11:58.013Z</time></trkpt><trkpt lat="45.15995491701718" lon="9.514630903957446"><ele>61.0</ele><time>2026-04-26T07:12:00.013Z</time></trkpt><trkpt lat="45.159915655533865" lon="9.51449827043772"><ele>60.99999999999999</ele><time>2026-04-26T07:12:02.013Z</time></trkpt><trkpt lat="45.15988615175845" lon="9.514368408684835"><ele>60.99999999999999</ele><time>2026-04-26T07:12:04.013Z</time></trkpt><trkpt lat="45.159855274082574" lon="9.514241175226474"><ele>61.0</ele><time>2026-04-26T07:12:06.013Z</time></trkpt><trkpt lat="45.15980848922078" lon="9.51410988374144"><ele>61.0</ele><time>2026-04-26T07:12:08.013Z</time></trkpt><trkpt lat="45.15978039761944" lon="9.513970397871509"><ele>61.199999999999996</ele><time>2026-04-26T07:12:10.013Z</time></trkpt><trkpt lat="45.159737538752054" lon="9.513837683444729"><ele>61.39999999999999</ele><time>2026-04-26T07:12:12.013Z</time></trkpt><trkpt lat="45.159708707831754" lon="9.513699664877974"><ele>61.6</ele><time>2026-04-26T07:12:14.013Z</time></trkpt><trkpt lat="45.15967658249939" lon="9.513572476016007"><ele>61.8</ele><time>2026-04-26T07:12:16.013Z</time></trkpt><trkpt lat="45.159637522615085" lon="9.51344467063537"><ele>62.0</ele><time>2026-04-26T07:12:18.013Z</time></trkpt><trkpt lat="45.15960675401859" lon="9.513311748124998"><ele>62.2</ele><time>2026-04-26T07:12:20.013Z</time></trkpt><trkpt lat="45.15956778658893" lon="9.51318161609552"><ele>62.400000000000006</ele><time>2026-04-26T07:12:22.013Z</time></trkpt><trkpt lat="45.159534813593204" lon="9.513053101462432"><ele>62.599999999999994</ele><time>2026-04-26T07:12:24.013Z</time></trkpt><trkpt lat="45.15949901296056" lon="9.512919745352137"><ele>62.8</ele><time>2026-04-26T07:12:26.013Z</time></trkpt><trkpt lat="45.159463778686586" lon="9.512794108584362"><ele>63.0</ele><time>2026-04-26T07:12:28.013Z</time></trkpt><trkpt lat="45.15942845786607" lon="9.512663767967881"><ele>63.0</ele><time>2026-04-26T07:12:30.013Z</time></trkpt><trkpt lat="45.15939181160516" lon="9.512533758242395"><ele>63.0</ele><time>2026-04-26T07:12:32.013Z</time></trkpt><trkpt lat="45.15936966774868" lon="9.512400788676322"><ele>63.0</ele><time>2026-04-26T07:12:34.013Z</time></trkpt><trkpt lat="45.159352462646915" lon="9.512261588353653"><ele>63.0</ele><time>2026-04-26T07:12:36.013Z</time></trkpt><trkpt lat="45.15934267846972" lon="9.512113664101628"><ele>63.0</ele><time>2026-04-26T07:12:38.013Z</time></trkpt><trkpt lat="45.159340835768454" lon="9.511965526932418"><ele>63.0</ele><time>2026-04-26T07:12:40.013Z</time></trkpt><trkpt lat="45.15935897277606" lon="9.511821410065053"><ele>63.0</ele><time>2026-04-26T07:12:42.013Z</time></trkpt><trkpt lat="45.159388894435565" lon="9.511681766875535"><ele>63.0</ele><time>2026-04-26T07:12:44.013Z</time></trkpt><trkpt lat="45.15941431860895" lon="9.511547399399303"><ele>63.0</ele><time>2026-04-26T07:12:46.013Z</time></trkpt><trkpt lat="45.15945186402963" lon="9.511414210012992"><ele>63.0</ele><time>2026-04-26T07:12:48.013Z</time></trkpt><trkpt lat="45.15949117748337" lon="9.511280075902365"><ele>62.8</ele><time>2026-04-26T07:12:50.013Z</time></trkpt><trkpt lat="45.15952925897194" lon="9.511151204761457"><ele>62.599999999999994</ele><time>2026-04-26T07:12:52.013Z</time></trkpt><trkpt lat="45.15956471648155" lon="9.511018295474315"><ele>62.400000000000006</ele><time>2026-04-26T07:12:54.013Z</time></trkpt><trkpt lat="45.159601140406146" lon="9.510883774439566"><ele>62.2</ele><time>2026-04-26T07:12:56.013Z</time></trkpt><trkpt lat="45.159635391144825" lon="9.510747753401263"><ele>62.0</ele><time>2026-04-26T07:12:58.013Z</time></trkpt><trkpt lat="45.15967293593697" lon="9.510607865581331"><ele>62.0</ele><time>2026-04-26T07:13:00.015Z</time></trkpt><trkpt lat="45.15971158727769" lon="9.510468833109167"><ele>62.0</ele><time>2026-04-26T07:13:02.014Z</time></trkpt><trkpt lat="45.159749089207" lon="9.510332780736276"><ele>62.0</ele><time>2026-04-26T07:13:04.015Z</time></trkpt><trkpt lat="45.159792593068246" lon="9.510195933718995"><ele>62.0</ele><time>2026-04-26T07:13:06.014Z</time></trkpt><trkpt lat="45.15982413864185" lon="9.510059641185926"><ele>62.0</ele><time>2026-04-26T07:13:08.015Z</time></trkpt><trkpt lat="45.159856689527366" lon="9.509921935705169"><ele>62.2</ele><time>2026-04-26T07:13:10.014Z</time></trkpt><trkpt lat="45.15989661435416" lon="9.50978259472354"><ele>62.400000000000006</ele><time>2026-04-26T07:13:12.014Z</time></trkpt><trkpt lat="45.15993541123127" lon="9.509637629382352"><ele>62.599999999999994</ele><time>2026-04-26T07:13:14.014Z</time></trkpt><trkpt lat="45.159974097731066" lon="9.509496172039086"><ele>62.8</ele><time>2026-04-26T07:13:16.014Z</time></trkpt><trkpt lat="45.16000515940369" lon="9.509352655112306"><ele>63.0</ele><time>2026-04-26T07:13:18.014Z</time></trkpt><trkpt lat="45.160042316343336" lon="9.509210113431807"><ele>63.0</ele><time>2026-04-26T07:13:20.014Z</time></trkpt><trkpt lat="45.16007868775478" lon="9.509065091177872"><ele>63.0</ele><time>2026-04-26T07:13:22.014Z</time></trkpt><trkpt lat="45.16011759148035" lon="9.508925423311917"><ele>63.0</ele><time>2026-04-26T07:13:24.014Z</time></trkpt><trkpt lat="45.16015374140868" lon="9.50879117320097"><ele>63.0</ele><time>2026-04-26T07:13:26.014Z</time></trkpt><trkpt lat="45.16018794377937" lon="9.508656850663199"><ele>63.0</ele><time>2026-04-26T07:13:28.014Z</time></trkpt><trkpt lat="45.160228717134295" lon="9.508520184332259"><ele>63.0</ele><time>2026-04-26T07:13:30.014Z</time></trkpt><trkpt lat="45.160267415698755" lon="9.508383910432466"><ele>63.0</ele><time>2026-04-26T07:13:32.014Z</time></trkpt><trkpt lat="45.16029831352843" lon="9.508230197284279"><ele>63.0</ele><time>2026-04-26T07:13:34.014Z</time></trkpt><trkpt lat="45.16034209878752" lon="9.508099033551074"><ele>63.0</ele><time>2026-04-26T07:13:36.014Z</time></trkpt><trkpt lat="45.16036426590749" lon="9.507962201290225"><ele>63.0</ele><time>2026-04-26T07:13:38.014Z</time></trkpt><trkpt lat="45.16038452797559" lon="9.507809159664317"><ele>62.8</ele><time>2026-04-26T07:13:40.014Z</time></trkpt><trkpt lat="45.16039698204485" lon="9.507646637907394"><ele>62.599999999999994</ele><time>2026-04-26T07:13:42.014Z</time></trkpt><trkpt lat="45.160408017628974" lon="9.507484993968408"><ele>62.400000000000006</ele><time>2026-04-26T07:13:44.014Z</time></trkpt><trkpt lat="45.16039447559948" lon="9.50734834852605"><ele>62.2</ele><time>2026-04-26T07:13:46.014Z</time></trkpt><trkpt lat="45.160369366566705" lon="9.507217367415425"><ele>62.0</ele><time>2026-04-26T07:13:48.014Z</time></trkpt><trkpt lat="45.16033065275651" lon="9.507090876763849"><ele>62.0</ele><time>2026-04-26T07:13:50.014Z</time></trkpt><trkpt lat="45.160280873484595" lon="9.506965858862355"><ele>62.0</ele><time>2026-04-26T07:13:52.014Z</time></trkpt><trkpt lat="45.16021985952545" lon="9.506851276437718"><ele>62.0</ele><time>2026-04-26T07:13:54.014Z</time></trkpt><trkpt lat="45.16015383260975" lon="9.506739508329078"><ele>62.0</ele><time>2026-04-26T07:13:56.014Z</time></trkpt><trkpt lat="45.160078916091564" lon="9.50664426641277"><ele>62.0</ele><time>2026-04-26T07:13:58.014Z</time></trkpt><trkpt lat="45.15999934512069" lon="9.506560394933512"><ele>62.0</ele><time>2026-04-26T07:14:00.014Z</time></trkpt><trkpt lat="45.159914184693555" lon="9.50647546259316"><ele>62.0</ele><time>2026-04-26T07:14:02.014Z</time></trkpt><trkpt lat="45.15983127102671" lon="9.506386526403604"><ele>62.0</ele><time>2026-04-26T07:14:04.014Z</time></trkpt><trkpt lat="45.15974561401754" lon="9.506302022605176"><ele>62.0</ele><time>2026-04-26T07:14:06.014Z</time></trkpt><trkpt lat="45.15965812493904" lon="9.506216416173839"><ele>62.0</ele><time>2026-04-26T07:14:08.014Z</time></trkpt><trkpt lat="45.159579353321185" lon="9.506138681502376"><ele>62.2</ele><time>2026-04-26T07:14:10.014Z</time></trkpt><trkpt lat="45.159492510980776" lon="9.506051550544596"><ele>62.400000000000006</ele><time>2026-04-26T07:14:12.014Z</time></trkpt><trkpt lat="45.15940546365583" lon="9.505956751852516"><ele>62.599999999999994</ele><time>2026-04-26T07:14:14.014Z</time></trkpt><trkpt lat="45.159336695623175" lon="9.505859045564844"><ele>62.8</ele><time>2026-04-26T07:14:16.014Z</time></trkpt><trkpt lat="45.15927818511903" lon="9.505756674648383"><ele>63.0</ele><time>2026-04-26T07:14:18.014Z</time></trkpt><trkpt lat="45.15922629489596" lon="9.505635998885502"><ele>63.0</ele><time>2026-04-26T07:14:20.014Z</time></trkpt><trkpt lat="45.15918862733249" lon="9.505509586737196"><ele>63.0</ele><time>2026-04-26T07:14:22.014Z</time></trkpt><trkpt lat="45.1591518243024" lon="9.505383398409284"><ele>63.0</ele><time>2026-04-26T07:14:24.014Z</time></trkpt><trkpt lat="45.159117219304065" lon="9.50525100474023"><ele>63.0</ele><time>2026-04-26T07:14:26.014Z</time></trkpt><trkpt lat="45.15908750154077" lon="9.505114588286387"><ele>63.0</ele><time>2026-04-26T07:14:28.013Z</time></trkpt><trkpt lat="45.15904849658314" lon="9.50498519388309"><ele>63.166666666666664</ele><time>2026-04-26T07:14:30.013Z</time></trkpt><trkpt lat="45.159017712924445" lon="9.504886535744731"><ele>63.33333333333333</ele><time>2026-04-26T07:14:33.013Z</time></trkpt><trkpt lat="45.15903938202505" lon="9.504998835068024"><ele>63.5</ele><time>2026-04-26T07:14:52.013Z</time></trkpt><trkpt lat="45.15906787171217" lon="9.505111458112513"><ele>63.666666666666664</ele><time>2026-04-26T07:14:55.013Z</time></trkpt><trkpt lat="45.15909202781476" lon="9.50519899527356"><ele>63.83333333333333</ele><time>2026-04-26T07:14:57.013Z</time></trkpt><trkpt lat="45.159117962283105" lon="9.505301435797103"><ele>64.0</ele><time>2026-04-26T07:14:59.013Z</time></trkpt><trkpt lat="45.1591462002636" lon="9.505409451657966"><ele>63.83333333333333</ele><time>2026-04-26T07:15:01.013Z</time></trkpt><trkpt lat="45.15917301275678" lon="9.505520565856592"><ele>63.666666666666664</ele><time>2026-04-26T07:15:03.013Z</time></trkpt><trkpt lat="45.15920836498632" lon="9.505632533470642"><ele>63.5</ele><time>2026-04-26T07:15:05.014Z</time></trkpt><trkpt lat="45.15923984702384" lon="9.505734983151273"><ele>63.33333333333333</ele><time>2026-04-26T07:15:07.015Z</time></trkpt><trkpt lat="45.159282322274514" lon="9.505817634901243"><ele>63.166666666666664</ele><time>2026-04-26T07:15:09.015Z</time></trkpt><trkpt lat="45.15932002163514" lon="9.50589372113861"><ele>63.0</ele><time>2026-04-26T07:15:12.015Z</time></trkpt><trkpt lat="45.15925990537384" lon="9.505979006543573"><ele>63.0</ele><time>2026-04-26T07:15:15.015Z</time></trkpt><trkpt lat="45.15919932351739" lon="9.506053004374598"><ele>63.0</ele><time>2026-04-26T07:15:17.014Z</time></trkpt><trkpt lat="45.15912510893933" lon="9.50604317134795"><ele>63.0</ele><time>2026-04-26T07:15:20.014Z</time></trkpt><trkpt lat="45.15907397547016" lon="9.505965516573305"><ele>63.0</ele><time>2026-04-26T07:15:22.014Z</time></trkpt><trkpt lat="45.15900032340753" lon="9.505901150522016"><ele>63.0</ele><time>2026-04-26T07:15:24.014Z</time></trkpt><trkpt lat="45.15892880388593" lon="9.505827000410926"><ele>63.0</ele><time>2026-04-26T07:15:26.014Z</time></trkpt><trkpt lat="45.15886283741258" lon="9.50576569014325"><ele>63.0</ele><time>2026-04-26T07:15:28.014Z</time></trkpt><trkpt lat="45.15880207427943" lon="9.50572613666425"><ele>63.0</ele><time>2026-04-26T07:15:30.014Z</time></trkpt><trkpt lat="45.15871746954966" lon="9.505664182828847"><ele>63.0</ele><time>2026-04-26T07:15:33.014Z</time></trkpt><trkpt lat="45.15866121372255" lon="9.505607033405244"><ele>63.0</ele><time>2026-04-26T07:15:35.014Z</time></trkpt><trkpt lat="45.15857828133865" lon="9.505529177791558"><ele>63.0</ele><time>2026-04-26T07:15:37.014Z</time></trkpt><trkpt lat="45.158502829780495" lon="9.505465201287839"><ele>63.0</ele><time>2026-04-26T07:15:39.014Z</time></trkpt><trkpt lat="45.15842509265938" lon="9.505377438943224"><ele>63.166666666666664</ele><time>2026-04-26T07:15:41.014Z</time></trkpt><trkpt lat="45.15836335269198" lon="9.505304018248447"><ele>63.33333333333333</ele><time>2026-04-26T07:15:43.014Z</time></trkpt><trkpt lat="45.15830444187934" lon="9.505233526757497"><ele>63.5</ele><time>2026-04-26T07:15:45.014Z</time></trkpt><trkpt lat="45.15823382549474" lon="9.50515108452453"><ele>63.666666666666664</ele><time>2026-04-26T07:15:47.014Z</time></trkpt><trkpt lat="45.15818418282986" lon="9.505092763221164"><ele>63.83333333333333</ele><time>2026-04-26T07:15:49.014Z</time></trkpt><trkpt lat="45.15811575577158" lon="9.505045428958264"><ele>64.0</ele><time>2026-04-26T07:15:51.014Z</time></trkpt><trkpt lat="45.15805200944673" lon="9.50500662288008"><ele>62.83333333333333</ele><time>2026-04-26T07:15:53.014Z</time></trkpt><trkpt lat="45.15796903843239" lon="9.504956499233892"><ele>61.666666666666664</ele><time>2026-04-26T07:15:55.014Z</time></trkpt><trkpt lat="45.1578899616883" lon="9.504891259932434"><ele>60.5</ele><time>2026-04-26T07:15:57.014Z</time></trkpt><trkpt lat="45.157818910168416" lon="9.504816787049885"><ele>59.33333333333333</ele><time>2026-04-26T07:15:59.014Z</time></trkpt><trkpt lat="45.157745325486665" lon="9.504714049858162"><ele>58.166666666666664</ele><time>2026-04-26T07:16:01.014Z</time></trkpt><trkpt lat="45.157694681608014" lon="9.504640029112272"><ele>57.0</ele><time>2026-04-26T07:16:03.014Z</time></trkpt><trkpt lat="45.157644807440775" lon="9.504532971990029"><ele>57.0</ele><time>2026-04-26T07:16:06.014Z</time></trkpt><trkpt lat="45.157580573778006" lon="9.504454818121312"><ele>57.0</ele><time>2026-04-26T07:16:09.014Z</time></trkpt><trkpt lat="45.1575209451731" lon="9.504376585558951"><ele>57.0</ele><time>2026-04-26T07:16:13.014Z</time></trkpt><trkpt lat="45.15746091730775" lon="9.504298877864002"><ele>57.0</ele><time>2026-04-26T07:16:16.014Z</time></trkpt><trkpt lat="45.157389410037126" lon="9.504249819954435"><ele>57.0</ele><time>2026-04-26T07:16:19.014Z</time></trkpt><trkpt lat="45.15732440953289" lon="9.504199687442872"><ele>57.0</ele><time>2026-04-26T07:16:21.014Z</time></trkpt><trkpt lat="45.15724868662425" lon="9.504165821485213"><ele>56.333333333333336</ele><time>2026-04-26T07:16:23.014Z</time></trkpt><trkpt lat="45.15718782111976" lon="9.504132896045407"><ele>55.66666666666667</ele><time>2026-04-26T07:16:26.014Z</time></trkpt><trkpt lat="45.15710809462937" lon="9.50408926637566"><ele>55.0</ele><time>2026-04-26T07:16:46.013Z</time></trkpt><trkpt lat="45.1570196073399" lon="9.504067276009566"><ele>54.333333333333336</ele><time>2026-04-26T07:16:49.013Z</time></trkpt><trkpt lat="45.156937166313305" lon="9.504043822915879"><ele>53.66666666666667</ele><time>2026-04-26T07:16:51.013Z</time></trkpt><trkpt lat="45.15685989319642" lon="9.504021913126685"><ele>53.0</ele><time>2026-04-26T07:16:53.013Z</time></trkpt><trkpt lat="45.15679010234033" lon="9.504001983068923"><ele>53.00000000000001</ele><time>2026-04-26T07:16:55.013Z</time></trkpt><trkpt lat="45.15670045084869" lon="9.5039722441493"><ele>53.0</ele><time>2026-04-26T07:16:58.013Z</time></trkpt><trkpt lat="45.15663238286711" lon="9.503987938961526"><ele>53.0</ele><time>2026-04-26T07:17:01.013Z</time></trkpt><trkpt lat="45.15662139744415" lon="9.504092524780146"><ele>53.0</ele><time>2026-04-26T07:17:03.013Z</time></trkpt><trkpt lat="45.15664432234786" lon="9.504211077987248"><ele>53.00000000000001</ele><time>2026-04-26T07:17:05.013Z</time></trkpt><trkpt lat="45.15665750133326" lon="9.504334393201594"><ele>53.0</ele><time>2026-04-26T07:17:07.013Z</time></trkpt><trkpt lat="45.15667633509835" lon="9.504464093214498"><ele>52.8</ele><time>2026-04-26T07:17:09.013Z</time></trkpt><trkpt lat="45.15670524745371" lon="9.50458882262129"><ele>52.599999999999994</ele><time>2026-04-26T07:17:11.015Z</time></trkpt><trkpt lat="45.156732967510926" lon="9.504724552106104"><ele>52.400000000000006</ele><time>2026-04-26T07:17:13.015Z</time></trkpt><trkpt lat="45.156757408086094" lon="9.504868069849866"><ele>52.2</ele><time>2026-04-26T07:17:15.015Z</time></trkpt><trkpt lat="45.156776182361526" lon="9.505017645291755"><ele>52.0</ele><time>2026-04-26T07:17:17.014Z</time></trkpt><trkpt lat="45.15680825710045" lon="9.505170816552617"><ele>52.0</ele><time>2026-04-26T07:17:19.015Z</time></trkpt><trkpt lat="45.15681936400968" lon="9.505324336191663"><ele>52.0</ele><time>2026-04-26T07:17:21.015Z</time></trkpt><trkpt lat="45.156814350429705" lon="9.505481633517448"><ele>52.0</ele><time>2026-04-26T07:17:23.015Z</time></trkpt><trkpt lat="45.15681847823796" lon="9.505635035593158"><ele>52.0</ele><time>2026-04-26T07:17:25.014Z</time></trkpt><trkpt lat="45.156809589579055" lon="9.505797752155972"><ele>52.0</ele><time>2026-04-26T07:17:27.014Z</time></trkpt><trkpt lat="45.15679441720229" lon="9.505955534144311"><ele>52.2</ele><time>2026-04-26T07:17:29.014Z</time></trkpt><trkpt lat="45.15677265853623" lon="9.506108775125808"><ele>52.400000000000006</ele><time>2026-04-26T07:17:31.014Z</time></trkpt><trkpt lat="45.156751154951344" lon="9.506260555729932"><ele>52.599999999999994</ele><time>2026-04-26T07:17:33.014Z</time></trkpt><trkpt lat="45.156728934005486" lon="9.506408136736605"><ele>52.8</ele><time>2026-04-26T07:17:35.014Z</time></trkpt><trkpt lat="45.156702133451766" lon="9.50656309716041"><ele>53.0</ele><time>2026-04-26T07:17:37.014Z</time></trkpt><trkpt lat="45.15667676872185" lon="9.50671445961411"><ele>53.0</ele><time>2026-04-26T07:17:39.014Z</time></trkpt><trkpt lat="45.15664050448288" lon="9.506863791890519"><ele>53.0</ele><time>2026-04-26T07:17:41.014Z</time></trkpt><trkpt lat="45.15660287899051" lon="9.507016675402808"><ele>53.0</ele><time>2026-04-26T07:17:43.014Z</time></trkpt><trkpt lat="45.15655627893419" lon="9.507162160476154"><ele>53.0</ele><time>2026-04-26T07:17:45.014Z</time></trkpt><trkpt lat="45.156512284901005" lon="9.50730481062122"><ele>53.0</ele><time>2026-04-26T07:17:47.014Z</time></trkpt><trkpt lat="45.15645258283695" lon="9.507426187967273"><ele>52.599999999999994</ele><time>2026-04-26T07:17:49.014Z</time></trkpt><trkpt lat="45.15639292285761" lon="9.507528796193037"><ele>52.199999999999996</ele><time>2026-04-26T07:17:51.014Z</time></trkpt><trkpt lat="45.15630624337422" lon="9.50756198425423"><ele>51.8</ele><time>2026-04-26T07:17:53.014Z</time></trkpt><trkpt lat="45.1562177789109" lon="9.507489972093163"><ele>51.4</ele><time>2026-04-26T07:17:55.014Z</time></trkpt><trkpt lat="45.15613020528171" lon="9.507376568093184"><ele>51.0</ele><time>2026-04-26T07:17:57.014Z</time></trkpt><trkpt lat="45.15603596695236" lon="9.50728252954603"><ele>51.0</ele><time>2026-04-26T07:17:59.014Z</time></trkpt><trkpt lat="45.15594696621555" lon="9.507197766743273"><ele>51.0</ele><time>2026-04-26T07:18:01.014Z</time></trkpt><trkpt lat="45.15584838917735" lon="9.507114375952366"><ele>51.0</ele><time>2026-04-26T07:18:03.014Z</time></trkpt><trkpt lat="45.1557594812333" lon="9.507022758267322"><ele>51.0</ele><time>2026-04-26T07:18:05.014Z</time></trkpt><trkpt lat="45.155661776995764" lon="9.506937274458833"><ele>51.0</ele><time>2026-04-26T07:18:07.014Z</time></trkpt><trkpt lat="45.15556539314424" lon="9.506858781016355"><ele>51.25</ele><time>2026-04-26T07:18:09.014Z</time></trkpt><trkpt lat="45.155464387198684" lon="9.506775634371241"><ele>51.5</ele><time>2026-04-26T07:18:11.014Z</time></trkpt><trkpt lat="45.15536635668548" lon="9.506708001673664"><ele>51.75</ele><time>2026-04-26T07:18:13.014Z</time></trkpt><trkpt lat="45.15526112816463" lon="9.506643669441557"><ele>52.0</ele><time>2026-04-26T07:18:15.014Z</time></trkpt><trkpt lat="45.155162676280604" lon="9.506564542071803"><ele>52.0</ele><time>2026-04-26T07:18:17.014Z</time></trkpt><trkpt lat="45.15507062631637" lon="9.506477520171162"><ele>52.0</ele><time>2026-04-26T07:18:19.014Z</time></trkpt><trkpt lat="45.154978068934774" lon="9.506393374545018"><ele>52.0</ele><time>2026-04-26T07:18:21.014Z</time></trkpt><trkpt lat="45.15487772104605" lon="9.506332848716891"><ele>52.0</ele><time>2026-04-26T07:18:23.014Z</time></trkpt><trkpt lat="45.154769229488444" lon="9.506324347607535"><ele>52.0</ele><time>2026-04-26T07:18:25.014Z</time></trkpt><trkpt lat="45.15468184145012" lon="9.506411045517524"><ele>51.75</ele><time>2026-04-26T07:18:27.014Z</time></trkpt><trkpt lat="45.15461390960173" lon="9.506529750014344"><ele>51.5</ele><time>2026-04-26T07:18:29.014Z</time></trkpt><trkpt lat="45.15454280176826" lon="9.50665195884314"><ele>51.25</ele><time>2026-04-26T07:18:31.014Z</time></trkpt><trkpt lat="45.154467769266525" lon="9.506780464121809"><ele>51.0</ele><time>2026-04-26T07:18:33.014Z</time></trkpt><trkpt lat="45.1543894936235" lon="9.506898341298971"><ele>51.0</ele><time>2026-04-26T07:18:35.014Z</time></trkpt><trkpt lat="45.15431086407141" lon="9.507023939622014"><ele>51.0</ele><time>2026-04-26T07:18:37.014Z</time></trkpt><trkpt lat="45.154236147596166" lon="9.50714970930008"><ele>51.0</ele><time>2026-04-26T07:18:39.014Z</time></trkpt><trkpt lat="45.15415520572947" lon="9.507276942208044"><ele>51.0</ele><time>2026-04-26T07:18:41.014Z</time></trkpt><trkpt lat="45.154074929009354" lon="9.507401883475323"><ele>51.5</ele><time>2026-04-26T07:18:43.014Z</time></trkpt><trkpt lat="45.15400012752593" lon="9.5075384703732"><ele>52.0</ele><time>2026-04-26T07:18:45.014Z</time></trkpt><trkpt lat="45.15393258861255" lon="9.507666845543415"><ele>52.5</ele><time>2026-04-26T07:18:47.014Z</time></trkpt><trkpt lat="45.153857849048464" lon="9.507799033850091"><ele>53.0</ele><time>2026-04-26T07:18:49.014Z</time></trkpt><trkpt lat="45.15378617066949" lon="9.507929716113958"><ele>53.0</ele><time>2026-04-26T07:18:51.014Z</time></trkpt><trkpt lat="45.15371531065953" lon="9.508060848120948"><ele>53.0</ele><time>2026-04-26T07:18:53.014Z</time></trkpt><trkpt lat="45.15364835474985" lon="9.508192917755807"><ele>53.0</ele><time>2026-04-26T07:18:55.014Z</time></trkpt><trkpt lat="45.15357293634161" lon="9.508325064051304"><ele>53.0</ele><time>2026-04-26T07:18:57.014Z</time></trkpt><trkpt lat="45.153500604922456" lon="9.508454497125573"><ele>53.0</ele><time>2026-04-26T07:18:59.014Z</time></trkpt><trkpt lat="45.15343300641895" lon="9.508583980566502"><ele>53.0</ele><time>2026-04-26T07:19:01.014Z</time></trkpt><trkpt lat="45.15335963743332" lon="9.508707704070007"><ele>53.0</ele><time>2026-04-26T07:19:03.014Z</time></trkpt><trkpt lat="45.153265493906595" lon="9.508801122197681"><ele>53.0</ele><time>2026-04-26T07:19:05.014Z</time></trkpt><trkpt lat="45.153163662035226" lon="9.50885244183621"><ele>52.4</ele><time>2026-04-26T07:19:07.014Z</time></trkpt><trkpt lat="45.15306879428358" lon="9.508885899587174"><ele>51.8</ele><time>2026-04-26T07:19:09.014Z</time></trkpt><trkpt lat="45.15297014127009" lon="9.508917244226904"><ele>51.2</ele><time>2026-04-26T07:19:11.013Z</time></trkpt><trkpt lat="45.15289185196066" lon="9.508954487469907"><ele>50.6</ele><time>2026-04-26T07:19:13.013Z</time></trkpt><trkpt lat="45.1528069334532" lon="9.50900861510946"><ele>50.0</ele><time>2026-04-26T07:19:15.013Z</time></trkpt><trkpt lat="45.1527372850066" lon="9.509052686398148"><ele>50.0</ele><time>2026-04-26T07:19:17.014Z</time></trkpt><trkpt lat="45.152661832289525" lon="9.509097952462986"><ele>50.0</ele><time>2026-04-26T07:19:20.013Z</time></trkpt><trkpt lat="45.15257779115976" lon="9.509158270311588"><ele>50.0</ele><time>2026-04-26T07:19:22.011Z</time></trkpt><trkpt lat="45.152463494740054" lon="9.50922339282211"><ele>50.0</ele><time>2026-04-26T07:19:24.01Z</time></trkpt><trkpt lat="45.15237302774756" lon="9.50929261201426"><ele>50.0</ele><time>2026-04-26T07:19:26.01Z</time></trkpt><trkpt lat="45.15231388976628" lon="9.509338650339112"><ele>49.8</ele><time>2026-04-26T07:19:27.01Z</time></trkpt><trkpt lat="45.15225397969652" lon="9.509385397349263"><ele>49.6</ele><time>2026-04-26T07:19:28.009Z</time></trkpt><trkpt lat="45.15214842182056" lon="9.509471020804975"><ele>49.400000000000006</ele><time>2026-04-26T07:19:30.008Z</time></trkpt><trkpt lat="45.152061154443274" lon="9.509545172125932"><ele>49.2</ele><time>2026-04-26T07:19:32.008Z</time></trkpt><trkpt lat="45.15196931776456" lon="9.509612935763208"><ele>49.0</ele><time>2026-04-26T07:19:34.007Z</time></trkpt><trkpt lat="45.15187908359743" lon="9.509675472664197"><ele>49.166666666666664</ele><time>2026-04-26T07:19:36.007Z</time></trkpt><trkpt lat="45.15179870001809" lon="9.509733342829676"><ele>49.33333333333333</ele><time>2026-04-26T07:19:38.006Z</time></trkpt><trkpt lat="45.15170491547653" lon="9.509776787460087"><ele>49.5</ele><time>2026-04-26T07:19:40.006Z</time></trkpt><trkpt lat="45.151644262735076" lon="9.509813406861326"><ele>49.66666666666667</ele><time>2026-04-26T07:19:42.006Z</time></trkpt><trkpt lat="45.151575872930906" lon="9.509845949614794"><ele>49.833333333333336</ele><time>2026-04-26T07:19:44.006Z</time></trkpt><trkpt lat="45.151496514666256" lon="9.509879337218965"><ele>50.0</ele><time>2026-04-26T07:19:46.005Z</time></trkpt><trkpt lat="45.151416287591836" lon="9.509919932502088"><ele>50.00000000000001</ele><time>2026-04-26T07:19:48.005Z</time></trkpt><trkpt lat="45.15135412644938" lon="9.50994472847523"><ele>50.0</ele><time>2026-04-26T07:19:50.005Z</time></trkpt><trkpt lat="45.15127660355494" lon="9.509998258185249"><ele>50.0</ele><time>2026-04-26T07:19:52.005Z</time></trkpt><trkpt lat="45.151189511112506" lon="9.510022869835844"><ele>50.0</ele><time>2026-04-26T07:19:54.004Z</time></trkpt><trkpt lat="45.15112359696904" lon="9.510069323860877"><ele>50.00000000000001</ele><time>2026-04-26T07:19:55.004Z</time></trkpt><trkpt lat="45.15101298399685" lon="9.510127640040755"><ele>50.0</ele><time>2026-04-26T07:19:57.004Z</time></trkpt><trkpt lat="45.150920825198895" lon="9.510170181419143"><ele>50.0</ele><time>2026-04-26T07:19:59.004Z</time></trkpt><trkpt lat="45.1508209556475" lon="9.510217009571118"><ele>50.0</ele><time>2026-04-26T07:20:01.004Z</time></trkpt><trkpt lat="45.1507391824022" lon="9.510278251765216"><ele>50.0</ele><time>2026-04-26T07:20:03.004Z</time></trkpt><trkpt lat="45.15065475824199" lon="9.510323029260883"><ele>50.0</ele><time>2026-04-26T07:20:05.004Z</time></trkpt><trkpt lat="45.150563552599486" lon="9.510394234091681"><ele>50.0</ele><time>2026-04-26T07:20:07.004Z</time></trkpt><trkpt lat="45.1504508891531" lon="9.510476242514141"><ele>51.25</ele><time>2026-04-26T07:20:09.004Z</time></trkpt><trkpt lat="45.15035275799838" lon="9.51051683849231"><ele>52.5</ele><time>2026-04-26T07:20:11.004Z</time></trkpt><trkpt lat="45.15025412806405" lon="9.510586116664273"><ele>53.75</ele><time>2026-04-26T07:20:13.004Z</time></trkpt><trkpt lat="45.15015189553156" lon="9.510666729048076"><ele>55.0</ele><time>2026-04-26T07:20:15.003Z</time></trkpt><trkpt lat="45.15004448186714" lon="9.51075057259662"><ele>55.0</ele><time>2026-04-26T07:20:17.003Z</time></trkpt><trkpt lat="45.149973807617386" lon="9.510819036116809"><ele>55.0</ele><time>2026-04-26T07:20:19.003Z</time></trkpt><trkpt lat="45.149883555872826" lon="9.51088207484982"><ele>55.0</ele><time>2026-04-26T07:20:21.003Z</time></trkpt><trkpt lat="45.14981242592986" lon="9.510929997311612"><ele>55.0</ele><time>2026-04-26T07:20:23.003Z</time></trkpt><trkpt lat="45.149705495149455" lon="9.5109991682893"><ele>55.0</ele><time>2026-04-26T07:20:25.003Z</time></trkpt><trkpt lat="45.14961006876063" lon="9.511077805002275"><ele>54.8</ele><time>2026-04-26T07:20:27.003Z</time></trkpt><trkpt lat="45.149519152459" lon="9.51114944589445"><ele>54.6</ele><time>2026-04-26T07:20:29.003Z</time></trkpt><trkpt lat="45.149438489535505" lon="9.511201445566146"><ele>54.400000000000006</ele><time>2026-04-26T07:20:31.003Z</time></trkpt><trkpt lat="45.14937317044666" lon="9.5112581499902"><ele>54.2</ele><time>2026-04-26T07:20:33.003Z</time></trkpt><trkpt lat="45.1492824677649" lon="9.511339546690023"><ele>54.0</ele><time>2026-04-26T07:20:35.003Z</time></trkpt><trkpt lat="45.14918813442916" lon="9.511430525543327"><ele>54.0</ele><time>2026-04-26T07:20:37.003Z</time></trkpt><trkpt lat="45.14909857168975" lon="9.511498320313029"><ele>54.00000000000001</ele><time>2026-04-26T07:20:39.003Z</time></trkpt><trkpt lat="45.149016557834344" lon="9.511568077403629"><ele>54.00000000000001</ele><time>2026-04-26T07:20:41.003Z</time></trkpt><trkpt lat="45.148940205852334" lon="9.511632561539853"><ele>54.0</ele><time>2026-04-26T07:20:43.003Z</time></trkpt><trkpt lat="45.148872181319256" lon="9.511666259169811"><ele>54.0</ele><time>2026-04-26T07:20:45.003Z</time></trkpt><trkpt lat="45.14877161339458" lon="9.511740633537393"><ele>53.400000000000006</ele><time>2026-04-26T07:20:47.003Z</time></trkpt><trkpt lat="45.148671534365704" lon="9.51181150039174"><ele>52.800000000000004</ele><time>2026-04-26T07:20:49.003Z</time></trkpt><trkpt lat="45.14859077475544" lon="9.51188180596723"><ele>52.2</ele><time>2026-04-26T07:20:51.003Z</time></trkpt><trkpt lat="45.148525719332746" lon="9.511981074640772"><ele>51.599999999999994</ele><time>2026-04-26T07:20:53.003Z</time></trkpt><trkpt lat="45.148464271908985" lon="9.512081574575744"><ele>51.0</ele><time>2026-04-26T07:20:55.003Z</time></trkpt><trkpt lat="45.148407885559536" lon="9.512194499448789"><ele>51.0</ele><time>2026-04-26T07:20:57.003Z</time></trkpt><trkpt lat="45.14834634534062" lon="9.512254672240845"><ele>51.0</ele><time>2026-04-26T07:21:03.003Z</time></trkpt><trkpt lat="45.14827817415185" lon="9.512360661455187"><ele>51.0</ele><time>2026-04-26T07:21:07.003Z</time></trkpt><trkpt lat="45.148283235356374" lon="9.512466136264722"><ele>51.0</ele><time>2026-04-26T07:21:10.003Z</time></trkpt><trkpt lat="45.14833728042526" lon="9.512562752877045"><ele>51.0</ele><time>2026-04-26T07:21:13.002Z</time></trkpt><trkpt lat="45.148386145160096" lon="9.512636244749636"><ele>51.0</ele><time>2026-04-26T07:21:15.002Z</time></trkpt><trkpt lat="45.148440211378265" lon="9.512717688329298"><ele>51.0</ele><time>2026-04-26T07:21:17.002Z</time></trkpt><trkpt lat="45.1485002564461" lon="9.512795557508237"><ele>51.0</ele><time>2026-04-26T07:21:19.002Z</time></trkpt><trkpt lat="45.14857495885006" lon="9.512888934705963"><ele>51.0</ele><time>2026-04-26T07:21:21.002Z</time></trkpt><trkpt lat="45.14863961123066" lon="9.512973665929223"><ele>51.0</ele><time>2026-04-26T07:21:23.003Z</time></trkpt><trkpt lat="45.14871458147144" lon="9.513063437546968"><ele>51.0</ele><time>2026-04-26T07:21:25.003Z</time></trkpt><trkpt lat="45.14877824935621" lon="9.513143413416833"><ele>50.666666666666664</ele><time>2026-04-26T07:21:27.004Z</time></trkpt><trkpt lat="45.148842944142544" lon="9.513220941593362"><ele>50.33333333333333</ele><time>2026-04-26T07:21:29.004Z</time></trkpt><trkpt lat="45.148911032859054" lon="9.513301718610307"><ele>50.0</ele><time>2026-04-26T07:21:31.003Z</time></trkpt><trkpt lat="45.14898130614509" lon="9.513375947844382"><ele>49.666666666666664</ele><time>2026-04-26T07:21:33.003Z</time></trkpt><trkpt lat="45.14905302121775" lon="9.513457375549123"><ele>49.33333333333333</ele><time>2026-04-26T07:21:35.004Z</time></trkpt><trkpt lat="45.149124646405824" lon="9.513535916933467"><ele>49.0</ele><time>2026-04-26T07:21:37.003Z</time></trkpt><trkpt lat="45.149193169875616" lon="9.513618164065829"><ele>49.0</ele><time>2026-04-26T07:21:39.003Z</time></trkpt><trkpt lat="45.14926422448125" lon="9.513696226027081"><ele>49.0</ele><time>2026-04-26T07:21:41.003Z</time></trkpt><trkpt lat="45.14933208740195" lon="9.51378190618959"><ele>49.0</ele><time>2026-04-26T07:21:43.003Z</time></trkpt><trkpt lat="45.149399544199504" lon="9.513867094459174"><ele>49.0</ele><time>2026-04-26T07:21:45.003Z</time></trkpt><trkpt lat="45.14946531349799" lon="9.513954738033954"><ele>49.0</ele><time>2026-04-26T07:21:47.003Z</time></trkpt><trkpt lat="45.1495271177587" lon="9.514048950351267"><ele>49.0</ele><time>2026-04-26T07:21:49.003Z</time></trkpt><trkpt lat="45.14959830006896" lon="9.514151609248536"><ele>49.0</ele><time>2026-04-26T07:21:51.003Z</time></trkpt><trkpt lat="45.14966043844896" lon="9.51424596012019"><ele>49.0</ele><time>2026-04-26T07:21:53.003Z</time></trkpt><trkpt lat="45.149717159842375" lon="9.514341292628377"><ele>49.0</ele><time>2026-04-26T07:21:55.003Z</time></trkpt><trkpt lat="45.14978419614327" lon="9.514438981874367"><ele>49.0</ele><time>2026-04-26T07:21:57.003Z</time></trkpt><trkpt lat="45.14984822430106" lon="9.514536143864932"><ele>49.800000000000004</ele><time>2026-04-26T07:21:59.003Z</time></trkpt><trkpt lat="45.149917372098614" lon="9.51463497749048"><ele>50.6</ele><time>2026-04-26T07:22:01.003Z</time></trkpt><trkpt lat="45.14998164133842" lon="9.5147384395897"><ele>51.4</ele><time>2026-04-26T07:22:03.003Z</time></trkpt><trkpt lat="45.15004278468322" lon="9.514838193930377"><ele>52.2</ele><time>2026-04-26T07:22:05.003Z</time></trkpt><trkpt lat="45.150115099719166" lon="9.514943777739948"><ele>53.0</ele><time>2026-04-26T07:22:07.003Z</time></trkpt><trkpt lat="45.150175672463725" lon="9.515040690720742"><ele>53.0</ele><time>2026-04-26T07:22:09.003Z</time></trkpt><trkpt lat="45.15023788566681" lon="9.515141238595607"><ele>53.0</ele><time>2026-04-26T07:22:11.003Z</time></trkpt><trkpt lat="45.15030439951009" lon="9.515239810191346"><ele>53.0</ele><time>2026-04-26T07:22:13.003Z</time></trkpt><trkpt lat="45.15037089571598" lon="9.515330607311002"><ele>53.0</ele><time>2026-04-26T07:22:15.003Z</time></trkpt><trkpt lat="45.15044001117423" lon="9.515414917438816"><ele>53.0</ele><time>2026-04-26T07:22:17.003Z</time></trkpt><trkpt lat="45.15051226174745" lon="9.515488733984952"><ele>52.8</ele><time>2026-04-26T07:22:19.003Z</time></trkpt><trkpt lat="45.150581288764826" lon="9.515564472287565"><ele>52.599999999999994</ele><time>2026-04-26T07:22:21.003Z</time></trkpt><trkpt lat="45.150648492380846" lon="9.515633649168661"><ele>52.400000000000006</ele><time>2026-04-26T07:22:23.003Z</time></trkpt><trkpt lat="45.15072876491826" lon="9.5157062350534"><ele>52.2</ele><time>2026-04-26T07:22:25.003Z</time></trkpt><trkpt lat="45.15081444843339" lon="9.515776886522785"><ele>52.0</ele><time>2026-04-26T07:22:27.003Z</time></trkpt><trkpt lat="45.1508964772085" lon="9.515834613904536"><ele>52.0</ele><time>2026-04-26T07:22:29.003Z</time></trkpt><trkpt lat="45.15097261323553" lon="9.515894197304938"><ele>52.0</ele><time>2026-04-26T07:22:31.003Z</time></trkpt><trkpt lat="45.151073380850995" lon="9.515955004808824"><ele>52.0</ele><time>2026-04-26T07:22:33.003Z</time></trkpt><trkpt lat="45.15116238922204" lon="9.516002596433783"><ele>52.0</ele><time>2026-04-26T07:22:35.003Z</time></trkpt><trkpt lat="45.151249453518346" lon="9.516051061736423"><ele>52.0</ele><time>2026-04-26T07:22:37.003Z</time></trkpt><trkpt lat="45.15133435257579" lon="9.516098465050758"><ele>52.0</ele><time>2026-04-26T07:22:39.003Z</time></trkpt><trkpt lat="45.151416607767544" lon="9.516146198019205"><ele>52.0</ele><time>2026-04-26T07:22:41.003Z</time></trkpt><trkpt lat="45.15149479517104" lon="9.516217084868257"><ele>52.0</ele><time>2026-04-26T07:22:43.003Z</time></trkpt><trkpt lat="45.15156691583785" lon="9.516288584442018"><ele>52.0</ele><time>2026-04-26T07:22:45.003Z</time></trkpt><trkpt lat="45.151639640264634" lon="9.51637271788459"><ele>52.0</ele><time>2026-04-26T07:22:47.003Z</time></trkpt><trkpt lat="45.15171308193583" lon="9.5164589733252"><ele>51.8</ele><time>2026-04-26T07:22:49.002Z</time></trkpt><trkpt lat="45.15178744056061" lon="9.516550961467194"><ele>51.6</ele><time>2026-04-26T07:22:51.002Z</time></trkpt><trkpt lat="45.1518534072401" lon="9.516632883623904"><ele>51.4</ele><time>2026-04-26T07:22:53.002Z</time></trkpt><trkpt lat="45.15192392496857" lon="9.516721658308903"><ele>51.199999999999996</ele><time>2026-04-26T07:22:55.002Z</time></trkpt><trkpt lat="45.15199099944925" lon="9.516802085961503"><ele>51.0</ele><time>2026-04-26T07:22:57.002Z</time></trkpt><trkpt lat="45.15206410985192" lon="9.516887360059009"><ele>51.0</ele><time>2026-04-26T07:22:59.002Z</time></trkpt><trkpt lat="45.15213118075925" lon="9.516971666800432"><ele>51.0</ele><time>2026-04-26T07:23:01.002Z</time></trkpt><trkpt lat="45.152199644941746" lon="9.517057288949713"><ele>51.0</ele><time>2026-04-26T07:23:03.002Z</time></trkpt><trkpt lat="45.15227307097912" lon="9.517142165784822"><ele>51.0</ele><time>2026-04-26T07:23:05.002Z</time></trkpt><trkpt lat="45.152344699331465" lon="9.517226586917326"><ele>51.0</ele><time>2026-04-26T07:23:07.002Z</time></trkpt><trkpt lat="45.152416846527295" lon="9.517313412615657"><ele>50.833333333333336</ele><time>2026-04-26T07:23:09.002Z</time></trkpt><trkpt lat="45.15248541226557" lon="9.517396455102203"><ele>50.66666666666667</ele><time>2026-04-26T07:23:11.002Z</time></trkpt><trkpt lat="45.152550464803" lon="9.517475983194021"><ele>50.5</ele><time>2026-04-26T07:23:13.002Z</time></trkpt><trkpt lat="45.152609564613485" lon="9.517520660706495"><ele>50.333333333333336</ele><time>2026-04-26T07:23:15.002Z</time></trkpt><trkpt lat="45.15266431378602" lon="9.517606261342648"><ele>50.16666666666667</ele><time>2026-04-26T07:23:17.002Z</time></trkpt><trkpt lat="45.15274096759186" lon="9.51769767294346"><ele>50.0</ele><time>2026-04-26T07:23:19.002Z</time></trkpt><trkpt lat="45.15281326525519" lon="9.517774381492016"><ele>50.0</ele><time>2026-04-26T07:23:21.002Z</time></trkpt><trkpt lat="45.152883733604334" lon="9.517854580890402"><ele>50.0</ele><time>2026-04-26T07:23:24.002Z</time></trkpt><trkpt lat="45.152947519266085" lon="9.51794010974259"><ele>50.0</ele><time>2026-04-26T07:23:26.002Z</time></trkpt><trkpt lat="45.153026665712446" lon="9.518045478328283"><ele>50.0</ele><time>2026-04-26T07:23:28.002Z</time></trkpt><trkpt lat="45.15307086035754" lon="9.518171255640132"><ele>50.0</ele><time>2026-04-26T07:23:30.003Z</time></trkpt><trkpt lat="45.153093673823655" lon="9.51828593582465"><ele>50.16666666666667</ele><time>2026-04-26T07:23:32.003Z</time></trkpt><trkpt lat="45.153118927423385" lon="9.518395814098735"><ele>50.333333333333336</ele><time>2026-04-26T07:23:34.003Z</time></trkpt><trkpt lat="45.15313144074192" lon="9.518489111662724"><ele>50.5</ele><time>2026-04-26T07:23:36.003Z</time></trkpt><trkpt lat="45.15313153435905" lon="9.518640906362446"><ele>50.66666666666667</ele><time>2026-04-26T07:23:38.003Z</time></trkpt><trkpt lat="45.15312558602143" lon="9.518780734293914"><ele>50.833333333333336</ele><time>2026-04-26T07:23:40.003Z</time></trkpt><trkpt lat="45.153120632975515" lon="9.518914810152488"><ele>51.0</ele><time>2026-04-26T07:23:42.003Z</time></trkpt><trkpt lat="45.15311366428811" lon="9.519059577140393"><ele>51.199999999999996</ele><time>2026-04-26T07:23:44.003Z</time></trkpt><trkpt lat="45.153098560352575" lon="9.519205730299703"><ele>51.4</ele><time>2026-04-26T07:23:46.003Z</time></trkpt><trkpt lat="45.153099712062975" lon="9.51934551992114"><ele>51.6</ele><time>2026-04-26T07:23:48.003Z</time></trkpt><trkpt lat="45.1531146122673" lon="9.51947143388441"><ele>51.8</ele><time>2026-04-26T07:23:50.003Z</time></trkpt><trkpt lat="45.1531525923209" lon="9.519595996317554"><ele>52.0</ele><time>2026-04-26T07:23:52.003Z</time></trkpt><trkpt lat="45.15319441169418" lon="9.51972693603487"><ele>52.2</ele><time>2026-04-26T07:23:54.003Z</time></trkpt><trkpt lat="45.1532410091681" lon="9.51985290010182"><ele>52.400000000000006</ele><time>2026-04-26T07:23:56.003Z</time></trkpt><trkpt lat="45.15328658042994" lon="9.519981144085017"><ele>52.599999999999994</ele><time>2026-04-26T07:23:58.003Z</time></trkpt><trkpt lat="45.153336060324314" lon="9.520101182335129"><ele>52.8</ele><time>2026-04-26T07:24:00.003Z</time></trkpt><trkpt lat="45.15338477060488" lon="9.520232654325234"><ele>53.0</ele><time>2026-04-26T07:24:02.003Z</time></trkpt><trkpt lat="45.15342933375962" lon="9.520362494075545"><ele>52.8</ele><time>2026-04-26T07:24:04.003Z</time></trkpt><trkpt lat="45.15347998248975" lon="9.520494120795723"><ele>52.599999999999994</ele><time>2026-04-26T07:24:06.003Z</time></trkpt><trkpt lat="45.15351746999443" lon="9.520606474536484"><ele>52.400000000000006</ele><time>2026-04-26T07:24:08.003Z</time></trkpt><trkpt lat="45.15355676301682" lon="9.520740406036452"><ele>52.2</ele><time>2026-04-26T07:24:10.003Z</time></trkpt><trkpt lat="45.15359961283761" lon="9.52086711154008"><ele>52.0</ele><time>2026-04-26T07:24:12.003Z</time></trkpt><trkpt lat="45.15362124303821" lon="9.52100760028547"><ele>52.0</ele><time>2026-04-26T07:24:14.003Z</time></trkpt><trkpt lat="45.15363726492605" lon="9.52115976699042"><ele>52.0</ele><time>2026-04-26T07:24:16.003Z</time></trkpt><trkpt lat="45.15364873410621" lon="9.521298211693383"><ele>52.0</ele><time>2026-04-26T07:24:18.003Z</time></trkpt><trkpt lat="45.15365714304245" lon="9.521414744372544"><ele>52.0</ele><time>2026-04-26T07:24:20.003Z</time></trkpt><trkpt lat="45.15368244059525" lon="9.521572167517913"><ele>52.0</ele><time>2026-04-26T07:24:22.003Z</time></trkpt><trkpt lat="45.15369679527704" lon="9.521699423974527"><ele>51.6</ele><time>2026-04-26T07:24:24.003Z</time></trkpt><trkpt lat="45.15372676541343" lon="9.521837132267361"><ele>51.2</ele><time>2026-04-26T07:24:26.003Z</time></trkpt><trkpt lat="45.15375793579249" lon="9.5219744395509"><ele>50.8</ele><time>2026-04-26T07:24:28.003Z</time></trkpt><trkpt lat="45.15377795604827" lon="9.522108775861236"><ele>50.4</ele><time>2026-04-26T07:24:30.003Z</time></trkpt><trkpt lat="45.15380737744608" lon="9.522238941934306"><ele>50.0</ele><time>2026-04-26T07:24:32.003Z</time></trkpt><trkpt lat="45.1538410428987" lon="9.522374191116041"><ele>50.0</ele><time>2026-04-26T07:24:34.003Z</time></trkpt><trkpt lat="45.15386318285145" lon="9.522509938599876"><ele>50.0</ele><time>2026-04-26T07:24:36.003Z</time></trkpt><trkpt lat="45.15388622511649" lon="9.52264601093621"><ele>50.0</ele><time>2026-04-26T07:24:38.003Z</time></trkpt><trkpt lat="45.15390873743053" lon="9.52278340189988"><ele>50.0</ele><time>2026-04-26T07:24:40.003Z</time></trkpt><trkpt lat="45.1539174883533" lon="9.522926088055767"><ele>50.0</ele><time>2026-04-26T07:24:42.003Z</time></trkpt><trkpt lat="45.153917093804644" lon="9.523055259302419"><ele>50.00000000000001</ele><time>2026-04-26T07:24:44.003Z</time></trkpt><trkpt lat="45.15391984704767" lon="9.523181769639699"><ele>50.0</ele><time>2026-04-26T07:24:46.003Z</time></trkpt><trkpt lat="45.15392215293235" lon="9.523314122492007"><ele>50.0</ele><time>2026-04-26T07:24:48.003Z</time></trkpt><trkpt lat="45.153918884568995" lon="9.52340866947912"><ele>50.0</ele><time>2026-04-26T07:24:50.003Z</time></trkpt><trkpt lat="45.15391586248099" lon="9.523504102524985"><ele>50.00000000000001</ele><time>2026-04-26T07:24:52.003Z</time></trkpt><trkpt lat="45.15392005824622" lon="9.52360299021033"><ele>50.0</ele><time>2026-04-26T07:24:54.003Z</time></trkpt><trkpt lat="45.153916560524344" lon="9.523739854140546"><ele>50.0</ele><time>2026-04-26T07:24:56.003Z</time></trkpt><trkpt lat="45.153904004095736" lon="9.52385705909234"><ele>50.0</ele><time>2026-04-26T07:24:58.002Z</time></trkpt><trkpt lat="45.153895134681804" lon="9.52400298596484"><ele>50.0</ele><time>2026-04-26T07:25:00.002Z</time></trkpt><trkpt lat="45.1538792277985" lon="9.524123932027269"><ele>50.0</ele><time>2026-04-26T07:25:02.002Z</time></trkpt><trkpt lat="45.1538420107362" lon="9.524280837371133"><ele>50.0</ele><time>2026-04-26T07:25:04.002Z</time></trkpt><trkpt lat="45.15381686075933" lon="9.524392861514793"><ele>50.0</ele><time>2026-04-26T07:25:06.002Z</time></trkpt><trkpt lat="45.15376242859168" lon="9.524510804725555"><ele>50.0</ele><time>2026-04-26T07:25:08.002Z</time></trkpt><trkpt lat="45.153745836425045" lon="9.524600601731798"><ele>50.0</ele><time>2026-04-26T07:25:09.002Z</time></trkpt><trkpt lat="45.15373743261677" lon="9.524710336321487"><ele>50.0</ele><time>2026-04-26T07:25:10.002Z</time></trkpt><trkpt lat="45.15371334038448" lon="9.52488553214667"><ele>50.0</ele><time>2026-04-26T07:25:12.002Z</time></trkpt><trkpt lat="45.1537090169618" lon="9.525059170183257"><ele>50.0</ele><time>2026-04-26T07:25:14.002Z</time></trkpt><trkpt lat="45.153724605026184" lon="9.525218611442764"><ele>50.0</ele><time>2026-04-26T07:25:16.002Z</time></trkpt><trkpt lat="45.15375054315554" lon="9.525361801205193"><ele>50.0</ele><time>2026-04-26T07:25:18.002Z</time></trkpt><trkpt lat="45.15379873812363" lon="9.525503237604916"><ele>50.0</ele><time>2026-04-26T07:25:20.002Z</time></trkpt><trkpt lat="45.153845669496754" lon="9.525644929984242"><ele>50.0</ele><time>2026-04-26T07:25:22.002Z</time></trkpt><trkpt lat="45.153906454193354" lon="9.525768164358652"><ele>50.0</ele><time>2026-04-26T07:25:24.002Z</time></trkpt><trkpt lat="45.153975432637715" lon="9.525888860546251"><ele>50.0</ele><time>2026-04-26T07:25:26.002Z</time></trkpt><trkpt lat="45.15402570215954" lon="9.526018978346144"><ele>50.0</ele><time>2026-04-26T07:25:28.002Z</time></trkpt><trkpt lat="45.15407315727757" lon="9.526138603472315"><ele>50.0</ele><time>2026-04-26T07:25:30.002Z</time></trkpt><trkpt lat="45.15413891976455" lon="9.526241014413516"><ele>50.0</ele><time>2026-04-26T07:25:32.002Z</time></trkpt><trkpt lat="45.15420259079682" lon="9.52635491395666"><ele>50.0</ele><time>2026-04-26T07:25:34.002Z</time></trkpt><trkpt lat="45.154277702173296" lon="9.52646387065795"><ele>50.0</ele><time>2026-04-26T07:25:36.003Z</time></trkpt><trkpt lat="45.15434932470912" lon="9.52657565553448"><ele>50.0</ele><time>2026-04-26T07:25:38.002Z</time></trkpt><trkpt lat="45.15442269741089" lon="9.526692341683214"><ele>50.0</ele><time>2026-04-26T07:25:40.003Z</time></trkpt><trkpt lat="45.15449896543393" lon="9.526807310879931"><ele>50.0</ele><time>2026-04-26T07:25:42.003Z</time></trkpt><trkpt lat="45.15457237439436" lon="9.52690150305207"><ele>50.0</ele><time>2026-04-26T07:25:44.003Z</time></trkpt><trkpt lat="45.15464085354933" lon="9.526996866730904"><ele>50.0</ele><time>2026-04-26T07:25:46.003Z</time></trkpt><trkpt lat="45.15472578711386" lon="9.527080892381896"><ele>50.0</ele><time>2026-04-26T07:25:48.003Z</time></trkpt><trkpt lat="45.154795824715386" lon="9.527183603447849"><ele>50.0</ele><time>2026-04-26T07:25:50.003Z</time></trkpt><trkpt lat="45.15487461416302" lon="9.527283558988982"><ele>50.0</ele><time>2026-04-26T07:25:52.003Z</time></trkpt><trkpt lat="45.15495377387419" lon="9.527397249414332"><ele>49.75</ele><time>2026-04-26T07:25:54.003Z</time></trkpt><trkpt lat="45.15503920886317" lon="9.527508162926026"><ele>49.5</ele><time>2026-04-26T07:25:56.003Z</time></trkpt><trkpt lat="45.15512108893589" lon="9.527624567216005"><ele>49.25</ele><time>2026-04-26T07:25:58.003Z</time></trkpt><trkpt lat="45.15519785965325" lon="9.527731062803104"><ele>49.0</ele><time>2026-04-26T07:26:00.003Z</time></trkpt><trkpt lat="45.15527897589929" lon="9.527848152747195"><ele>49.0</ele><time>2026-04-26T07:26:02.003Z</time></trkpt><trkpt lat="45.15536451254721" lon="9.527953635607691"><ele>49.0</ele><time>2026-04-26T07:26:04.003Z</time></trkpt><trkpt lat="45.15544567555445" lon="9.52806681313004"><ele>49.0</ele><time>2026-04-26T07:26:06.003Z</time></trkpt><trkpt lat="45.15552125842778" lon="9.52816629204932"><ele>49.0</ele><time>2026-04-26T07:26:08.003Z</time></trkpt><trkpt lat="45.15560111144582" lon="9.528276752485885"><ele>49.0</ele><time>2026-04-26T07:26:10.003Z</time></trkpt><trkpt lat="45.1556793609233" lon="9.528388574757765"><ele>49.25</ele><time>2026-04-26T07:26:12.003Z</time></trkpt><trkpt lat="45.15576107165507" lon="9.528504557395177"><ele>49.5</ele><time>2026-04-26T07:26:14.003Z</time></trkpt><trkpt lat="45.155841396114354" lon="9.5286162434206"><ele>49.75</ele><time>2026-04-26T07:26:16.003Z</time></trkpt><trkpt lat="45.15593118960317" lon="9.528729854896524"><ele>50.0</ele><time>2026-04-26T07:26:18.003Z</time></trkpt><trkpt lat="45.15601332440478" lon="9.52884311969286"><ele>50.0</ele><time>2026-04-26T07:26:20.003Z</time></trkpt><trkpt lat="45.15609273434119" lon="9.528955590717745"><ele>50.0</ele><time>2026-04-26T07:26:22.003Z</time></trkpt><trkpt lat="45.15617552797203" lon="9.529061421198923"><ele>50.0</ele><time>2026-04-26T07:26:24.003Z</time></trkpt><trkpt lat="45.15625234293049" lon="9.529175284090089"><ele>50.0</ele><time>2026-04-26T07:26:26.003Z</time></trkpt><trkpt lat="45.15631899733941" lon="9.52929299399201"><ele>50.0</ele><time>2026-04-26T07:26:28.003Z</time></trkpt><trkpt lat="45.156380211829216" lon="9.529418846614481"><ele>49.5</ele><time>2026-04-26T07:26:30.003Z</time></trkpt><trkpt lat="45.156440833829286" lon="9.529569491986894"><ele>49.0</ele><time>2026-04-26T07:26:32.003Z</time></trkpt><trkpt lat="45.15649108564036" lon="9.52970062601985"><ele>48.5</ele><time>2026-04-26T07:26:34.003Z</time></trkpt><trkpt lat="45.15653403491731" lon="9.529845847915457"><ele>48.0</ele><time>2026-04-26T07:26:36.003Z</time></trkpt><trkpt lat="45.15657903920531" lon="9.529994107824482"><ele>48.75</ele><time>2026-04-26T07:26:38.003Z</time></trkpt><trkpt lat="45.1566231846024" lon="9.530146044802441"><ele>49.5</ele><time>2026-04-26T07:26:40.003Z</time></trkpt><trkpt lat="45.15667266846267" lon="9.530279324286477"><ele>50.25</ele><time>2026-04-26T07:26:42.003Z</time></trkpt><trkpt lat="45.15672538154594" lon="9.530424889673313"><ele>51.0</ele><time>2026-04-26T07:26:44.002Z</time></trkpt><trkpt lat="45.15678289751883" lon="9.5305664379372"><ele>51.0</ele><time>2026-04-26T07:26:46.002Z</time></trkpt><trkpt lat="45.15683679402799" lon="9.53069473888499"><ele>51.0</ele><time>2026-04-26T07:26:48.002Z</time></trkpt><trkpt lat="45.1568691270415" lon="9.530771444177454"><ele>51.0</ele><time>2026-04-26T07:26:49.002Z</time></trkpt><trkpt lat="45.156934827789456" lon="9.530899602442435"><ele>51.0</ele><time>2026-04-26T07:26:51.002Z</time></trkpt><trkpt lat="45.15699954294212" lon="9.53102221896222"><ele>51.0</ele><time>2026-04-26T07:26:53.002Z</time></trkpt><trkpt lat="45.15706551141034" lon="9.531142193113986"><ele>50.599999999999994</ele><time>2026-04-26T07:26:55.002Z</time></trkpt><trkpt lat="45.157124827638164" lon="9.531253170609055"><ele>50.2</ele><time>2026-04-26T07:26:57.002Z</time></trkpt><trkpt lat="45.157185771591266" lon="9.5313762796576"><ele>49.8</ele><time>2026-04-26T07:26:59.002Z</time></trkpt><trkpt lat="45.157249671648785" lon="9.531493157182393"><ele>49.400000000000006</ele><time>2026-04-26T07:27:01.002Z</time></trkpt><trkpt lat="45.15729209815541" lon="9.531644060900097"><ele>49.0</ele><time>2026-04-26T07:27:03.002Z</time></trkpt><trkpt lat="45.1573266484193" lon="9.531790168502262"><ele>49.0</ele><time>2026-04-26T07:27:05.002Z</time></trkpt><trkpt lat="45.15734904600364" lon="9.531947131840889"><ele>49.0</ele><time>2026-04-26T07:27:07.002Z</time></trkpt><trkpt lat="45.15736382755404" lon="9.532106736418283"><ele>49.0</ele><time>2026-04-26T07:27:09.002Z</time></trkpt><trkpt lat="45.15737669580076" lon="9.532270915031672"><ele>49.0</ele><time>2026-04-26T07:27:11.002Z</time></trkpt><trkpt lat="45.15739528673019" lon="9.53243626202413"><ele>50.5</ele><time>2026-04-26T07:27:13.002Z</time></trkpt><trkpt lat="45.15741809623238" lon="9.532601851432323"><ele>52.0</ele><time>2026-04-26T07:27:15.002Z</time></trkpt><trkpt lat="45.1574376028521" lon="9.532769457187655"><ele>53.5</ele><time>2026-04-26T07:27:17.002Z</time></trkpt><trkpt lat="45.15746050340376" lon="9.532923659940025"><ele>55.0</ele><time>2026-04-26T07:27:19.002Z</time></trkpt><trkpt lat="45.15748305797117" lon="9.5330875880388"><ele>55.0</ele><time>2026-04-26T07:27:21.002Z</time></trkpt><trkpt lat="45.15750061319745" lon="9.533250362375313"><ele>55.0</ele><time>2026-04-26T07:27:23.002Z</time></trkpt><trkpt lat="45.15751919614207" lon="9.533408813022016"><ele>55.0</ele><time>2026-04-26T07:27:25.002Z</time></trkpt><trkpt lat="45.15753159607517" lon="9.533569030866644"><ele>55.0</ele><time>2026-04-26T07:27:27.002Z</time></trkpt><trkpt lat="45.15754683088632" lon="9.533722937060054"><ele>54.6</ele><time>2026-04-26T07:27:29.002Z</time></trkpt><trkpt lat="45.1575876370175" lon="9.533855710556987"><ele>54.2</ele><time>2026-04-26T07:27:31.002Z</time></trkpt><trkpt lat="45.15764480601469" lon="9.53395717498549"><ele>53.8</ele><time>2026-04-26T07:27:33.002Z</time></trkpt><trkpt lat="45.15770211838186" lon="9.534061787897134"><ele>53.4</ele><time>2026-04-26T07:27:35.002Z</time></trkpt><trkpt lat="45.15773396158257" lon="9.534158043281256"><ele>53.0</ele><time>2026-04-26T07:27:37.002Z</time></trkpt><trkpt lat="45.15771285193956" lon="9.53428977621351"><ele>53.0</ele><time>2026-04-26T07:27:39.002Z</time></trkpt><trkpt lat="45.15768042797891" lon="9.534366568506128"><ele>53.0</ele><time>2026-04-26T07:27:40.002Z</time></trkpt><trkpt lat="45.15763792862319" lon="9.534434747618628"><ele>53.0</ele><time>2026-04-26T07:27:41.003Z</time></trkpt><trkpt lat="45.15753461462794" lon="9.53452081410181"><ele>53.0</ele><time>2026-04-26T07:27:43.002Z</time></trkpt><trkpt lat="45.15742948824948" lon="9.534555386782394"><ele>53.0</ele><time>2026-04-26T07:27:45.002Z</time></trkpt><trkpt lat="45.157316334524886" lon="9.534588314059059"><ele>51.75</ele><time>2026-04-26T07:27:47.002Z</time></trkpt><trkpt lat="45.15720103062347" lon="9.53461729316327"><ele>50.5</ele><time>2026-04-26T07:27:49.003Z</time></trkpt><trkpt lat="45.15709076825351" lon="9.53465034808439"><ele>49.25</ele><time>2026-04-26T07:27:51.002Z</time></trkpt><trkpt lat="45.15697825676138" lon="9.534684455747456"><ele>48.0</ele><time>2026-04-26T07:27:53.002Z</time></trkpt><trkpt lat="45.156868400233336" lon="9.5347118286551"><ele>48.0</ele><time>2026-04-26T07:27:55.003Z</time></trkpt><trkpt lat="45.15676220726202" lon="9.534736713309867"><ele>48.0</ele><time>2026-04-26T07:27:57.003Z</time></trkpt><trkpt lat="45.15665896511874" lon="9.534774942623553"><ele>48.0</ele><time>2026-04-26T07:27:59.003Z</time></trkpt><trkpt lat="45.15654966835631" lon="9.534820611677306"><ele>48.0</ele><time>2026-04-26T07:28:01.003Z</time></trkpt><trkpt lat="45.15643484553705" lon="9.534852994373345"><ele>48.0</ele><time>2026-04-26T07:28:03.002Z</time></trkpt><trkpt lat="45.15632151521847" lon="9.534871737726364"><ele>48.2</ele><time>2026-04-26T07:28:05.002Z</time></trkpt><trkpt lat="45.15621118103878" lon="9.534886949936649"><ele>48.4</ele><time>2026-04-26T07:28:07.002Z</time></trkpt><trkpt lat="45.15610481682244" lon="9.53488691012533"><ele>48.6</ele><time>2026-04-26T07:28:09.002Z</time></trkpt><trkpt lat="45.15599887731877" lon="9.534880324957056"><ele>48.800000000000004</ele><time>2026-04-26T07:28:11.002Z</time></trkpt><trkpt lat="45.155893257941614" lon="9.53486180261168"><ele>49.0</ele><time>2026-04-26T07:28:13.002Z</time></trkpt><trkpt lat="45.15578751936519" lon="9.534846130728582"><ele>48.800000000000004</ele><time>2026-04-26T07:28:15.002Z</time></trkpt><trkpt lat="45.15568047685637" lon="9.534824565944861"><ele>48.6</ele><time>2026-04-26T07:28:17.002Z</time></trkpt><trkpt lat="45.15556488548122" lon="9.534809868103924"><ele>48.4</ele><time>2026-04-26T07:28:19.002Z</time></trkpt><trkpt lat="45.15545270342242" lon="9.534792967568237"><ele>48.2</ele><time>2026-04-26T07:28:21.002Z</time></trkpt><trkpt lat="45.15534228295503" lon="9.534772966518656"><ele>48.0</ele><time>2026-04-26T07:28:23.002Z</time></trkpt><trkpt lat="45.15522963051435" lon="9.534763272585685"><ele>48.0</ele><time>2026-04-26T07:28:25.002Z</time></trkpt><trkpt lat="45.15511964033536" lon="9.534739991831861"><ele>48.0</ele><time>2026-04-26T07:28:27.002Z</time></trkpt><trkpt lat="45.155014823607104" lon="9.53472959532469"><ele>48.0</ele><time>2026-04-26T07:28:29.002Z</time></trkpt><trkpt lat="45.154910931836426" lon="9.534710132872899"><ele>48.0</ele><time>2026-04-26T07:28:31.002Z</time></trkpt><trkpt lat="45.154802594168515" lon="9.534686007612585"><ele>48.0</ele><time>2026-04-26T07:28:33.002Z</time></trkpt><trkpt lat="45.15469399831707" lon="9.534672730001667"><ele>48.2</ele><time>2026-04-26T07:28:35.002Z</time></trkpt><trkpt lat="45.15458389074077" lon="9.534658270395154"><ele>48.4</ele><time>2026-04-26T07:28:37.002Z</time></trkpt><trkpt lat="45.15447273523121" lon="9.534641807412678"><ele>48.6</ele><time>2026-04-26T07:28:39.002Z</time></trkpt><trkpt lat="45.15436351771934" lon="9.53462429881469"><ele>48.800000000000004</ele><time>2026-04-26T07:28:41.002Z</time></trkpt><trkpt lat="45.154255686535244" lon="9.534610518013835"><ele>49.0</ele><time>2026-04-26T07:28:43.002Z</time></trkpt><trkpt lat="45.15414830700323" lon="9.53459191280576"><ele>49.0</ele><time>2026-04-26T07:28:45.002Z</time></trkpt><trkpt lat="45.15404251067449" lon="9.53458055523493"><ele>49.0</ele><time>2026-04-26T07:28:47.002Z</time></trkpt><trkpt lat="45.153939275926525" lon="9.5345740416144"><ele>49.0</ele><time>2026-04-26T07:28:49.002Z</time></trkpt><trkpt lat="45.15383768023816" lon="9.534557971831763"><ele>49.0</ele><time>2026-04-26T07:28:51.002Z</time></trkpt><trkpt lat="45.1537356971835" lon="9.534547442266225"><ele>49.0</ele><time>2026-04-26T07:28:53.002Z</time></trkpt><trkpt lat="45.15362830284237" lon="9.534526506504337"><ele>49.0</ele><time>2026-04-26T07:28:55.002Z</time></trkpt><trkpt lat="45.15352538811845" lon="9.5345121527446"><ele>49.0</ele><time>2026-04-26T07:28:57.002Z</time></trkpt><trkpt lat="45.15342641839156" lon="9.534499273865174"><ele>49.0</ele><time>2026-04-26T07:28:59.002Z</time></trkpt><trkpt lat="45.15331834243459" lon="9.534476944472104"><ele>49.0</ele><time>2026-04-26T07:29:01.002Z</time></trkpt><trkpt lat="45.15321826174472" lon="9.53446284011214"><ele>49.0</ele><time>2026-04-26T07:29:03.002Z</time></trkpt><trkpt lat="45.153132855043836" lon="9.534462852691034"><ele>49.2</ele><time>2026-04-26T07:29:05.002Z</time></trkpt><trkpt lat="45.15306022600042" lon="9.534422636540038"><ele>49.400000000000006</ele><time>2026-04-26T07:29:07.002Z</time></trkpt><trkpt lat="45.15302999292292" lon="9.534321353503367"><ele>49.6</ele><time>2026-04-26T07:29:09.002Z</time></trkpt><trkpt lat="45.15302315933641" lon="9.534187951973617"><ele>49.8</ele><time>2026-04-26T07:29:12.002Z</time></trkpt><trkpt lat="45.15302247003758" lon="9.534029311152452"><ele>50.0</ele><time>2026-04-26T07:29:14.002Z</time></trkpt><trkpt lat="45.15302903492477" lon="9.533865810075305"><ele>49.6</ele><time>2026-04-26T07:29:16.002Z</time></trkpt><trkpt lat="45.15303298315829" lon="9.533720831391374"><ele>49.2</ele><time>2026-04-26T07:29:18.002Z</time></trkpt><trkpt lat="45.15305503811588" lon="9.533565567507939"><ele>48.8</ele><time>2026-04-26T07:29:20.001Z</time></trkpt><trkpt lat="45.153063753608514" lon="9.533408780540887"><ele>48.4</ele><time>2026-04-26T07:29:22.001Z</time></trkpt><trkpt lat="45.15306590896373" lon="9.53325388784025"><ele>48.0</ele><time>2026-04-26T07:29:24.001Z</time></trkpt><trkpt lat="45.1530123150059" lon="9.533108063700606"><ele>48.0</ele><time>2026-04-26T07:29:26.001Z</time></trkpt><trkpt lat="45.15292354549821" lon="9.533022179503872"><ele>48.0</ele><time>2026-04-26T07:29:28.001Z</time></trkpt><trkpt lat="45.15282154652599" lon="9.532993065196269"><ele>48.0</ele><time>2026-04-26T07:29:30.001Z</time></trkpt><trkpt lat="45.152717180251116" lon="9.532991072762284"><ele>48.0</ele><time>2026-04-26T07:29:32.001Z</time></trkpt><trkpt lat="45.15261024850303" lon="9.532977244488837"><ele>48.0</ele><time>2026-04-26T07:29:34.001Z</time></trkpt><trkpt lat="45.1525060650838" lon="9.532959956277267"><ele>48.0</ele><time>2026-04-26T07:29:36.001Z</time></trkpt><trkpt lat="45.15240264459017" lon="9.532937327958852"><ele>48.0</ele><time>2026-04-26T07:29:38.001Z</time></trkpt><trkpt lat="45.15230003877165" lon="9.532912031932641"><ele>48.0</ele><time>2026-04-26T07:29:40.001Z</time></trkpt><trkpt lat="45.15219761713493" lon="9.532900262321098"><ele>48.0</ele><time>2026-04-26T07:29:42.001Z</time></trkpt><trkpt lat="45.15210083156058" lon="9.532925235540409"><ele>48.0</ele><time>2026-04-26T07:29:44.001Z</time></trkpt><trkpt lat="45.15202224586973" lon="9.533011122876228"><ele>48.0</ele><time>2026-04-26T07:29:46.001Z</time></trkpt><trkpt lat="45.15200367651246" lon="9.53314818707007"><ele>48.0</ele><time>2026-04-26T07:29:48.002Z</time></trkpt><trkpt lat="45.1520223339528" lon="9.533287829703989"><ele>48.0</ele><time>2026-04-26T07:29:50.003Z</time></trkpt><trkpt lat="45.1520174294523" lon="9.53342693432926"><ele>48.0</ele><time>2026-04-26T07:29:52.003Z</time></trkpt><trkpt lat="45.15201512900688" lon="9.533572493445583"><ele>48.0</ele><time>2026-04-26T07:29:54.002Z</time></trkpt><trkpt lat="45.15201273355277" lon="9.53372907663521"><ele>48.0</ele><time>2026-04-26T07:29:56.003Z</time></trkpt><trkpt lat="45.152009833366385" lon="9.533878858508496"><ele>48.0</ele><time>2026-04-26T07:29:58.002Z</time></trkpt><trkpt lat="45.151999386155296" lon="9.53402675994812"><ele>48.0</ele><time>2026-04-26T07:30:00.002Z</time></trkpt><trkpt lat="45.15198486218149" lon="9.534169340119268"><ele>48.0</ele><time>2026-04-26T07:30:02.002Z</time></trkpt><trkpt lat="45.15196622024271" lon="9.534321255908884"><ele>48.0</ele><time>2026-04-26T07:30:04.002Z</time></trkpt><trkpt lat="45.15195671185429" lon="9.53448059397636"><ele>48.0</ele><time>2026-04-26T07:30:06.002Z</time></trkpt><trkpt lat="45.15196486895006" lon="9.534632894989432"><ele>48.0</ele><time>2026-04-26T07:30:08.002Z</time></trkpt><trkpt lat="45.152001503048254" lon="9.53478252809767"><ele>48.0</ele><time>2026-04-26T07:30:10.002Z</time></trkpt><trkpt lat="45.15205207272429" lon="9.534925222684446"><ele>48.0</ele><time>2026-04-26T07:30:12.002Z</time></trkpt><trkpt lat="45.15209739210285" lon="9.535051134715225"><ele>48.0</ele><time>2026-04-26T07:30:14.002Z</time></trkpt><trkpt lat="45.152147513474105" lon="9.53518088605003"><ele>48.0</ele><time>2026-04-26T07:30:16.002Z</time></trkpt><trkpt lat="45.15218765413425" lon="9.535306694245781"><ele>48.0</ele><time>2026-04-26T07:30:18.002Z</time></trkpt><trkpt lat="45.15221532871505" lon="9.53544926144429"><ele>48.0</ele><time>2026-04-26T07:30:20.002Z</time></trkpt><trkpt lat="45.15223533445205" lon="9.53559948127242"><ele>48.0</ele><time>2026-04-26T07:30:22.002Z</time></trkpt><trkpt lat="45.15224344781106" lon="9.535755514692575"><ele>48.0</ele><time>2026-04-26T07:30:24.002Z</time></trkpt><trkpt lat="45.152251281909926" lon="9.53591536713716"><ele>48.0</ele><time>2026-04-26T07:30:26.002Z</time></trkpt><trkpt lat="45.15224514293139" lon="9.536059433492296"><ele>48.0</ele><time>2026-04-26T07:30:28.002Z</time></trkpt><trkpt lat="45.152230540603576" lon="9.536219622837258"><ele>48.0</ele><time>2026-04-26T07:30:30.002Z</time></trkpt><trkpt lat="45.15221144572391" lon="9.536379541326882"><ele>48.0</ele><time>2026-04-26T07:30:32.002Z</time></trkpt><trkpt lat="45.15218870892179" lon="9.53653649982115"><ele>48.0</ele><time>2026-04-26T07:30:34.002Z</time></trkpt><trkpt lat="45.15217404540298" lon="9.536688033205364"><ele>48.2</ele><time>2026-04-26T07:30:36.002Z</time></trkpt><trkpt lat="45.15215968385863" lon="9.536844590498864"><ele>48.4</ele><time>2026-04-26T07:30:38.002Z</time></trkpt><trkpt lat="45.15215063661167" lon="9.536992644847283"><ele>48.6</ele><time>2026-04-26T07:30:40.002Z</time></trkpt><trkpt lat="45.15213200792207" lon="9.537143979613475"><ele>48.800000000000004</ele><time>2026-04-26T07:30:42.002Z</time></trkpt><trkpt lat="45.152088957110756" lon="9.537273817757479"><ele>49.0</ele><time>2026-04-26T07:30:44.002Z</time></trkpt><trkpt lat="45.152002918236754" lon="9.537352660043902"><ele>49.0</ele><time>2026-04-26T07:30:46.002Z</time></trkpt><trkpt lat="45.15191160827219" lon="9.537434268261547"><ele>49.0</ele><time>2026-04-26T07:30:48.002Z</time></trkpt><trkpt lat="45.1518209200247" lon="9.537514465269807"><ele>49.0</ele><time>2026-04-26T07:30:50.002Z</time></trkpt><trkpt lat="45.15173317073934" lon="9.537603029405776"><ele>49.0</ele><time>2026-04-26T07:30:52.002Z</time></trkpt><trkpt lat="45.151647636234" lon="9.537689416169572"><ele>49.0</ele><time>2026-04-26T07:30:54.002Z</time></trkpt><trkpt lat="45.15156310727471" lon="9.537785379886794"><ele>48.400000000000006</ele><time>2026-04-26T07:30:56.002Z</time></trkpt><trkpt lat="45.151481443439415" lon="9.537876367443294"><ele>47.8</ele><time>2026-04-26T07:30:58.002Z</time></trkpt><trkpt lat="45.15140999211404" lon="9.537959999450718"><ele>47.2</ele><time>2026-04-26T07:31:00.002Z</time></trkpt><trkpt lat="45.15132846270497" lon="9.538037923705916"><ele>46.599999999999994</ele><time>2026-04-26T07:31:02.002Z</time></trkpt><trkpt lat="45.15124503924314" lon="9.538094511758132"><ele>46.0</ele><time>2026-04-26T07:31:04.002Z</time></trkpt><trkpt lat="45.151149722044615" lon="9.53814242646444"><ele>46.0</ele><time>2026-04-26T07:31:06.002Z</time></trkpt><trkpt lat="45.15105497608549" lon="9.538188374579617"><ele>46.0</ele><time>2026-04-26T07:31:08.002Z</time></trkpt><trkpt lat="45.150959518902454" lon="9.538231270161262"><ele>46.0</ele><time>2026-04-26T07:31:10.001Z</time></trkpt><trkpt lat="45.15086518238417" lon="9.538273502854201"><ele>46.0</ele><time>2026-04-26T07:31:12.001Z</time></trkpt><trkpt lat="45.1507697458644" lon="9.538316795085708"><ele>46.0</ele><time>2026-04-26T07:31:14.001Z</time></trkpt><trkpt lat="45.15067194343285" lon="9.53836043063375"><ele>46.4</ele><time>2026-04-26T07:31:16.001Z</time></trkpt><trkpt lat="45.15057359553957" lon="9.53839721563745"><ele>46.8</ele><time>2026-04-26T07:31:18.001Z</time></trkpt><trkpt lat="45.15047479181486" lon="9.538440178881443"><ele>47.199999999999996</ele><time>2026-04-26T07:31:20.001Z</time></trkpt><trkpt lat="45.15037444422566" lon="9.53848417442953"><ele>47.599999999999994</ele><time>2026-04-26T07:31:22.001Z</time></trkpt><trkpt lat="45.150279774749734" lon="9.538522490568726"><ele>48.0</ele><time>2026-04-26T07:31:24.001Z</time></trkpt><trkpt lat="45.15018122954556" lon="9.538565709522548"><ele>48.0</ele><time>2026-04-26T07:31:26.001Z</time></trkpt><trkpt lat="45.150082592832455" lon="9.53860901330939"><ele>48.0</ele><time>2026-04-26T07:31:28.001Z</time></trkpt><trkpt lat="45.149982936750284" lon="9.53864557927274"><ele>48.0</ele><time>2026-04-26T07:31:30.001Z</time></trkpt><trkpt lat="45.14988672151197" lon="9.538690267022284"><ele>48.0</ele><time>2026-04-26T07:31:32.001Z</time></trkpt><trkpt lat="45.14978620281895" lon="9.538729581662833"><ele>48.0</ele><time>2026-04-26T07:31:34.001Z</time></trkpt><trkpt lat="45.149704379657145" lon="9.538763063397274"><ele>48.2</ele><time>2026-04-26T07:31:36.001Z</time></trkpt><trkpt lat="45.14961941440472" lon="9.538798536938428"><ele>48.4</ele><time>2026-04-26T07:31:38.001Z</time></trkpt><trkpt lat="45.14952635730691" lon="9.538838443351207"><ele>48.6</ele><time>2026-04-26T07:31:40.001Z</time></trkpt><trkpt lat="45.14942686220723" lon="9.538876749627603"><ele>48.800000000000004</ele><time>2026-04-26T07:31:42.001Z</time></trkpt><trkpt lat="45.14933405055985" lon="9.53891498102618"><ele>49.0</ele><time>2026-04-26T07:31:44.001Z</time></trkpt><trkpt lat="45.14923505610568" lon="9.53894945187537"><ele>49.0</ele><time>2026-04-26T07:31:46.001Z</time></trkpt><trkpt lat="45.149137411842084" lon="9.538986683957608"><ele>49.0</ele><time>2026-04-26T07:31:48.001Z</time></trkpt><trkpt lat="45.14904184413621" lon="9.53902451608931"><ele>49.0</ele><time>2026-04-26T07:31:50.001Z</time></trkpt><trkpt lat="45.148945338050936" lon="9.539064246480109"><ele>49.0</ele><time>2026-04-26T07:31:52.001Z</time></trkpt><trkpt lat="45.148849968768026" lon="9.539113927285118"><ele>49.0</ele><time>2026-04-26T07:31:54.002Z</time></trkpt><trkpt lat="45.148752574915505" lon="9.539159286182281"><ele>49.0</ele><time>2026-04-26T07:31:56.002Z</time></trkpt><trkpt lat="45.148661917228104" lon="9.539199826757274"><ele>49.0</ele><time>2026-04-26T07:31:58.003Z</time></trkpt><trkpt lat="45.148566683599825" lon="9.539244762318928"><ele>49.0</ele><time>2026-04-26T07:32:00.002Z</time></trkpt><trkpt lat="45.14847735374078" lon="9.539288500201035"><ele>49.0</ele><time>2026-04-26T07:32:02.002Z</time></trkpt><trkpt lat="45.14838547696931" lon="9.539325476657856"><ele>49.0</ele><time>2026-04-26T07:32:04.002Z</time></trkpt><trkpt lat="45.14828814980776" lon="9.539368919172091"><ele>49.0</ele><time>2026-04-26T07:32:06.002Z</time></trkpt><trkpt lat="45.14819528806862" lon="9.539403812005654"><ele>49.0</ele><time>2026-04-26T07:32:08.002Z</time></trkpt><trkpt lat="45.14810587111603" lon="9.539446235805931"><ele>49.0</ele><time>2026-04-26T07:32:10.002Z</time></trkpt><trkpt lat="45.14801307449084" lon="9.53949834667611"><ele>49.0</ele><time>2026-04-26T07:32:12.002Z</time></trkpt><trkpt lat="45.14791706857745" lon="9.539547005636045"><ele>49.0</ele><time>2026-04-26T07:32:14.002Z</time></trkpt><trkpt lat="45.14782574091248" lon="9.539593333599248"><ele>49.0</ele><time>2026-04-26T07:32:16.002Z</time></trkpt><trkpt lat="45.14773627226892" lon="9.539645210894879"><ele>49.0</ele><time>2026-04-26T07:32:18.002Z</time></trkpt><trkpt lat="45.14764119607201" lon="9.539690357565242"><ele>49.0</ele><time>2026-04-26T07:32:20.002Z</time></trkpt><trkpt lat="45.14754503870617" lon="9.539746595302168"><ele>49.0</ele><time>2026-04-26T07:32:22.002Z</time></trkpt><trkpt lat="45.14744848023796" lon="9.53979944375149"><ele>49.0</ele><time>2026-04-26T07:32:24.002Z</time></trkpt><trkpt lat="45.14735588070906" lon="9.539849101014127"><ele>48.6</ele><time>2026-04-26T07:32:26.002Z</time></trkpt><trkpt lat="45.147257109244755" lon="9.539904385489415"><ele>48.2</ele><time>2026-04-26T07:32:28.002Z</time></trkpt><trkpt lat="45.147160223975305" lon="9.539961070412126"><ele>47.800000000000004</ele><time>2026-04-26T07:32:30.002Z</time></trkpt><trkpt lat="45.147061934746645" lon="9.540028811235771"><ele>47.400000000000006</ele><time>2026-04-26T07:32:32.002Z</time></trkpt><trkpt lat="45.14697111456323" lon="9.540081976764778"><ele>47.0</ele><time>2026-04-26T07:32:34.002Z</time></trkpt><trkpt lat="45.14687574408969" lon="9.540142674564752"><ele>47.0</ele><time>2026-04-26T07:32:36.002Z</time></trkpt><trkpt lat="45.14677624463437" lon="9.5402060134071"><ele>47.0</ele><time>2026-04-26T07:32:38.002Z</time></trkpt><trkpt lat="45.14668950387624" lon="9.54027442937669"><ele>47.0</ele><time>2026-04-26T07:32:40.002Z</time></trkpt><trkpt lat="45.146600343120355" lon="9.540345398447888"><ele>47.0</ele><time>2026-04-26T07:32:42.002Z</time></trkpt><trkpt lat="45.1465054094084" lon="9.540412593373013"><ele>47.0</ele><time>2026-04-26T07:32:44.002Z</time></trkpt><trkpt lat="45.14641375308194" lon="9.540474634783813"><ele>47.6</ele><time>2026-04-26T07:32:46.002Z</time></trkpt><trkpt lat="45.14632163474022" lon="9.540530939249747"><ele>48.2</ele><time>2026-04-26T07:32:48.002Z</time></trkpt><trkpt lat="45.14623179938534" lon="9.540566937901389"><ele>48.8</ele><time>2026-04-26T07:32:50.002Z</time></trkpt><trkpt lat="45.146134825044264" lon="9.540600620350848"><ele>49.4</ele><time>2026-04-26T07:32:52.002Z</time></trkpt><trkpt lat="45.14603858999624" lon="9.540622496186769"><ele>50.0</ele><time>2026-04-26T07:32:54.002Z</time></trkpt><trkpt lat="45.1459387156831" lon="9.540633406742273"><ele>50.00000000000001</ele><time>2026-04-26T07:32:56.002Z</time></trkpt><trkpt lat="45.14583981715208" lon="9.540637090204921"><ele>50.0</ele><time>2026-04-26T07:32:58.001Z</time></trkpt><trkpt lat="45.14574629993532" lon="9.540636601920765"><ele>50.0</ele><time>2026-04-26T07:33:00.001Z</time></trkpt><trkpt lat="45.14566873147631" lon="9.540640708211901"><ele>50.0</ele><time>2026-04-26T07:33:02.001Z</time></trkpt><trkpt lat="45.145652392459134" lon="9.540745074625711"><ele>50.00000000000001</ele><time>2026-04-26T07:33:05.001Z</time></trkpt><trkpt lat="45.145672160556856" lon="9.540851206241664"><ele>50.0</ele><time>2026-04-26T07:33:07.001Z</time></trkpt><trkpt lat="45.14570155774714" lon="9.540955396754066"><ele>50.0</ele><time>2026-04-26T07:33:09.001Z</time></trkpt><trkpt lat="45.145724159368875" lon="9.541073051291473"><ele>50.0</ele><time>2026-04-26T07:33:11.001Z</time></trkpt><trkpt lat="45.14575007519398" lon="9.541193036114374"><ele>50.0</ele><time>2026-04-26T07:33:13.001Z</time></trkpt><trkpt lat="45.14577537298053" lon="9.541315724225896"><ele>50.0</ele><time>2026-04-26T07:33:15.001Z</time></trkpt><trkpt lat="45.145803836106296" lon="9.541443396858405"><ele>50.0</ele><time>2026-04-26T07:33:17.001Z</time></trkpt><trkpt lat="45.14583455244206" lon="9.541564433524691"><ele>49.833333333333336</ele><time>2026-04-26T07:33:19.001Z</time></trkpt><trkpt lat="45.14586644082255" lon="9.541684820440143"><ele>49.66666666666667</ele><time>2026-04-26T07:33:21.001Z</time></trkpt><trkpt lat="45.1458937603043" lon="9.541803755655703"><ele>49.5</ele><time>2026-04-26T07:33:23.001Z</time></trkpt><trkpt lat="45.145923015856056" lon="9.541914077517134"><ele>49.33333333333333</ele><time>2026-04-26T07:33:25.001Z</time></trkpt><trkpt lat="45.145952256461754" lon="9.542022498199282"><ele>49.166666666666664</ele><time>2026-04-26T07:33:27.001Z</time></trkpt><trkpt lat="45.14597845725853" lon="9.542123463601582"><ele>49.0</ele><time>2026-04-26T07:33:29.001Z</time></trkpt><trkpt lat="45.14600137073424" lon="9.542232812835755"><ele>49.33333333333333</ele><time>2026-04-26T07:33:31.001Z</time></trkpt><trkpt lat="45.14596641952887" lon="9.542348571711326"><ele>49.666666666666664</ele><time>2026-04-26T07:33:34.001Z</time></trkpt><trkpt lat="45.14588231056011" lon="9.542371405004415"><ele>50.0</ele><time>2026-04-26T07:33:37.001Z</time></trkpt><trkpt lat="45.14582123650738" lon="9.542393066764877"><ele>50.33333333333333</ele><time>2026-04-26T07:33:39.001Z</time></trkpt><trkpt lat="45.145758582388055" lon="9.542415843994517"><ele>50.666666666666664</ele><time>2026-04-26T07:33:41.001Z</time></trkpt><trkpt lat="45.145696148898175" lon="9.54243095614318"><ele>51.0</ele><time>2026-04-26T07:33:43.001Z</time></trkpt><trkpt lat="45.14560375698808" lon="9.542440679814957"><ele>51.0</ele><time>2026-04-26T07:33:46.001Z</time></trkpt><trkpt lat="45.1455237073628" lon="9.54248110661111"><ele>51.0</ele><time>2026-04-26T07:33:49.001Z</time></trkpt><trkpt lat="45.145460921897204" lon="9.542552740813358"><ele>51.0</ele><time>2026-04-26T07:33:53.001Z</time></trkpt><trkpt lat="45.14539897299414" lon="9.542581031334059"><ele>51.0</ele><time>2026-04-26T07:33:56.001Z</time></trkpt><trkpt lat="45.14531477330774" lon="9.542597597430973"><ele>51.0</ele><time>2026-04-26T07:33:59.002Z</time></trkpt><trkpt lat="45.14524699428387" lon="9.542622528143616"><ele>51.0</ele><time>2026-04-26T07:34:01.002Z</time></trkpt><trkpt lat="45.145178333007145" lon="9.542647653299774"><ele>51.0</ele><time>2026-04-26T07:34:03.002Z</time></trkpt><trkpt lat="45.145108063751955" lon="9.542676305685633"><ele>51.0</ele><time>2026-04-26T07:34:05.002Z</time></trkpt><trkpt lat="45.14503324832231" lon="9.542704407384665"><ele>51.0</ele><time>2026-04-26T07:34:07.002Z</time></trkpt><trkpt lat="45.14495563784832" lon="9.542727781516819"><ele>51.0</ele><time>2026-04-26T07:34:09.002Z</time></trkpt><trkpt lat="45.14487370535245" lon="9.542754533272431"><ele>51.0</ele><time>2026-04-26T07:34:11.002Z</time></trkpt><trkpt lat="45.14479001748112" lon="9.542749632316498"><ele>51.0</ele><time>2026-04-26T07:34:13.002Z</time></trkpt><trkpt lat="45.14470933733731" lon="9.5427157946977"><ele>50.833333333333336</ele><time>2026-04-26T07:34:15.002Z</time></trkpt><trkpt lat="45.14463386844931" lon="9.542666904072957"><ele>50.66666666666667</ele><time>2026-04-26T07:34:17.002Z</time></trkpt><trkpt lat="45.14456966711018" lon="9.542608415937748"><ele>50.5</ele><time>2026-04-26T07:34:19.002Z</time></trkpt><trkpt lat="45.14450513742799" lon="9.542538772959714"><ele>50.333333333333336</ele><time>2026-04-26T07:34:21.002Z</time></trkpt><trkpt lat="45.14444333741121" lon="9.54247419320273"><ele>50.16666666666667</ele><time>2026-04-26T07:34:23.002Z</time></trkpt><trkpt lat="45.14437717374524" lon="9.542407770324477"><ele>50.0</ele><time>2026-04-26T07:34:25.002Z</time></trkpt><trkpt lat="45.14431778510591" lon="9.542346440883778"><ele>50.00000000000001</ele><time>2026-04-26T07:34:27.002Z</time></trkpt><trkpt lat="45.144255918713334" lon="9.542282006987692"><ele>50.0</ele><time>2026-04-26T07:34:29.002Z</time></trkpt><trkpt lat="45.14419143620228" lon="9.542213460233475"><ele>50.0</ele><time>2026-04-26T07:34:31.002Z</time></trkpt><trkpt lat="45.144129214127375" lon="9.54215218524071"><ele>50.0</ele><time>2026-04-26T07:34:33.002Z</time></trkpt><trkpt lat="45.14405958671021" lon="9.542091461823542"><ele>50.00000000000001</ele><time>2026-04-26T07:34:35.002Z</time></trkpt><trkpt lat="45.14399147073405" lon="9.542018766155756"><ele>50.0</ele><time>2026-04-26T07:34:37.002Z</time></trkpt><trkpt lat="45.143919853349026" lon="9.541946708486954"><ele>50.4</ele><time>2026-04-26T07:34:39.002Z</time></trkpt><trkpt lat="45.143848987474215" lon="9.541878835518812"><ele>50.8</ele><time>2026-04-26T07:34:41.002Z</time></trkpt><trkpt lat="45.14376929508359" lon="9.541803849930432"><ele>51.2</ele><time>2026-04-26T07:34:43.002Z</time></trkpt><trkpt lat="45.14369803106602" lon="9.541732876674452"><ele>51.6</ele><time>2026-04-26T07:34:45.002Z</time></trkpt><trkpt lat="45.14362064126855" lon="9.541655634629018"><ele>52.0</ele><time>2026-04-26T07:34:47.002Z</time></trkpt><trkpt lat="45.14354266418215" lon="9.541582180763454"><ele>52.0</ele><time>2026-04-26T07:34:49.002Z</time></trkpt><trkpt lat="45.143462579935054" lon="9.541501153847465"><ele>52.0</ele><time>2026-04-26T07:34:51.002Z</time></trkpt><trkpt lat="45.14338185233133" lon="9.54142689235222"><ele>52.0</ele><time>2026-04-26T07:34:53.002Z</time></trkpt><trkpt lat="45.14330289106077" lon="9.54134773192275"><ele>52.0</ele><time>2026-04-26T07:34:55.002Z</time></trkpt><trkpt lat="45.14323591980829" lon="9.541258926640973"><ele>52.0</ele><time>2026-04-26T07:34:57.002Z</time></trkpt><trkpt lat="45.14318763340023" lon="9.541145403062254"><ele>51.400000000000006</ele><time>2026-04-26T07:34:59.002Z</time></trkpt><trkpt lat="45.14315338744982" lon="9.54101618135855"><ele>50.800000000000004</ele><time>2026-04-26T07:35:01.001Z</time></trkpt><trkpt lat="45.14313347651496" lon="9.540890040239201"><ele>50.2</ele><time>2026-04-26T07:35:03.001Z</time></trkpt><trkpt lat="45.14312566376374" lon="9.540763607545356"><ele>49.6</ele><time>2026-04-26T07:35:05.001Z</time></trkpt><trkpt lat="45.14310872689474" lon="9.540635901881766"><ele>49.0</ele><time>2026-04-26T07:35:07.001Z</time></trkpt><trkpt lat="45.14309768120645" lon="9.54050560908986"><ele>49.2</ele><time>2026-04-26T07:35:09.001Z</time></trkpt><trkpt lat="45.14308710584413" lon="9.540377651840217"><ele>49.400000000000006</ele><time>2026-04-26T07:35:11.001Z</time></trkpt><trkpt lat="45.14307147431547" lon="9.540240491244314"><ele>49.6</ele><time>2026-04-26T07:35:13.001Z</time></trkpt><trkpt lat="45.14306372876291" lon="9.540107801709235"><ele>49.8</ele><time>2026-04-26T07:35:15.001Z</time></trkpt><trkpt lat="45.143051778204736" lon="9.539967647287643"><ele>50.0</ele><time>2026-04-26T07:35:17.001Z</time></trkpt><trkpt lat="45.1430435955536" lon="9.5398409894357"><ele>50.0</ele><time>2026-04-26T07:35:19.001Z</time></trkpt><trkpt lat="45.143037649272586" lon="9.539705825103624"><ele>50.0</ele><time>2026-04-26T07:35:21.001Z</time></trkpt><trkpt lat="45.143031924766184" lon="9.539576670070405"><ele>50.0</ele><time>2026-04-26T07:35:23.001Z</time></trkpt><trkpt lat="45.14302295921648" lon="9.539438322117812"><ele>50.0</ele><time>2026-04-26T07:35:25.001Z</time></trkpt><trkpt lat="45.14301464571765" lon="9.539305670008632"><ele>50.0</ele><time>2026-04-26T07:35:27.001Z</time></trkpt><trkpt lat="45.1430088320781" lon="9.5391647278948"><ele>50.4</ele><time>2026-04-26T07:35:29.001Z</time></trkpt><trkpt lat="45.142992465569236" lon="9.539023677008526"><ele>50.8</ele><time>2026-04-26T07:35:31.001Z</time></trkpt><trkpt lat="45.14297208697288" lon="9.538891362298708"><ele>51.2</ele><time>2026-04-26T07:35:33.001Z</time></trkpt><trkpt lat="45.14294334814232" lon="9.538747721368512"><ele>51.6</ele><time>2026-04-26T07:35:35.001Z</time></trkpt><trkpt lat="45.142913382652296" lon="9.538623350853772"><ele>52.0</ele><time>2026-04-26T07:35:37.001Z</time></trkpt><trkpt lat="45.14287095042091" lon="9.538495147105097"><ele>52.400000000000006</ele><time>2026-04-26T07:35:39.001Z</time></trkpt><trkpt lat="45.14283706548553" lon="9.538377479243794"><ele>52.800000000000004</ele><time>2026-04-26T07:35:41.001Z</time></trkpt><trkpt lat="45.142798178891525" lon="9.53826455980885"><ele>53.2</ele><time>2026-04-26T07:35:43.001Z</time></trkpt><trkpt lat="45.14276206202719" lon="9.538148974326454"><ele>53.6</ele><time>2026-04-26T07:35:45.001Z</time></trkpt><trkpt lat="45.14272736794563" lon="9.538031414094661"><ele>54.0</ele><time>2026-04-26T07:35:47.001Z</time></trkpt><trkpt lat="45.14268990565054" lon="9.53790430757659"><ele>53.6</ele><time>2026-04-26T07:35:49.001Z</time></trkpt><trkpt lat="45.1426516777699" lon="9.537777028586733"><ele>53.2</ele><time>2026-04-26T07:35:51.001Z</time></trkpt><trkpt lat="45.14261523820094" lon="9.537657552336144"><ele>52.800000000000004</ele><time>2026-04-26T07:35:53.001Z</time></trkpt><trkpt lat="45.142573072362715" lon="9.537533766976498"><ele>52.400000000000006</ele><time>2026-04-26T07:35:55.001Z</time></trkpt><trkpt lat="45.142528733723076" lon="9.537415353345553"><ele>52.0</ele><time>2026-04-26T07:35:57.001Z</time></trkpt><trkpt lat="45.14247977092551" lon="9.53729093650506"><ele>52.0</ele><time>2026-04-26T07:35:59.001Z</time></trkpt><trkpt lat="45.14243375681213" lon="9.537176224934715"><ele>52.0</ele><time>2026-04-26T07:36:01.001Z</time></trkpt><trkpt lat="45.14238121602233" lon="9.5370572949434"><ele>52.0</ele><time>2026-04-26T07:36:03.001Z</time></trkpt><trkpt lat="45.142328567145626" lon="9.536953720206817"><ele>52.0</ele><time>2026-04-26T07:36:05.002Z</time></trkpt><trkpt lat="45.14227314648567" lon="9.53683777041485"><ele>52.0</ele><time>2026-04-26T07:36:07.002Z</time></trkpt><trkpt lat="45.14221282237986" lon="9.536731750940046"><ele>52.2</ele><time>2026-04-26T07:36:09.001Z</time></trkpt><trkpt lat="45.14215279343427" lon="9.536628198387332"><ele>52.400000000000006</ele><time>2026-04-26T07:36:11.001Z</time></trkpt><trkpt lat="45.14208593444782" lon="9.536518895176703"><ele>52.599999999999994</ele><time>2026-04-26T07:36:13.001Z</time></trkpt><trkpt lat="45.142026213686144" lon="9.536417078463005"><ele>52.8</ele><time>2026-04-26T07:36:15.002Z</time></trkpt><trkpt lat="45.1419622596257" lon="9.536314129096652"><ele>53.0</ele><time>2026-04-26T07:36:17.001Z</time></trkpt><trkpt lat="45.14188763787482" lon="9.536208242656537"><ele>53.0</ele><time>2026-04-26T07:36:19.001Z</time></trkpt><trkpt lat="45.141809191879666" lon="9.5361003599824"><ele>53.0</ele><time>2026-04-26T07:36:21.001Z</time></trkpt><trkpt lat="45.141736651897226" lon="9.53600292806438"><ele>53.0</ele><time>2026-04-26T07:36:23.001Z</time></trkpt><trkpt lat="45.141655753081615" lon="9.535904724332738"><ele>53.0</ele><time>2026-04-26T07:36:25.001Z</time></trkpt><trkpt lat="45.14157911148282" lon="9.535804300403102"><ele>53.0</ele><time>2026-04-26T07:36:27.001Z</time></trkpt><trkpt lat="45.14150005710597" lon="9.535715261073731"><ele>52.4</ele><time>2026-04-26T07:36:29.001Z</time></trkpt><trkpt lat="45.14142039680966" lon="9.535620068732202"><ele>51.8</ele><time>2026-04-26T07:36:31.001Z</time></trkpt><trkpt lat="45.141339638854404" lon="9.535525153279842"><ele>51.2</ele><time>2026-04-26T07:36:33.001Z</time></trkpt><trkpt lat="45.14126167712744" lon="9.53542955859555"><ele>50.6</ele><time>2026-04-26T07:36:35.001Z</time></trkpt><trkpt lat="45.14117563322259" lon="9.535330762568174"><ele>50.0</ele><time>2026-04-26T07:36:37.001Z</time></trkpt><trkpt lat="45.14109604182645" lon="9.5352334672958"><ele>49.8</ele><time>2026-04-26T07:36:39.001Z</time></trkpt><trkpt lat="45.14101873292961" lon="9.535140630614082"><ele>49.6</ele><time>2026-04-26T07:36:41.001Z</time></trkpt><trkpt lat="45.14093949729397" lon="9.53503821190249"><ele>49.400000000000006</ele><time>2026-04-26T07:36:43.001Z</time></trkpt><trkpt lat="45.1408562181097" lon="9.53494311025412"><ele>49.2</ele><time>2026-04-26T07:36:45.001Z</time></trkpt><trkpt lat="45.14078041834546" lon="9.53484591462018"><ele>49.0</ele><time>2026-04-26T07:36:47.001Z</time></trkpt><trkpt lat="45.14070169399129" lon="9.53474664035565"><ele>49.0</ele><time>2026-04-26T07:36:49.001Z</time></trkpt><trkpt lat="45.140619296033876" lon="9.53464702400206"><ele>49.0</ele><time>2026-04-26T07:36:51.001Z</time></trkpt><trkpt lat="45.14053913145115" lon="9.534555393391443"><ele>49.0</ele><time>2026-04-26T07:36:53.001Z</time></trkpt><trkpt lat="45.140462088302854" lon="9.534465818008387"><ele>49.0</ele><time>2026-04-26T07:36:55.001Z</time></trkpt><trkpt lat="45.14037354746263" lon="9.53437136366527"><ele>49.0</ele><time>2026-04-26T07:36:57.001Z</time></trkpt><trkpt lat="45.14029562170349" lon="9.534284304657978"><ele>49.0</ele><time>2026-04-26T07:36:59.001Z</time></trkpt><trkpt lat="45.1402205278856" lon="9.534193969201747"><ele>49.0</ele><time>2026-04-26T07:37:01.001Z</time></trkpt><trkpt lat="45.140137196627755" lon="9.534097011689388"><ele>49.0</ele><time>2026-04-26T07:37:03.001Z</time></trkpt><trkpt lat="45.14005565222627" lon="9.534002443068452"><ele>49.0</ele><time>2026-04-26T07:37:05.001Z</time></trkpt><trkpt lat="45.13996881142145" lon="9.533907294464905"><ele>49.0</ele><time>2026-04-26T07:37:07.001Z</time></trkpt><trkpt lat="45.13989280485985" lon="9.533822319564559"><ele>48.800000000000004</ele><time>2026-04-26T07:37:09.001Z</time></trkpt><trkpt lat="45.13982353978042" lon="9.533731228560686"><ele>48.6</ele><time>2026-04-26T07:37:11.001Z</time></trkpt><trkpt lat="45.13974740289868" lon="9.533631837091882"><ele>48.4</ele><time>2026-04-26T07:37:13.001Z</time></trkpt><trkpt lat="45.1396677919668" lon="9.53352798409475"><ele>48.2</ele><time>2026-04-26T07:37:15.001Z</time></trkpt><trkpt lat="45.13959808773495" lon="9.533416424853064"><ele>48.0</ele><time>2026-04-26T07:37:17.001Z</time></trkpt><trkpt lat="45.13952791201566" lon="9.53329310734442"><ele>48.0</ele><time>2026-04-26T07:37:19.001Z</time></trkpt><trkpt lat="45.13946000863723" lon="9.533160198449888"><ele>48.0</ele><time>2026-04-26T07:37:21.001Z</time></trkpt><trkpt lat="45.13939237107079" lon="9.53303300055028"><ele>48.0</ele><time>2026-04-26T07:37:23.001Z</time></trkpt><trkpt lat="45.13933353793015" lon="9.532911059889685"><ele>48.0</ele><time>2026-04-26T07:37:25Z</time></trkpt><trkpt lat="45.13926763194459" lon="9.532781631237398"><ele>48.0</ele><time>2026-04-26T07:37:27Z</time></trkpt><trkpt lat="45.13920684354228" lon="9.532649629892227"><ele>48.2</ele><time>2026-04-26T07:37:29Z</time></trkpt><trkpt lat="45.13914503798217" lon="9.532534134599029"><ele>48.4</ele><time>2026-04-26T07:37:31Z</time></trkpt><trkpt lat="45.13908325929369" lon="9.532415314484913"><ele>48.6</ele><time>2026-04-26T07:37:33Z</time></trkpt><trkpt lat="45.13902375749408" lon="9.532294943094575"><ele>48.800000000000004</ele><time>2026-04-26T07:37:35Z</time></trkpt><trkpt lat="45.1389602536101" lon="9.532166862548387"><ele>49.0</ele><time>2026-04-26T07:37:37Z</time></trkpt><trkpt lat="45.13889964454987" lon="9.532050971874638"><ele>49.0</ele><time>2026-04-26T07:37:39Z</time></trkpt><trkpt lat="45.138840231409205" lon="9.531932259139904"><ele>49.0</ele><time>2026-04-26T07:37:41Z</time></trkpt><trkpt lat="45.13878020290482" lon="9.531811492652427"><ele>49.0</ele><time>2026-04-26T07:37:43Z</time></trkpt><trkpt lat="45.13872305856865" lon="9.531691122981133"><ele>49.0</ele><time>2026-04-26T07:37:45Z</time></trkpt><trkpt lat="45.13865894429815" lon="9.531568063159277"><ele>49.0</ele><time>2026-04-26T07:37:47Z</time></trkpt><trkpt lat="45.13859388175565" lon="9.531439520637157"><ele>49.0</ele><time>2026-04-26T07:37:49Z</time></trkpt><trkpt lat="45.13853158833868" lon="9.531318650271464"><ele>49.0</ele><time>2026-04-26T07:37:51Z</time></trkpt><trkpt lat="45.13847354262029" lon="9.531188240920178"><ele>49.0</ele><time>2026-04-26T07:37:53Z</time></trkpt><trkpt lat="45.13841190136797" lon="9.531072215533694"><ele>49.0</ele><time>2026-04-26T07:37:55Z</time></trkpt><trkpt lat="45.13834784113982" lon="9.530958979743875"><ele>49.0</ele><time>2026-04-26T07:37:57Z</time></trkpt><trkpt lat="45.13828129084001" lon="9.530834865621756"><ele>49.0</ele><time>2026-04-26T07:37:59Z</time></trkpt><trkpt lat="45.138222709539036" lon="9.530709750491377"><ele>49.0</ele><time>2026-04-26T07:38:01Z</time></trkpt><trkpt lat="45.13816157283664" lon="9.530592978035457"><ele>49.0</ele><time>2026-04-26T07:38:03Z</time></trkpt><trkpt lat="45.13810139266722" lon="9.530473005383389"><ele>49.0</ele><time>2026-04-26T07:38:05Z</time></trkpt><trkpt lat="45.13803885741455" lon="9.530354959125715"><ele>49.0</ele><time>2026-04-26T07:38:07Z</time></trkpt><trkpt lat="45.13797765073231" lon="9.530239803763841"><ele>49.2</ele><time>2026-04-26T07:38:09Z</time></trkpt><trkpt lat="45.13791572937229" lon="9.530123521072069"><ele>49.400000000000006</ele><time>2026-04-26T07:38:11.001Z</time></trkpt><trkpt lat="45.13786165407956" lon="9.530005867281435"><ele>49.6</ele><time>2026-04-26T07:38:13.001Z</time></trkpt><trkpt lat="45.13781073451872" lon="9.52987188385844"><ele>49.8</ele><time>2026-04-26T07:38:15.001Z</time></trkpt><trkpt lat="45.13777084534139" lon="9.52974384886886"><ele>50.0</ele><time>2026-04-26T07:38:17.002Z</time></trkpt><trkpt lat="45.137734514225535" lon="9.529613308315877"><ele>50.2</ele><time>2026-04-26T07:38:19.002Z</time></trkpt><trkpt lat="45.137698680212154" lon="9.529480126845215"><ele>50.4</ele><time>2026-04-26T07:38:21.002Z</time></trkpt><trkpt lat="45.13766487577888" lon="9.529351338036882"><ele>50.599999999999994</ele><time>2026-04-26T07:38:23.001Z</time></trkpt><trkpt lat="45.137627275081144" lon="9.529206130566358"><ele>50.8</ele><time>2026-04-26T07:38:25.002Z</time></trkpt><trkpt lat="45.13759230137823" lon="9.529076225639628"><ele>51.0</ele><time>2026-04-26T07:38:27.002Z</time></trkpt><trkpt lat="45.13755262686037" lon="9.528938732910675"><ele>51.0</ele><time>2026-04-26T07:38:29.002Z</time></trkpt><trkpt lat="45.13751855468171" lon="9.52879794164087"><ele>51.0</ele><time>2026-04-26T07:38:31.002Z</time></trkpt><trkpt lat="45.13747423448453" lon="9.528659388798454"><ele>51.0</ele><time>2026-04-26T07:38:33.002Z</time></trkpt><trkpt lat="45.13743630460633" lon="9.528521592322036"><ele>51.0</ele><time>2026-04-26T07:38:35.001Z</time></trkpt><trkpt lat="45.13739252915637" lon="9.528383213103924"><ele>51.0</ele><time>2026-04-26T07:38:37.001Z</time></trkpt><trkpt lat="45.13735303148847" lon="9.528245826422495"><ele>50.599999999999994</ele><time>2026-04-26T07:38:39.001Z</time></trkpt><trkpt lat="45.13731212368369" lon="9.528112324842281"><ele>50.2</ele><time>2026-04-26T07:38:41.001Z</time></trkpt><trkpt lat="45.13727167604855" lon="9.527977018934294"><ele>49.8</ele><time>2026-04-26T07:38:43.001Z</time></trkpt><trkpt lat="45.13723522808313" lon="9.527835794359875"><ele>49.400000000000006</ele><time>2026-04-26T07:38:45.001Z</time></trkpt><trkpt lat="45.137191609041814" lon="9.52769970847558"><ele>49.0</ele><time>2026-04-26T07:38:47.001Z</time></trkpt><trkpt lat="45.13714695293456" lon="9.527581419280956"><ele>48.99999999999999</ele><time>2026-04-26T07:38:49.001Z</time></trkpt><trkpt lat="45.13709723076557" lon="9.527482193349375"><ele>49.0</ele><time>2026-04-26T07:38:51.001Z</time></trkpt><trkpt lat="45.13704935820717" lon="9.527396180949216"><ele>49.0</ele><time>2026-04-26T07:38:53.001Z</time></trkpt><trkpt lat="45.13698559897779" lon="9.527307798971623"><ele>49.0</ele><time>2026-04-26T07:38:55.001Z</time></trkpt><trkpt lat="45.13691359350952" lon="9.527233428529057"><ele>48.99999999999999</ele><time>2026-04-26T07:38:57.001Z</time></trkpt><trkpt lat="45.13685981493925" lon="9.527173016892208"><ele>49.0</ele><time>2026-04-26T07:38:59.001Z</time></trkpt><trkpt lat="45.136934713378025" lon="9.527252003660015"><ele>48.99999999999999</ele><time>2026-04-26T07:39:08.001Z</time></trkpt><trkpt lat="45.13699265685819" lon="9.527294714081826"><ele>49.0</ele><time>2026-04-26T07:39:11.001Z</time></trkpt><trkpt lat="45.137051814316806" lon="9.527199686303154"><ele>49.0</ele><time>2026-04-26T07:39:15.001Z</time></trkpt><trkpt lat="45.137021238158" lon="9.527116408713166"><ele>49.0</ele><time>2026-04-26T07:39:17.001Z</time></trkpt><trkpt lat="45.13696762161121" lon="9.527006748129732"><ele>48.99999999999999</ele><time>2026-04-26T07:39:19.001Z</time></trkpt><trkpt lat="45.136925173657716" lon="9.526867449835501"><ele>49.0</ele><time>2026-04-26T07:39:21.001Z</time></trkpt><trkpt lat="45.13686493434503" lon="9.52672413966592"><ele>49.2</ele><time>2026-04-26T07:39:23.001Z</time></trkpt><trkpt lat="45.13680642206525" lon="9.526595284193883"><ele>49.400000000000006</ele><time>2026-04-26T07:39:25.001Z</time></trkpt><trkpt lat="45.1367486521199" lon="9.52648221601954"><ele>49.6</ele><time>2026-04-26T07:39:27.001Z</time></trkpt><trkpt lat="45.13669148792352" lon="9.526384158521061"><ele>49.8</ele><time>2026-04-26T07:39:30.001Z</time></trkpt><trkpt lat="45.136640561107036" lon="9.526316041151293"><ele>50.0</ele><time>2026-04-26T07:39:32.001Z</time></trkpt><trkpt lat="45.136592448149415" lon="9.526203711570586"><ele>50.00000000000001</ele><time>2026-04-26T07:39:34.001Z</time></trkpt><trkpt lat="45.13655980368052" lon="9.526123373166643"><ele>50.0</ele><time>2026-04-26T07:39:36.001Z</time></trkpt><trkpt lat="45.136531521248955" lon="9.526021600850363"><ele>50.0</ele><time>2026-04-26T07:39:38.001Z</time></trkpt><trkpt lat="45.1364820721706" lon="9.525898430663995"><ele>50.0</ele><time>2026-04-26T07:39:40.001Z</time></trkpt><trkpt lat="45.13642698592867" lon="9.52584529120498"><ele>50.00000000000001</ele><time>2026-04-26T07:39:42.001Z</time></trkpt><trkpt lat="45.1363662061496" lon="9.52574118268114"><ele>50.0</ele><time>2026-04-26T07:39:45.001Z</time></trkpt><trkpt lat="45.1363236350316" lon="9.525635946071155"><ele>50.2</ele><time>2026-04-26T07:39:47.001Z</time></trkpt><trkpt lat="45.13625729181307" lon="9.525516539910855"><ele>50.4</ele><time>2026-04-26T07:39:49.001Z</time></trkpt><trkpt lat="45.136215257271544" lon="9.52539407917437"><ele>50.599999999999994</ele><time>2026-04-26T07:39:51.001Z</time></trkpt><trkpt lat="45.13617360239497" lon="9.525289653648153"><ele>50.8</ele><time>2026-04-26T07:39:52Z</time></trkpt><trkpt lat="45.13612997067824" lon="9.525175220357129"><ele>51.0</ele><time>2026-04-26T07:39:53Z</time></trkpt><trkpt lat="45.13609759993778" lon="9.525081937304396"><ele>51.0</ele><time>2026-04-26T07:39:54Z</time></trkpt><trkpt lat="45.136055702297966" lon="9.525011292593463"><ele>51.0</ele><time>2026-04-26T07:39:55Z</time></trkpt><trkpt lat="45.13598844048756" lon="9.524885756636548"><ele>51.0</ele><time>2026-04-26T07:39:57Z</time></trkpt><trkpt lat="45.13595265002541" lon="9.524800686002449"><ele>51.0</ele><time>2026-04-26T07:39:58Z</time></trkpt><trkpt lat="45.13590907939201" lon="9.524714812334132"><ele>51.0</ele><time>2026-04-26T07:39:59Z</time></trkpt><trkpt lat="45.135814249418935" lon="9.524606056649526"><ele>51.0</ele><time>2026-04-26T07:40:01Z</time></trkpt><trkpt lat="45.13571327393952" lon="9.524520213084841"><ele>50.8</ele><time>2026-04-26T07:40:03Z</time></trkpt><trkpt lat="45.13561804976273" lon="9.524437177892404"><ele>50.599999999999994</ele><time>2026-04-26T07:40:05Z</time></trkpt><trkpt lat="45.135524709498895" lon="9.524341087010187"><ele>50.4</ele><time>2026-04-26T07:40:07Z</time></trkpt><trkpt lat="45.135462751385255" lon="9.524209358667857"><ele>50.2</ele><time>2026-04-26T07:40:09Z</time></trkpt><trkpt lat="45.13543873263141" lon="9.524062404042303"><ele>50.0</ele><time>2026-04-26T07:40:11Z</time></trkpt><trkpt lat="45.13541535855806" lon="9.52391767185334"><ele>50.0</ele><time>2026-04-26T07:40:13Z</time></trkpt><trkpt lat="45.135393654594964" lon="9.523775742071352"><ele>50.0</ele><time>2026-04-26T07:40:15Z</time></trkpt><trkpt lat="45.135367403080586" lon="9.523626987120458"><ele>50.0</ele><time>2026-04-26T07:40:17.001Z</time></trkpt><trkpt lat="45.135344216484285" lon="9.52348680774974"><ele>50.0</ele><time>2026-04-26T07:40:19.001Z</time></trkpt><trkpt lat="45.13531789198469" lon="9.523366605265418"><ele>50.0</ele><time>2026-04-26T07:40:21.002Z</time></trkpt><trkpt lat="45.1353133573794" lon="9.523254663590231"><ele>50.2</ele><time>2026-04-26T07:40:23.001Z</time></trkpt><trkpt lat="45.13527855875511" lon="9.523117909798875"><ele>50.4</ele><time>2026-04-26T07:40:25.001Z</time></trkpt><trkpt lat="45.135251869599976" lon="9.522985909504081"><ele>50.599999999999994</ele><time>2026-04-26T07:40:27.001Z</time></trkpt><trkpt lat="45.13522213951837" lon="9.52285290568408"><ele>50.8</ele><time>2026-04-26T07:40:29.001Z</time></trkpt><trkpt lat="45.1351950013012" lon="9.522723290642814"><ele>51.0</ele><time>2026-04-26T07:40:31.001Z</time></trkpt><trkpt lat="45.13517436194709" lon="9.522583615467385"><ele>50.8</ele><time>2026-04-26T07:40:33.001Z</time></trkpt><trkpt lat="45.13514385510611" lon="9.522445087755125"><ele>50.599999999999994</ele><time>2026-04-26T07:40:35.001Z</time></trkpt><trkpt lat="45.13512357655433" lon="9.522321920047892"><ele>50.4</ele><time>2026-04-26T07:40:37.001Z</time></trkpt><trkpt lat="45.1350998179074" lon="9.522192192376393"><ele>50.2</ele><time>2026-04-26T07:40:39.001Z</time></trkpt><trkpt lat="45.13507150581731" lon="9.522051491075906"><ele>50.0</ele><time>2026-04-26T07:40:41.001Z</time></trkpt><trkpt lat="45.135047223334375" lon="9.521915230234953"><ele>50.0</ele><time>2026-04-26T07:40:43.001Z</time></trkpt><trkpt lat="45.135010217738284" lon="9.521776048828796"><ele>50.0</ele><time>2026-04-26T07:40:45.001Z</time></trkpt><trkpt lat="45.134982880255805" lon="9.52165368728407"><ele>50.0</ele><time>2026-04-26T07:40:47.001Z</time></trkpt><trkpt lat="45.134957080257884" lon="9.521514131507942"><ele>50.0</ele><time>2026-04-26T07:40:49.001Z</time></trkpt><trkpt lat="45.13493218943082" lon="9.521377182402995"><ele>50.0</ele><time>2026-04-26T07:40:51.001Z</time></trkpt><trkpt lat="45.134905992942805" lon="9.521265277069435"><ele>50.0</ele><time>2026-04-26T07:40:53.001Z</time></trkpt><trkpt lat="45.134872619472596" lon="9.521110686897636"><ele>50.0</ele><time>2026-04-26T07:40:55Z</time></trkpt><trkpt lat="45.134836116590314" lon="9.520976010408495"><ele>50.0</ele><time>2026-04-26T07:40:57Z</time></trkpt><trkpt lat="45.134824343364656" lon="9.520836112237568"><ele>50.0</ele><time>2026-04-26T07:40:59Z</time></trkpt><trkpt lat="45.134779665198806" lon="9.520681644111306"><ele>50.0</ele><time>2026-04-26T07:41:01Z</time></trkpt><trkpt lat="45.134758017847474" lon="9.520529259335062"><ele>50.2</ele><time>2026-04-26T07:41:03Z</time></trkpt><trkpt lat="45.1347321590676" lon="9.520384395715642"><ele>50.4</ele><time>2026-04-26T07:41:05Z</time></trkpt><trkpt lat="45.13470380597068" lon="9.520239733930847"><ele>50.599999999999994</ele><time>2026-04-26T07:41:07Z</time></trkpt><trkpt lat="45.13467602252477" lon="9.520088766625605"><ele>50.8</ele><time>2026-04-26T07:41:09Z</time></trkpt><trkpt lat="45.13465298665761" lon="9.519953515892809"><ele>51.0</ele><time>2026-04-26T07:41:11Z</time></trkpt><trkpt lat="45.13462182819815" lon="9.519809036640018"><ele>51.0</ele><time>2026-04-26T07:41:13Z</time></trkpt><trkpt lat="45.13458841347306" lon="9.519663016767865"><ele>51.0</ele><time>2026-04-26T07:41:15Z</time></trkpt><trkpt lat="45.134561354423155" lon="9.519525966209633"><ele>51.0</ele><time>2026-04-26T07:41:17Z</time></trkpt><trkpt lat="45.13453600515006" lon="9.519389574804148"><ele>51.0</ele><time>2026-04-26T07:41:19Z</time></trkpt><trkpt lat="45.13451944952605" lon="9.519253738922474"><ele>51.0</ele><time>2026-04-26T07:41:21Z</time></trkpt><trkpt lat="45.134496783005304" lon="9.519118104799855"><ele>51.166666666666664</ele><time>2026-04-26T07:41:23Z</time></trkpt><trkpt lat="45.13447710887221" lon="9.51901582932654"><ele>51.33333333333333</ele><time>2026-04-26T07:41:25Z</time></trkpt><trkpt lat="45.134468814865464" lon="9.518892353561805"><ele>51.5</ele><time>2026-04-26T07:41:27Z</time></trkpt><trkpt lat="45.13446099844432" lon="9.51876960639489"><ele>51.666666666666664</ele><time>2026-04-26T07:41:29Z</time></trkpt><trkpt lat="45.1344448574282" lon="9.518631376249845"><ele>51.83333333333333</ele><time>2026-04-26T07:41:31Z</time></trkpt><trkpt lat="45.13442793035152" lon="9.518490378078702"><ele>52.0</ele><time>2026-04-26T07:41:33Z</time></trkpt><trkpt lat="45.13442429029823" lon="9.518344051029722"><ele>51.99999999999999</ele><time>2026-04-26T07:41:35Z</time></trkpt><trkpt lat="45.13442455208346" lon="9.518230908984744"><ele>52.0</ele><time>2026-04-26T07:41:36.997Z</time></trkpt><trkpt lat="45.13440507300716" lon="9.518081022867072"><ele>52.0</ele><time>2026-04-26T07:41:38.995Z</time></trkpt><trkpt lat="45.134394190921206" lon="9.517945358020699"><ele>52.0</ele><time>2026-04-26T07:41:40.994Z</time></trkpt><trkpt lat="45.134395481909095" lon="9.51784046307432"><ele>51.99999999999999</ele><time>2026-04-26T07:41:42.992Z</time></trkpt><trkpt lat="45.134402094175975" lon="9.517710670743261"><ele>52.0</ele><time>2026-04-26T07:41:44.991Z</time></trkpt><trkpt lat="45.13440972041415" lon="9.517580475591053"><ele>52.0</ele><time>2026-04-26T07:41:46.989Z</time></trkpt><trkpt lat="45.13440966003727" lon="9.517450616169661"><ele>52.0</ele><time>2026-04-26T07:41:48.988Z</time></trkpt><trkpt lat="45.13440587529299" lon="9.51730472824727"><ele>52.0</ele><time>2026-04-26T07:41:50.987Z</time></trkpt><trkpt lat="45.1344065628884" lon="9.51715911900505"><ele>52.0</ele><time>2026-04-26T07:41:52.987Z</time></trkpt><trkpt lat="45.13438300513678" lon="9.517016695811323"><ele>52.0</ele><time>2026-04-26T07:41:54.986Z</time></trkpt><trkpt lat="45.1343338955299" lon="9.516915174406792"><ele>51.83333333333333</ele><time>2026-04-26T07:41:56.985Z</time></trkpt><trkpt lat="45.134255440205976" lon="9.516849441919446"><ele>51.666666666666664</ele><time>2026-04-26T07:41:58.985Z</time></trkpt><trkpt lat="45.13418731986248" lon="9.516825030148125"><ele>51.5</ele><time>2026-04-26T07:42:00.984Z</time></trkpt><trkpt lat="45.134093568546376" lon="9.516786936588268"><ele>51.33333333333333</ele><time>2026-04-26T07:42:03.983Z</time></trkpt><trkpt lat="45.13403518713212" lon="9.516738124298229"><ele>51.166666666666664</ele><time>2026-04-26T07:42:05.983Z</time></trkpt><trkpt lat="45.13403776039873" lon="9.516642606999502"><ele>51.0</ele><time>2026-04-26T07:42:07.983Z</time></trkpt><trkpt lat="45.13408271538991" lon="9.516565739150806"><ele>51.0</ele><time>2026-04-26T07:42:09.982Z</time></trkpt><trkpt lat="45.134145861496584" lon="9.516498691664529"><ele>51.0</ele><time>2026-04-26T07:42:11.982Z</time></trkpt><trkpt lat="45.134218766719606" lon="9.51641789068669"><ele>51.0</ele><time>2026-04-26T07:42:13.982Z</time></trkpt><trkpt lat="45.13427774577611" lon="9.516347240303448"><ele>51.0</ele><time>2026-04-26T07:42:15.982Z</time></trkpt><trkpt lat="45.134328300879446" lon="9.51626898679659"><ele>51.0</ele><time>2026-04-26T07:42:17.981Z</time></trkpt><trkpt lat="45.134384795844426" lon="9.516177877657002"><ele>51.0</ele><time>2026-04-26T07:42:19.981Z</time></trkpt><trkpt lat="45.13446268259111" lon="9.516080788041997"><ele>50.599999999999994</ele><time>2026-04-26T07:42:21.981Z</time></trkpt><trkpt lat="45.13451930480523" lon="9.515982907063421"><ele>50.2</ele><time>2026-04-26T07:42:23.983Z</time></trkpt><trkpt lat="45.13457219861682" lon="9.515867417304692"><ele>49.8</ele><time>2026-04-26T07:42:25.982Z</time></trkpt><trkpt lat="45.134633079332666" lon="9.515748388068046"><ele>49.400000000000006</ele><time>2026-04-26T07:42:27.982Z</time></trkpt><trkpt lat="45.13469046789145" lon="9.515629367916588"><ele>49.0</ele><time>2026-04-26T07:42:29.982Z</time></trkpt><trkpt lat="45.13473688939542" lon="9.51550556063489"><ele>48.800000000000004</ele><time>2026-04-26T07:42:31.982Z</time></trkpt><trkpt lat="45.13477368807289" lon="9.515384873430015"><ele>48.6</ele><time>2026-04-26T07:42:33.982Z</time></trkpt><trkpt lat="45.13481389933095" lon="9.51525469912619"><ele>48.4</ele><time>2026-04-26T07:42:35.982Z</time></trkpt><trkpt lat="45.134854130112394" lon="9.515118772252334"><ele>48.2</ele><time>2026-04-26T07:42:37.982Z</time></trkpt><trkpt lat="45.13487982416797" lon="9.514989777810765"><ele>48.0</ele><time>2026-04-26T07:42:39.982Z</time></trkpt><trkpt lat="45.13491232591971" lon="9.514854286417586"><ele>48.0</ele><time>2026-04-26T07:42:41.982Z</time></trkpt><trkpt lat="45.13493824502817" lon="9.514718640827581"><ele>48.0</ele><time>2026-04-26T07:42:43.982Z</time></trkpt><trkpt lat="45.134963978277554" lon="9.51458821895431"><ele>48.0</ele><time>2026-04-26T07:42:45.982Z</time></trkpt><trkpt lat="45.13499034294149" lon="9.514457621539602"><ele>48.0</ele><time>2026-04-26T07:42:47.982Z</time></trkpt><trkpt lat="45.135015210312346" lon="9.51433153216444"><ele>48.0</ele><time>2026-04-26T07:42:49.982Z</time></trkpt><trkpt lat="45.13503950658691" lon="9.514198639233067"><ele>48.0</ele><time>2026-04-26T07:42:51.982Z</time></trkpt><trkpt lat="45.135065684736965" lon="9.514065813606857"><ele>48.0</ele><time>2026-04-26T07:42:53.982Z</time></trkpt><trkpt lat="45.13509211080633" lon="9.5139272992738"><ele>48.0</ele><time>2026-04-26T07:42:55.981Z</time></trkpt><trkpt lat="45.13511918538523" lon="9.513789570117535"><ele>48.0</ele><time>2026-04-26T07:42:57.981Z</time></trkpt><trkpt lat="45.1351446684264" lon="9.513657580849149"><ele>48.0</ele><time>2026-04-26T07:42:59.981Z</time></trkpt><trkpt lat="45.13517021014562" lon="9.513523694254973"><ele>48.0</ele><time>2026-04-26T07:43:01.981Z</time></trkpt><trkpt lat="45.13519979341642" lon="9.513387350197512"><ele>48.0</ele><time>2026-04-26T07:43:03.981Z</time></trkpt><trkpt lat="45.135234172313844" lon="9.513247639182065"><ele>48.0</ele><time>2026-04-26T07:43:05.981Z</time></trkpt><trkpt lat="45.13526289053758" lon="9.513119238678508"><ele>48.0</ele><time>2026-04-26T07:43:07.981Z</time></trkpt><trkpt lat="45.135295702633734" lon="9.512994860424238"><ele>48.0</ele><time>2026-04-26T07:43:09.981Z</time></trkpt><trkpt lat="45.13533574587518" lon="9.51287918041557"><ele>47.8</ele><time>2026-04-26T07:43:11.981Z</time></trkpt><trkpt lat="45.13538371637739" lon="9.512763117874396"><ele>47.599999999999994</ele><time>2026-04-26T07:43:13.981Z</time></trkpt><trkpt lat="45.13543548138665" lon="9.512637455225631"><ele>47.400000000000006</ele><time>2026-04-26T07:43:15.981Z</time></trkpt><trkpt lat="45.135475328371804" lon="9.512534167510106"><ele>47.2</ele><time>2026-04-26T07:43:17.981Z</time></trkpt><trkpt lat="45.135528096205526" lon="9.512423354299518"><ele>47.0</ele><time>2026-04-26T07:43:19.981Z</time></trkpt><trkpt lat="45.13558212919505" lon="9.51230474551654"><ele>47.0</ele><time>2026-04-26T07:43:21.981Z</time></trkpt><trkpt lat="45.13563482604022" lon="9.512183347343573"><ele>47.0</ele><time>2026-04-26T07:43:23.981Z</time></trkpt><trkpt lat="45.13568635158298" lon="9.512074912082321"><ele>47.0</ele><time>2026-04-26T07:43:25.981Z</time></trkpt><trkpt lat="45.13574669505214" lon="9.511950282341182"><ele>47.0</ele><time>2026-04-26T07:43:27.981Z</time></trkpt><trkpt lat="45.135802922314866" lon="9.511837793337982"><ele>47.0</ele><time>2026-04-26T07:43:29.981Z</time></trkpt><trkpt lat="45.13586108404636" lon="9.511713908959251"><ele>47.0</ele><time>2026-04-26T07:43:31.981Z</time></trkpt><trkpt lat="45.135919605006606" lon="9.511586711101263"><ele>47.0</ele><time>2026-04-26T07:43:33.981Z</time></trkpt><trkpt lat="45.13597909584955" lon="9.511461497111725"><ele>47.0</ele><time>2026-04-26T07:43:35.981Z</time></trkpt><trkpt lat="45.13603447544508" lon="9.511333433453622"><ele>47.0</ele><time>2026-04-26T07:43:37.981Z</time></trkpt><trkpt lat="45.13608835072856" lon="9.51120795352944"><ele>47.0</ele><time>2026-04-26T07:43:39.981Z</time></trkpt><trkpt lat="45.13614223678218" lon="9.511077632577056"><ele>47.0</ele><time>2026-04-26T07:43:41.981Z</time></trkpt><trkpt lat="45.13618943706519" lon="9.510934884440791"><ele>47.0</ele><time>2026-04-26T07:43:43.981Z</time></trkpt><trkpt lat="45.13624463157071" lon="9.51079868194486"><ele>47.0</ele><time>2026-04-26T07:43:45.98Z</time></trkpt><trkpt lat="45.13629505840999" lon="9.510665110036147"><ele>47.0</ele><time>2026-04-26T07:43:47.98Z</time></trkpt><trkpt lat="45.136346939596244" lon="9.510530153550132"><ele>47.0</ele><time>2026-04-26T07:43:49.98Z</time></trkpt><trkpt lat="45.13639784992597" lon="9.510414333559229"><ele>47.0</ele><time>2026-04-26T07:43:51.98Z</time></trkpt><trkpt lat="45.136449554221315" lon="9.510283374389372"><ele>47.0</ele><time>2026-04-26T07:43:53.98Z</time></trkpt><trkpt lat="45.136500840285656" lon="9.51015946535225"><ele>47.0</ele><time>2026-04-26T07:43:55.98Z</time></trkpt><trkpt lat="45.13654831587786" lon="9.510031099548815"><ele>47.0</ele><time>2026-04-26T07:43:57.98Z</time></trkpt><trkpt lat="45.1365971889363" lon="9.509899463396836"><ele>47.0</ele><time>2026-04-26T07:43:59.98Z</time></trkpt><trkpt lat="45.136650758088415" lon="9.509777698575034"><ele>47.2</ele><time>2026-04-26T07:44:01.98Z</time></trkpt><trkpt lat="45.136701374875656" lon="9.509640950097722"><ele>47.400000000000006</ele><time>2026-04-26T07:44:03.98Z</time></trkpt><trkpt lat="45.136747404588114" lon="9.509510655457767"><ele>47.599999999999994</ele><time>2026-04-26T07:44:05.98Z</time></trkpt><trkpt lat="45.13677337520874" lon="9.509387195506111"><ele>47.8</ele><time>2026-04-26T07:44:07.98Z</time></trkpt><trkpt lat="45.136809079627014" lon="9.509232707816233"><ele>48.0</ele><time>2026-04-26T07:44:09.98Z</time></trkpt><trkpt lat="45.13682658286395" lon="9.50908648831649"><ele>48.0</ele><time>2026-04-26T07:44:11.98Z</time></trkpt><trkpt lat="45.13684716620117" lon="9.508934204819413"><ele>48.0</ele><time>2026-04-26T07:44:13.98Z</time></trkpt><trkpt lat="45.13685544065723" lon="9.50878703427415"><ele>48.0</ele><time>2026-04-26T07:44:15.98Z</time></trkpt><trkpt lat="45.136867157851164" lon="9.508630114766463"><ele>48.0</ele><time>2026-04-26T07:44:17.98Z</time></trkpt><trkpt lat="45.13689118745165" lon="9.50847054327026"><ele>48.0</ele><time>2026-04-26T07:44:19.98Z</time></trkpt><trkpt lat="45.13690907117093" lon="9.508308986835662"><ele>48.0</ele><time>2026-04-26T07:44:21.98Z</time></trkpt><trkpt lat="45.13691919396314" lon="9.508156524801628"><ele>48.0</ele><time>2026-04-26T07:44:23.98Z</time></trkpt><trkpt lat="45.136930381576335" lon="9.508001723710338"><ele>48.0</ele><time>2026-04-26T07:44:25.98Z</time></trkpt><trkpt lat="45.136938621715636" lon="9.5078521995839"><ele>48.0</ele><time>2026-04-26T07:44:27.98Z</time></trkpt><trkpt lat="45.136946674225186" lon="9.507712099214553"><ele>48.0</ele><time>2026-04-26T07:44:29.98Z</time></trkpt><trkpt lat="45.13694815033247" lon="9.507594762011351"><ele>48.0</ele><time>2026-04-26T07:44:31.981Z</time></trkpt><trkpt lat="45.13695039263726" lon="9.507429251372145"><ele>48.0</ele><time>2026-04-26T07:44:33.981Z</time></trkpt><trkpt lat="45.13694813980134" lon="9.507278944761088"><ele>48.0</ele><time>2026-04-26T07:44:35.98Z</time></trkpt><trkpt lat="45.13693996862056" lon="9.507138339650206"><ele>48.0</ele><time>2026-04-26T07:44:37.98Z</time></trkpt><trkpt lat="45.136937931868374" lon="9.506983943407759"><ele>48.0</ele><time>2026-04-26T07:44:39.98Z</time></trkpt><trkpt lat="45.13693300801439" lon="9.506839254907986"><ele>48.0</ele><time>2026-04-26T07:44:41.98Z</time></trkpt><trkpt lat="45.13692933794717" lon="9.506695683667639"><ele>48.0</ele><time>2026-04-26T07:44:43.98Z</time></trkpt><trkpt lat="45.13693723438442" lon="9.506555623856235"><ele>48.0</ele><time>2026-04-26T07:44:45.98Z</time></trkpt><trkpt lat="45.136957449467296" lon="9.50640908553696"><ele>48.0</ele><time>2026-04-26T07:44:47.98Z</time></trkpt><trkpt lat="45.13698255063433" lon="9.506270710697233"><ele>48.0</ele><time>2026-04-26T07:44:49.98Z</time></trkpt><trkpt lat="45.13701682350648" lon="9.506137369270142"><ele>48.0</ele><time>2026-04-26T07:44:51.98Z</time></trkpt><trkpt lat="45.137043721719614" lon="9.506003925997595"><ele>48.0</ele><time>2026-04-26T07:44:53.98Z</time></trkpt><trkpt lat="45.13708122741623" lon="9.505872250235555"><ele>48.0</ele><time>2026-04-26T07:44:55.98Z</time></trkpt><trkpt lat="45.13711818063799" lon="9.505743675628095"><ele>48.0</ele><time>2026-04-26T07:44:57.98Z</time></trkpt><trkpt lat="45.13715265987764" lon="9.505618625252072"><ele>48.0</ele><time>2026-04-26T07:44:59.98Z</time></trkpt><trkpt lat="45.13718839713436" lon="9.505491433146085"><ele>48.2</ele><time>2026-04-26T07:45:01.98Z</time></trkpt><trkpt lat="45.13721918946843" lon="9.505368515154755"><ele>48.4</ele><time>2026-04-26T07:45:03.98Z</time></trkpt><trkpt lat="45.13725431274393" lon="9.50524633530437"><ele>48.6</ele><time>2026-04-26T07:45:05.98Z</time></trkpt><trkpt lat="45.13730127068396" lon="9.50512624341181"><ele>48.800000000000004</ele><time>2026-04-26T07:45:07.98Z</time></trkpt><trkpt lat="45.13736474788141" lon="9.505021286515941"><ele>49.0</ele><time>2026-04-26T07:45:09.98Z</time></trkpt><trkpt lat="45.13744094753606" lon="9.504950117754529"><ele>49.0</ele><time>2026-04-26T07:45:11.979Z</time></trkpt><trkpt lat="45.13750823697888" lon="9.504894578628022"><ele>49.0</ele><time>2026-04-26T07:45:13.979Z</time></trkpt><trkpt lat="45.137505573859315" lon="9.504754293958968"><ele>49.0</ele><time>2026-04-26T07:45:16.979Z</time></trkpt><trkpt lat="45.137534075039895" lon="9.504623031772425"><ele>49.0</ele><time>2026-04-26T07:45:18.979Z</time></trkpt><trkpt lat="45.13756595540204" lon="9.504485822640401"><ele>49.0</ele><time>2026-04-26T07:45:20.979Z</time></trkpt><trkpt lat="45.137595533239605" lon="9.50435723312635"><ele>48.800000000000004</ele><time>2026-04-26T07:45:22.979Z</time></trkpt><trkpt lat="45.13761465649625" lon="9.504220560054721"><ele>48.6</ele><time>2026-04-26T07:45:24.979Z</time></trkpt><trkpt lat="45.13763935636435" lon="9.5040911571"><ele>48.4</ele><time>2026-04-26T07:45:26.979Z</time></trkpt><trkpt lat="45.13765929776617" lon="9.503963841953738"><ele>48.2</ele><time>2026-04-26T07:45:28.979Z</time></trkpt><trkpt lat="45.13768022665246" lon="9.503831588464655"><ele>48.0</ele><time>2026-04-26T07:45:30.979Z</time></trkpt><trkpt lat="45.13770222309993" lon="9.50370812196819"><ele>48.0</ele><time>2026-04-26T07:45:32.979Z</time></trkpt><trkpt lat="45.13772579349483" lon="9.50357903644424"><ele>48.0</ele><time>2026-04-26T07:45:34.979Z</time></trkpt><trkpt lat="45.13775039820916" lon="9.503443532819773"><ele>48.0</ele><time>2026-04-26T07:45:36.979Z</time></trkpt><trkpt lat="45.13777273344241" lon="9.503314808833485"><ele>48.0</ele><time>2026-04-26T07:45:38.979Z</time></trkpt><trkpt lat="45.13779431006701" lon="9.503174238650876"><ele>48.0</ele><time>2026-04-26T07:45:40.979Z</time></trkpt><trkpt lat="45.13781376957125" lon="9.503038032715965"><ele>48.0</ele><time>2026-04-26T07:45:42.979Z</time></trkpt><trkpt lat="45.137836496830516" lon="9.502904615259746"><ele>48.0</ele><time>2026-04-26T07:45:44.979Z</time></trkpt><trkpt lat="45.137863926231226" lon="9.502775441178768"><ele>48.0</ele><time>2026-04-26T07:45:46.979Z</time></trkpt><trkpt lat="45.13789011840606" lon="9.502642723328089"><ele>48.0</ele><time>2026-04-26T07:45:48.979Z</time></trkpt><trkpt lat="45.137909001433506" lon="9.502514339397164"><ele>48.0</ele><time>2026-04-26T07:45:50.979Z</time></trkpt><trkpt lat="45.13793059056784" lon="9.502377105475624"><ele>48.0</ele><time>2026-04-26T07:45:52.979Z</time></trkpt><trkpt lat="45.13795305502186" lon="9.502248867599826"><ele>48.0</ele><time>2026-04-26T07:45:54.979Z</time></trkpt><trkpt lat="45.13796888730557" lon="9.502111812672993"><ele>48.0</ele><time>2026-04-26T07:45:56.979Z</time></trkpt><trkpt lat="45.13798113362014" lon="9.501978163785994"><ele>48.0</ele><time>2026-04-26T07:45:58.979Z</time></trkpt><trkpt lat="45.13799064016621" lon="9.50184726154811"><ele>48.0</ele><time>2026-04-26T07:46:00.979Z</time></trkpt><trkpt lat="45.13800060076327" lon="9.501720668837958"><ele>47.8</ele><time>2026-04-26T07:46:02.979Z</time></trkpt><trkpt lat="45.13801415150453" lon="9.501588837752928"><ele>47.599999999999994</ele><time>2026-04-26T07:46:04.979Z</time></trkpt><trkpt lat="45.138028380284304" lon="9.501460883223322"><ele>47.400000000000006</ele><time>2026-04-26T07:46:06.978Z</time></trkpt><trkpt lat="45.13804314094082" lon="9.501336279340123"><ele>47.2</ele><time>2026-04-26T07:46:08.978Z</time></trkpt><trkpt lat="45.138061507962064" lon="9.501205455914846"><ele>47.0</ele><time>2026-04-26T07:46:10.978Z</time></trkpt><trkpt lat="45.13808250571933" lon="9.501080041438234"><ele>47.0</ele><time>2026-04-26T07:46:12.978Z</time></trkpt><trkpt lat="45.13809979400107" lon="9.500945418729216"><ele>47.0</ele><time>2026-04-26T07:46:14.978Z</time></trkpt><trkpt lat="45.13811955644649" lon="9.500811311306018"><ele>47.0</ele><time>2026-04-26T07:46:16.978Z</time></trkpt><trkpt lat="45.13813671920734" lon="9.500682784265807"><ele>47.0</ele><time>2026-04-26T07:46:18.978Z</time></trkpt><trkpt lat="45.13815940970613" lon="9.50054787214341"><ele>47.0</ele><time>2026-04-26T07:46:20.978Z</time></trkpt><trkpt lat="45.138183956071465" lon="9.500414379087884"><ele>47.2</ele><time>2026-04-26T07:46:22.978Z</time></trkpt><trkpt lat="45.13820327371284" lon="9.500282462908745"><ele>47.400000000000006</ele><time>2026-04-26T07:46:24.978Z</time></trkpt><trkpt lat="45.138224995553365" lon="9.500150566132824"><ele>47.599999999999994</ele><time>2026-04-26T07:46:26.978Z</time></trkpt><trkpt lat="45.13824455201535" lon="9.500023404037133"><ele>47.8</ele><time>2026-04-26T07:46:28.978Z</time></trkpt><trkpt lat="45.13826302823337" lon="9.499895638598476"><ele>48.0</ele><time>2026-04-26T07:46:30.978Z</time></trkpt><trkpt lat="45.138280124064906" lon="9.499756822222153"><ele>48.0</ele><time>2026-04-26T07:46:32.978Z</time></trkpt><trkpt lat="45.138298400273" lon="9.499624451648083"><ele>48.0</ele><time>2026-04-26T07:46:34.979Z</time></trkpt><trkpt lat="45.138319002046245" lon="9.499489260346358"><ele>48.0</ele><time>2026-04-26T07:46:36.979Z</time></trkpt><trkpt lat="45.13833904409552" lon="9.499362001197634"><ele>48.0</ele><time>2026-04-26T07:46:38.979Z</time></trkpt><trkpt lat="45.13835765917448" lon="9.499237005258776"><ele>48.0</ele><time>2026-04-26T07:46:40.98Z</time></trkpt><trkpt lat="45.13837449045368" lon="9.499112869594596"><ele>48.0</ele><time>2026-04-26T07:46:42.979Z</time></trkpt><trkpt lat="45.13839170119859" lon="9.498985018875231"><ele>48.0</ele><time>2026-04-26T07:46:44.979Z</time></trkpt><trkpt lat="45.13840687218056" lon="9.498849977201775"><ele>48.0</ele><time>2026-04-26T07:46:46.979Z</time></trkpt><trkpt lat="45.138411751310485" lon="9.498715898954332"><ele>48.0</ele><time>2026-04-26T07:46:48.979Z</time></trkpt><trkpt lat="45.138416400717105" lon="9.49858326136355"><ele>48.0</ele><time>2026-04-26T07:46:50.979Z</time></trkpt><trkpt lat="45.138419976079476" lon="9.498461598609357"><ele>48.0</ele><time>2026-04-26T07:46:52.979Z</time></trkpt><trkpt lat="45.138416825700624" lon="9.498329476295241"><ele>48.0</ele><time>2026-04-26T07:46:54.979Z</time></trkpt><trkpt lat="45.13842008502577" lon="9.49821138895733"><ele>48.0</ele><time>2026-04-26T07:46:56.979Z</time></trkpt><trkpt lat="45.13842450622187" lon="9.498090113775651"><ele>48.0</ele><time>2026-04-26T07:46:58.979Z</time></trkpt><trkpt lat="45.138425790332974" lon="9.497960392491423"><ele>48.0</ele><time>2026-04-26T07:47:00.979Z</time></trkpt><trkpt lat="45.138428704037885" lon="9.497824539144437"><ele>48.2</ele><time>2026-04-26T07:47:02.979Z</time></trkpt><trkpt lat="45.13843304933677" lon="9.497700100089803"><ele>48.4</ele><time>2026-04-26T07:47:04.979Z</time></trkpt><trkpt lat="45.13843418807079" lon="9.497569647686365"><ele>48.6</ele><time>2026-04-26T07:47:06.979Z</time></trkpt><trkpt lat="45.13843746416626" lon="9.497444081901614"><ele>48.800000000000004</ele><time>2026-04-26T07:47:08.979Z</time></trkpt><trkpt lat="45.138440097746155" lon="9.49731581203837"><ele>49.0</ele><time>2026-04-26T07:47:10.979Z</time></trkpt><trkpt lat="45.13844405612451" lon="9.49718461496919"><ele>49.0</ele><time>2026-04-26T07:47:12.979Z</time></trkpt><trkpt lat="45.13844822572366" lon="9.497062411804787"><ele>49.0</ele><time>2026-04-26T07:47:14.979Z</time></trkpt><trkpt lat="45.13844203724898" lon="9.49693680906403"><ele>49.0</ele><time>2026-04-26T07:47:16.979Z</time></trkpt><trkpt lat="45.138431396032715" lon="9.496811501313918"><ele>49.0</ele><time>2026-04-26T07:47:18.979Z</time></trkpt><trkpt lat="45.13841706898891" lon="9.49668141692176"><ele>49.0</ele><time>2026-04-26T07:47:20.979Z</time></trkpt><trkpt lat="45.13839742383523" lon="9.496551883632481"><ele>49.0</ele><time>2026-04-26T07:47:22.979Z</time></trkpt><trkpt lat="45.13838065374901" lon="9.496425732019686"><ele>49.0</ele><time>2026-04-26T07:47:24.979Z</time></trkpt><trkpt lat="45.13836132718901" lon="9.496300446731814"><ele>49.0</ele><time>2026-04-26T07:47:26.979Z</time></trkpt><trkpt lat="45.138343543155116" lon="9.49617527372862"><ele>49.0</ele><time>2026-04-26T07:47:28.979Z</time></trkpt><trkpt lat="45.13832757909633" lon="9.496052537589291"><ele>49.0</ele><time>2026-04-26T07:47:30.978Z</time></trkpt><trkpt lat="45.1383050191782" lon="9.495924073703723"><ele>49.0</ele><time>2026-04-26T07:47:32.978Z</time></trkpt><trkpt lat="45.138296314506945" lon="9.495796611659685"><ele>49.0</ele><time>2026-04-26T07:47:34.978Z</time></trkpt><trkpt lat="45.138274609705796" lon="9.495667391773289"><ele>49.0</ele><time>2026-04-26T07:47:36.978Z</time></trkpt><trkpt lat="45.13825256497961" lon="9.495532893431289"><ele>49.0</ele><time>2026-04-26T07:47:38.978Z</time></trkpt><trkpt lat="45.13823562256156" lon="9.49540277556628"><ele>49.0</ele><time>2026-04-26T07:47:40.978Z</time></trkpt><trkpt lat="45.13821965768301" lon="9.495274847661609"><ele>48.99999999999999</ele><time>2026-04-26T07:47:42.978Z</time></trkpt><trkpt lat="45.138206591895226" lon="9.495152177837769"><ele>49.0</ele><time>2026-04-26T07:47:44.978Z</time></trkpt><trkpt lat="45.13819138713597" lon="9.495035714161839"><ele>49.0</ele><time>2026-04-26T07:47:46.978Z</time></trkpt><trkpt lat="45.138178247939635" lon="9.494923816274586"><ele>49.0</ele><time>2026-04-26T07:47:48.978Z</time></trkpt><trkpt lat="45.138161708746054" lon="9.49480735935411"><ele>48.99999999999999</ele><time>2026-04-26T07:47:50.978Z</time></trkpt><trkpt lat="45.138145102425796" lon="9.494688276151365"><ele>49.0</ele><time>2026-04-26T07:47:52.978Z</time></trkpt><trkpt lat="45.13812659592172" lon="9.494577403796374"><ele>49.166666666666664</ele><time>2026-04-26T07:47:54.978Z</time></trkpt><trkpt lat="45.13811212439496" lon="9.4944650759466"><ele>49.33333333333333</ele><time>2026-04-26T07:47:56.978Z</time></trkpt><trkpt lat="45.13809827678739" lon="9.494344512137198"><ele>49.5</ele><time>2026-04-26T07:47:58.978Z</time></trkpt><trkpt lat="45.13808564328477" lon="9.494236599703383"><ele>49.66666666666667</ele><time>2026-04-26T07:48:00.978Z</time></trkpt><trkpt lat="45.13806984712882" lon="9.494108235062647"><ele>49.833333333333336</ele><time>2026-04-26T07:48:02.978Z</time></trkpt><trkpt lat="45.138059945313096" lon="9.493993892343745"><ele>50.0</ele><time>2026-04-26T07:48:04.978Z</time></trkpt><trkpt lat="45.13804543484544" lon="9.493872605627377"><ele>50.00000000000001</ele><time>2026-04-26T07:48:06.978Z</time></trkpt><trkpt lat="45.13803222408934" lon="9.493758391550086"><ele>50.0</ele><time>2026-04-26T07:48:08.978Z</time></trkpt><trkpt lat="45.13801629931845" lon="9.493635794070912"><ele>50.0</ele><time>2026-04-26T07:48:10.978Z</time></trkpt><trkpt lat="45.13801311895691" lon="9.493525434862201"><ele>50.0</ele><time>2026-04-26T07:48:12.978Z</time></trkpt><trkpt lat="45.1380081558507" lon="9.493409619014463"><ele>50.00000000000001</ele><time>2026-04-26T07:48:14.978Z</time></trkpt><trkpt lat="45.13800868210504" lon="9.493304248174322"><ele>50.0</ele><time>2026-04-26T07:48:16.978Z</time></trkpt><trkpt lat="45.13800053493897" lon="9.493212895666812"><ele>49.833333333333336</ele><time>2026-04-26T07:48:18.978Z</time></trkpt><trkpt lat="45.137972419220716" lon="9.493101072825695"><ele>49.66666666666667</ele><time>2026-04-26T07:48:20.978Z</time></trkpt><trkpt lat="45.13792515184717" lon="9.493010346850815"><ele>49.5</ele><time>2026-04-26T07:48:22.978Z</time></trkpt><trkpt lat="45.137869288703186" lon="9.492907339116918"><ele>49.33333333333333</ele><time>2026-04-26T07:48:24.978Z</time></trkpt><trkpt lat="45.13782148754534" lon="9.492790808702697"><ele>49.166666666666664</ele><time>2026-04-26T07:48:26.977Z</time></trkpt><trkpt lat="45.137773093724114" lon="9.492683510133212"><ele>49.0</ele><time>2026-04-26T07:48:28.977Z</time></trkpt><trkpt lat="45.13772306365804" lon="9.492574022419332"><ele>48.800000000000004</ele><time>2026-04-26T07:48:30.977Z</time></trkpt><trkpt lat="45.137670723117054" lon="9.492465868195854"><ele>48.6</ele><time>2026-04-26T07:48:32.977Z</time></trkpt><trkpt lat="45.137622681019096" lon="9.492353758329644"><ele>48.4</ele><time>2026-04-26T07:48:34.977Z</time></trkpt><trkpt lat="45.13757448867641" lon="9.492240666373752"><ele>48.2</ele><time>2026-04-26T07:48:36.977Z</time></trkpt><trkpt lat="45.137529575495925" lon="9.492130500298176"><ele>48.0</ele><time>2026-04-26T07:48:38.977Z</time></trkpt><trkpt lat="45.13748434903508" lon="9.49201800431433"><ele>48.0</ele><time>2026-04-26T07:48:40.978Z</time></trkpt><trkpt lat="45.13744038197968" lon="9.49190990483155"><ele>48.0</ele><time>2026-04-26T07:48:42.978Z</time></trkpt><trkpt lat="45.13739464480969" lon="9.491800517200401"><ele>48.0</ele><time>2026-04-26T07:48:44.978Z</time></trkpt><trkpt lat="45.137350352011644" lon="9.491690848245959"><ele>48.0</ele><time>2026-04-26T07:48:46.978Z</time></trkpt><trkpt lat="45.137307749061634" lon="9.49158663524899"><ele>48.0</ele><time>2026-04-26T07:48:48.978Z</time></trkpt><trkpt lat="45.13726210912963" lon="9.491469755162084"><ele>48.0</ele><time>2026-04-26T07:48:50.978Z</time></trkpt><trkpt lat="45.137219721176024" lon="9.491365058867686"><ele>48.0</ele><time>2026-04-26T07:48:52.978Z</time></trkpt><trkpt lat="45.13717668252236" lon="9.491251545395292"><ele>48.0</ele><time>2026-04-26T07:48:54.978Z</time></trkpt><trkpt lat="45.13713344810708" lon="9.49113890119216"><ele>48.0</ele><time>2026-04-26T07:48:56.978Z</time></trkpt><trkpt lat="45.13709006841486" lon="9.49102357127854"><ele>48.0</ele><time>2026-04-26T07:48:58.978Z</time></trkpt><trkpt lat="45.13704686425147" lon="9.490910052284407"><ele>48.0</ele><time>2026-04-26T07:49:00.978Z</time></trkpt><trkpt lat="45.13700073752899" lon="9.490796969262359"><ele>48.0</ele><time>2026-04-26T07:49:02.978Z</time></trkpt><trkpt lat="45.13695897243927" lon="9.490683670495446"><ele>48.0</ele><time>2026-04-26T07:49:04.978Z</time></trkpt><trkpt lat="45.13691633527186" lon="9.490564671143218"><ele>48.0</ele><time>2026-04-26T07:49:06.978Z</time></trkpt><trkpt lat="45.136879821146835" lon="9.490469460529228"><ele>48.0</ele><time>2026-04-26T07:49:08.978Z</time></trkpt><trkpt lat="45.136838214028394" lon="9.490363893783407"><ele>48.0</ele><time>2026-04-26T07:49:10.978Z</time></trkpt><trkpt lat="45.13679314225412" lon="9.490239594973554"><ele>48.0</ele><time>2026-04-26T07:49:12.978Z</time></trkpt><trkpt lat="45.13675084176222" lon="9.490116082606999"><ele>48.0</ele><time>2026-04-26T07:49:14.978Z</time></trkpt><trkpt lat="45.13671457946846" lon="9.490002260285463"><ele>48.0</ele><time>2026-04-26T07:49:16.978Z</time></trkpt><trkpt lat="45.13667385499975" lon="9.489889993484983"><ele>48.0</ele><time>2026-04-26T07:49:18.978Z</time></trkpt><trkpt lat="45.13662962285791" lon="9.489777024525084"><ele>48.0</ele><time>2026-04-26T07:49:20.978Z</time></trkpt><trkpt lat="45.13658794428562" lon="9.489661119093"><ele>48.0</ele><time>2026-04-26T07:49:22.978Z</time></trkpt><trkpt lat="45.13655044721061" lon="9.489550110402488"><ele>48.0</ele><time>2026-04-26T07:49:24.978Z</time></trkpt><trkpt lat="45.13650863230362" lon="9.489434341936983"><ele>48.0</ele><time>2026-04-26T07:49:26.978Z</time></trkpt><trkpt lat="45.13646714594064" lon="9.489308755986213"><ele>48.0</ele><time>2026-04-26T07:49:28.978Z</time></trkpt><trkpt lat="45.13642242468578" lon="9.489190777861783"><ele>48.0</ele><time>2026-04-26T07:49:30.978Z</time></trkpt><trkpt lat="45.13637685468929" lon="9.489076738093466"><ele>48.0</ele><time>2026-04-26T07:49:32.978Z</time></trkpt><trkpt lat="45.13632862578633" lon="9.488962855340066"><ele>48.0</ele><time>2026-04-26T07:49:34.978Z</time></trkpt><trkpt lat="45.13625558337144" lon="9.488792820999603"><ele>48.0</ele><time>2026-04-26T07:49:37.978Z</time></trkpt><trkpt lat="45.136211696175494" lon="9.48867337321458"><ele>48.0</ele><time>2026-04-26T07:49:39.978Z</time></trkpt><trkpt lat="45.13617982124227" lon="9.488563824167088"><ele>48.0</ele><time>2026-04-26T07:49:41.978Z</time></trkpt><trkpt lat="45.13614487410975" lon="9.488456083058274"><ele>48.0</ele><time>2026-04-26T07:49:43.978Z</time></trkpt><trkpt lat="45.1361065133378" lon="9.48834603340611"><ele>48.0</ele><time>2026-04-26T07:49:45.977Z</time></trkpt><trkpt lat="45.13607865025029" lon="9.488233749888751"><ele>48.0</ele><time>2026-04-26T07:49:47.977Z</time></trkpt><trkpt lat="45.136060458419074" lon="9.488113555717918"><ele>48.0</ele><time>2026-04-26T07:49:49.977Z</time></trkpt><trkpt lat="45.13604776079458" lon="9.488006635317632"><ele>48.0</ele><time>2026-04-26T07:49:51.977Z</time></trkpt><trkpt lat="45.13603571057172" lon="9.487881589828158"><ele>48.0</ele><time>2026-04-26T07:49:53.977Z</time></trkpt><trkpt lat="45.136024903942975" lon="9.487747508375577"><ele>48.0</ele><time>2026-04-26T07:49:55.977Z</time></trkpt><trkpt lat="45.13601154076482" lon="9.487619371914727"><ele>48.0</ele><time>2026-04-26T07:49:57.977Z</time></trkpt><trkpt lat="45.13600448221561" lon="9.487492299883963"><ele>48.0</ele><time>2026-04-26T07:49:59.977Z</time></trkpt><trkpt lat="45.13599661289533" lon="9.48737063474796"><ele>48.2</ele><time>2026-04-26T07:50:01.977Z</time></trkpt><trkpt lat="45.135989099078834" lon="9.487236801692818"><ele>48.4</ele><time>2026-04-26T07:50:03.977Z</time></trkpt><trkpt lat="45.135973414735524" lon="9.487108818305327"><ele>48.6</ele><time>2026-04-26T07:50:05.977Z</time></trkpt><trkpt lat="45.13594203343901" lon="9.48697522077475"><ele>48.800000000000004</ele><time>2026-04-26T07:50:07.977Z</time></trkpt><trkpt lat="45.135902869299535" lon="9.486859314194795"><ele>49.0</ele><time>2026-04-26T07:50:09.977Z</time></trkpt><trkpt lat="45.13586208017916" lon="9.486743559405811"><ele>48.99999999999999</ele><time>2026-04-26T07:50:11.977Z</time></trkpt><trkpt lat="45.13582930933523" lon="9.486635748247975"><ele>49.0</ele><time>2026-04-26T07:50:13.977Z</time></trkpt><trkpt lat="45.13579391476146" lon="9.486518395866957"><ele>49.0</ele><time>2026-04-26T07:50:15.977Z</time></trkpt><trkpt lat="45.135756780843934" lon="9.486399024247898"><ele>49.0</ele><time>2026-04-26T07:50:17.977Z</time></trkpt><trkpt lat="45.135718534577606" lon="9.48628231526449"><ele>48.99999999999999</ele><time>2026-04-26T07:50:19.977Z</time></trkpt><trkpt lat="45.13568400362957" lon="9.486172225254718"><ele>49.0</ele><time>2026-04-26T07:50:21.977Z</time></trkpt><trkpt lat="45.1356538724242" lon="9.486052460033932"><ele>48.99999999999999</ele><time>2026-04-26T07:50:23.977Z</time></trkpt><trkpt lat="45.1356172658812" lon="9.485939910067584"><ele>49.0</ele><time>2026-04-26T07:50:25.977Z</time></trkpt><trkpt lat="45.1355833513537" lon="9.485835452744592"><ele>49.0</ele><time>2026-04-26T07:50:27.977Z</time></trkpt><trkpt lat="45.13554738299691" lon="9.485730046882406"><ele>49.0</ele><time>2026-04-26T07:50:29.977Z</time></trkpt><trkpt lat="45.13551622994041" lon="9.485621296445148"><ele>48.99999999999999</ele><time>2026-04-26T07:50:31.977Z</time></trkpt><trkpt lat="45.135486422343675" lon="9.485512350365774"><ele>49.0</ele><time>2026-04-26T07:50:33.977Z</time></trkpt><trkpt lat="45.13546272855113" lon="9.48540249644141"><ele>48.99999999999999</ele><time>2026-04-26T07:50:35.977Z</time></trkpt><trkpt lat="45.13543598037502" lon="9.485287996438142"><ele>49.0</ele><time>2026-04-26T07:50:37.977Z</time></trkpt><trkpt lat="45.135408973905484" lon="9.485186285446183"><ele>49.0</ele><time>2026-04-26T07:50:39.976Z</time></trkpt><trkpt lat="45.1353779023625" lon="9.48507148932237"><ele>49.0</ele><time>2026-04-26T07:50:41.976Z</time></trkpt><trkpt lat="45.135343709926104" lon="9.484948765090184"><ele>48.99999999999999</ele><time>2026-04-26T07:50:43.976Z</time></trkpt><trkpt lat="45.13531154950648" lon="9.484839748850858"><ele>49.0</ele><time>2026-04-26T07:50:45.976Z</time></trkpt><trkpt lat="45.13527881415045" lon="9.48472702517749"><ele>48.99999999999999</ele><time>2026-04-26T07:50:47.977Z</time></trkpt><trkpt lat="45.13524671690246" lon="9.484617317806636"><ele>49.0</ele><time>2026-04-26T07:50:49.976Z</time></trkpt><trkpt lat="45.13521631837243" lon="9.484498567695212"><ele>49.0</ele><time>2026-04-26T07:50:51.977Z</time></trkpt><trkpt lat="45.1351948679212" lon="9.484384936126222"><ele>49.0</ele><time>2026-04-26T07:50:53.977Z</time></trkpt><trkpt lat="45.13516847525732" lon="9.484274207403434"><ele>48.99999999999999</ele><time>2026-04-26T07:50:55.977Z</time></trkpt><trkpt lat="45.13510894001111" lon="9.484172164957439"><ele>49.0</ele><time>2026-04-26T07:50:57.976Z</time></trkpt><trkpt lat="45.13506066543233" lon="9.484087028632839"><ele>48.99999999999999</ele><time>2026-04-26T07:50:59.977Z</time></trkpt><trkpt lat="45.13500244361023" lon="9.484012454527017"><ele>49.0</ele><time>2026-04-26T07:51:01.977Z</time></trkpt><trkpt lat="45.13493917881233" lon="9.48391655911132"><ele>49.0</ele><time>2026-04-26T07:51:03.977Z</time></trkpt><trkpt lat="45.13487313517349" lon="9.483826076805872"><ele>49.0</ele><time>2026-04-26T07:51:05.977Z</time></trkpt><trkpt lat="45.134812125828844" lon="9.483740826546361"><ele>48.99999999999999</ele><time>2026-04-26T07:51:07.977Z</time></trkpt><trkpt lat="45.13474711774019" lon="9.483649913253565"><ele>49.0</ele><time>2026-04-26T07:51:09.977Z</time></trkpt><trkpt lat="45.134688344451426" lon="9.48355931387893"><ele>48.83333333333333</ele><time>2026-04-26T07:51:11.977Z</time></trkpt><trkpt lat="45.134635156673895" lon="9.48346547243479"><ele>48.666666666666664</ele><time>2026-04-26T07:51:13.977Z</time></trkpt><trkpt lat="45.1345934852428" lon="9.4833572305009"><ele>48.5</ele><time>2026-04-26T07:51:15.977Z</time></trkpt><trkpt lat="45.13456952292029" lon="9.483247942837878"><ele>48.33333333333333</ele><time>2026-04-26T07:51:17.977Z</time></trkpt><trkpt lat="45.13454202933366" lon="9.483131282454552"><ele>48.166666666666664</ele><time>2026-04-26T07:51:19.977Z</time></trkpt><trkpt lat="45.13451162824564" lon="9.483010949842837"><ele>48.0</ele><time>2026-04-26T07:51:21.977Z</time></trkpt><trkpt lat="45.13448770323513" lon="9.482894473673143"><ele>48.0</ele><time>2026-04-26T07:51:23.977Z</time></trkpt><trkpt lat="45.13446209704807" lon="9.482786013082336"><ele>48.0</ele><time>2026-04-26T07:51:25.977Z</time></trkpt><trkpt lat="45.134438146372034" lon="9.482682140899401"><ele>48.0</ele><time>2026-04-26T07:51:27.977Z</time></trkpt><trkpt lat="45.13440422035735" lon="9.482557335012192"><ele>48.0</ele><time>2026-04-26T07:51:29.977Z</time></trkpt><trkpt lat="45.134374981342056" lon="9.48243612705678"><ele>48.0</ele><time>2026-04-26T07:51:31.976Z</time></trkpt><trkpt lat="45.13434870096747" lon="9.482325306780579"><ele>48.0</ele><time>2026-04-26T07:51:33.976Z</time></trkpt><trkpt lat="45.13431562790714" lon="9.482197267966717"><ele>48.0</ele><time>2026-04-26T07:51:35.976Z</time></trkpt><trkpt lat="45.13428681859255" lon="9.482076014109634"><ele>48.0</ele><time>2026-04-26T07:51:37.976Z</time></trkpt><trkpt lat="45.134260462739014" lon="9.481955624863724"><ele>48.0</ele><time>2026-04-26T07:51:39.976Z</time></trkpt><trkpt lat="45.13423536949073" lon="9.481836654587402"><ele>48.0</ele><time>2026-04-26T07:51:41.976Z</time></trkpt><trkpt lat="45.1342193570924" lon="9.481744721490527"><ele>48.0</ele><time>2026-04-26T07:51:46.976Z</time></trkpt><trkpt lat="45.13418659922241" lon="9.481642885055354"><ele>48.0</ele><time>2026-04-26T07:52:05.976Z</time></trkpt><trkpt lat="45.13420402132139" lon="9.481526553666207"><ele>48.0</ele><time>2026-04-26T07:52:08.976Z</time></trkpt><trkpt lat="45.13425276372795" lon="9.481444679077843"><ele>48.0</ele><time>2026-04-26T07:52:10.976Z</time></trkpt><trkpt lat="45.13430034568401" lon="9.481367906228785"><ele>48.0</ele><time>2026-04-26T07:52:12.976Z</time></trkpt><trkpt lat="45.13434538444855" lon="9.481274715956824"><ele>48.0</ele><time>2026-04-26T07:52:14.976Z</time></trkpt><trkpt lat="45.134386995843435" lon="9.481182892982611"><ele>48.0</ele><time>2026-04-26T07:52:16.976Z</time></trkpt><trkpt lat="45.134430041643235" lon="9.481093614907357"><ele>48.0</ele><time>2026-04-26T07:52:18.976Z</time></trkpt><trkpt lat="45.13447133856221" lon="9.481006996548354"><ele>48.0</ele><time>2026-04-26T07:52:20.976Z</time></trkpt><trkpt lat="45.13451148757819" lon="9.480918763681606"><ele>48.0</ele><time>2026-04-26T07:52:22.976Z</time></trkpt><trkpt lat="45.13456114776465" lon="9.480814169641947"><ele>48.0</ele><time>2026-04-26T07:52:24.976Z</time></trkpt><trkpt lat="45.134604326126876" lon="9.480716467926626"><ele>48.0</ele><time>2026-04-26T07:52:26.975Z</time></trkpt><trkpt lat="45.13464705274143" lon="9.480620757581994"><ele>48.0</ele><time>2026-04-26T07:52:28.975Z</time></trkpt><trkpt lat="45.13469773359662" lon="9.480520348238434"><ele>48.0</ele><time>2026-04-26T07:52:30.975Z</time></trkpt><trkpt lat="45.13474248814519" lon="9.480426762715767"><ele>48.166666666666664</ele><time>2026-04-26T07:52:32.975Z</time></trkpt><trkpt lat="45.134792182781005" lon="9.480332247673896"><ele>48.33333333333333</ele><time>2026-04-26T07:52:34.975Z</time></trkpt><trkpt lat="45.134840066378025" lon="9.480247356454665"><ele>48.5</ele><time>2026-04-26T07:52:36.975Z</time></trkpt><trkpt lat="45.134884151236115" lon="9.480143297870617"><ele>48.666666666666664</ele><time>2026-04-26T07:52:38.975Z</time></trkpt><trkpt lat="45.1349207141193" lon="9.480043379646906"><ele>48.83333333333333</ele><time>2026-04-26T07:52:40.975Z</time></trkpt><trkpt lat="45.13495711339037" lon="9.479940238182328"><ele>49.0</ele><time>2026-04-26T07:52:42.975Z</time></trkpt><trkpt lat="45.13499741882905" lon="9.479832643121506"><ele>49.166666666666664</ele><time>2026-04-26T07:52:44.975Z</time></trkpt><trkpt lat="45.135032563115324" lon="9.479725457048602"><ele>49.33333333333333</ele><time>2026-04-26T07:52:46.975Z</time></trkpt><trkpt lat="45.13507724828391" lon="9.479624948271535"><ele>49.5</ele><time>2026-04-26T07:52:48.975Z</time></trkpt><trkpt lat="45.135121551004" lon="9.479527491515942"><ele>49.66666666666667</ele><time>2026-04-26T07:52:50.975Z</time></trkpt><trkpt lat="45.13516595624001" lon="9.479448504563528"><ele>49.833333333333336</ele><time>2026-04-26T07:52:52.975Z</time></trkpt><trkpt lat="45.135212424860676" lon="9.479358702733826"><ele>50.0</ele><time>2026-04-26T07:52:54.976Z</time></trkpt><trkpt lat="45.135263116351425" lon="9.479267723142678"><ele>50.00000000000001</ele><time>2026-04-26T07:52:56.976Z</time></trkpt><trkpt lat="45.13530816114938" lon="9.479183048641302"><ele>50.0</ele><time>2026-04-26T07:52:58.975Z</time></trkpt><trkpt lat="45.13534838963621" lon="9.47910376047548"><ele>50.0</ele><time>2026-04-26T07:53:00.976Z</time></trkpt><trkpt lat="45.135385430027775" lon="9.479031539736324"><ele>50.0</ele><time>2026-04-26T07:53:02.976Z</time></trkpt><trkpt lat="45.13543121479109" lon="9.478939945281791"><ele>50.0</ele><time>2026-04-26T07:53:04.975Z</time></trkpt><trkpt lat="45.13546439008451" lon="9.47884859478756"><ele>50.00000000000001</ele><time>2026-04-26T07:53:06.975Z</time></trkpt><trkpt lat="45.13545153572418" lon="9.4787471999404"><ele>50.0</ele><time>2026-04-26T07:53:09.975Z</time></trkpt><trkpt lat="45.13542255990519" lon="9.47865525529435"><ele>50.00000000000001</ele><time>2026-04-26T07:53:11.975Z</time></trkpt><trkpt lat="45.13537789129525" lon="9.478568870467756"><ele>50.0</ele><time>2026-04-26T07:53:13.975Z</time></trkpt><trkpt lat="45.135331570787834" lon="9.478481604995183"><ele>50.0</ele><time>2026-04-26T07:53:15.975Z</time></trkpt><trkpt lat="45.135281429621195" lon="9.478383208694641"><ele>50.0</ele><time>2026-04-26T07:53:17.975Z</time></trkpt><trkpt lat="45.13523095247446" lon="9.47830496740154"><ele>50.00000000000001</ele><time>2026-04-26T07:53:19.975Z</time></trkpt><trkpt lat="45.13516918711933" lon="9.478216621877714"><ele>50.0</ele><time>2026-04-26T07:53:21.975Z</time></trkpt><trkpt lat="45.135110560427734" lon="9.478141838452473"><ele>50.00000000000001</ele><time>2026-04-26T07:53:23.975Z</time></trkpt><trkpt lat="45.135053805158506" lon="9.478060217181753"><ele>50.0</ele><time>2026-04-26T07:53:25.975Z</time></trkpt><trkpt lat="45.13499440691258" lon="9.4779908885951"><ele>50.0</ele><time>2026-04-26T07:53:27.975Z</time></trkpt><trkpt lat="45.13494170862858" lon="9.477929625872342"><ele>50.0</ele><time>2026-04-26T07:53:29.975Z</time></trkpt><trkpt lat="45.13489047613492" lon="9.477849585650839"><ele>50.0</ele><time>2026-04-26T07:53:32.975Z</time></trkpt><trkpt lat="45.13495910981962" lon="9.477851187945602"><ele>50.00000000000001</ele><time>2026-04-26T07:53:46.975Z</time></trkpt><trkpt lat="45.135011596699634" lon="9.477922867520226"><ele>50.0</ele><time>2026-04-26T07:53:48.975Z</time></trkpt><trkpt lat="45.1350653903862" lon="9.477995381628142"><ele>50.00000000000001</ele><time>2026-04-26T07:53:50.975Z</time></trkpt><trkpt lat="45.13511836461735" lon="9.478065338732465"><ele>50.0</ele><time>2026-04-26T07:53:52.975Z</time></trkpt><trkpt lat="45.135176918064495" lon="9.478133937000871"><ele>50.0</ele><time>2026-04-26T07:53:54.975Z</time></trkpt><trkpt lat="45.135232434292526" lon="9.478205696074014"><ele>50.0</ele><time>2026-04-26T07:53:56.975Z</time></trkpt><trkpt lat="45.13529024625515" lon="9.478284395775429"><ele>50.00000000000001</ele><time>2026-04-26T07:53:58.975Z</time></trkpt><trkpt lat="45.13533730340599" lon="9.478377025597402"><ele>50.0</ele><time>2026-04-26T07:54:00.975Z</time></trkpt><trkpt lat="45.135392148853505" lon="9.47846501971491"><ele>50.0</ele><time>2026-04-26T07:54:02.974Z</time></trkpt><trkpt lat="45.13544698237397" lon="9.478565893559807"><ele>50.0</ele><time>2026-04-26T07:54:04.974Z</time></trkpt><trkpt lat="45.135498616576776" lon="9.478666049485492"><ele>50.0</ele><time>2026-04-26T07:54:06.974Z</time></trkpt><trkpt lat="45.135540399500286" lon="9.47876147009366"><ele>50.0</ele><time>2026-04-26T07:54:08.974Z</time></trkpt><trkpt lat="45.13558755804909" lon="9.478878671002041"><ele>50.0</ele><time>2026-04-26T07:54:10.974Z</time></trkpt><trkpt lat="45.13563994489688" lon="9.478996190691028"><ele>50.0</ele><time>2026-04-26T07:54:12.974Z</time></trkpt><trkpt lat="45.13568903363089" lon="9.479120899106466"><ele>50.0</ele><time>2026-04-26T07:54:14.974Z</time></trkpt><trkpt lat="45.13574102442514" lon="9.47923864427376"><ele>50.0</ele><time>2026-04-26T07:54:16.974Z</time></trkpt><trkpt lat="45.135800631597355" lon="9.479340897450191"><ele>50.0</ele><time>2026-04-26T07:54:18.974Z</time></trkpt><trkpt lat="45.13586255119245" lon="9.47944695064415"><ele>50.0</ele><time>2026-04-26T07:54:21.974Z</time></trkpt><trkpt lat="45.13591758655745" lon="9.479530460759783"><ele>50.00000000000001</ele><time>2026-04-26T07:54:23.974Z</time></trkpt><trkpt lat="45.13596930057791" lon="9.479590659714399"><ele>50.0</ele><time>2026-04-26T07:54:26.974Z</time></trkpt><trkpt lat="45.1360524058129" lon="9.479660438823506"><ele>50.0</ele><time>2026-04-26T07:54:30.974Z</time></trkpt><trkpt lat="45.13612616736862" lon="9.479732263573753"><ele>50.0</ele><time>2026-04-26T07:54:32.974Z</time></trkpt><trkpt lat="45.13621053563509" lon="9.47979827020912"><ele>50.00000000000001</ele><time>2026-04-26T07:54:34.974Z</time></trkpt><trkpt lat="45.13628960190799" lon="9.479874204792978"><ele>50.0</ele><time>2026-04-26T07:54:36.974Z</time></trkpt><trkpt lat="45.13637926839201" lon="9.479946695575396"><ele>50.0</ele><time>2026-04-26T07:54:38.974Z</time></trkpt><trkpt lat="45.13646501425551" lon="9.48001998288363"><ele>50.0</ele><time>2026-04-26T07:54:40.974Z</time></trkpt><trkpt lat="45.13654990294933" lon="9.480097906539068"><ele>50.0</ele><time>2026-04-26T07:54:42.974Z</time></trkpt><trkpt lat="45.13663547788667" lon="9.480173044508083"><ele>50.0</ele><time>2026-04-26T07:54:44.974Z</time></trkpt><trkpt lat="45.13671381757643" lon="9.480253784231492"><ele>50.0</ele><time>2026-04-26T07:54:46.974Z</time></trkpt><trkpt lat="45.13678515650686" lon="9.480331624690079"><ele>49.833333333333336</ele><time>2026-04-26T07:54:48.974Z</time></trkpt><trkpt lat="45.13685424148428" lon="9.48041669257074"><ele>49.66666666666667</ele><time>2026-04-26T07:54:50.974Z</time></trkpt><trkpt lat="45.13691626710106" lon="9.480507606690173"><ele>49.5</ele><time>2026-04-26T07:54:52.974Z</time></trkpt><trkpt lat="45.13697225301006" lon="9.480598544012071"><ele>49.33333333333333</ele><time>2026-04-26T07:54:54.974Z</time></trkpt><trkpt lat="45.137019901558745" lon="9.480680950368653"><ele>49.166666666666664</ele><time>2026-04-26T07:54:56.973Z</time></trkpt><trkpt lat="45.137055639748574" lon="9.480764159321115"><ele>49.0</ele><time>2026-04-26T07:54:58.974Z</time></trkpt><trkpt lat="45.137146419457984" lon="9.480753867039798"><ele>48.99999999999999</ele><time>2026-04-26T07:55:07.974Z</time></trkpt><trkpt lat="45.137208019880525" lon="9.480707037395486"><ele>49.0</ele><time>2026-04-26T07:55:09.973Z</time></trkpt><trkpt lat="45.137284093726485" lon="9.480658591779466"><ele>49.0</ele><time>2026-04-26T07:55:11.974Z</time></trkpt><trkpt lat="45.13736445366862" lon="9.480611781372982"><ele>49.0</ele><time>2026-04-26T07:55:13.974Z</time></trkpt><trkpt lat="45.137451112961294" lon="9.480569601177125"><ele>48.99999999999999</ele><time>2026-04-26T07:55:15.974Z</time></trkpt><trkpt lat="45.13753995752242" lon="9.480524276949646"><ele>49.0</ele><time>2026-04-26T07:55:17.974Z</time></trkpt><trkpt lat="45.137619217312015" lon="9.480473300214872"><ele>48.99999999999999</ele><time>2026-04-26T07:55:19.974Z</time></trkpt><trkpt lat="45.13770038097065" lon="9.480426376411065"><ele>49.0</ele><time>2026-04-26T07:55:21.974Z</time></trkpt><trkpt lat="45.13778334199749" lon="9.48037368856732"><ele>49.0</ele><time>2026-04-26T07:55:23.973Z</time></trkpt><trkpt lat="45.137866664792305" lon="9.480318990935528"><ele>49.0</ele><time>2026-04-26T07:55:25.973Z</time></trkpt><trkpt lat="45.13794795139753" lon="9.480265058666813"><ele>48.99999999999999</ele><time>2026-04-26T07:55:27.973Z</time></trkpt><trkpt lat="45.13802605986215" lon="9.480208262596689"><ele>49.0</ele><time>2026-04-26T07:55:29.973Z</time></trkpt><trkpt lat="45.13810227180908" lon="9.48014472439215"><ele>48.99999999999999</ele><time>2026-04-26T07:55:31.973Z</time></trkpt><trkpt lat="45.13817613120217" lon="9.480089468525492"><ele>49.0</ele><time>2026-04-26T07:55:33.973Z</time></trkpt><trkpt lat="45.13825120874527" lon="9.480043574359051"><ele>49.0</ele><time>2026-04-26T07:55:35.973Z</time></trkpt><trkpt lat="45.13832156927516" lon="9.47999487344493"><ele>49.0</ele><time>2026-04-26T07:55:37.973Z</time></trkpt><trkpt lat="45.13839134375267" lon="9.479939546495174"><ele>48.99999999999999</ele><time>2026-04-26T07:55:39.973Z</time></trkpt><trkpt lat="45.13845361319878" lon="9.479892498090315"><ele>49.0</ele><time>2026-04-26T07:55:41.973Z</time></trkpt><trkpt lat="45.138550744809066" lon="9.479895904978097"><ele>48.99999999999999</ele><time>2026-04-26T07:55:44.973Z</time></trkpt><trkpt lat="45.1386189447657" lon="9.479928678020237"><ele>49.0</ele><time>2026-04-26T07:55:46.973Z</time></trkpt><trkpt lat="45.13869813557829" lon="9.479960299073667"><ele>49.0</ele><time>2026-04-26T07:55:48.973Z</time></trkpt><trkpt lat="45.138775986661734" lon="9.479989672431207"><ele>49.0</ele><time>2026-04-26T07:55:50.973Z</time></trkpt><trkpt lat="45.1388582670614" lon="9.480029099840543"><ele>48.99999999999999</ele><time>2026-04-26T07:55:52.973Z</time></trkpt><trkpt lat="45.1389420508639" lon="9.480071128545953"><ele>49.0</ele><time>2026-04-26T07:55:54.973Z</time></trkpt><trkpt lat="45.139027635568546" lon="9.480104884986874"><ele>49.400000000000006</ele><time>2026-04-26T07:55:56.973Z</time></trkpt><trkpt lat="45.13911291475244" lon="9.480147921159643"><ele>49.8</ele><time>2026-04-26T07:55:58.973Z</time></trkpt><trkpt lat="45.13920468636978" lon="9.480187429126124"><ele>50.2</ele><time>2026-04-26T07:56:00.973Z</time></trkpt><trkpt lat="45.13929635122298" lon="9.480233665795918"><ele>50.599999999999994</ele><time>2026-04-26T07:56:02.973Z</time></trkpt><trkpt lat="45.13939137682266" lon="9.480284128481758"><ele>51.0</ele><time>2026-04-26T07:56:04.973Z</time></trkpt><trkpt lat="45.13948922955224" lon="9.480329933439437"><ele>51.0</ele><time>2026-04-26T07:56:06.973Z</time></trkpt><trkpt lat="45.139585885852334" lon="9.480372060382265"><ele>51.0</ele><time>2026-04-26T07:56:08.973Z</time></trkpt><trkpt lat="45.139684845900184" lon="9.480421237413205"><ele>51.0</ele><time>2026-04-26T07:56:10.973Z</time></trkpt><trkpt lat="45.13977545752209" lon="9.48046925360917"><ele>51.0</ele><time>2026-04-26T07:56:12.973Z</time></trkpt><trkpt lat="45.13988357181928" lon="9.48050523389003"><ele>51.0</ele><time>2026-04-26T07:56:14.973Z</time></trkpt><trkpt lat="45.139981872268" lon="9.480532225838173"><ele>50.599999999999994</ele><time>2026-04-26T07:56:16.973Z</time></trkpt><trkpt lat="45.14008273396919" lon="9.48055778127603"><ele>50.2</ele><time>2026-04-26T07:56:18.973Z</time></trkpt><trkpt lat="45.14018231679436" lon="9.480566670895305"><ele>49.8</ele><time>2026-04-26T07:56:20.972Z</time></trkpt><trkpt lat="45.1402874716252" lon="9.480563061422533"><ele>49.400000000000006</ele><time>2026-04-26T07:56:22.972Z</time></trkpt><trkpt lat="45.14038411630163" lon="9.4805445083921"><ele>49.0</ele><time>2026-04-26T07:56:24.972Z</time></trkpt><trkpt lat="45.14049283382169" lon="9.480534125974806"><ele>49.0</ele><time>2026-04-26T07:56:26.972Z</time></trkpt><trkpt lat="45.14058998732127" lon="9.480526247671525"><ele>49.0</ele><time>2026-04-26T07:56:28.972Z</time></trkpt><trkpt lat="45.140699350485676" lon="9.480521177090841"><ele>49.0</ele><time>2026-04-26T07:56:30.972Z</time></trkpt><trkpt lat="45.140802370844426" lon="9.480508565260186"><ele>49.0</ele><time>2026-04-26T07:56:32.972Z</time></trkpt><trkpt lat="45.140910859302934" lon="9.480496337301"><ele>49.0</ele><time>2026-04-26T07:56:34.972Z</time></trkpt><trkpt lat="45.14102458264508" lon="9.480506258550284"><ele>49.0</ele><time>2026-04-26T07:56:36.972Z</time></trkpt><trkpt lat="45.14113701355864" lon="9.4805153042913"><ele>49.0</ele><time>2026-04-26T07:56:38.972Z</time></trkpt><trkpt lat="45.14125178054549" lon="9.48052447557969"><ele>49.0</ele><time>2026-04-26T07:56:40.972Z</time></trkpt><trkpt lat="45.14136670819594" lon="9.480533848253692"><ele>49.0</ele><time>2026-04-26T07:56:42.972Z</time></trkpt><trkpt lat="45.14147272959639" lon="9.480553349672173"><ele>49.2</ele><time>2026-04-26T07:56:44.972Z</time></trkpt><trkpt lat="45.14158378056839" lon="9.480578328408477"><ele>49.400000000000006</ele><time>2026-04-26T07:56:46.973Z</time></trkpt><trkpt lat="45.14169566219556" lon="9.480601043300801"><ele>49.6</ele><time>2026-04-26T07:56:48.973Z</time></trkpt><trkpt lat="45.14180207875429" lon="9.48063099817463"><ele>49.8</ele><time>2026-04-26T07:56:50.973Z</time></trkpt><trkpt lat="45.14190731337081" lon="9.480659425632112"><ele>50.0</ele><time>2026-04-26T07:56:52.973Z</time></trkpt><trkpt lat="45.142010359156686" lon="9.48069185830055"><ele>50.0</ele><time>2026-04-26T07:56:54.973Z</time></trkpt><trkpt lat="45.142120509057406" lon="9.480724848403028"><ele>50.0</ele><time>2026-04-26T07:56:56.974Z</time></trkpt><trkpt lat="45.142227053481705" lon="9.480751581819593"><ele>50.0</ele><time>2026-04-26T07:56:58.974Z</time></trkpt><trkpt lat="45.14233077598163" lon="9.480784698235295"><ele>50.0</ele><time>2026-04-26T07:57:00.974Z</time></trkpt><trkpt lat="45.14244259491366" lon="9.480812266368902"><ele>50.0</ele><time>2026-04-26T07:57:02.974Z</time></trkpt><trkpt lat="45.1425481689409" lon="9.480845200444374"><ele>50.6</ele><time>2026-04-26T07:57:04.975Z</time></trkpt><trkpt lat="45.14265825763408" lon="9.480874630736299"><ele>51.2</ele><time>2026-04-26T07:57:06.975Z</time></trkpt><trkpt lat="45.14274918464601" lon="9.480890363672078"><ele>51.8</ele><time>2026-04-26T07:57:08.975Z</time></trkpt><trkpt lat="45.142836538466405" lon="9.480925018461413"><ele>52.4</ele><time>2026-04-26T07:57:10.974Z</time></trkpt><trkpt lat="45.14292953800727" lon="9.480948508394258"><ele>53.0</ele><time>2026-04-26T07:57:12.975Z</time></trkpt><trkpt lat="45.14303291470273" lon="9.48097507059823"><ele>53.0</ele><time>2026-04-26T07:57:14.975Z</time></trkpt><trkpt lat="45.14312846060034" lon="9.480978930189154"><ele>53.0</ele><time>2026-04-26T07:57:16.975Z</time></trkpt><trkpt lat="45.143225292574954" lon="9.480964168809955"><ele>53.0</ele><time>2026-04-26T07:57:18.975Z</time></trkpt><trkpt lat="45.14331266583672" lon="9.480921292487036"><ele>53.0</ele><time>2026-04-26T07:57:20.975Z</time></trkpt><trkpt lat="45.14338650046505" lon="9.480856134492505"><ele>53.0</ele><time>2026-04-26T07:57:22.975Z</time></trkpt><trkpt lat="45.14345243593084" lon="9.480762061754051"><ele>53.66666666666667</ele><time>2026-04-26T07:57:24.975Z</time></trkpt><trkpt lat="45.14350884654872" lon="9.480681040143054"><ele>54.333333333333336</ele><time>2026-04-26T07:57:26.975Z</time></trkpt><trkpt lat="45.143544738842344" lon="9.480602324172946"><ele>55.0</ele><time>2026-04-26T07:57:28.975Z</time></trkpt><trkpt lat="45.14360442582888" lon="9.480516384467487"><ele>55.66666666666667</ele><time>2026-04-26T07:57:30.975Z</time></trkpt><trkpt lat="45.14366182819434" lon="9.480437414855643"><ele>56.333333333333336</ele><time>2026-04-26T07:57:32.975Z</time></trkpt><trkpt lat="45.14370957147852" lon="9.480353146185825"><ele>57.0</ele><time>2026-04-26T07:57:34.975Z</time></trkpt><trkpt lat="45.14376438384566" lon="9.48027760546973"><ele>57.42857142857142</ele><time>2026-04-26T07:57:36.975Z</time></trkpt><trkpt lat="45.14380895282056" lon="9.480205218681432"><ele>57.85714285714285</ele><time>2026-04-26T07:57:38.975Z</time></trkpt><trkpt lat="45.14386727998368" lon="9.48014793961976"><ele>58.285714285714285</ele><time>2026-04-26T07:57:40.975Z</time></trkpt><trkpt lat="45.14393625099482" lon="9.480097303066625"><ele>58.71428571428571</ele><time>2026-04-26T07:57:42.975Z</time></trkpt><trkpt lat="45.14400362564482" lon="9.480091554936743"><ele>59.14285714285714</ele><time>2026-04-26T07:57:44.975Z</time></trkpt><trkpt lat="45.1440701191186" lon="9.480093866589336"><ele>59.57142857142857</ele><time>2026-04-26T07:57:46.975Z</time></trkpt><trkpt lat="45.14413681515293" lon="9.48010276109345"><ele>60.0</ele><time>2026-04-26T07:57:48.975Z</time></trkpt><trkpt lat="45.14422927391438" lon="9.480120525641581"><ele>60.28571428571429</ele><time>2026-04-26T07:57:51.975Z</time></trkpt><trkpt lat="45.1442971079216" lon="9.48012674886975"><ele>60.57142857142857</ele><time>2026-04-26T07:57:53.975Z</time></trkpt><trkpt lat="45.14436277106134" lon="9.48013700164848"><ele>60.85714285714286</ele><time>2026-04-26T07:57:55.975Z</time></trkpt><trkpt lat="45.14443191536011" lon="9.480153779162581"><ele>61.142857142857146</ele><time>2026-04-26T07:57:57.975Z</time></trkpt><trkpt lat="45.14449748741722" lon="9.48016807345123"><ele>61.42857142857143</ele><time>2026-04-26T07:57:59.975Z</time></trkpt><trkpt lat="45.1445617878192" lon="9.48017493269046"><ele>61.714285714285715</ele><time>2026-04-26T07:58:01.975Z</time></trkpt><trkpt lat="45.144623890614085" lon="9.480190784003156"><ele>62.0</ele><time>2026-04-26T07:58:03.975Z</time></trkpt><trkpt lat="45.14469230189871" lon="9.480206214061367"><ele>62.00000000000001</ele><time>2026-04-26T07:58:05.975Z</time></trkpt><trkpt lat="45.144777659477285" lon="9.480215720062256"><ele>62.0</ele><time>2026-04-26T07:58:08.975Z</time></trkpt><trkpt lat="45.14486792289257" lon="9.48022569513629"><ele>62.0</ele><time>2026-04-26T07:58:11.975Z</time></trkpt><trkpt lat="45.144934011236664" lon="9.480236757818824"><ele>62.0</ele><time>2026-04-26T07:58:13.974Z</time></trkpt><trkpt lat="45.14499506004414" lon="9.480258752052432"><ele>62.00000000000001</ele><time>2026-04-26T07:58:15.974Z</time></trkpt><trkpt lat="45.1450843123014" lon="9.480281079254192"><ele>62.0</ele><time>2026-04-26T07:58:18.974Z</time></trkpt><trkpt lat="45.14515139931583" lon="9.48029132595932"><ele>62.28571428571429</ele><time>2026-04-26T07:58:20.974Z</time></trkpt><trkpt lat="45.1452265859769" lon="9.480299238007753"><ele>62.57142857142858</ele><time>2026-04-26T07:58:22.974Z</time></trkpt><trkpt lat="45.1452962612192" lon="9.48031655353473"><ele>62.85714285714286</ele><time>2026-04-26T07:58:24.974Z</time></trkpt><trkpt lat="45.145373222018286" lon="9.480320725853677"><ele>63.14285714285714</ele><time>2026-04-26T07:58:26.974Z</time></trkpt><trkpt lat="45.145448467019435" lon="9.48030583488311"><ele>63.42857142857142</ele><time>2026-04-26T07:58:28.974Z</time></trkpt><trkpt lat="45.14551276702651" lon="9.48027551585031"><ele>63.71428571428571</ele><time>2026-04-26T07:58:30.974Z</time></trkpt><trkpt lat="45.145583370054126" lon="9.480234977845578"><ele>64.0</ele><time>2026-04-26T07:58:32.974Z</time></trkpt><trkpt lat="45.14565251300859" lon="9.48020158541735"><ele>63.99999999999999</ele><time>2026-04-26T07:58:34.974Z</time></trkpt><trkpt lat="45.145711260536004" lon="9.480153588535368"><ele>64.0</ele><time>2026-04-26T07:58:36.974Z</time></trkpt><trkpt lat="45.14578949167377" lon="9.480125270490031"><ele>64.0</ele><time>2026-04-26T07:58:38.974Z</time></trkpt><trkpt lat="45.14585963515014" lon="9.480068650846684"><ele>64.0</ele><time>2026-04-26T07:58:40.974Z</time></trkpt><trkpt lat="45.14592681719964" lon="9.480017811374722"><ele>63.99999999999999</ele><time>2026-04-26T07:58:42.974Z</time></trkpt><trkpt lat="45.14602288563636" lon="9.479990454446456"><ele>64.0</ele><time>2026-04-26T07:58:44.974Z</time></trkpt><trkpt lat="45.14610180182205" lon="9.479932440852487"><ele>64.2</ele><time>2026-04-26T07:58:46.974Z</time></trkpt><trkpt lat="45.14618643187191" lon="9.479875664590654"><ele>64.4</ele><time>2026-04-26T07:58:48.974Z</time></trkpt><trkpt lat="45.14627793673356" lon="9.479845438755374"><ele>64.6</ele><time>2026-04-26T07:58:50.974Z</time></trkpt><trkpt lat="45.146346118044285" lon="9.47980573500269"><ele>64.8</ele><time>2026-04-26T07:58:52.974Z</time></trkpt><trkpt lat="45.14644462697801" lon="9.479755095698508"><ele>65.0</ele><time>2026-04-26T07:58:54.974Z</time></trkpt><trkpt lat="45.146526132623094" lon="9.479700658522253"><ele>65.0</ele><time>2026-04-26T07:58:56.974Z</time></trkpt><trkpt lat="45.146616096414434" lon="9.479679376794921"><ele>65.0</ele><time>2026-04-26T07:58:58.974Z</time></trkpt><trkpt lat="45.146696270700744" lon="9.47963787565911"><ele>65.0</ele><time>2026-04-26T07:59:00.974Z</time></trkpt><trkpt lat="45.14675927320479" lon="9.479583123080662"><ele>65.0</ele><time>2026-04-26T07:59:02.974Z</time></trkpt><trkpt lat="45.14684842223522" lon="9.47954703820298"><ele>65.0</ele><time>2026-04-26T07:59:04.974Z</time></trkpt><trkpt lat="45.14692893171503" lon="9.479510299442847"><ele>65.0</ele><time>2026-04-26T07:59:06.974Z</time></trkpt><trkpt lat="45.14700699440848" lon="9.479446964295969"><ele>65.0</ele><time>2026-04-26T07:59:08.974Z</time></trkpt><trkpt lat="45.14710036382407" lon="9.479398217262162"><ele>65.0</ele><time>2026-04-26T07:59:10.974Z</time></trkpt><trkpt lat="45.14718361078328" lon="9.47934377614507"><ele>65.0</ele><time>2026-04-26T07:59:12.974Z</time></trkpt><trkpt lat="45.147253339690415" lon="9.479294358148268"><ele>65.0</ele><time>2026-04-26T07:59:14.974Z</time></trkpt><trkpt lat="45.14734097573106" lon="9.479252103081691"><ele>65.0</ele><time>2026-04-26T07:59:16.974Z</time></trkpt><trkpt lat="45.14741356094285" lon="9.479218422963264"><ele>65.0</ele><time>2026-04-26T07:59:19.974Z</time></trkpt><trkpt lat="45.14747472802556" lon="9.479161463059713"><ele>65.0</ele><time>2026-04-26T07:59:23.974Z</time></trkpt><trkpt lat="45.14746465786512" lon="9.47906409125705"><ele>65.0</ele><time>2026-04-26T07:59:26.974Z</time></trkpt><trkpt lat="45.14744405165654" lon="9.478944688634792"><ele>65.0</ele><time>2026-04-26T07:59:28.974Z</time></trkpt><trkpt lat="45.14740983893351" lon="9.478841138120274"><ele>65.0</ele><time>2026-04-26T07:59:30.974Z</time></trkpt><trkpt lat="45.147368150285935" lon="9.478741914845042"><ele>65.0</ele><time>2026-04-26T07:59:32.974Z</time></trkpt><trkpt lat="45.147332476734086" lon="9.478651054437572"><ele>65.0</ele><time>2026-04-26T07:59:34.974Z</time></trkpt><trkpt lat="45.14730139378246" lon="9.478559562037939"><ele>65.0</ele><time>2026-04-26T07:59:36.974Z</time></trkpt><trkpt lat="45.14728686305753" lon="9.478445979891392"><ele>65.0</ele><time>2026-04-26T07:59:38.974Z</time></trkpt><trkpt lat="45.147290617603225" lon="9.47833946680702"><ele>65.0</ele><time>2026-04-26T07:59:40.974Z</time></trkpt><trkpt lat="45.147363950371506" lon="9.478272469860658"><ele>65.0</ele><time>2026-04-26T07:59:43.974Z</time></trkpt><trkpt lat="45.14742898952249" lon="9.4781969929717"><ele>65.0</ele><time>2026-04-26T07:59:45.974Z</time></trkpt><trkpt lat="45.14749013237013" lon="9.47811341056311"><ele>65.0</ele><time>2026-04-26T07:59:47.974Z</time></trkpt><trkpt lat="45.14755289537639" lon="9.478022492345309"><ele>64.5</ele><time>2026-04-26T07:59:49.974Z</time></trkpt><trkpt lat="45.14760736892458" lon="9.477877334794906"><ele>64.0</ele><time>2026-04-26T07:59:51.974Z</time></trkpt><trkpt lat="45.14767450615785" lon="9.477723755994264"><ele>63.5</ele><time>2026-04-26T07:59:53.974Z</time></trkpt><trkpt lat="45.147776620496906" lon="9.477640609729349"><ele>63.0</ele><time>2026-04-26T07:59:55.974Z</time></trkpt><trkpt lat="45.14786533282535" lon="9.477537990780492"><ele>63.0</ele><time>2026-04-26T07:59:57.974Z</time></trkpt><trkpt lat="45.14791638939556" lon="9.477483175413305"><ele>63.0</ele><time>2026-04-26T07:59:58.974Z</time></trkpt><trkpt lat="45.14797717937243" lon="9.477393326333747"><ele>63.0</ele><time>2026-04-26T08:00:00.974Z</time></trkpt><trkpt lat="45.147977061573094" lon="9.477252943975621"><ele>63.0</ele><time>2026-04-26T08:00:02.974Z</time></trkpt><trkpt lat="45.147962576449146" lon="9.477133244261996"><ele>63.0</ele><time>2026-04-26T08:00:04.974Z</time></trkpt><trkpt lat="45.14794924739015" lon="9.476986928628799"><ele>63.0</ele><time>2026-04-26T08:00:06.974Z</time></trkpt><trkpt lat="45.14794715396493" lon="9.476828628314278"><ele>63.0</ele><time>2026-04-26T08:00:08.973Z</time></trkpt><trkpt lat="45.14794007545246" lon="9.476672215859663"><ele>63.0</ele><time>2026-04-26T08:00:10.973Z</time></trkpt><trkpt lat="45.14793493200044" lon="9.47653282454037"><ele>63.0</ele><time>2026-04-26T08:00:12.973Z</time></trkpt><trkpt lat="45.14792460333678" lon="9.47638407334611"><ele>63.0</ele><time>2026-04-26T08:00:14.973Z</time></trkpt><trkpt lat="45.14794608626799" lon="9.476240775261404"><ele>63.0</ele><time>2026-04-26T08:00:16.973Z</time></trkpt><trkpt lat="45.14799753386429" lon="9.47616139382885"><ele>62.599999999999994</ele><time>2026-04-26T08:00:18.973Z</time></trkpt><trkpt lat="45.14810631928947" lon="9.476131607926026"><ele>62.199999999999996</ele><time>2026-04-26T08:00:20.973Z</time></trkpt><trkpt lat="45.148204067843785" lon="9.476106717824017"><ele>61.8</ele><time>2026-04-26T08:00:22.973Z</time></trkpt><trkpt lat="45.1483098647745" lon="9.476067449269628"><ele>61.4</ele><time>2026-04-26T08:00:24.973Z</time></trkpt><trkpt lat="45.148424868831725" lon="9.47603954280025"><ele>61.0</ele><time>2026-04-26T08:00:26.973Z</time></trkpt><trkpt lat="45.14852830378771" lon="9.476013475489331"><ele>59.99999999999999</ele><time>2026-04-26T08:00:28.973Z</time></trkpt><trkpt lat="45.14862043721899" lon="9.475996998870215"><ele>59.0</ele><time>2026-04-26T08:00:30.973Z</time></trkpt><trkpt lat="45.14871387436159" lon="9.476003041981919"><ele>58.0</ele><time>2026-04-26T08:00:32.973Z</time></trkpt><trkpt lat="45.148774491234086" lon="9.476030988563544"><ele>57.0</ele><time>2026-04-26T08:00:33.973Z</time></trkpt><trkpt lat="45.14883696989575" lon="9.476043085063267"><ele>55.99999999999999</ele><time>2026-04-26T08:00:34.973Z</time></trkpt><trkpt lat="45.14895264684861" lon="9.476095330415951"><ele>55.0</ele><time>2026-04-26T08:00:36.973Z</time></trkpt><trkpt lat="45.149060797969675" lon="9.476151154146622"><ele>55.0</ele><time>2026-04-26T08:00:38.973Z</time></trkpt><trkpt lat="45.14916529795959" lon="9.476214554729303"><ele>55.0</ele><time>2026-04-26T08:00:40.973Z</time></trkpt><trkpt lat="45.14926763809891" lon="9.47628492731033"><ele>55.0</ele><time>2026-04-26T08:00:42.973Z</time></trkpt><trkpt lat="45.14937066577385" lon="9.476354992501852"><ele>55.0</ele><time>2026-04-26T08:00:44.973Z</time></trkpt><trkpt lat="45.14947096425371" lon="9.476428592720074"><ele>55.0</ele><time>2026-04-26T08:00:46.973Z</time></trkpt><trkpt lat="45.149569705831304" lon="9.476481556499452"><ele>55.0</ele><time>2026-04-26T08:00:48.973Z</time></trkpt><trkpt lat="45.149661156189055" lon="9.476531287607266"><ele>55.0</ele><time>2026-04-26T08:00:50.973Z</time></trkpt><trkpt lat="45.14974595013362" lon="9.47658187799718"><ele>55.0</ele><time>2026-04-26T08:00:52.973Z</time></trkpt><trkpt lat="45.14984056567433" lon="9.476618956909416"><ele>55.0</ele><time>2026-04-26T08:00:54.973Z</time></trkpt><trkpt lat="45.14993265487429" lon="9.476646064956627"><ele>55.0</ele><time>2026-04-26T08:00:56.973Z</time></trkpt><trkpt lat="45.15001995813438" lon="9.476692721576594"><ele>55.0</ele><time>2026-04-26T08:00:58.973Z</time></trkpt><trkpt lat="45.150115885375136" lon="9.476735332311383"><ele>55.0</ele><time>2026-04-26T08:01:00.973Z</time></trkpt><trkpt lat="45.150214918316784" lon="9.476767283759916"><ele>55.0</ele><time>2026-04-26T08:01:02.973Z</time></trkpt><trkpt lat="45.15032066289269" lon="9.476755410192439"><ele>55.0</ele><time>2026-04-26T08:01:04.973Z</time></trkpt><trkpt lat="45.15040714279839" lon="9.476660067325147"><ele>55.0</ele><time>2026-04-26T08:01:06.972Z</time></trkpt><trkpt lat="45.150488445900635" lon="9.476540082304998"><ele>55.0</ele><time>2026-04-26T08:01:08.972Z</time></trkpt><trkpt lat="45.15059598774842" lon="9.476466912887666"><ele>55.0</ele><time>2026-04-26T08:01:10.972Z</time></trkpt><trkpt lat="45.15071087448357" lon="9.476458711443446"><ele>55.0</ele><time>2026-04-26T08:01:12.972Z</time></trkpt><trkpt lat="45.15080602153749" lon="9.476496765807113"><ele>55.4</ele><time>2026-04-26T08:01:14.972Z</time></trkpt><trkpt lat="45.15089334353643" lon="9.476549182475896"><ele>55.8</ele><time>2026-04-26T08:01:16.973Z</time></trkpt><trkpt lat="45.15096914350963" lon="9.476595736126825"><ele>56.2</ele><time>2026-04-26T08:01:18.972Z</time></trkpt><trkpt lat="45.151055524705825" lon="9.476635027538515"><ele>56.6</ele><time>2026-04-26T08:01:21.973Z</time></trkpt><trkpt lat="45.15109095940894" lon="9.476775916328345"><ele>57.0</ele><time>2026-04-26T08:01:24.973Z</time></trkpt><trkpt lat="45.15110620100751" lon="9.476912926249481"><ele>57.0</ele><time>2026-04-26T08:01:26.973Z</time></trkpt><trkpt lat="45.151112588703235" lon="9.477072012878384"><ele>57.0</ele><time>2026-04-26T08:01:28.972Z</time></trkpt><trkpt lat="45.15108748595705" lon="9.477212188616104"><ele>57.0</ele><time>2026-04-26T08:01:30.973Z</time></trkpt><trkpt lat="45.15102542753997" lon="9.477323756051474"><ele>57.0</ele><time>2026-04-26T08:01:32.973Z</time></trkpt><trkpt lat="45.15093893302143" lon="9.477413759442177"><ele>57.0</ele><time>2026-04-26T08:01:34.973Z</time></trkpt><trkpt lat="45.1508377376782" lon="9.477438062401358"><ele>56.6</ele><time>2026-04-26T08:01:36.973Z</time></trkpt><trkpt lat="45.150756253956615" lon="9.477482080332104"><ele>56.2</ele><time>2026-04-26T08:01:38.973Z</time></trkpt><trkpt lat="45.15070522771247" lon="9.477598427359094"><ele>55.8</ele><time>2026-04-26T08:01:40.973Z</time></trkpt><trkpt lat="45.150669036613365" lon="9.477730967605735"><ele>55.4</ele><time>2026-04-26T08:01:42.973Z</time></trkpt><trkpt lat="45.1506386483998" lon="9.477869029893375"><ele>55.0</ele><time>2026-04-26T08:01:44.973Z</time></trkpt><trkpt lat="45.150607755921435" lon="9.478031130907803"><ele>54.8</ele><time>2026-04-26T08:01:46.973Z</time></trkpt><trkpt lat="45.15057285559813" lon="9.478186884358548"><ele>54.6</ele><time>2026-04-26T08:01:48.973Z</time></trkpt><trkpt lat="45.15053909604521" lon="9.47833693971307"><ele>54.400000000000006</ele><time>2026-04-26T08:01:50.973Z</time></trkpt><trkpt lat="45.150498141314486" lon="9.47847841678019"><ele>54.2</ele><time>2026-04-26T08:01:52.973Z</time></trkpt><trkpt lat="45.15045829938705" lon="9.478624850226534"><ele>54.0</ele><time>2026-04-26T08:01:54.972Z</time></trkpt><trkpt lat="45.150420926953686" lon="9.478765310879004"><ele>54.2</ele><time>2026-04-26T08:01:56.972Z</time></trkpt><trkpt lat="45.150389815494606" lon="9.478901194856807"><ele>54.400000000000006</ele><time>2026-04-26T08:01:58.972Z</time></trkpt><trkpt lat="45.15037725355844" lon="9.479036222592237"><ele>54.6</ele><time>2026-04-26T08:02:00.972Z</time></trkpt><trkpt lat="45.15040926385566" lon="9.479160901362752"><ele>54.8</ele><time>2026-04-26T08:02:02.972Z</time></trkpt><trkpt lat="45.150440387844945" lon="9.479268873072183"><ele>55.0</ele><time>2026-04-26T08:02:04.972Z</time></trkpt><trkpt lat="45.15048811647596" lon="9.479410265592584"><ele>55.0</ele><time>2026-04-26T08:02:06.972Z</time></trkpt><trkpt lat="45.150537106241885" lon="9.47957215830967"><ele>55.0</ele><time>2026-04-26T08:02:08.972Z</time></trkpt><trkpt lat="45.15055392062901" lon="9.479735335372894"><ele>55.0</ele><time>2026-04-26T08:02:10.972Z</time></trkpt><trkpt lat="45.150519631683224" lon="9.479886932417005"><ele>55.0</ele><time>2026-04-26T08:02:12.972Z</time></trkpt><trkpt lat="45.15049566837392" lon="9.480032296685613"><ele>55.6</ele><time>2026-04-26T08:02:14.972Z</time></trkpt><trkpt lat="45.15047989634602" lon="9.480187360207069"><ele>56.2</ele><time>2026-04-26T08:02:16.972Z</time></trkpt><trkpt lat="45.15046391306876" lon="9.480341503106851"><ele>56.8</ele><time>2026-04-26T08:02:18.972Z</time></trkpt><trkpt lat="45.15044809826877" lon="9.480489801727895"><ele>57.4</ele><time>2026-04-26T08:02:20.972Z</time></trkpt><trkpt lat="45.150441056622036" lon="9.48064058115336"><ele>58.0</ele><time>2026-04-26T08:02:22.972Z</time></trkpt><trkpt lat="45.15042881123532" lon="9.480791237159128"><ele>58.0</ele><time>2026-04-26T08:02:24.972Z</time></trkpt><trkpt lat="45.150420696265364" lon="9.480942040666557"><ele>58.0</ele><time>2026-04-26T08:02:26.972Z</time></trkpt><trkpt lat="45.150403969539134" lon="9.481092838950653"><ele>58.0</ele><time>2026-04-26T08:02:28.972Z</time></trkpt><trkpt lat="45.150389972374" lon="9.481252939945923"><ele>58.0</ele><time>2026-04-26T08:02:30.972Z</time></trkpt><trkpt lat="45.1503593722712" lon="9.48139772182729"><ele>58.0</ele><time>2026-04-26T08:02:32.972Z</time></trkpt><trkpt lat="45.15035730815838" lon="9.481561895073641"><ele>57.8</ele><time>2026-04-26T08:02:34.972Z</time></trkpt><trkpt lat="45.15032457758925" lon="9.48171520593062"><ele>57.599999999999994</ele><time>2026-04-26T08:02:36.972Z</time></trkpt><trkpt lat="45.15031221709748" lon="9.48186600561951"><ele>57.400000000000006</ele><time>2026-04-26T08:02:38.972Z</time></trkpt><trkpt lat="45.15031515935616" lon="9.482023960827318"><ele>57.2</ele><time>2026-04-26T08:02:40.972Z</time></trkpt><trkpt lat="45.15030621920914" lon="9.48218138356313"><ele>57.0</ele><time>2026-04-26T08:02:42.972Z</time></trkpt><trkpt lat="45.15031450859444" lon="9.482337956082002"><ele>57.0</ele><time>2026-04-26T08:02:44.972Z</time></trkpt><trkpt lat="45.15030809088643" lon="9.482492188964937"><ele>57.0</ele><time>2026-04-26T08:02:46.972Z</time></trkpt><trkpt lat="45.15030896550182" lon="9.48263411181752"><ele>57.0</ele><time>2026-04-26T08:02:48.972Z</time></trkpt><trkpt lat="45.15030398812921" lon="9.482768303179398"><ele>57.0</ele><time>2026-04-26T08:02:50.972Z</time></trkpt><trkpt lat="45.150296782875024" lon="9.482929637004672"><ele>57.0</ele><time>2026-04-26T08:02:52.971Z</time></trkpt><trkpt lat="45.15028936837576" lon="9.483093368521605"><ele>57.0</ele><time>2026-04-26T08:02:54.971Z</time></trkpt><trkpt lat="45.15029419503959" lon="9.483242756479838"><ele>57.0</ele><time>2026-04-26T08:02:56.971Z</time></trkpt><trkpt lat="45.15032731715044" lon="9.483388277412924"><ele>57.0</ele><time>2026-04-26T08:02:58.971Z</time></trkpt><trkpt lat="45.1503737046977" lon="9.483523296534633"><ele>57.0</ele><time>2026-04-26T08:03:00.971Z</time></trkpt><trkpt lat="45.15042084434319" lon="9.483654380830576"><ele>57.0</ele><time>2026-04-26T08:03:02.971Z</time></trkpt><trkpt lat="45.15045708338563" lon="9.483797369159191"><ele>57.400000000000006</ele><time>2026-04-26T08:03:04.971Z</time></trkpt><trkpt lat="45.15047365011959" lon="9.483958106207977"><ele>57.800000000000004</ele><time>2026-04-26T08:03:06.971Z</time></trkpt><trkpt lat="45.15049559247919" lon="9.484122535582161"><ele>58.2</ele><time>2026-04-26T08:03:08.971Z</time></trkpt><trkpt lat="45.1505165142976" lon="9.48426341590571"><ele>58.6</ele><time>2026-04-26T08:03:10.971Z</time></trkpt><trkpt lat="45.150553304112606" lon="9.48439428412811"><ele>59.0</ele><time>2026-04-26T08:03:12.971Z</time></trkpt><trkpt lat="45.1506058149486" lon="9.484512414318385"><ele>59.75</ele><time>2026-04-26T08:03:14.971Z</time></trkpt><trkpt lat="45.15066584927749" lon="9.484643907309888"><ele>60.5</ele><time>2026-04-26T08:03:16.971Z</time></trkpt><trkpt lat="45.15072681158079" lon="9.48478527251686"><ele>61.25</ele><time>2026-04-26T08:03:18.971Z</time></trkpt><trkpt lat="45.15078890262195" lon="9.484933239920066"><ele>62.0</ele><time>2026-04-26T08:03:20.971Z</time></trkpt><trkpt lat="45.15083984803788" lon="9.48509110236622"><ele>60.75</ele><time>2026-04-26T08:03:22.972Z</time></trkpt><trkpt lat="45.15089012910413" lon="9.485243041377506"><ele>59.5</ele><time>2026-04-26T08:03:24.972Z</time></trkpt><trkpt lat="45.1509404379603" lon="9.485392972087826"><ele>58.25</ele><time>2026-04-26T08:03:26.971Z</time></trkpt><trkpt lat="45.150985406770786" lon="9.485546679997004"><ele>57.0</ele><time>2026-04-26T08:03:28.972Z</time></trkpt><trkpt lat="45.15102134147192" lon="9.485694290483652"><ele>57.0</ele><time>2026-04-26T08:03:30.972Z</time></trkpt><trkpt lat="45.15106619348227" lon="9.485825875526293"><ele>57.0</ele><time>2026-04-26T08:03:32.971Z</time></trkpt><trkpt lat="45.15112647860955" lon="9.485958361673317"><ele>57.0</ele><time>2026-04-26T08:03:34.971Z</time></trkpt><trkpt lat="45.151201724431054" lon="9.486071278282376"><ele>57.0</ele><time>2026-04-26T08:03:36.971Z</time></trkpt><trkpt lat="45.151291702803924" lon="9.486194617434407"><ele>57.0</ele><time>2026-04-26T08:03:38.971Z</time></trkpt><trkpt lat="45.15137469943628" lon="9.486311521022053"><ele>57.8</ele><time>2026-04-26T08:03:40.971Z</time></trkpt><trkpt lat="45.15144021814754" lon="9.486447333746446"><ele>58.6</ele><time>2026-04-26T08:03:42.971Z</time></trkpt><trkpt lat="45.15151276509481" lon="9.486563189794603"><ele>59.39999999999999</ele><time>2026-04-26T08:03:44.971Z</time></trkpt><trkpt lat="45.15158559786259" lon="9.486693092628084"><ele>60.199999999999996</ele><time>2026-04-26T08:03:46.971Z</time></trkpt><trkpt lat="45.15165335941969" lon="9.486792418917837"><ele>61.0</ele><time>2026-04-26T08:03:48.971Z</time></trkpt><trkpt lat="45.151744153187096" lon="9.486855270344636"><ele>60.599999999999994</ele><time>2026-04-26T08:03:50.971Z</time></trkpt><trkpt lat="45.151836652595094" lon="9.48694893407877"><ele>60.199999999999996</ele><time>2026-04-26T08:03:52.971Z</time></trkpt><trkpt lat="45.15193171659409" lon="9.487036182633233"><ele>59.800000000000004</ele><time>2026-04-26T08:03:54.971Z</time></trkpt><trkpt lat="45.15203511497818" lon="9.487093701423913"><ele>59.400000000000006</ele><time>2026-04-26T08:03:56.971Z</time></trkpt><trkpt lat="45.15214354048935" lon="9.487126451672534"><ele>59.0</ele><time>2026-04-26T08:03:58.971Z</time></trkpt><trkpt lat="45.152206985076354" lon="9.487135227692782"><ele>59.0</ele><time>2026-04-26T08:03:59.971Z</time></trkpt><trkpt lat="45.152327848553035" lon="9.487150039393"><ele>59.0</ele><time>2026-04-26T08:04:01.971Z</time></trkpt><trkpt lat="45.15243834618545" lon="9.487172762740341"><ele>59.0</ele><time>2026-04-26T08:04:03.971Z</time></trkpt><trkpt lat="45.15254857751158" lon="9.487194935936714"><ele>59.0</ele><time>2026-04-26T08:04:05.971Z</time></trkpt><trkpt lat="45.152653032916916" lon="9.487171030391924"><ele>58.2</ele><time>2026-04-26T08:04:07.971Z</time></trkpt><trkpt lat="45.152748659500915" lon="9.487120876529781"><ele>57.400000000000006</ele><time>2026-04-26T08:04:09.971Z</time></trkpt><trkpt lat="45.15284636228205" lon="9.487084264039618"><ele>56.6</ele><time>2026-04-26T08:04:11.971Z</time></trkpt><trkpt lat="45.15294215181955" lon="9.48706603394378"><ele>55.8</ele><time>2026-04-26T08:04:13.971Z</time></trkpt><trkpt lat="45.153034936965526" lon="9.487095219243036"><ele>55.0</ele><time>2026-04-26T08:04:15.97Z</time></trkpt><trkpt lat="45.15311355555059" lon="9.48714535242901"><ele>55.0</ele><time>2026-04-26T08:04:17.97Z</time></trkpt><trkpt lat="45.153199659488095" lon="9.487179386906346"><ele>55.0</ele><time>2026-04-26T08:04:19.97Z</time></trkpt><trkpt lat="45.15328050024591" lon="9.487213991222768"><ele>55.0</ele><time>2026-04-26T08:04:21.97Z</time></trkpt><trkpt lat="45.153359530712926" lon="9.487260599364934"><ele>55.0</ele><time>2026-04-26T08:04:23.97Z</time></trkpt><trkpt lat="45.15346370328254" lon="9.487288900989116"><ele>55.0</ele><time>2026-04-26T08:04:25.97Z</time></trkpt><trkpt lat="45.15355283508617" lon="9.487328945383902"><ele>54.8</ele><time>2026-04-26T08:04:27.97Z</time></trkpt><trkpt lat="45.15364200655561" lon="9.487351902028442"><ele>54.6</ele><time>2026-04-26T08:04:29.97Z</time></trkpt><trkpt lat="45.153741184187375" lon="9.48740042459348"><ele>54.400000000000006</ele><time>2026-04-26T08:04:31.97Z</time></trkpt><trkpt lat="45.15384188326744" lon="9.487453815912893"><ele>54.2</ele><time>2026-04-26T08:04:33.97Z</time></trkpt><trkpt lat="45.15390900664719" lon="9.487553246483456"><ele>54.0</ele><time>2026-04-26T08:04:35.97Z</time></trkpt><trkpt lat="45.15395346926226" lon="9.487686824660186"><ele>54.0</ele><time>2026-04-26T08:04:37.97Z</time></trkpt><trkpt lat="45.153981491068414" lon="9.487818239566796"><ele>54.00000000000001</ele><time>2026-04-26T08:04:39.97Z</time></trkpt><trkpt lat="45.15401736213866" lon="9.487949600147324"><ele>54.00000000000001</ele><time>2026-04-26T08:04:41.97Z</time></trkpt><trkpt lat="45.15403826847013" lon="9.488090683528634"><ele>54.0</ele><time>2026-04-26T08:04:43.97Z</time></trkpt><trkpt lat="45.15405136385773" lon="9.488237856145487"><ele>54.0</ele><time>2026-04-26T08:04:45.97Z</time></trkpt><trkpt lat="45.15404516712164" lon="9.488380867496897"><ele>54.2</ele><time>2026-04-26T08:04:47.97Z</time></trkpt><trkpt lat="45.15403354025035" lon="9.488518483172756"><ele>54.400000000000006</ele><time>2026-04-26T08:04:49.97Z</time></trkpt><trkpt lat="45.15402577580167" lon="9.488655184280239"><ele>54.6</ele><time>2026-04-26T08:04:51.97Z</time></trkpt><trkpt lat="45.15402177457087" lon="9.488792335483724"><ele>54.8</ele><time>2026-04-26T08:04:53.97Z</time></trkpt><trkpt lat="45.154011696092596" lon="9.488928628153147"><ele>55.0</ele><time>2026-04-26T08:04:55.97Z</time></trkpt><trkpt lat="45.15399600483984" lon="9.489056907913117"><ele>55.83333333333333</ele><time>2026-04-26T08:04:57.97Z</time></trkpt><trkpt lat="45.153947294814095" lon="9.489186295768413"><ele>56.666666666666664</ele><time>2026-04-26T08:04:59.97Z</time></trkpt><trkpt lat="45.153901564860604" lon="9.489298961716546"><ele>57.5</ele><time>2026-04-26T08:05:01.97Z</time></trkpt><trkpt lat="45.1538479723784" lon="9.489359161062106"><ele>58.33333333333333</ele><time>2026-04-26T08:05:03.97Z</time></trkpt><trkpt lat="45.153774711253455" lon="9.489296919685193"><ele>59.166666666666664</ele><time>2026-04-26T08:05:06.97Z</time></trkpt><trkpt lat="45.15372179898281" lon="9.489228268788354"><ele>60.0</ele><time>2026-04-26T08:05:08.97Z</time></trkpt><trkpt lat="45.153659234659514" lon="9.489174743087412"><ele>60.0</ele><time>2026-04-26T08:05:10.97Z</time></trkpt><trkpt lat="45.1535918982762" lon="9.489104556064682"><ele>60.0</ele><time>2026-04-26T08:05:13.969Z</time></trkpt><trkpt lat="45.153535144777805" lon="9.489059648894777"><ele>60.0</ele><time>2026-04-26T08:05:16.969Z</time></trkpt><trkpt lat="45.15347488157823" lon="9.48902319999777"><ele>60.0</ele><time>2026-04-26T08:05:18.969Z</time></trkpt><trkpt lat="45.15340620023305" lon="9.48895245944303"><ele>60.0</ele><time>2026-04-26T08:05:20.969Z</time></trkpt><trkpt lat="45.153346851731946" lon="9.48889252681814"><ele>60.0</ele><time>2026-04-26T08:05:22.969Z</time></trkpt><trkpt lat="45.15326121165256" lon="9.48883656853971"><ele>59.5</ele><time>2026-04-26T08:05:25.969Z</time></trkpt><trkpt lat="45.15318449912531" lon="9.488828465301038"><ele>59.0</ele><time>2026-04-26T08:05:27.969Z</time></trkpt><trkpt lat="45.15311349407059" lon="9.488788403770162"><ele>58.5</ele><time>2026-04-26T08:05:29.97Z</time></trkpt><trkpt lat="45.153044444120944" lon="9.488754407029703"><ele>58.0</ele><time>2026-04-26T08:05:31.971Z</time></trkpt><trkpt lat="45.15297201534104" lon="9.488788440199102"><ele>57.5</ele><time>2026-04-26T08:05:33.97Z</time></trkpt><trkpt lat="45.15291614586335" lon="9.48886130738556"><ele>57.0</ele><time>2026-04-26T08:05:35.971Z</time></trkpt><trkpt lat="45.15287673642445" lon="9.488966792563172"><ele>56.8</ele><time>2026-04-26T08:05:37.971Z</time></trkpt><trkpt lat="45.15284906656532" lon="9.489059603929388"><ele>56.6</ele><time>2026-04-26T08:05:39.97Z</time></trkpt><trkpt lat="45.15280667554445" lon="9.489154842118923"><ele>56.39999999999999</ele><time>2026-04-26T08:05:41.971Z</time></trkpt><trkpt lat="45.152761051092426" lon="9.489258272315235"><ele>56.199999999999996</ele><time>2026-04-26T08:05:43.97Z</time></trkpt><trkpt lat="45.15266885630885" lon="9.48936497533601"><ele>56.0</ele><time>2026-04-26T08:05:45.97Z</time></trkpt><trkpt lat="45.15257183787244" lon="9.489451045049721"><ele>56.00000000000001</ele><time>2026-04-26T08:05:47.97Z</time></trkpt><trkpt lat="45.15246291644737" lon="9.489499767589242"><ele>56.0</ele><time>2026-04-26T08:05:49.97Z</time></trkpt><trkpt lat="45.15239131684171" lon="9.489536879456706"><ele>56.0</ele><time>2026-04-26T08:05:51.97Z</time></trkpt><trkpt lat="45.15237124771193" lon="9.489631481197677"><ele>56.0</ele><time>2026-04-26T08:05:53.97Z</time></trkpt><trkpt lat="45.152361550226786" lon="9.48974130116222"><ele>56.00000000000001</ele><time>2026-04-26T08:05:55.97Z</time></trkpt><trkpt lat="45.152382733312415" lon="9.48983890024796"><ele>56.0</ele><time>2026-04-26T08:05:58.97Z</time></trkpt><trkpt lat="45.15240754341489" lon="9.489976819960996"><ele>55.833333333333336</ele><time>2026-04-26T08:06:01.97Z</time></trkpt><trkpt lat="45.15242914874845" lon="9.490069250385865"><ele>55.66666666666667</ele><time>2026-04-26T08:06:04.97Z</time></trkpt><trkpt lat="45.15239842634146" lon="9.490150473760199"><ele>55.5</ele><time>2026-04-26T08:06:11.97Z</time></trkpt><trkpt lat="45.15246648210159" lon="9.490265384452027"><ele>55.33333333333333</ele><time>2026-04-26T08:06:14.97Z</time></trkpt><trkpt lat="45.15252649365179" lon="9.490370254282029"><ele>55.166666666666664</ele><time>2026-04-26T08:06:16.97Z</time></trkpt><trkpt lat="45.15258738013952" lon="9.490461620820009"><ele>55.0</ele><time>2026-04-26T08:06:18.97Z</time></trkpt><trkpt lat="45.15264296240794" lon="9.490575314484344"><ele>54.8</ele><time>2026-04-26T08:06:20.97Z</time></trkpt><trkpt lat="45.15269248039373" lon="9.49066831250456"><ele>54.6</ele><time>2026-04-26T08:06:22.97Z</time></trkpt><trkpt lat="45.152767746495755" lon="9.490786776556964"><ele>54.400000000000006</ele><time>2026-04-26T08:06:24.97Z</time></trkpt><trkpt lat="45.15282825392069" lon="9.49089873178396"><ele>54.2</ele><time>2026-04-26T08:06:26.97Z</time></trkpt><trkpt lat="45.152883307266876" lon="9.49100733520016"><ele>54.0</ele><time>2026-04-26T08:06:28.97Z</time></trkpt><trkpt lat="45.1529442445664" lon="9.491107385374407"><ele>54.0</ele><time>2026-04-26T08:06:30.97Z</time></trkpt><trkpt lat="45.15300416954133" lon="9.491214613051296"><ele>54.0</ele><time>2026-04-26T08:06:32.97Z</time></trkpt><trkpt lat="45.153069375722836" lon="9.49131303745524"><ele>54.0</ele><time>2026-04-26T08:06:34.97Z</time></trkpt><trkpt lat="45.15311783447852" lon="9.491393737638397"><ele>54.0</ele><time>2026-04-26T08:06:36.97Z</time></trkpt><trkpt lat="45.15316593005561" lon="9.49147130874753"><ele>54.0</ele><time>2026-04-26T08:06:38.97Z</time></trkpt><trkpt lat="45.1532388312798" lon="9.491541848396356"><ele>54.0</ele><time>2026-04-26T08:06:40.969Z</time></trkpt><trkpt lat="45.15332939956556" lon="9.491622072632328"><ele>54.0</ele><time>2026-04-26T08:06:42.969Z</time></trkpt><trkpt lat="45.153415068282754" lon="9.491711116033208"><ele>54.00000000000001</ele><time>2026-04-26T08:06:44.969Z</time></trkpt><trkpt lat="45.153499529973054" lon="9.491796460303906"><ele>54.00000000000001</ele><time>2026-04-26T08:06:46.969Z</time></trkpt><trkpt lat="45.153565499351764" lon="9.491884090413999"><ele>54.0</ele><time>2026-04-26T08:06:48.969Z</time></trkpt><trkpt lat="45.153643335153866" lon="9.49197646944267"><ele>54.0</ele><time>2026-04-26T08:06:50.969Z</time></trkpt><trkpt lat="45.15371069678835" lon="9.492054921894514"><ele>54.0</ele><time>2026-04-26T08:06:52.969Z</time></trkpt><trkpt lat="45.15378091023163" lon="9.492125156161167"><ele>54.0</ele><time>2026-04-26T08:06:54.969Z</time></trkpt><trkpt lat="45.153850835510845" lon="9.492205089972277"><ele>54.0</ele><time>2026-04-26T08:06:56.969Z</time></trkpt><trkpt lat="45.153931909749694" lon="9.49227576302309"><ele>54.0</ele><time>2026-04-26T08:06:58.969Z</time></trkpt><trkpt lat="45.154008283776015" lon="9.492340252356485"><ele>54.0</ele><time>2026-04-26T08:07:00.969Z</time></trkpt><trkpt lat="45.154079593496206" lon="9.492408994523643"><ele>54.0</ele><time>2026-04-26T08:07:02.969Z</time></trkpt><trkpt lat="45.15414576992933" lon="9.49247602202441"><ele>54.0</ele><time>2026-04-26T08:07:04.969Z</time></trkpt><trkpt lat="45.15422537354351" lon="9.492542459989362"><ele>54.0</ele><time>2026-04-26T08:07:06.969Z</time></trkpt><trkpt lat="45.15431011323138" lon="9.492615497607732"><ele>54.0</ele><time>2026-04-26T08:07:08.969Z</time></trkpt><trkpt lat="45.15437577109904" lon="9.492681163503807"><ele>54.0</ele><time>2026-04-26T08:07:10.969Z</time></trkpt><trkpt lat="45.15445133066452" lon="9.492745035746509"><ele>54.0</ele><time>2026-04-26T08:07:12.969Z</time></trkpt><trkpt lat="45.1545321193282" lon="9.492785870522473"><ele>54.0</ele><time>2026-04-26T08:07:14.969Z</time></trkpt><trkpt lat="45.15461948247361" lon="9.492761047459409"><ele>54.0</ele><time>2026-04-26T08:07:17.969Z</time></trkpt><trkpt lat="45.15466573896168" lon="9.492687587453624"><ele>54.0</ele><time>2026-04-26T08:07:19.969Z</time></trkpt><trkpt lat="45.154713997160925" lon="9.492593503553953"><ele>54.0</ele><time>2026-04-26T08:07:21.969Z</time></trkpt><trkpt lat="45.15475336326003" lon="9.492511805557792"><ele>54.0</ele><time>2026-04-26T08:07:23.969Z</time></trkpt><trkpt lat="45.15479057916965" lon="9.492437493019832"><ele>54.0</ele><time>2026-04-26T08:07:25.969Z</time></trkpt><trkpt lat="45.154829056037684" lon="9.492353146496637"><ele>54.0</ele><time>2026-04-26T08:07:27.969Z</time></trkpt><trkpt lat="45.15486661970008" lon="9.492262058563448"><ele>54.0</ele><time>2026-04-26T08:07:29.969Z</time></trkpt><trkpt lat="45.15491016074563" lon="9.49217510894361"><ele>54.166666666666664</ele><time>2026-04-26T08:07:31.969Z</time></trkpt><trkpt lat="45.15495912051676" lon="9.49207977204548"><ele>54.33333333333333</ele><time>2026-04-26T08:07:33.969Z</time></trkpt><trkpt lat="45.155000777015594" lon="9.491993052413095"><ele>54.5</ele><time>2026-04-26T08:07:35.969Z</time></trkpt><trkpt lat="45.15504037491697" lon="9.491911208551818"><ele>54.666666666666664</ele><time>2026-04-26T08:07:37.969Z</time></trkpt><trkpt lat="45.15508387439512" lon="9.49182514336975"><ele>54.83333333333333</ele><time>2026-04-26T08:07:39.969Z</time></trkpt><trkpt lat="45.15512695770431" lon="9.491754854826391"><ele>55.0</ele><time>2026-04-26T08:07:41.969Z</time></trkpt><trkpt lat="45.1551948944671" lon="9.491670542693754"><ele>54.99999999999999</ele><time>2026-04-26T08:07:44.969Z</time></trkpt><trkpt lat="45.15525657048403" lon="9.491618138769592"><ele>55.0</ele><time>2026-04-26T08:07:46.969Z</time></trkpt><trkpt lat="45.15533718229159" lon="9.491560846930746"><ele>55.0</ele><time>2026-04-26T08:07:49.969Z</time></trkpt><trkpt lat="45.15542318030381" lon="9.491537238702165"><ele>55.0</ele><time>2026-04-26T08:07:52.969Z</time></trkpt><trkpt lat="45.155511565424405" lon="9.491516164766674"><ele>54.99999999999999</ele><time>2026-04-26T08:07:55.969Z</time></trkpt><trkpt lat="45.1556039829353" lon="9.491493843385676"><ele>55.0</ele><time>2026-04-26T08:07:58.969Z</time></trkpt><trkpt lat="45.155769721362155" lon="9.491492262485803"><ele>56.166666666666664</ele><time>2026-04-26T08:08:03.969Z</time></trkpt><trkpt lat="45.155839329346044" lon="9.49148527116216"><ele>57.33333333333333</ele><time>2026-04-26T08:08:05.969Z</time></trkpt><trkpt lat="45.15590807155838" lon="9.49148417476067"><ele>58.5</ele><time>2026-04-26T08:08:07.969Z</time></trkpt><trkpt lat="45.15597440812739" lon="9.49148993736557"><ele>59.66666666666667</ele><time>2026-04-26T08:08:09.969Z</time></trkpt><trkpt lat="45.15606419400535" lon="9.491481853108972"><ele>60.833333333333336</ele><time>2026-04-26T08:08:12.969Z</time></trkpt><trkpt lat="45.15616182442655" lon="9.491479880840899"><ele>62.0</ele><time>2026-04-26T08:08:15.968Z</time></trkpt><trkpt lat="45.156229563591815" lon="9.4914772501369"><ele>62.0</ele><time>2026-04-26T08:08:17.968Z</time></trkpt><trkpt lat="45.15631184140389" lon="9.491467631847677"><ele>62.0</ele><time>2026-04-26T08:08:20.968Z</time></trkpt><trkpt lat="45.15638796106748" lon="9.491457895694618"><ele>62.0</ele><time>2026-04-26T08:08:23.968Z</time></trkpt><trkpt lat="45.15657131170168" lon="9.491450691111305"><ele>62.0</ele><time>2026-04-26T08:08:28.968Z</time></trkpt><trkpt lat="45.15665698853407" lon="9.491435489063191"><ele>62.0</ele><time>2026-04-26T08:08:30.968Z</time></trkpt><trkpt lat="45.15688388923576" lon="9.491425862606068"><ele>63.25</ele><time>2026-04-26T08:08:35.968Z</time></trkpt><trkpt lat="45.157099919321354" lon="9.491434044577046"><ele>64.5</ele><time>2026-04-26T08:08:40.968Z</time></trkpt><trkpt lat="45.15718531576049" lon="9.491452685542951"><ele>65.75</ele><time>2026-04-26T08:08:42.968Z</time></trkpt><trkpt lat="45.15727097398289" lon="9.4915017449558"><ele>67.0</ele><time>2026-04-26T08:08:44.968Z</time></trkpt><trkpt lat="45.157356127099135" lon="9.491572182073172"><ele>67.0</ele><time>2026-04-26T08:08:46.968Z</time></trkpt><trkpt lat="45.157441036128" lon="9.491636232294573"><ele>67.0</ele><time>2026-04-26T08:08:48.968Z</time></trkpt><trkpt lat="45.15753228613954" lon="9.491713794096498"><ele>67.0</ele><time>2026-04-26T08:08:50.968Z</time></trkpt><trkpt lat="45.157624928667545" lon="9.491800051418211"><ele>67.0</ele><time>2026-04-26T08:08:52.968Z</time></trkpt><trkpt lat="45.1577148074719" lon="9.491868794292406"><ele>67.0</ele><time>2026-04-26T08:08:54.968Z</time></trkpt><trkpt lat="45.15779224666233" lon="9.491946918958037"><ele>67.0</ele><time>2026-04-26T08:08:56.968Z</time></trkpt><trkpt lat="45.157868574007715" lon="9.492013047047362"><ele>67.0</ele><time>2026-04-26T08:08:58.968Z</time></trkpt><trkpt lat="45.15794469562304" lon="9.492085037807882"><ele>67.0</ele><time>2026-04-26T08:09:00.968Z</time></trkpt><trkpt lat="45.158008301922216" lon="9.492138677887617"><ele>67.0</ele><time>2026-04-26T08:09:02.968Z</time></trkpt><trkpt lat="45.15806398930715" lon="9.492195746304988"><ele>67.0</ele><time>2026-04-26T08:09:04.968Z</time></trkpt><trkpt lat="45.158114639893746" lon="9.492255177583168"><ele>67.0</ele><time>2026-04-26T08:09:06.968Z</time></trkpt><trkpt lat="45.158189886192325" lon="9.492318021702314"><ele>66.42857142857143</ele><time>2026-04-26T08:09:09.968Z</time></trkpt><trkpt lat="45.15824454185765" lon="9.492375144116727"><ele>65.85714285714286</ele><time>2026-04-26T08:09:12.967Z</time></trkpt><trkpt lat="45.15829767676211" lon="9.492430221858305"><ele>65.28571428571428</ele><time>2026-04-26T08:09:16.967Z</time></trkpt><trkpt lat="45.15836906911837" lon="9.492455485030888"><ele>64.71428571428572</ele><time>2026-04-26T08:09:19.967Z</time></trkpt><trkpt lat="45.1584243794624" lon="9.492498744476634"><ele>64.14285714285714</ele><time>2026-04-26T08:09:53.968Z</time></trkpt><trkpt lat="45.158426409729216" lon="9.492403590512883"><ele>63.57142857142857</ele><time>2026-04-26T08:14:02.97Z</time></trkpt><trkpt lat="45.158397689388195" lon="9.492307666557604"><ele>63.0</ele><time>2026-04-26T08:14:05.971Z</time></trkpt><trkpt lat="45.15839959855015" lon="9.49220827815215"><ele>63.0</ele><time>2026-04-26T08:14:07.971Z</time></trkpt><trkpt lat="45.15841548926319" lon="9.492081392065902"><ele>63.0</ele><time>2026-04-26T08:14:09.971Z</time></trkpt><trkpt lat="45.158422304387514" lon="9.491941398723892"><ele>63.0</ele><time>2026-04-26T08:14:11.971Z</time></trkpt><trkpt lat="45.15843323495047" lon="9.491804036063817"><ele>63.0</ele><time>2026-04-26T08:14:13.971Z</time></trkpt><trkpt lat="45.158442833002965" lon="9.491655485457548"><ele>63.0</ele><time>2026-04-26T08:14:15.971Z</time></trkpt><trkpt lat="45.15845636127236" lon="9.491493198665205"><ele>63.0</ele><time>2026-04-26T08:14:17.971Z</time></trkpt><trkpt lat="45.158470038683866" lon="9.49132878368114"><ele>63.0</ele><time>2026-04-26T08:14:19.971Z</time></trkpt><trkpt lat="45.158476173561695" lon="9.491177557192742"><ele>63.0</ele><time>2026-04-26T08:14:21.971Z</time></trkpt><trkpt lat="45.158483823641916" lon="9.491027198596313"><ele>63.0</ele><time>2026-04-26T08:14:23.971Z</time></trkpt><trkpt lat="45.158487699115206" lon="9.490875351935934"><ele>63.0</ele><time>2026-04-26T08:14:25.971Z</time></trkpt><trkpt lat="45.15849446555432" lon="9.490730102618475"><ele>63.0</ele><time>2026-04-26T08:14:27.971Z</time></trkpt><trkpt lat="45.15849351819303" lon="9.490580027911713"><ele>63.0</ele><time>2026-04-26T08:14:29.971Z</time></trkpt><trkpt lat="45.158501072648924" lon="9.490432546879509"><ele>63.0</ele><time>2026-04-26T08:14:31.971Z</time></trkpt><trkpt lat="45.158499567251845" lon="9.490281515221714"><ele>63.0</ele><time>2026-04-26T08:14:33.971Z</time></trkpt><trkpt lat="45.158502223800745" lon="9.490123470089122"><ele>63.0</ele><time>2026-04-26T08:14:35.971Z</time></trkpt><trkpt lat="45.15848688288553" lon="9.48995773085143"><ele>63.0</ele><time>2026-04-26T08:14:37.971Z</time></trkpt><trkpt lat="45.158450131822704" lon="9.489795480532715"><ele>63.0</ele><time>2026-04-26T08:14:39.971Z</time></trkpt><trkpt lat="45.1584071567001" lon="9.489640811879918"><ele>63.0</ele><time>2026-04-26T08:14:41.971Z</time></trkpt><trkpt lat="45.15836293168051" lon="9.489487356513102"><ele>63.0</ele><time>2026-04-26T08:14:43.971Z</time></trkpt><trkpt lat="45.15833799236061" lon="9.489404073622463"><ele>63.0</ele><time>2026-04-26T08:14:44.971Z</time></trkpt><trkpt lat="45.158295092866055" lon="9.48924439597557"><ele>63.0</ele><time>2026-04-26T08:14:46.971Z</time></trkpt><trkpt lat="45.15824853322191" lon="9.489082426042852"><ele>63.0</ele><time>2026-04-26T08:14:48.971Z</time></trkpt><trkpt lat="45.158197996419915" lon="9.488917030871482"><ele>63.0</ele><time>2026-04-26T08:14:50.971Z</time></trkpt><trkpt lat="45.15815419691841" lon="9.48875245719603"><ele>63.0</ele><time>2026-04-26T08:14:52.971Z</time></trkpt><trkpt lat="45.158128441684994" lon="9.488667371590102"><ele>63.0</ele><time>2026-04-26T08:14:53.971Z</time></trkpt><trkpt lat="45.15810236661746" lon="9.488580809724454"><ele>63.2</ele><time>2026-04-26T08:14:54.971Z</time></trkpt><trkpt lat="45.15807363491485" lon="9.488493851193397"><ele>63.4</ele><time>2026-04-26T08:14:55.971Z</time></trkpt><trkpt lat="45.158027485265386" lon="9.488341177481226"><ele>63.60000000000001</ele><time>2026-04-26T08:14:57.97Z</time></trkpt><trkpt lat="45.157988020110665" lon="9.488191468773554"><ele>63.800000000000004</ele><time>2026-04-26T08:14:59.97Z</time></trkpt><trkpt lat="45.15795961956492" lon="9.488110594786372"><ele>64.0</ele><time>2026-04-26T08:15:00.97Z</time></trkpt><trkpt lat="45.15789983123696" lon="9.487956559877848"><ele>64.25</ele><time>2026-04-26T08:15:02.97Z</time></trkpt><trkpt lat="45.15787513464401" lon="9.487803231443145"><ele>64.5</ele><time>2026-04-26T08:15:04.97Z</time></trkpt><trkpt lat="45.157846635807665" lon="9.487654876240674"><ele>64.75</ele><time>2026-04-26T08:15:06.97Z</time></trkpt><trkpt lat="45.15779249846973" lon="9.487501399665062"><ele>65.0</ele><time>2026-04-26T08:15:08.97Z</time></trkpt><trkpt lat="45.157738965835776" lon="9.487341217139658"><ele>65.0</ele><time>2026-04-26T08:15:10.97Z</time></trkpt><trkpt lat="45.15769105895439" lon="9.487190070796915"><ele>65.0</ele><time>2026-04-26T08:15:12.97Z</time></trkpt><trkpt lat="45.15764258073065" lon="9.487033193668927"><ele>65.0</ele><time>2026-04-26T08:15:14.97Z</time></trkpt><trkpt lat="45.15758793983717" lon="9.486879849862504"><ele>65.0</ele><time>2026-04-26T08:15:16.97Z</time></trkpt><trkpt lat="45.157550630189185" lon="9.486758059981605"><ele>64.5</ele><time>2026-04-26T08:15:18.97Z</time></trkpt><trkpt lat="45.15750451650881" lon="9.48661683381194"><ele>64.0</ele><time>2026-04-26T08:15:20.97Z</time></trkpt><trkpt lat="45.15745368521427" lon="9.486455244403903"><ele>63.5</ele><time>2026-04-26T08:15:22.97Z</time></trkpt><trkpt lat="45.15740827160779" lon="9.486305622240284"><ele>63.0</ele><time>2026-04-26T08:15:24.97Z</time></trkpt><trkpt lat="45.1573565120531" lon="9.48614880705987"><ele>63.0</ele><time>2026-04-26T08:15:26.97Z</time></trkpt><trkpt lat="45.157312167881614" lon="9.48600924174503"><ele>63.0</ele><time>2026-04-26T08:15:28.97Z</time></trkpt><trkpt lat="45.1572574895609" lon="9.48586264921302"><ele>63.0</ele><time>2026-04-26T08:15:30.97Z</time></trkpt><trkpt lat="45.15720892261114" lon="9.485730632228558"><ele>63.0</ele><time>2026-04-26T08:15:32.97Z</time></trkpt><trkpt lat="45.157162093823246" lon="9.485669506968916"><ele>63.0</ele><time>2026-04-26T08:15:33.97Z</time></trkpt><trkpt lat="45.157058225088235" lon="9.485581558859081"><ele>63.0</ele><time>2026-04-26T08:15:35.97Z</time></trkpt><trkpt lat="45.1569635097609" lon="9.485521442978762"><ele>63.0</ele><time>2026-04-26T08:15:37.97Z</time></trkpt><trkpt lat="45.156858629011424" lon="9.485472589818833"><ele>63.0</ele><time>2026-04-26T08:15:39.97Z</time></trkpt><trkpt lat="45.15674632086854" lon="9.485435839010838"><ele>63.0</ele><time>2026-04-26T08:15:41.97Z</time></trkpt><trkpt lat="45.15663550947622" lon="9.485408605478316"><ele>63.0</ele><time>2026-04-26T08:15:43.97Z</time></trkpt><trkpt lat="45.156537822535704" lon="9.485399682936494"><ele>63.166666666666664</ele><time>2026-04-26T08:15:45.97Z</time></trkpt><trkpt lat="45.15646360948217" lon="9.485402260713137"><ele>63.33333333333333</ele><time>2026-04-26T08:15:47.97Z</time></trkpt><trkpt lat="45.15638489107116" lon="9.485413855694153"><ele>63.5</ele><time>2026-04-26T08:15:49.97Z</time></trkpt><trkpt lat="45.15631047696024" lon="9.485375447649943"><ele>63.666666666666664</ele><time>2026-04-26T08:15:51.97Z</time></trkpt><trkpt lat="45.15626788736778" lon="9.485272747565414"><ele>63.83333333333333</ele><time>2026-04-26T08:15:53.97Z</time></trkpt><trkpt lat="45.156253624566055" lon="9.485152730011427"><ele>64.0</ele><time>2026-04-26T08:15:55.97Z</time></trkpt><trkpt lat="45.15622662787865" lon="9.48503329235229"><ele>64.0</ele><time>2026-04-26T08:15:57.97Z</time></trkpt><trkpt lat="45.156203465558065" lon="9.48491412021262"><ele>64.0</ele><time>2026-04-26T08:15:59.97Z</time></trkpt><trkpt lat="45.15620788052444" lon="9.484790736422042"><ele>64.0</ele><time>2026-04-26T08:16:01.97Z</time></trkpt><trkpt lat="45.156220930277165" lon="9.484649071693363"><ele>64.0</ele><time>2026-04-26T08:16:03.971Z</time></trkpt><trkpt lat="45.15623592490688" lon="9.484508880635225"><ele>64.0</ele><time>2026-04-26T08:16:05.97Z</time></trkpt><trkpt lat="45.15624965429033" lon="9.484360990025504"><ele>64.0</ele><time>2026-04-26T08:16:07.97Z</time></trkpt><trkpt lat="45.156261702533605" lon="9.484214033499034"><ele>64.0</ele><time>2026-04-26T08:16:09.97Z</time></trkpt><trkpt lat="45.15627415461859" lon="9.484067005042212"><ele>64.0</ele><time>2026-04-26T08:16:11.97Z</time></trkpt><trkpt lat="45.15629185586643" lon="9.483926249306874"><ele>64.0</ele><time>2026-04-26T08:16:13.97Z</time></trkpt><trkpt lat="45.15631120693017" lon="9.483782610965983"><ele>64.0</ele><time>2026-04-26T08:16:15.97Z</time></trkpt><trkpt lat="45.156331255233724" lon="9.483641369165834"><ele>63.800000000000004</ele><time>2026-04-26T08:16:17.97Z</time></trkpt><trkpt lat="45.156352551250755" lon="9.483499107158043"><ele>63.60000000000001</ele><time>2026-04-26T08:16:19.97Z</time></trkpt><trkpt lat="45.15637141591408" lon="9.483357958524065"><ele>63.4</ele><time>2026-04-26T08:16:21.97Z</time></trkpt><trkpt lat="45.156373815437355" lon="9.48322167877211"><ele>63.2</ele><time>2026-04-26T08:16:23.97Z</time></trkpt><trkpt lat="45.15632911288227" lon="9.483115693843175"><ele>63.0</ele><time>2026-04-26T08:16:25.97Z</time></trkpt><trkpt lat="45.15624498856207" lon="9.483054581944348"><ele>63.0</ele><time>2026-04-26T08:16:27.97Z</time></trkpt><trkpt lat="45.1561611600685" lon="9.482988563867346"><ele>63.0</ele><time>2026-04-26T08:16:29.97Z</time></trkpt><trkpt lat="45.15612886092258" lon="9.482901433956378"><ele>63.0</ele><time>2026-04-26T08:16:31.97Z</time></trkpt><trkpt lat="45.156147318887086" lon="9.482738477134257"><ele>63.0</ele><time>2026-04-26T08:16:33.97Z</time></trkpt><trkpt lat="45.15615304730514" lon="9.482596639063527"><ele>63.0</ele><time>2026-04-26T08:16:35.97Z</time></trkpt><trkpt lat="45.15615318315558" lon="9.482459446539707"><ele>63.0</ele><time>2026-04-26T08:16:37.97Z</time></trkpt><trkpt lat="45.15615673650347" lon="9.482314073263135"><ele>63.0</ele><time>2026-04-26T08:16:39.97Z</time></trkpt><trkpt lat="45.15616503824932" lon="9.482169371130382"><ele>63.0</ele><time>2026-04-26T08:16:41.97Z</time></trkpt><trkpt lat="45.15616952636428" lon="9.482021198635127"><ele>63.0</ele><time>2026-04-26T08:16:43.97Z</time></trkpt><trkpt lat="45.15617305485884" lon="9.481883043976731"><ele>63.0</ele><time>2026-04-26T08:16:45.97Z</time></trkpt><trkpt lat="45.156177706933406" lon="9.481744289340382"><ele>63.2</ele><time>2026-04-26T08:16:47.97Z</time></trkpt><trkpt lat="45.15618373698912" lon="9.481595346543253"><ele>63.4</ele><time>2026-04-26T08:16:49.97Z</time></trkpt><trkpt lat="45.156191701742685" lon="9.481451674950335"><ele>63.60000000000001</ele><time>2026-04-26T08:16:51.97Z</time></trkpt><trkpt lat="45.15618941094404" lon="9.481301859537167"><ele>63.800000000000004</ele><time>2026-04-26T08:16:53.97Z</time></trkpt><trkpt lat="45.15619566834444" lon="9.481153752805298"><ele>64.0</ele><time>2026-04-26T08:16:55.97Z</time></trkpt><trkpt lat="45.15620570234369" lon="9.481003476863071"><ele>64.16666666666666</ele><time>2026-04-26T08:16:57.97Z</time></trkpt><trkpt lat="45.156211269058254" lon="9.480850548606737"><ele>64.33333333333333</ele><time>2026-04-26T08:16:59.969Z</time></trkpt><trkpt lat="45.15620564881359" lon="9.480717661206619"><ele>64.5</ele><time>2026-04-26T08:17:01.969Z</time></trkpt><trkpt lat="45.15620035258699" lon="9.480603962911802"><ele>64.66666666666667</ele><time>2026-04-26T08:17:03.969Z</time></trkpt><trkpt lat="45.15619297313909" lon="9.480474975722357"><ele>64.83333333333334</ele><time>2026-04-26T08:17:05.969Z</time></trkpt><trkpt lat="45.15618447072662" lon="9.480369376948165"><ele>65.0</ele><time>2026-04-26T08:17:07.969Z</time></trkpt><trkpt lat="45.15618793469558" lon="9.480239656923565"><ele>64.83333333333334</ele><time>2026-04-26T08:17:09.969Z</time></trkpt><trkpt lat="45.15619047089334" lon="9.480112664727026"><ele>64.66666666666667</ele><time>2026-04-26T08:17:11.969Z</time></trkpt><trkpt lat="45.15618814117887" lon="9.479997861611551"><ele>64.5</ele><time>2026-04-26T08:17:13.969Z</time></trkpt><trkpt lat="45.1561895824327" lon="9.479868622134852"><ele>64.33333333333333</ele><time>2026-04-26T08:17:15.969Z</time></trkpt><trkpt lat="45.15619061142008" lon="9.479747466739843"><ele>64.16666666666666</ele><time>2026-04-26T08:17:17.969Z</time></trkpt><trkpt lat="45.15620426280035" lon="9.479627794129822"><ele>64.0</ele><time>2026-04-26T08:17:19.969Z</time></trkpt><trkpt lat="45.156207861533794" lon="9.47952644683145"><ele>63.99999999999999</ele><time>2026-04-26T08:17:21.969Z</time></trkpt><trkpt lat="45.156211059588934" lon="9.479393159507667"><ele>64.0</ele><time>2026-04-26T08:17:24.969Z</time></trkpt><trkpt lat="45.156219987572264" lon="9.47928478027795"><ele>64.0</ele><time>2026-04-26T08:17:26.969Z</time></trkpt><trkpt lat="45.15623728607268" lon="9.479161022747189"><ele>64.0</ele><time>2026-04-26T08:17:29.969Z</time></trkpt><trkpt lat="45.15628887308512" lon="9.47908154963382"><ele>63.99999999999999</ele><time>2026-04-26T08:17:32.969Z</time></trkpt><trkpt lat="45.15635563810665" lon="9.479039329153201"><ele>64.0</ele><time>2026-04-26T08:17:35.969Z</time></trkpt><trkpt lat="45.156441857474285" lon="9.479030065372633"><ele>63.99999999999999</ele><time>2026-04-26T08:17:39.969Z</time></trkpt><trkpt lat="45.156525018705594" lon="9.479050284934319"><ele>64.0</ele><time>2026-04-26T08:17:42.969Z</time></trkpt><trkpt lat="45.156610773991986" lon="9.479068757845186"><ele>64.0</ele><time>2026-04-26T08:17:45.969Z</time></trkpt><trkpt lat="45.15667430894971" lon="9.479085445816283"><ele>64.0</ele><time>2026-04-26T08:17:47.969Z</time></trkpt><trkpt lat="45.15674714148849" lon="9.47910006004587"><ele>63.99999999999999</ele><time>2026-04-26T08:17:49.969Z</time></trkpt><trkpt lat="45.15682657135165" lon="9.479118762865715"><ele>64.0</ele><time>2026-04-26T08:17:51.969Z</time></trkpt><trkpt lat="45.15689917448913" lon="9.47913538179113"><ele>63.99999999999999</ele><time>2026-04-26T08:17:53.969Z</time></trkpt><trkpt lat="45.15697851521259" lon="9.479149654564095"><ele>64.0</ele><time>2026-04-26T08:17:55.969Z</time></trkpt><trkpt lat="45.15705223202588" lon="9.479147966798699"><ele>64.0</ele><time>2026-04-26T08:17:57.969Z</time></trkpt><trkpt lat="45.157105590747" lon="9.479080368112692"><ele>64.0</ele><time>2026-04-26T08:17:59.969Z</time></trkpt><trkpt lat="45.15712388644967" lon="9.478963042916126"><ele>63.99999999999999</ele><time>2026-04-26T08:18:01.968Z</time></trkpt><trkpt lat="45.15712043239777" lon="9.47886044720003"><ele>64.0</ele><time>2026-04-26T08:18:03.968Z</time></trkpt><trkpt lat="45.157108963580875" lon="9.4787521435025"><ele>63.99999999999999</ele><time>2026-04-26T08:18:05.97Z</time></trkpt><trkpt lat="45.157094747598" lon="9.47864557485943"><ele>64.0</ele><time>2026-04-26T08:18:07.97Z</time></trkpt><trkpt lat="45.15709417456074" lon="9.47853911778797"><ele>64.0</ele><time>2026-04-26T08:18:09.97Z</time></trkpt><trkpt lat="45.15709940396875" lon="9.478427913781482"><ele>64.0</ele><time>2026-04-26T08:18:11.97Z</time></trkpt><trkpt lat="45.15711275025425" lon="9.478321135989706"><ele>63.99999999999999</ele><time>2026-04-26T08:18:13.97Z</time></trkpt><trkpt lat="45.15712372787726" lon="9.478210926456056"><ele>64.0</ele><time>2026-04-26T08:18:15.969Z</time></trkpt><trkpt lat="45.15714320771581" lon="9.478098414362929"><ele>63.99999999999999</ele><time>2026-04-26T08:18:17.969Z</time></trkpt><trkpt lat="45.157154763826" lon="9.477984754934383"><ele>64.0</ele><time>2026-04-26T08:18:19.969Z</time></trkpt><trkpt lat="45.15717098586424" lon="9.47788074683899"><ele>64.0</ele><time>2026-04-26T08:18:21.969Z</time></trkpt><trkpt lat="45.15718230950061" lon="9.477779409587638"><ele>64.0</ele><time>2026-04-26T08:18:23.969Z</time></trkpt><trkpt lat="45.15718893706913" lon="9.477681073379927"><ele>63.99999999999999</ele><time>2026-04-26T08:18:25.969Z</time></trkpt><trkpt lat="45.15720358678232" lon="9.477562598554709"><ele>64.0</ele><time>2026-04-26T08:18:28.969Z</time></trkpt><trkpt lat="45.15725679337334" lon="9.477500301696168"><ele>64.33333333333333</ele><time>2026-04-26T08:18:31.969Z</time></trkpt><trkpt lat="45.15733286330426" lon="9.47752696481615"><ele>64.66666666666666</ele><time>2026-04-26T08:18:34.968Z</time></trkpt><trkpt lat="45.157411576864234" lon="9.47754204625363"><ele>65.0</ele><time>2026-04-26T08:18:36.968Z</time></trkpt><trkpt lat="45.15747935024355" lon="9.477528083368712"><ele>65.33333333333333</ele><time>2026-04-26T08:18:38.968Z</time></trkpt><trkpt lat="45.15754944880397" lon="9.477467513475768"><ele>65.66666666666667</ele><time>2026-04-26T08:18:40.968Z</time></trkpt><trkpt lat="45.157611764899706" lon="9.477390291934706"><ele>66.0</ele><time>2026-04-26T08:18:42.968Z</time></trkpt><trkpt lat="45.15766310512813" lon="9.477326597939687"><ele>66.0</ele><time>2026-04-26T08:18:44.968Z</time></trkpt><trkpt lat="45.157734537521556" lon="9.477279527368507"><ele>66.0</ele><time>2026-04-26T08:18:46.968Z</time></trkpt><trkpt lat="45.15781534221443" lon="9.477239399533593"><ele>66.0</ele><time>2026-04-26T08:18:48.968Z</time></trkpt><trkpt lat="45.15790139458912" lon="9.477205530114723"><ele>66.0</ele><time>2026-04-26T08:18:50.968Z</time></trkpt><trkpt lat="45.157991874383384" lon="9.477204875085837"><ele>66.0</ele><time>2026-04-26T08:18:52.968Z</time></trkpt><trkpt lat="45.158078547106975" lon="9.477225106274846"><ele>66.0</ele><time>2026-04-26T08:18:54.968Z</time></trkpt><trkpt lat="45.15815421480661" lon="9.477260426715963"><ele>66.0</ele><time>2026-04-26T08:18:56.968Z</time></trkpt><trkpt lat="45.15823834854442" lon="9.477282025864413"><ele>66.0</ele><time>2026-04-26T08:18:58.968Z</time></trkpt><trkpt lat="45.15831112243828" lon="9.477262363617374"><ele>66.0</ele><time>2026-04-26T08:19:00.968Z</time></trkpt><trkpt lat="45.158369370876436" lon="9.477184397615995"><ele>66.0</ele><time>2026-04-26T08:19:02.968Z</time></trkpt><trkpt lat="45.158393847251816" lon="9.477063517485345"><ele>66.0</ele><time>2026-04-26T08:19:04.968Z</time></trkpt><trkpt lat="45.15840991344689" lon="9.47694612937279"><ele>66.0</ele><time>2026-04-26T08:19:06.968Z</time></trkpt><trkpt lat="45.15842643359315" lon="9.47682469611027"><ele>66.0</ele><time>2026-04-26T08:19:08.968Z</time></trkpt><trkpt lat="45.15843825139518" lon="9.47670648874073"><ele>66.0</ele><time>2026-04-26T08:19:10.968Z</time></trkpt><trkpt lat="45.15845129409181" lon="9.476580624238858"><ele>66.0</ele><time>2026-04-26T08:19:12.968Z</time></trkpt><trkpt lat="45.15848463576564" lon="9.476462971786333"><ele>66.0</ele><time>2026-04-26T08:19:14.968Z</time></trkpt><trkpt lat="45.15851210644861" lon="9.476345336912757"><ele>66.0</ele><time>2026-04-26T08:19:16.968Z</time></trkpt><trkpt lat="45.15854933336101" lon="9.476229212135726"><ele>66.0</ele><time>2026-04-26T08:19:18.968Z</time></trkpt><trkpt lat="45.15859090086255" lon="9.476116122169397"><ele>66.0</ele><time>2026-04-26T08:19:20.968Z</time></trkpt><trkpt lat="45.158639382173384" lon="9.476010797374434"><ele>66.0</ele><time>2026-04-26T08:19:22.968Z</time></trkpt><trkpt lat="45.158693087487286" lon="9.475903994323227"><ele>66.0</ele><time>2026-04-26T08:19:24.968Z</time></trkpt><trkpt lat="45.15875000121502" lon="9.475799464463117"><ele>66.0</ele><time>2026-04-26T08:19:26.968Z</time></trkpt><trkpt lat="45.15880505804978" lon="9.47569252248076"><ele>66.0</ele><time>2026-04-26T08:19:28.968Z</time></trkpt><trkpt lat="45.15885864892305" lon="9.475586332472888"><ele>66.0</ele><time>2026-04-26T08:19:30.968Z</time></trkpt><trkpt lat="45.15890243120069" lon="9.475478553118228"><ele>66.0</ele><time>2026-04-26T08:19:32.968Z</time></trkpt><trkpt lat="45.15895508959013" lon="9.475366479346219"><ele>66.0</ele><time>2026-04-26T08:19:34.967Z</time></trkpt><trkpt lat="45.15900412215459" lon="9.475258322461286"><ele>66.0</ele><time>2026-04-26T08:19:36.967Z</time></trkpt><trkpt lat="45.15905022667833" lon="9.47514098965376"><ele>66.0</ele><time>2026-04-26T08:19:38.967Z</time></trkpt><trkpt lat="45.15910123521693" lon="9.475021132649545"><ele>65.8</ele><time>2026-04-26T08:19:40.967Z</time></trkpt><trkpt lat="45.15915401416452" lon="9.47490408841319"><ele>65.6</ele><time>2026-04-26T08:19:42.967Z</time></trkpt><trkpt lat="45.159187356903196" lon="9.474803723051483"><ele>65.4</ele><time>2026-04-26T08:19:44.967Z</time></trkpt><trkpt lat="45.159232412680396" lon="9.474680839024055"><ele>65.2</ele><time>2026-04-26T08:19:46.967Z</time></trkpt><trkpt lat="45.159275823541336" lon="9.474549082680815"><ele>65.0</ele><time>2026-04-26T08:19:48.967Z</time></trkpt><trkpt lat="45.1593237230925" lon="9.47440927092242"><ele>65.0</ele><time>2026-04-26T08:19:50.967Z</time></trkpt><trkpt lat="45.15937071688238" lon="9.474270998319982"><ele>65.0</ele><time>2026-04-26T08:19:52.967Z</time></trkpt><trkpt lat="45.159417950794385" lon="9.474140977007396"><ele>65.0</ele><time>2026-04-26T08:19:54.967Z</time></trkpt><trkpt lat="45.15945721407454" lon="9.474034708492765"><ele>65.0</ele><time>2026-04-26T08:19:56.967Z</time></trkpt><trkpt lat="45.159504922926125" lon="9.473905351491439"><ele>65.0</ele><time>2026-04-26T08:19:58.967Z</time></trkpt><trkpt lat="45.15954821230254" lon="9.473763702239921"><ele>65.0</ele><time>2026-04-26T08:20:00.967Z</time></trkpt><trkpt lat="45.159584568638024" lon="9.473628382648593"><ele>65.0</ele><time>2026-04-26T08:20:02.967Z</time></trkpt><trkpt lat="45.159615959915506" lon="9.473499936239241"><ele>65.0</ele><time>2026-04-26T08:20:04.967Z</time></trkpt><trkpt lat="45.1596426909601" lon="9.473384054073483"><ele>65.0</ele><time>2026-04-26T08:20:06.967Z</time></trkpt><trkpt lat="45.159668577921195" lon="9.473255221887523"><ele>65.0</ele><time>2026-04-26T08:20:08.967Z</time></trkpt><trkpt lat="45.15969848595573" lon="9.473114063685504"><ele>65.0</ele><time>2026-04-26T08:20:10.968Z</time></trkpt><trkpt lat="45.15973279232316" lon="9.472973019418031"><ele>65.0</ele><time>2026-04-26T08:20:12.968Z</time></trkpt><trkpt lat="45.15976063881961" lon="9.4728410258326"><ele>65.0</ele><time>2026-04-26T08:20:14.969Z</time></trkpt><trkpt lat="45.1597928109785" lon="9.472707963037855"><ele>65.0</ele><time>2026-04-26T08:20:16.968Z</time></trkpt><trkpt lat="45.15981949915051" lon="9.472591758437405"><ele>65.0</ele><time>2026-04-26T08:20:18.968Z</time></trkpt><trkpt lat="45.15984558020793" lon="9.472476463287325"><ele>65.2</ele><time>2026-04-26T08:20:20.968Z</time></trkpt><trkpt lat="45.15987139325879" lon="9.472356533476308"><ele>65.4</ele><time>2026-04-26T08:20:22.968Z</time></trkpt><trkpt lat="45.15990045613905" lon="9.472206998102115"><ele>65.6</ele><time>2026-04-26T08:20:24.968Z</time></trkpt><trkpt lat="45.15993009522481" lon="9.472069057919935"><ele>65.8</ele><time>2026-04-26T08:20:26.968Z</time></trkpt><trkpt lat="45.15995213162937" lon="9.471946584041072"><ele>66.0</ele><time>2026-04-26T08:20:28.968Z</time></trkpt><trkpt lat="45.15996927569813" lon="9.471835727246049"><ele>66.14285714285714</ele><time>2026-04-26T08:20:30.968Z</time></trkpt><trkpt lat="45.1599733927573" lon="9.471735599247618"><ele>66.28571428571429</ele><time>2026-04-26T08:20:32.968Z</time></trkpt><trkpt lat="45.16000481183289" lon="9.471632908105649"><ele>66.42857142857143</ele><time>2026-04-26T08:20:35.967Z</time></trkpt><trkpt lat="45.160068032522354" lon="9.471586675838015"><ele>66.57142857142857</ele><time>2026-04-26T08:20:38.967Z</time></trkpt><trkpt lat="45.1601448584746" lon="9.471581999298225"><ele>66.71428571428571</ele><time>2026-04-26T08:20:41.967Z</time></trkpt><trkpt lat="45.1602147037117" lon="9.471569925748025"><ele>66.85714285714286</ele><time>2026-04-26T08:20:43.967Z</time></trkpt><trkpt lat="45.16028186285836" lon="9.471549624519001"><ele>67.0</ele><time>2026-04-26T08:20:45.967Z</time></trkpt><trkpt lat="45.16037222141737" lon="9.471550158557045"><ele>67.0</ele><time>2026-04-26T08:20:47.967Z</time></trkpt><trkpt lat="45.160457483196545" lon="9.47155187397436"><ele>67.0</ele><time>2026-04-26T08:20:49.967Z</time></trkpt><trkpt lat="45.16053626378992" lon="9.471546876499259"><ele>67.0</ele><time>2026-04-26T08:20:51.967Z</time></trkpt><trkpt lat="45.160617981555006" lon="9.47154265176908"><ele>67.0</ele><time>2026-04-26T08:20:53.967Z</time></trkpt><trkpt lat="45.160700741097564" lon="9.47152593143878"><ele>67.0</ele><time>2026-04-26T08:20:55.967Z</time></trkpt><trkpt lat="45.1607889972648" lon="9.471520208754054"><ele>67.0</ele><time>2026-04-26T08:20:57.967Z</time></trkpt><trkpt lat="45.16088047445774" lon="9.47151087892963"><ele>67.16666666666666</ele><time>2026-04-26T08:20:59.967Z</time></trkpt><trkpt lat="45.16097416632341" lon="9.4714971780118"><ele>67.33333333333333</ele><time>2026-04-26T08:21:01.967Z</time></trkpt><trkpt lat="45.16106104825553" lon="9.471490659690755"><ele>67.5</ele><time>2026-04-26T08:21:03.967Z</time></trkpt><trkpt lat="45.16114225019227" lon="9.47147270613585"><ele>67.66666666666667</ele><time>2026-04-26T08:21:05.967Z</time></trkpt><trkpt lat="45.16121933982533" lon="9.471436023502708"><ele>67.83333333333334</ele><time>2026-04-26T08:21:07.967Z</time></trkpt><trkpt lat="45.16129495803076" lon="9.471341032194802"><ele>68.0</ele><time>2026-04-26T08:21:14.967Z</time></trkpt><trkpt lat="45.16131424107555" lon="9.471218929480683"><ele>67.6</ele><time>2026-04-26T08:21:16.967Z</time></trkpt><trkpt lat="45.161336548239134" lon="9.47110789630933"><ele>67.19999999999999</ele><time>2026-04-26T08:21:18.967Z</time></trkpt><trkpt lat="45.16142381364007" lon="9.471068913146226"><ele>66.8</ele><time>2026-04-26T08:21:20.967Z</time></trkpt><trkpt lat="45.16152140073189" lon="9.471071866534249"><ele>66.39999999999999</ele><time>2026-04-26T08:21:22.967Z</time></trkpt><trkpt lat="45.16162907054825" lon="9.471057592681442"><ele>66.0</ele><time>2026-04-26T08:21:24.967Z</time></trkpt><trkpt lat="45.16174167044794" lon="9.471045251677712"><ele>67.0</ele><time>2026-04-26T08:21:26.967Z</time></trkpt><trkpt lat="45.16184699845137" lon="9.471045637547347"><ele>68.0</ele><time>2026-04-26T08:21:28.967Z</time></trkpt><trkpt lat="45.16195785338151" lon="9.47103274790204"><ele>69.0</ele><time>2026-04-26T08:21:30.967Z</time></trkpt><trkpt lat="45.162068697187195" lon="9.47101759444977"><ele>70.0</ele><time>2026-04-26T08:21:32.967Z</time></trkpt><trkpt lat="45.16219147841247" lon="9.471015523752392"><ele>70.0</ele><time>2026-04-26T08:21:34.967Z</time></trkpt><trkpt lat="45.162305268995866" lon="9.471013267914275"><ele>70.0</ele><time>2026-04-26T08:21:36.966Z</time></trkpt><trkpt lat="45.16243109165684" lon="9.471004240988702"><ele>70.0</ele><time>2026-04-26T08:21:38.966Z</time></trkpt><trkpt lat="45.16255325544084" lon="9.471013307304432"><ele>70.0</ele><time>2026-04-26T08:21:40.966Z</time></trkpt><trkpt lat="45.1626559399411" lon="9.471015298996052"><ele>70.16666666666666</ele><time>2026-04-26T08:21:42.966Z</time></trkpt><trkpt lat="45.16276152613555" lon="9.471020413430448"><ele>70.33333333333333</ele><time>2026-04-26T08:21:44.966Z</time></trkpt><trkpt lat="45.16284001812643" lon="9.471036588775759"><ele>70.5</ele><time>2026-04-26T08:21:46.966Z</time></trkpt><trkpt lat="45.16290855229084" lon="9.471043612439528"><ele>70.66666666666667</ele><time>2026-04-26T08:21:47.966Z</time></trkpt><trkpt lat="45.162972495891765" lon="9.471067520829674"><ele>70.83333333333334</ele><time>2026-04-26T08:21:48.966Z</time></trkpt><trkpt lat="45.16308243238318" lon="9.471063432436813"><ele>71.0</ele><time>2026-04-26T08:21:50.966Z</time></trkpt><trkpt lat="45.16318050759555" lon="9.471067767823525"><ele>71.0</ele><time>2026-04-26T08:21:52.966Z</time></trkpt><trkpt lat="45.16325149511637" lon="9.471054634914408"><ele>71.0</ele><time>2026-04-26T08:21:56.966Z</time></trkpt><trkpt lat="45.163340631356014" lon="9.471039300283097"><ele>71.0</ele><time>2026-04-26T08:21:59.966Z</time></trkpt><trkpt lat="45.16340420929358" lon="9.47098548221837"><ele>71.0</ele><time>2026-04-26T08:22:01.966Z</time></trkpt><trkpt lat="45.163425559046274" lon="9.470852215294933"><ele>71.0</ele><time>2026-04-26T08:22:03.966Z</time></trkpt><trkpt lat="45.16342325061843" lon="9.470761924896943"><ele>71.0</ele><time>2026-04-26T08:22:05.966Z</time></trkpt><trkpt lat="45.16341144156709" lon="9.470669108201449"><ele>71.0</ele><time>2026-04-26T08:22:07.966Z</time></trkpt><trkpt lat="45.16341135593985" lon="9.470536738925931"><ele>71.0</ele><time>2026-04-26T08:22:09.966Z</time></trkpt><trkpt lat="45.163404688240604" lon="9.47037075036059"><ele>71.0</ele><time>2026-04-26T08:22:11.966Z</time></trkpt><trkpt lat="45.16340576102192" lon="9.470195126592843"><ele>71.0</ele><time>2026-04-26T08:22:13.966Z</time></trkpt><trkpt lat="45.163400456943315" lon="9.470047446947872"><ele>71.0</ele><time>2026-04-26T08:22:15.966Z</time></trkpt><trkpt lat="45.16340038261935" lon="9.469903118604368"><ele>70.8</ele><time>2026-04-26T08:22:17.967Z</time></trkpt><trkpt lat="45.16342605821224" lon="9.469749995325875"><ele>70.6</ele><time>2026-04-26T08:22:19.967Z</time></trkpt><trkpt lat="45.16342763579588" lon="9.469587384364056"><ele>70.4</ele><time>2026-04-26T08:22:21.967Z</time></trkpt><trkpt lat="45.163421413339364" lon="9.469449040471723"><ele>70.2</ele><time>2026-04-26T08:22:23.967Z</time></trkpt><trkpt lat="45.16342774808561" lon="9.469347068754228"><ele>70.0</ele><time>2026-04-26T08:22:24.967Z</time></trkpt><trkpt lat="45.16343008006549" lon="9.469181094917621"><ele>70.0</ele><time>2026-04-26T08:22:26.967Z</time></trkpt><trkpt lat="45.163413901919526" lon="9.469050849486425"><ele>70.0</ele><time>2026-04-26T08:22:28.967Z</time></trkpt><trkpt lat="45.16340322334783" lon="9.468882732211782"><ele>70.0</ele><time>2026-04-26T08:22:30.967Z</time></trkpt><trkpt lat="45.16341856959092" lon="9.468721387320649"><ele>70.0</ele><time>2026-04-26T08:22:32.967Z</time></trkpt><trkpt lat="45.16342679293647" lon="9.46857136205487"><ele>70.0</ele><time>2026-04-26T08:22:34.967Z</time></trkpt><trkpt lat="45.163427591629954" lon="9.4684054613183"><ele>70.0</ele><time>2026-04-26T08:22:36.967Z</time></trkpt><trkpt lat="45.16342805564616" lon="9.468272161516277"><ele>70.0</ele><time>2026-04-26T08:22:38.967Z</time></trkpt><trkpt lat="45.16342800179128" lon="9.468155895626738"><ele>70.0</ele><time>2026-04-26T08:22:40.967Z</time></trkpt><trkpt lat="45.16344079362045" lon="9.468044918419496"><ele>70.0</ele><time>2026-04-26T08:22:41.967Z</time></trkpt><trkpt lat="45.16345386729982" lon="9.467953187421909"><ele>70.0</ele><time>2026-04-26T08:22:42.967Z</time></trkpt><trkpt lat="45.16350029346699" lon="9.467769831652173"><ele>69.8</ele><time>2026-04-26T08:22:44.967Z</time></trkpt><trkpt lat="45.16352690221379" lon="9.46768744419619"><ele>69.6</ele><time>2026-04-26T08:22:45.967Z</time></trkpt><trkpt lat="45.16356482299622" lon="9.467515009284918"><ele>69.4</ele><time>2026-04-26T08:22:47.967Z</time></trkpt><trkpt lat="45.163590164434595" lon="9.46742084229511"><ele>69.2</ele><time>2026-04-26T08:22:48.967Z</time></trkpt><trkpt lat="45.163630316153366" lon="9.467263563629619"><ele>69.0</ele><time>2026-04-26T08:22:50.967Z</time></trkpt><trkpt lat="45.163663770900634" lon="9.46717628723978"><ele>68.83333333333333</ele><time>2026-04-26T08:22:51.967Z</time></trkpt><trkpt lat="45.16368660875276" lon="9.467087585508999"><ele>68.66666666666667</ele><time>2026-04-26T08:22:52.967Z</time></trkpt><trkpt lat="45.16372632749508" lon="9.466930072209427"><ele>68.5</ele><time>2026-04-26T08:22:54.967Z</time></trkpt><trkpt lat="45.16374851809845" lon="9.466843362154137"><ele>68.33333333333334</ele><time>2026-04-26T08:22:55.967Z</time></trkpt><trkpt lat="45.163776499553066" lon="9.466762367899088"><ele>68.16666666666667</ele><time>2026-04-26T08:22:56.967Z</time></trkpt><trkpt lat="45.1638248368291" lon="9.466607303377042"><ele>68.0</ele><time>2026-04-26T08:22:58.967Z</time></trkpt><trkpt lat="45.16384959774988" lon="9.46652046277066"><ele>68.0</ele><time>2026-04-26T08:22:59.967Z</time></trkpt><trkpt lat="45.16390372038734" lon="9.46636542674521"><ele>68.0</ele><time>2026-04-26T08:23:01.967Z</time></trkpt><trkpt lat="45.16392619544327" lon="9.466278089902385"><ele>68.0</ele><time>2026-04-26T08:23:02.967Z</time></trkpt><trkpt lat="45.163977760612" lon="9.466125007937471"><ele>68.0</ele><time>2026-04-26T08:23:04.967Z</time></trkpt><trkpt lat="45.16402601436298" lon="9.46596827640345"><ele>68.0</ele><time>2026-04-26T08:23:06.967Z</time></trkpt><trkpt lat="45.16407033354792" lon="9.46581593151651"><ele>68.0</ele><time>2026-04-26T08:23:08.967Z</time></trkpt><trkpt lat="45.164115838057064" lon="9.46567005987844"><ele>68.0</ele><time>2026-04-26T08:23:10.967Z</time></trkpt><trkpt lat="45.164160064149215" lon="9.465526908560387"><ele>68.0</ele><time>2026-04-26T08:23:12.967Z</time></trkpt><trkpt lat="45.16419942317986" lon="9.465380471174562"><ele>68.0</ele><time>2026-04-26T08:23:14.967Z</time></trkpt><trkpt lat="45.16423110163481" lon="9.465243008957563"><ele>68.0</ele><time>2026-04-26T08:23:16.967Z</time></trkpt><trkpt lat="45.164279945691" lon="9.465135693102665"><ele>68.2</ele><time>2026-04-26T08:23:18.967Z</time></trkpt><trkpt lat="45.164357796643074" lon="9.465054165190033"><ele>68.4</ele><time>2026-04-26T08:23:21.967Z</time></trkpt><trkpt lat="45.16439519854841" lon="9.464891548800392"><ele>68.60000000000001</ele><time>2026-04-26T08:23:23.966Z</time></trkpt><trkpt lat="45.16443995402849" lon="9.464746620583472"><ele>68.8</ele><time>2026-04-26T08:23:25.966Z</time></trkpt><trkpt lat="45.16448638089449" lon="9.464590838683838"><ele>69.0</ele><time>2026-04-26T08:23:27.966Z</time></trkpt><trkpt lat="45.16453273696714" lon="9.464446303150277"><ele>69.0</ele><time>2026-04-26T08:23:29.966Z</time></trkpt><trkpt lat="45.16457731428211" lon="9.464303198696507"><ele>69.0</ele><time>2026-04-26T08:23:31.966Z</time></trkpt><trkpt lat="45.1646222526736" lon="9.464153191869439"><ele>69.0</ele><time>2026-04-26T08:23:33.966Z</time></trkpt><trkpt lat="45.16466991499785" lon="9.464002450798205"><ele>69.0</ele><time>2026-04-26T08:23:35.966Z</time></trkpt><trkpt lat="45.16471351075924" lon="9.46384999204648"><ele>69.0</ele><time>2026-04-26T08:23:37.966Z</time></trkpt><trkpt lat="45.16476288033754" lon="9.463698799697628"><ele>69.0</ele><time>2026-04-26T08:23:39.966Z</time></trkpt><trkpt lat="45.1648137401615" lon="9.463540444975383"><ele>69.0</ele><time>2026-04-26T08:23:41.966Z</time></trkpt><trkpt lat="45.16486162203941" lon="9.463390179164328"><ele>69.0</ele><time>2026-04-26T08:23:43.966Z</time></trkpt><trkpt lat="45.164906509386704" lon="9.463237198923023"><ele>69.0</ele><time>2026-04-26T08:23:45.966Z</time></trkpt><trkpt lat="45.16495275621886" lon="9.46308599120703"><ele>69.0</ele><time>2026-04-26T08:23:47.966Z</time></trkpt><trkpt lat="45.16499806351902" lon="9.46292927120306"><ele>69.0</ele><time>2026-04-26T08:23:49.966Z</time></trkpt><trkpt lat="45.16504485677842" lon="9.462781779164057"><ele>69.0</ele><time>2026-04-26T08:23:51.966Z</time></trkpt><trkpt lat="45.16509128920887" lon="9.462626774403516"><ele>68.8</ele><time>2026-04-26T08:23:53.966Z</time></trkpt><trkpt lat="45.16513806029868" lon="9.462474775720992"><ele>68.60000000000001</ele><time>2026-04-26T08:23:55.966Z</time></trkpt><trkpt lat="45.1651621079552" lon="9.462391756607929"><ele>68.4</ele><time>2026-04-26T08:23:56.966Z</time></trkpt><trkpt lat="45.16520922890344" lon="9.462233321801413"><ele>68.2</ele><time>2026-04-26T08:23:58.966Z</time></trkpt><trkpt lat="45.16525376844795" lon="9.46207056454591"><ele>68.0</ele><time>2026-04-26T08:24:00.966Z</time></trkpt><trkpt lat="45.16530348301436" lon="9.46191190246202"><ele>67.66666666666667</ele><time>2026-04-26T08:24:02.966Z</time></trkpt><trkpt lat="45.1653265866892" lon="9.46182765515299"><ele>67.33333333333334</ele><time>2026-04-26T08:24:03.966Z</time></trkpt><trkpt lat="45.165352169320826" lon="9.461743502809295"><ele>67.0</ele><time>2026-04-26T08:24:04.966Z</time></trkpt><trkpt lat="45.16539897876584" lon="9.461581382281548"><ele>66.66666666666667</ele><time>2026-04-26T08:24:06.966Z</time></trkpt><trkpt lat="45.16542471589025" lon="9.4614887455826"><ele>66.33333333333333</ele><time>2026-04-26T08:24:07.966Z</time></trkpt><trkpt lat="45.16545093813586" lon="9.461398337617846"><ele>66.0</ele><time>2026-04-26T08:24:08.966Z</time></trkpt><trkpt lat="45.165473763738724" lon="9.461313720916182"><ele>66.0</ele><time>2026-04-26T08:24:09.966Z</time></trkpt><trkpt lat="45.16550030650389" lon="9.461226916749368"><ele>66.0</ele><time>2026-04-26T08:24:10.966Z</time></trkpt><trkpt lat="45.16552766367542" lon="9.461143965342888"><ele>66.0</ele><time>2026-04-26T08:24:11.966Z</time></trkpt><trkpt lat="45.16557889441362" lon="9.46097199002933"><ele>66.0</ele><time>2026-04-26T08:24:13.966Z</time></trkpt><trkpt lat="45.16560556728239" lon="9.460883889408658"><ele>66.0</ele><time>2026-04-26T08:24:14.966Z</time></trkpt><trkpt lat="45.16563025833302" lon="9.460797424117276"><ele>66.0</ele><time>2026-04-26T08:24:15.966Z</time></trkpt><trkpt lat="45.16565484498021" lon="9.460708002356933"><ele>66.0</ele><time>2026-04-26T08:24:16.966Z</time></trkpt><trkpt lat="45.16568170896664" lon="9.460624738058602"><ele>66.0</ele><time>2026-04-26T08:24:17.966Z</time></trkpt><trkpt lat="45.1657037447681" lon="9.460537377856332"><ele>66.0</ele><time>2026-04-26T08:24:18.966Z</time></trkpt><trkpt lat="45.16572967201572" lon="9.460447643500425"><ele>66.0</ele><time>2026-04-26T08:24:19.966Z</time></trkpt><trkpt lat="45.16575764168317" lon="9.460359139664627"><ele>66.0</ele><time>2026-04-26T08:24:20.966Z</time></trkpt><trkpt lat="45.165782233203714" lon="9.460272852292727"><ele>66.0</ele><time>2026-04-26T08:24:21.966Z</time></trkpt><trkpt lat="45.16580770564161" lon="9.460185709187662"><ele>66.0</ele><time>2026-04-26T08:24:22.966Z</time></trkpt><trkpt lat="45.16582594912985" lon="9.460095252173522"><ele>66.0</ele><time>2026-04-26T08:24:23.965Z</time></trkpt><trkpt lat="45.16585395414318" lon="9.460014839182502"><ele>66.0</ele><time>2026-04-26T08:24:24.965Z</time></trkpt><trkpt lat="45.16587709205708" lon="9.459923919184035"><ele>66.0</ele><time>2026-04-26T08:24:25.966Z</time></trkpt><trkpt lat="45.16592237728413" lon="9.459752817813083"><ele>66.0</ele><time>2026-04-26T08:24:27.966Z</time></trkpt><trkpt lat="45.165944798494785" lon="9.459662635305056"><ele>66.0</ele><time>2026-04-26T08:24:28.966Z</time></trkpt><trkpt lat="45.16596526156266" lon="9.459576387822066"><ele>66.0</ele><time>2026-04-26T08:24:29.966Z</time></trkpt><trkpt lat="45.166009841648425" lon="9.45940954523371"><ele>66.16666666666667</ele><time>2026-04-26T08:24:31.966Z</time></trkpt><trkpt lat="45.166032590467225" lon="9.459317938020167"><ele>66.33333333333333</ele><time>2026-04-26T08:24:32.966Z</time></trkpt><trkpt lat="45.16605543762704" lon="9.459227252488313"><ele>66.5</ele><time>2026-04-26T08:24:33.966Z</time></trkpt><trkpt lat="45.166082776510734" lon="9.459141391434965"><ele>66.66666666666666</ele><time>2026-04-26T08:24:34.966Z</time></trkpt><trkpt lat="45.166108477986185" lon="9.4590576004634"><ele>66.83333333333333</ele><time>2026-04-26T08:24:35.966Z</time></trkpt><trkpt lat="45.16613676732923" lon="9.458967162402773"><ele>67.0</ele><time>2026-04-26T08:24:36.966Z</time></trkpt><trkpt lat="45.16618309255807" lon="9.458793827073036"><ele>67.0</ele><time>2026-04-26T08:24:38.966Z</time></trkpt><trkpt lat="45.166202145471615" lon="9.458700898309026"><ele>67.0</ele><time>2026-04-26T08:24:39.966Z</time></trkpt><trkpt lat="45.16622786328535" lon="9.458615075643351"><ele>67.0</ele><time>2026-04-26T08:24:40.966Z</time></trkpt><trkpt lat="45.16626715572748" lon="9.458438489473131"><ele>67.0</ele><time>2026-04-26T08:24:42.966Z</time></trkpt><trkpt lat="45.16628755165802" lon="9.458342602458655"><ele>67.0</ele><time>2026-04-26T08:24:43.966Z</time></trkpt><trkpt lat="45.16630430148175" lon="9.458253282044804"><ele>67.0</ele><time>2026-04-26T08:24:44.966Z</time></trkpt><trkpt lat="45.16631573685649" lon="9.458158068676546"><ele>67.0</ele><time>2026-04-26T08:24:45.966Z</time></trkpt><trkpt lat="45.16633062171738" lon="9.458061903468549"><ele>67.0</ele><time>2026-04-26T08:24:46.966Z</time></trkpt><trkpt lat="45.16634597346233" lon="9.45796349469178"><ele>67.0</ele><time>2026-04-26T08:24:47.966Z</time></trkpt><trkpt lat="45.16636143000739" lon="9.457869561746369"><ele>67.0</ele><time>2026-04-26T08:24:48.966Z</time></trkpt><trkpt lat="45.16637339470781" lon="9.457770330408682"><ele>67.0</ele><time>2026-04-26T08:24:49.966Z</time></trkpt><trkpt lat="45.16638675501132" lon="9.457675949259079"><ele>67.0</ele><time>2026-04-26T08:24:50.966Z</time></trkpt><trkpt lat="45.16639813378076" lon="9.457583493853189"><ele>67.0</ele><time>2026-04-26T08:24:51.966Z</time></trkpt><trkpt lat="45.166423572403204" lon="9.457404445118467"><ele>67.2</ele><time>2026-04-26T08:24:53.966Z</time></trkpt><trkpt lat="45.166444542022916" lon="9.457242661979764"><ele>67.4</ele><time>2026-04-26T08:24:55.965Z</time></trkpt><trkpt lat="45.16646318159495" lon="9.457102328154967"><ele>67.6</ele><time>2026-04-26T08:24:57.965Z</time></trkpt><trkpt lat="45.166484974573976" lon="9.456929592639028"><ele>67.8</ele><time>2026-04-26T08:24:59.965Z</time></trkpt><trkpt lat="45.16649661441201" lon="9.456836933046132"><ele>68.0</ele><time>2026-04-26T08:25:00.965Z</time></trkpt><trkpt lat="45.166505999463716" lon="9.456747679962296"><ele>67.99999999999999</ele><time>2026-04-26T08:25:01.965Z</time></trkpt><trkpt lat="45.16651954294475" lon="9.456650622914115"><ele>68.0</ele><time>2026-04-26T08:25:02.965Z</time></trkpt><trkpt lat="45.166528462424175" lon="9.456557609154757"><ele>68.0</ele><time>2026-04-26T08:25:03.965Z</time></trkpt><trkpt lat="45.166532375125364" lon="9.456462123220925"><ele>68.0</ele><time>2026-04-26T08:25:04.965Z</time></trkpt><trkpt lat="45.16652839459755" lon="9.456365691124816"><ele>68.0</ele><time>2026-04-26T08:25:05.965Z</time></trkpt><trkpt lat="45.16652136120276" lon="9.456263314223671"><ele>67.99999999999999</ele><time>2026-04-26T08:25:06.965Z</time></trkpt><trkpt lat="45.166509725382056" lon="9.456170557706312"><ele>68.0</ele><time>2026-04-26T08:25:07.965Z</time></trkpt><trkpt lat="45.16648908282524" lon="9.45607908149129"><ele>68.0</ele><time>2026-04-26T08:25:08.965Z</time></trkpt><trkpt lat="45.166464643116285" lon="9.455988231440154"><ele>68.0</ele><time>2026-04-26T08:25:09.965Z</time></trkpt><trkpt lat="45.16643641042403" lon="9.45589689940467"><ele>68.0</ele><time>2026-04-26T08:25:10.965Z</time></trkpt><trkpt lat="45.16637878363573" lon="9.455740082988248"><ele>68.0</ele><time>2026-04-26T08:25:12.965Z</time></trkpt><trkpt lat="45.166343422325134" lon="9.455656926889427"><ele>68.0</ele><time>2026-04-26T08:25:13.965Z</time></trkpt><trkpt lat="45.16625464835849" lon="9.455530451538193"><ele>67.83333333333334</ele><time>2026-04-26T08:25:15.965Z</time></trkpt><trkpt lat="45.166203629694365" lon="9.455451700520038"><ele>67.66666666666667</ele><time>2026-04-26T08:25:16.965Z</time></trkpt><trkpt lat="45.16616240505535" lon="9.455382894604062"><ele>67.5</ele><time>2026-04-26T08:25:17.965Z</time></trkpt><trkpt lat="45.16607818228185" lon="9.455246078495971"><ele>67.33333333333333</ele><time>2026-04-26T08:25:19.965Z</time></trkpt><trkpt lat="45.1660376249203" lon="9.455169020972823"><ele>67.16666666666666</ele><time>2026-04-26T08:25:20.965Z</time></trkpt><trkpt lat="45.166002940944296" lon="9.455087665459509"><ele>67.0</ele><time>2026-04-26T08:25:21.965Z</time></trkpt><trkpt lat="45.16596877634513" lon="9.45500133793276"><ele>67.0</ele><time>2026-04-26T08:25:22.965Z</time></trkpt><trkpt lat="45.165943401318145" lon="9.454823871012147"><ele>67.0</ele><time>2026-04-26T08:25:24.965Z</time></trkpt><trkpt lat="45.16593660961291" lon="9.454725833733022"><ele>67.0</ele><time>2026-04-26T08:25:25.965Z</time></trkpt><trkpt lat="45.16594553748136" lon="9.45463650765791"><ele>67.0</ele><time>2026-04-26T08:25:26.965Z</time></trkpt><trkpt lat="45.165954387741486" lon="9.454544295010177"><ele>67.0</ele><time>2026-04-26T08:25:27.965Z</time></trkpt><trkpt lat="45.16596994790871" lon="9.45445523043114"><ele>67.0</ele><time>2026-04-26T08:25:28.965Z</time></trkpt><trkpt lat="45.16601460335906" lon="9.454291943416594"><ele>66.25</ele><time>2026-04-26T08:25:30.965Z</time></trkpt><trkpt lat="45.16605707027098" lon="9.454122179575217"><ele>65.5</ele><time>2026-04-26T08:25:32.965Z</time></trkpt><trkpt lat="45.16609891067803" lon="9.453960515879661"><ele>64.75</ele><time>2026-04-26T08:25:34.965Z</time></trkpt><trkpt lat="45.16613718696509" lon="9.45380630264469"><ele>64.0</ele><time>2026-04-26T08:25:36.965Z</time></trkpt><trkpt lat="45.166180230334255" lon="9.453665219191077"><ele>64.0</ele><time>2026-04-26T08:25:38.965Z</time></trkpt><trkpt lat="45.166221320950505" lon="9.453502154312217"><ele>64.0</ele><time>2026-04-26T08:25:40.965Z</time></trkpt><trkpt lat="45.16626557503992" lon="9.453349392978586"><ele>64.0</ele><time>2026-04-26T08:25:42.965Z</time></trkpt><trkpt lat="45.16631145017002" lon="9.453199782601628"><ele>64.0</ele><time>2026-04-26T08:25:44.965Z</time></trkpt><trkpt lat="45.16634242742652" lon="9.453077177225506"><ele>64.0</ele><time>2026-04-26T08:25:46.965Z</time></trkpt><trkpt lat="45.166357911491566" lon="9.452971387820128"><ele>64.25</ele><time>2026-04-26T08:25:48.965Z</time></trkpt><trkpt lat="45.166388879603645" lon="9.452832814506152"><ele>64.5</ele><time>2026-04-26T08:25:50.965Z</time></trkpt><trkpt lat="45.16643576637234" lon="9.452689029888568"><ele>64.75</ele><time>2026-04-26T08:25:52.965Z</time></trkpt><trkpt lat="45.16648750169327" lon="9.452522588561793"><ele>65.0</ele><time>2026-04-26T08:25:54.965Z</time></trkpt><trkpt lat="45.16654520210761" lon="9.452376704696183"><ele>65.0</ele><time>2026-04-26T08:25:56.964Z</time></trkpt><trkpt lat="45.166577912805636" lon="9.45229796793938"><ele>65.0</ele><time>2026-04-26T08:25:57.964Z</time></trkpt><trkpt lat="45.166650452132735" lon="9.452155276829286"><ele>65.0</ele><time>2026-04-26T08:25:59.964Z</time></trkpt><trkpt lat="45.166691661914044" lon="9.452080587690856"><ele>65.0</ele><time>2026-04-26T08:26:00.964Z</time></trkpt><trkpt lat="45.16677430767215" lon="9.45195060905988"><ele>65.0</ele><time>2026-04-26T08:26:02.964Z</time></trkpt><trkpt lat="45.16681957819809" lon="9.451882690165242"><ele>65.0</ele><time>2026-04-26T08:26:03.964Z</time></trkpt><trkpt lat="45.16689259431544" lon="9.451758038287082"><ele>65.6</ele><time>2026-04-26T08:26:05.964Z</time></trkpt><trkpt lat="45.166983435484205" lon="9.451633586632893"><ele>66.2</ele><time>2026-04-26T08:26:07.964Z</time></trkpt><trkpt lat="45.16706149760936" lon="9.451510646607861"><ele>66.8</ele><time>2026-04-26T08:26:09.964Z</time></trkpt><trkpt lat="45.16710626602735" lon="9.451442955510934"><ele>67.4</ele><time>2026-04-26T08:26:10.964Z</time></trkpt><trkpt lat="45.16718692270076" lon="9.45131688846193"><ele>68.0</ele><time>2026-04-26T08:26:12.964Z</time></trkpt><trkpt lat="45.16727255354919" lon="9.45118536208418"><ele>68.2</ele><time>2026-04-26T08:26:14.964Z</time></trkpt><trkpt lat="45.167351978112215" lon="9.4510646505831"><ele>68.4</ele><time>2026-04-26T08:26:16.964Z</time></trkpt><trkpt lat="45.16742173191275" lon="9.45094231637574"><ele>68.60000000000001</ele><time>2026-04-26T08:26:18.964Z</time></trkpt><trkpt lat="45.16747319034372" lon="9.450830472090658"><ele>68.8</ele><time>2026-04-26T08:26:20.964Z</time></trkpt><trkpt lat="45.167537199560215" lon="9.450706700672661"><ele>69.0</ele><time>2026-04-26T08:26:22.964Z</time></trkpt><trkpt lat="45.16757935780482" lon="9.45063209104179"><ele>69.0</ele><time>2026-04-26T08:26:23.964Z</time></trkpt><trkpt lat="45.167620357919034" lon="9.450564171709207"><ele>69.0</ele><time>2026-04-26T08:26:24.964Z</time></trkpt><trkpt lat="45.167657938341" lon="9.45049213583818"><ele>69.0</ele><time>2026-04-26T08:26:25.964Z</time></trkpt><trkpt lat="45.16773183941983" lon="9.450353972251776"><ele>69.0</ele><time>2026-04-26T08:26:27.964Z</time></trkpt><trkpt lat="45.16779569802266" lon="9.45019451349067"><ele>69.0</ele><time>2026-04-26T08:26:29.964Z</time></trkpt><trkpt lat="45.16782777965457" lon="9.450112441658405"><ele>69.0</ele><time>2026-04-26T08:26:30.964Z</time></trkpt><trkpt lat="45.16786345842912" lon="9.450028628176232"><ele>69.0</ele><time>2026-04-26T08:26:31.964Z</time></trkpt><trkpt lat="45.167925400680474" lon="9.449870024366383"><ele>69.0</ele><time>2026-04-26T08:26:33.964Z</time></trkpt><trkpt lat="45.16797686376645" lon="9.449719387556337"><ele>69.0</ele><time>2026-04-26T08:26:35.965Z</time></trkpt><trkpt lat="45.16803166446743" lon="9.449569768278248"><ele>69.0</ele><time>2026-04-26T08:26:37.964Z</time></trkpt><trkpt lat="45.168063868567884" lon="9.449484198781402"><ele>69.0</ele><time>2026-04-26T08:26:38.964Z</time></trkpt><trkpt lat="45.16811232618392" lon="9.449322975784016"><ele>69.0</ele><time>2026-04-26T08:26:40.965Z</time></trkpt><trkpt lat="45.168142522978044" lon="9.44924090990096"><ele>69.0</ele><time>2026-04-26T08:26:41.964Z</time></trkpt><trkpt lat="45.168173173387515" lon="9.4491577921657"><ele>69.0</ele><time>2026-04-26T08:26:42.964Z</time></trkpt><trkpt lat="45.16820163124521" lon="9.449076808110394"><ele>69.0</ele><time>2026-04-26T08:26:43.964Z</time></trkpt><trkpt lat="45.16826173452305" lon="9.448923470282494"><ele>69.0</ele><time>2026-04-26T08:26:45.964Z</time></trkpt><trkpt lat="45.168294979707376" lon="9.448836924927624"><ele>69.0</ele><time>2026-04-26T08:26:46.964Z</time></trkpt><trkpt lat="45.16835525622624" lon="9.448680614632057"><ele>69.0</ele><time>2026-04-26T08:26:48.964Z</time></trkpt><trkpt lat="45.168383930649" lon="9.448597200533722"><ele>69.0</ele><time>2026-04-26T08:26:49.964Z</time></trkpt><trkpt lat="45.16840963062027" lon="9.448514471719253"><ele>69.0</ele><time>2026-04-26T08:26:50.964Z</time></trkpt><trkpt lat="45.16843616471136" lon="9.4484330949326"><ele>69.0</ele><time>2026-04-26T08:26:51.964Z</time></trkpt><trkpt lat="45.168465842591814" lon="9.448350735058343"><ele>69.0</ele><time>2026-04-26T08:26:52.964Z</time></trkpt><trkpt lat="45.168498248440265" lon="9.448271022836815"><ele>69.0</ele><time>2026-04-26T08:26:53.964Z</time></trkpt><trkpt lat="45.16854929394895" lon="9.448124747475587"><ele>69.0</ele><time>2026-04-26T08:26:55.964Z</time></trkpt><trkpt lat="45.168585828643636" lon="9.448050447231395"><ele>69.0</ele><time>2026-04-26T08:26:56.964Z</time></trkpt><trkpt lat="45.16862460865692" lon="9.447970227657922"><ele>69.0</ele><time>2026-04-26T08:26:57.964Z</time></trkpt><trkpt lat="45.16869683313793" lon="9.447832865188236"><ele>69.0</ele><time>2026-04-26T08:26:59.964Z</time></trkpt><trkpt lat="45.16877847667534" lon="9.447705816238017"><ele>69.0</ele><time>2026-04-26T08:27:01.964Z</time></trkpt><trkpt lat="45.16886175957049" lon="9.447598494907274"><ele>69.0</ele><time>2026-04-26T08:27:03.964Z</time></trkpt><trkpt lat="45.16891483601358" lon="9.44754588420988"><ele>69.2</ele><time>2026-04-26T08:27:04.964Z</time></trkpt><trkpt lat="45.16898888037803" lon="9.447425744213696"><ele>69.4</ele><time>2026-04-26T08:27:06.964Z</time></trkpt><trkpt lat="45.16904669416155" lon="9.447336721493235"><ele>69.6</ele><time>2026-04-26T08:27:08.964Z</time></trkpt><trkpt lat="45.16909578511498" lon="9.447231803961708"><ele>69.8</ele><time>2026-04-26T08:27:10.964Z</time></trkpt><trkpt lat="45.16914194384393" lon="9.447098991386245"><ele>70.0</ele><time>2026-04-26T08:27:12.964Z</time></trkpt><trkpt lat="45.16916903211545" lon="9.446959362098251"><ele>70.0</ele><time>2026-04-26T08:27:14.963Z</time></trkpt><trkpt lat="45.16918336714615" lon="9.446841988174866"><ele>70.0</ele><time>2026-04-26T08:27:16.963Z</time></trkpt><trkpt lat="45.1691901908829" lon="9.446692338712174"><ele>70.0</ele><time>2026-04-26T08:27:18.963Z</time></trkpt><trkpt lat="45.16921255148317" lon="9.446605785364763"><ele>70.0</ele><time>2026-04-26T08:27:20.963Z</time></trkpt><trkpt lat="45.16923148761821" lon="9.446480082819061"><ele>70.0</ele><time>2026-04-26T08:27:22.963Z</time></trkpt><trkpt lat="45.169280669637885" lon="9.446417891923717"><ele>70.0</ele><time>2026-04-26T08:27:24.963Z</time></trkpt><trkpt lat="45.16939590747322" lon="9.44639347884397"><ele>70.0</ele><time>2026-04-26T08:27:26.963Z</time></trkpt><trkpt lat="45.1695010391516" lon="9.446389360378278"><ele>70.0</ele><time>2026-04-26T08:27:28.963Z</time></trkpt><trkpt lat="45.16959207973321" lon="9.446385561211109"><ele>70.0</ele><time>2026-04-26T08:27:30.963Z</time></trkpt><trkpt lat="45.16968365621607" lon="9.446390100410113"><ele>70.0</ele><time>2026-04-26T08:27:32.963Z</time></trkpt><trkpt lat="45.169771641238135" lon="9.446361881393788"><ele>70.0</ele><time>2026-04-26T08:27:34.963Z</time></trkpt><trkpt lat="45.169863880484755" lon="9.446341042758444"><ele>70.0</ele><time>2026-04-26T08:27:36.963Z</time></trkpt><trkpt lat="45.16995260817478" lon="9.446335325631104"><ele>70.0</ele><time>2026-04-26T08:27:38.963Z</time></trkpt><trkpt lat="45.170021791784514" lon="9.446286581236103"><ele>70.0</ele><time>2026-04-26T08:27:40.963Z</time></trkpt><trkpt lat="45.17007179448399" lon="9.446154077072258"><ele>70.0</ele><time>2026-04-26T08:27:42.963Z</time></trkpt><trkpt lat="45.17010106661424" lon="9.446066395786989"><ele>70.0</ele><time>2026-04-26T08:27:43.963Z</time></trkpt><trkpt lat="45.17014410775703" lon="9.445913273870616"><ele>70.25</ele><time>2026-04-26T08:27:45.963Z</time></trkpt><trkpt lat="45.17017484342747" lon="9.445766032665842"><ele>70.5</ele><time>2026-04-26T08:27:47.963Z</time></trkpt><trkpt lat="45.17021916343479" lon="9.445627304870872"><ele>70.75</ele><time>2026-04-26T08:27:49.963Z</time></trkpt><trkpt lat="45.17027263187141" lon="9.445474199329452"><ele>71.0</ele><time>2026-04-26T08:27:51.963Z</time></trkpt><trkpt lat="45.17031840732422" lon="9.44531859843221"><ele>71.0</ele><time>2026-04-26T08:27:53.963Z</time></trkpt><trkpt lat="45.17037466571128" lon="9.44517792677841"><ele>71.0</ele><time>2026-04-26T08:27:55.963Z</time></trkpt><trkpt lat="45.170433507960006" lon="9.4450541600278"><ele>71.0</ele><time>2026-04-26T08:27:57.963Z</time></trkpt><trkpt lat="45.1704916220749" lon="9.444912695749249"><ele>71.0</ele><time>2026-04-26T08:27:59.963Z</time></trkpt><trkpt lat="45.1705234392095" lon="9.444821881828938"><ele>71.0</ele><time>2026-04-26T08:28:01.963Z</time></trkpt><trkpt lat="45.17069331907916" lon="9.44481271503923"><ele>70.5</ele><time>2026-04-26T08:28:05.963Z</time></trkpt><trkpt lat="45.17080818795349" lon="9.444899649178176"><ele>70.0</ele><time>2026-04-26T08:28:07.963Z</time></trkpt><trkpt lat="45.17091489656963" lon="9.444925839456845"><ele>69.5</ele><time>2026-04-26T08:28:09.963Z</time></trkpt><trkpt lat="45.17102220341157" lon="9.444950614493013"><ele>69.0</ele><time>2026-04-26T08:28:11.963Z</time></trkpt><trkpt lat="45.17113316666887" lon="9.444989553717335"><ele>69.0</ele><time>2026-04-26T08:28:13.963Z</time></trkpt><trkpt lat="45.171202020472926" lon="9.44500870345658"><ele>69.0</ele><time>2026-04-26T08:28:15.962Z</time></trkpt><trkpt lat="45.171264558350835" lon="9.445028212114229"><ele>69.0</ele><time>2026-04-26T08:28:17.962Z</time></trkpt><trkpt lat="45.17135262169091" lon="9.445043284692233"><ele>69.0</ele><time>2026-04-26T08:28:19.962Z</time></trkpt><trkpt lat="45.17142095493745" lon="9.445052560467659"><ele>69.0</ele><time>2026-04-26T08:28:22.962Z</time></trkpt><trkpt lat="45.1715005487751" lon="9.445074624389026"><ele>69.0</ele><time>2026-04-26T08:28:26.962Z</time></trkpt><trkpt lat="45.171582385819356" lon="9.445102260175762"><ele>69.33333333333333</ele><time>2026-04-26T08:28:28.962Z</time></trkpt><trkpt lat="45.17166222441907" lon="9.445119138456311"><ele>69.66666666666667</ele><time>2026-04-26T08:28:30.962Z</time></trkpt><trkpt lat="45.17173890190943" lon="9.445147991985126"><ele>70.0</ele><time>2026-04-26T08:28:32.962Z</time></trkpt><trkpt lat="45.171799807672066" lon="9.445178585650053"><ele>70.33333333333334</ele><time>2026-04-26T08:28:34.963Z</time></trkpt><trkpt lat="45.17187120310639" lon="9.445219922996788"><ele>70.66666666666667</ele><time>2026-04-26T08:28:37.963Z</time></trkpt><trkpt lat="45.171947345087574" lon="9.445219443055795"><ele>71.0</ele><time>2026-04-26T08:28:39.963Z</time></trkpt><trkpt lat="45.17201518984643" lon="9.445138340481195"><ele>71.0</ele><time>2026-04-26T08:28:42.963Z</time></trkpt><trkpt lat="45.17209753601136" lon="9.445069226220438"><ele>71.0</ele><time>2026-04-26T08:28:44.964Z</time></trkpt><trkpt lat="45.17217418213137" lon="9.445011730771016"><ele>71.0</ele><time>2026-04-26T08:28:46.963Z</time></trkpt><trkpt lat="45.17222119067358" lon="9.444938933841142"><ele>71.0</ele><time>2026-04-26T08:28:48.963Z</time></trkpt><trkpt lat="45.17229029243618" lon="9.444882898363359"><ele>71.0</ele><time>2026-04-26T08:28:50.963Z</time></trkpt><trkpt lat="45.172353762608424" lon="9.444795370736642"><ele>71.0</ele><time>2026-04-26T08:28:52.963Z</time></trkpt><trkpt lat="45.17240869739397" lon="9.444684812563265"><ele>71.5</ele><time>2026-04-26T08:28:54.963Z</time></trkpt><trkpt lat="45.17246386464882" lon="9.44459425462592"><ele>72.0</ele><time>2026-04-26T08:28:56.963Z</time></trkpt><trkpt lat="45.17250685086494" lon="9.44450857869025"><ele>72.5</ele><time>2026-04-26T08:28:58.963Z</time></trkpt><trkpt lat="45.172551498332815" lon="9.444400580487786"><ele>73.0</ele><time>2026-04-26T08:29:00.963Z</time></trkpt><trkpt lat="45.1725985788289" lon="9.444262813261284"><ele>73.5</ele><time>2026-04-26T08:29:02.963Z</time></trkpt><trkpt lat="45.17262544913967" lon="9.444149838157939"><ele>74.0</ele><time>2026-04-26T08:29:04.963Z</time></trkpt><trkpt lat="45.17267735857229" lon="9.444094347172493"><ele>74.0</ele><time>2026-04-26T08:29:05.963Z</time></trkpt><trkpt lat="45.172734315540964" lon="9.443981610676131"><ele>74.0</ele><time>2026-04-26T08:29:07.963Z</time></trkpt><trkpt lat="45.172773278175434" lon="9.443876156233326"><ele>74.0</ele><time>2026-04-26T08:29:09.963Z</time></trkpt><trkpt lat="45.17282913758835" lon="9.443780895431544"><ele>74.0</ele><time>2026-04-26T08:29:11.963Z</time></trkpt><trkpt lat="45.172892673654545" lon="9.443673404876922"><ele>74.0</ele><time>2026-04-26T08:29:13.963Z</time></trkpt><trkpt lat="45.17294120226481" lon="9.443561881678239"><ele>73.8</ele><time>2026-04-26T08:29:15.963Z</time></trkpt><trkpt lat="45.17297279323014" lon="9.44341671187992"><ele>73.60000000000001</ele><time>2026-04-26T08:29:17.963Z</time></trkpt><trkpt lat="45.17302969291447" lon="9.443300155220077"><ele>73.4</ele><time>2026-04-26T08:29:19.963Z</time></trkpt><trkpt lat="45.17309662619051" lon="9.44318188480584"><ele>73.2</ele><time>2026-04-26T08:29:21.963Z</time></trkpt><trkpt lat="45.17313487272068" lon="9.443098048267736"><ele>73.0</ele><time>2026-04-26T08:29:23.963Z</time></trkpt><trkpt lat="45.17326288804379" lon="9.443055230541054"><ele>73.4</ele><time>2026-04-26T08:29:27.962Z</time></trkpt><trkpt lat="45.17338595798541" lon="9.443038812128865"><ele>73.8</ele><time>2026-04-26T08:29:30.962Z</time></trkpt><trkpt lat="45.1734637733508" lon="9.443049409516714"><ele>74.2</ele><time>2026-04-26T08:29:32.962Z</time></trkpt><trkpt lat="45.173543830631196" lon="9.443067026969564"><ele>74.6</ele><time>2026-04-26T08:29:34.962Z</time></trkpt><trkpt lat="45.17363837919273" lon="9.443147936003525"><ele>75.0</ele><time>2026-04-26T08:29:36.962Z</time></trkpt><trkpt lat="45.173711054179314" lon="9.44313559006196"><ele>75.0</ele><time>2026-04-26T08:29:38.962Z</time></trkpt><trkpt lat="45.17376588068596" lon="9.443079980758007"><ele>75.0</ele><time>2026-04-26T08:29:40.962Z</time></trkpt><trkpt lat="45.173798124569934" lon="9.442984797699413"><ele>75.0</ele><time>2026-04-26T08:29:42.962Z</time></trkpt><trkpt lat="45.1738216363121" lon="9.442888681010924"><ele>75.0</ele><time>2026-04-26T08:29:44.962Z</time></trkpt><trkpt lat="45.173870345476814" lon="9.442767780124802"><ele>75.0</ele><time>2026-04-26T08:29:47.962Z</time></trkpt><trkpt lat="45.17390027227118" lon="9.44266552262689"><ele>75.0</ele><time>2026-04-26T08:29:50.962Z</time></trkpt><trkpt lat="45.173933552968904" lon="9.442574439444419"><ele>74.85714285714285</ele><time>2026-04-26T08:29:53.962Z</time></trkpt><trkpt lat="45.17395516651793" lon="9.442463788091628"><ele>74.71428571428571</ele><time>2026-04-26T08:29:56.962Z</time></trkpt><trkpt lat="45.173985326520956" lon="9.4423840120632"><ele>74.57142857142857</ele><time>2026-04-26T08:30:01.962Z</time></trkpt><trkpt lat="45.17395340799343" lon="9.442468297151576"><ele>74.42857142857142</ele><time>2026-04-26T08:30:05.962Z</time></trkpt><trkpt lat="45.17391844985157" lon="9.442558214470521"><ele>74.28571428571428</ele><time>2026-04-26T08:30:07.962Z</time></trkpt><trkpt lat="45.17387530680611" lon="9.44265611267603"><ele>74.14285714285714</ele><time>2026-04-26T08:30:09.962Z</time></trkpt><trkpt lat="45.17384765304683" lon="9.442754327789471"><ele>74.0</ele><time>2026-04-26T08:30:11.962Z</time></trkpt><trkpt lat="45.173820122607424" lon="9.442853709088613"><ele>74.16666666666667</ele><time>2026-04-26T08:30:14.962Z</time></trkpt><trkpt lat="45.173786658759646" lon="9.442977139613186"><ele>74.33333333333334</ele><time>2026-04-26T08:30:18.962Z</time></trkpt><trkpt lat="45.173758298607424" lon="9.443059158079201"><ele>74.5</ele><time>2026-04-26T08:30:21.962Z</time></trkpt><trkpt lat="45.173705814301265" lon="9.443138821470656"><ele>74.66666666666667</ele><time>2026-04-26T08:30:25.962Z</time></trkpt><trkpt lat="45.17377840937316" lon="9.443193827196517"><ele>74.83333333333333</ele><time>2026-04-26T08:30:37.953Z</time></trkpt><trkpt lat="45.17382517912921" lon="9.443277751804228"><ele>75.0</ele><time>2026-04-26T08:30:43.95Z</time></trkpt><trkpt lat="45.1738788323917" lon="9.443335802823746"><ele>75.0</ele><time>2026-04-26T08:30:46.949Z</time></trkpt><trkpt lat="45.173951002921655" lon="9.44339011751181"><ele>75.0</ele><time>2026-04-26T08:30:49.947Z</time></trkpt><trkpt lat="45.17402311004397" lon="9.44347102932058"><ele>75.0</ele><time>2026-04-26T08:30:53.946Z</time></trkpt><trkpt lat="45.174085642080385" lon="9.443520961313093"><ele>75.0</ele><time>2026-04-26T08:30:56.945Z</time></trkpt><trkpt lat="45.174137409540826" lon="9.443572952566711"><ele>75.0</ele><time>2026-04-26T08:31:22.942Z</time></trkpt><trkpt lat="45.17412211692761" lon="9.443679981784792"><ele>75.0</ele><time>2026-04-26T08:31:26.941Z</time></trkpt><trkpt lat="45.17416713809782" lon="9.443754313186473"><ele>76.85714285714285</ele><time>2026-04-26T08:31:29.941Z</time></trkpt><trkpt lat="45.17421185592736" lon="9.443847698227884"><ele>78.71428571428571</ele><time>2026-04-26T08:31:31.941Z</time></trkpt><trkpt lat="45.174250641243184" lon="9.443955389281168"><ele>80.57142857142857</ele><time>2026-04-26T08:31:34.941Z</time></trkpt><trkpt lat="45.17427974389796" lon="9.444038123799736"><ele>82.42857142857142</ele><time>2026-04-26T08:31:36.941Z</time></trkpt><trkpt lat="45.174311486947786" lon="9.444123477223624"><ele>84.28571428571428</ele><time>2026-04-26T08:31:39.941Z</time></trkpt><trkpt lat="45.174344072988276" lon="9.444218733772276"><ele>86.14285714285714</ele><time>2026-04-26T08:31:41.941Z</time></trkpt><trkpt lat="45.17438205243554" lon="9.444303439317217"><ele>88.0</ele><time>2026-04-26T08:31:43.941Z</time></trkpt><trkpt lat="45.174430235149536" lon="9.444388245040848"><ele>88.0</ele><time>2026-04-26T08:31:45.941Z</time></trkpt><trkpt lat="45.17446963581656" lon="9.444477897455801"><ele>88.0</ele><time>2026-04-26T08:31:47.941Z</time></trkpt><trkpt lat="45.174513275071845" lon="9.444582774602344"><ele>88.0</ele><time>2026-04-26T08:31:49.941Z</time></trkpt><trkpt lat="45.17455805209413" lon="9.444667838449034"><ele>88.0</ele><time>2026-04-26T08:31:51.941Z</time></trkpt><trkpt lat="45.17460885013022" lon="9.444757686025255"><ele>88.0</ele><time>2026-04-26T08:31:53.94Z</time></trkpt><trkpt lat="45.174661594850555" lon="9.444859824230063"><ele>88.0</ele><time>2026-04-26T08:31:56.94Z</time></trkpt><trkpt lat="45.17472443864098" lon="9.444962668176865"><ele>89.0</ele><time>2026-04-26T08:31:58.94Z</time></trkpt><trkpt lat="45.17478681580285" lon="9.445034899935166"><ele>90.0</ele><time>2026-04-26T08:32:00.94Z</time></trkpt><trkpt lat="45.17485614112662" lon="9.445122369115742"><ele>91.0</ele><time>2026-04-26T08:32:02.94Z</time></trkpt><trkpt lat="45.1749414043923" lon="9.445215746456286"><ele>92.0</ele><time>2026-04-26T08:32:04.94Z</time></trkpt><trkpt lat="45.17502970259406" lon="9.445289269383958"><ele>93.0</ele><time>2026-04-26T08:32:06.94Z</time></trkpt><trkpt lat="45.17511502676659" lon="9.445352917656118"><ele>93.0</ele><time>2026-04-26T08:32:08.94Z</time></trkpt><trkpt lat="45.17517185430954" lon="9.445413370220265"><ele>93.0</ele><time>2026-04-26T08:32:09.94Z</time></trkpt><trkpt lat="45.175246752265906" lon="9.445474811510593"><ele>93.0</ele><time>2026-04-26T08:32:11.94Z</time></trkpt><trkpt lat="45.175316093428954" lon="9.44552869196217"><ele>93.0</ele><time>2026-04-26T08:32:13.94Z</time></trkpt><trkpt lat="45.17538764806859" lon="9.445578681457476"><ele>93.0</ele><time>2026-04-26T08:32:15.94Z</time></trkpt><trkpt lat="45.175459331954315" lon="9.445639293184772"><ele>93.0</ele><time>2026-04-26T08:32:17.94Z</time></trkpt><trkpt lat="45.17552812059301" lon="9.445693799085122"><ele>93.33333333333333</ele><time>2026-04-26T08:32:19.94Z</time></trkpt><trkpt lat="45.17559757580188" lon="9.445759687221916"><ele>93.66666666666667</ele><time>2026-04-26T08:32:22.94Z</time></trkpt><trkpt lat="45.175674004176365" lon="9.445818742545713"><ele>94.0</ele><time>2026-04-26T08:32:24.94Z</time></trkpt><trkpt lat="45.17576014580661" lon="9.445883535454321"><ele>94.33333333333334</ele><time>2026-04-26T08:32:27.94Z</time></trkpt><trkpt lat="45.17582730384049" lon="9.445942046736779"><ele>94.66666666666667</ele><time>2026-04-26T08:32:29.94Z</time></trkpt><trkpt lat="45.17588484205456" lon="9.445997047027348"><ele>95.0</ele><time>2026-04-26T08:32:31.94Z</time></trkpt><trkpt lat="45.17594511548903" lon="9.44605094914988"><ele>95.57142857142857</ele><time>2026-04-26T08:32:33.94Z</time></trkpt><trkpt lat="45.176010797882036" lon="9.446106841552135"><ele>96.14285714285714</ele><time>2026-04-26T08:32:35.94Z</time></trkpt><trkpt lat="45.176068240117075" lon="9.446145141688378"><ele>96.71428571428572</ele><time>2026-04-26T08:32:37.939Z</time></trkpt><trkpt lat="45.17613442121655" lon="9.446191630871875"><ele>97.28571428571428</ele><time>2026-04-26T08:32:39.939Z</time></trkpt><trkpt lat="45.17619336677299" lon="9.446240652596073"><ele>97.85714285714285</ele><time>2026-04-26T08:32:41.939Z</time></trkpt><trkpt lat="45.176262342218855" lon="9.446289741318154"><ele>98.42857142857143</ele><time>2026-04-26T08:32:43.939Z</time></trkpt><trkpt lat="45.17632004207579" lon="9.44633912277787"><ele>99.0</ele><time>2026-04-26T08:32:45.939Z</time></trkpt><trkpt lat="45.17638210342924" lon="9.446388718935419"><ele>99.57142857142857</ele><time>2026-04-26T08:32:47.94Z</time></trkpt><trkpt lat="45.17645781840505" lon="9.44645477573001"><ele>100.14285714285714</ele><time>2026-04-26T08:32:50.94Z</time></trkpt><trkpt lat="45.17652513359147" lon="9.446497015888292"><ele>100.71428571428571</ele><time>2026-04-26T08:32:52.939Z</time></trkpt><trkpt lat="45.176591672465655" lon="9.446572511336592"><ele>101.28571428571428</ele><time>2026-04-26T08:32:54.94Z</time></trkpt><trkpt lat="45.1766549293555" lon="9.446610298518397"><ele>101.85714285714286</ele><time>2026-04-26T08:32:56.94Z</time></trkpt><trkpt lat="45.17671458025646" lon="9.44664641005772"><ele>102.42857142857142</ele><time>2026-04-26T08:32:58.939Z</time></trkpt><trkpt lat="45.17677344539603" lon="9.446685569064432"><ele>103.0</ele><time>2026-04-26T08:33:00.94Z</time></trkpt><trkpt lat="45.17685005206401" lon="9.446757986741982"><ele>103.50000000000001</ele><time>2026-04-26T08:33:02.94Z</time></trkpt><trkpt lat="45.17691187005777" lon="9.446812432614546"><ele>104.0</ele><time>2026-04-26T08:33:04.94Z</time></trkpt><trkpt lat="45.17700360897729" lon="9.446887169100306"><ele>104.5</ele><time>2026-04-26T08:33:07.94Z</time></trkpt><trkpt lat="45.17707067898968" lon="9.4469479419485"><ele>105.0</ele><time>2026-04-26T08:33:09.94Z</time></trkpt><trkpt lat="45.177141415438555" lon="9.446997048478446"><ele>105.50000000000001</ele><time>2026-04-26T08:33:11.94Z</time></trkpt><trkpt lat="45.177216230732064" lon="9.447041941738986"><ele>106.0</ele><time>2026-04-26T08:33:13.94Z</time></trkpt><trkpt lat="45.177284580509344" lon="9.447101463653816"><ele>106.42857142857143</ele><time>2026-04-26T08:33:15.94Z</time></trkpt><trkpt lat="45.17734852166388" lon="9.447157558446253"><ele>106.85714285714285</ele><time>2026-04-26T08:33:17.94Z</time></trkpt><trkpt lat="45.17741250291449" lon="9.447200318057593"><ele>107.28571428571428</ele><time>2026-04-26T08:33:19.939Z</time></trkpt><trkpt lat="45.17746818280578" lon="9.447245202613406"><ele>107.71428571428572</ele><time>2026-04-26T08:33:21.939Z</time></trkpt><trkpt lat="45.17753024532338" lon="9.447279712173009"><ele>108.14285714285714</ele><time>2026-04-26T08:33:23.939Z</time></trkpt><trkpt lat="45.17758983479693" lon="9.44731463637374"><ele>108.57142857142857</ele><time>2026-04-26T08:33:25.939Z</time></trkpt><trkpt lat="45.177682693941215" lon="9.447307320616678"><ele>109.0</ele><time>2026-04-26T08:33:28.939Z</time></trkpt><trkpt lat="45.17774887738874" lon="9.447285629698511"><ele>109.16666666666667</ele><time>2026-04-26T08:33:30.939Z</time></trkpt><trkpt lat="45.177815498608496" lon="9.447244214358099"><ele>109.33333333333334</ele><time>2026-04-26T08:33:33.939Z</time></trkpt><trkpt lat="45.17788648930782" lon="9.4472235786916"><ele>109.5</ele><time>2026-04-26T08:34:05.939Z</time></trkpt><trkpt lat="45.17796222249041" lon="9.447191082429965"><ele>109.66666666666666</ele><time>2026-04-26T08:34:09.938Z</time></trkpt><trkpt lat="45.178030479210754" lon="9.44716764896643"><ele>109.83333333333333</ele><time>2026-04-26T08:34:15.938Z</time></trkpt><trkpt lat="45.17811570536138" lon="9.447121734496235"><ele>110.0</ele><time>2026-04-26T08:34:20.938Z</time></trkpt><trkpt lat="45.17819587676695" lon="9.447081128027111"><ele>109.99999999999999</ele><time>2026-04-26T08:34:23.938Z</time></trkpt><trkpt lat="45.17826382441351" lon="9.44707404481852"><ele>110.0</ele><time>2026-04-26T08:34:28.938Z</time></trkpt><trkpt lat="45.1783259027558" lon="9.447109704280209"><ele>110.0</ele><time>2026-04-26T08:34:35.938Z</time></trkpt><trkpt lat="45.1782530659795" lon="9.447097133751623"><ele>110.0</ele><time>2026-04-26T08:34:45.938Z</time></trkpt><trkpt lat="45.17816398938148" lon="9.447085797629413"><ele>110.0</ele><time>2026-04-26T08:34:48.938Z</time></trkpt><trkpt lat="45.17809501419684" lon="9.447112257462235"><ele>109.99999999999999</ele><time>2026-04-26T08:34:50.938Z</time></trkpt><trkpt lat="45.178021312743866" lon="9.447128144995254"><ele>110.0</ele><time>2026-04-26T08:34:52.938Z</time></trkpt><trkpt lat="45.17809411358454" lon="9.447127765130375"><ele>109.99999999999999</ele><time>2026-04-26T08:35:00.939Z</time></trkpt><trkpt lat="45.178155360522325" lon="9.447097902986176"><ele>110.0</ele><time>2026-04-26T08:35:02.938Z</time></trkpt><trkpt lat="45.17821933814885" lon="9.447095242082991"><ele>110.0</ele><time>2026-04-26T08:35:04.938Z</time></trkpt><trkpt lat="45.17828383304538" lon="9.447125411352456"><ele>110.0</ele><time>2026-04-26T08:35:06.938Z</time></trkpt><trkpt lat="45.17833971100025" lon="9.447186088977421"><ele>110.0</ele><time>2026-04-26T08:35:08.938Z</time></trkpt><trkpt lat="45.17837325616564" lon="9.44727679415264"><ele>109.99999999999999</ele><time>2026-04-26T08:35:10.938Z</time></trkpt><trkpt lat="45.178400892722294" lon="9.44738877486296"><ele>110.0</ele><time>2026-04-26T08:35:12.938Z</time></trkpt><trkpt lat="45.178398601599326" lon="9.447522816577067"><ele>110.0</ele><time>2026-04-26T08:35:14.938Z</time></trkpt><trkpt lat="45.178390405390786" lon="9.447655922961774"><ele>110.0</ele><time>2026-04-26T08:35:16.938Z</time></trkpt><trkpt lat="45.17840323302879" lon="9.447784541441772"><ele>110.0</ele><time>2026-04-26T08:35:18.938Z</time></trkpt><trkpt lat="45.17841014502636" lon="9.44789045295407"><ele>110.0</ele><time>2026-04-26T08:35:20.938Z</time></trkpt><trkpt lat="45.178407713353394" lon="9.448015191021549"><ele>110.0</ele><time>2026-04-26T08:35:22.938Z</time></trkpt><trkpt lat="45.17839297047784" lon="9.44815985321631"><ele>109.8</ele><time>2026-04-26T08:35:24.938Z</time></trkpt><trkpt lat="45.17837388803502" lon="9.448293679794995"><ele>109.6</ele><time>2026-04-26T08:35:26.938Z</time></trkpt><trkpt lat="45.178368571809955" lon="9.448419516157347"><ele>109.4</ele><time>2026-04-26T08:35:28.938Z</time></trkpt><trkpt lat="45.17839388552072" lon="9.448546831449281"><ele>109.2</ele><time>2026-04-26T08:35:30.937Z</time></trkpt><trkpt lat="45.178427353988496" lon="9.448680775252466"><ele>109.0</ele><time>2026-04-26T08:35:32.937Z</time></trkpt><trkpt lat="45.178447829821906" lon="9.448813715359188"><ele>108.83333333333334</ele><time>2026-04-26T08:35:34.937Z</time></trkpt><trkpt lat="45.17845965871378" lon="9.44895743632296"><ele>108.66666666666667</ele><time>2026-04-26T08:35:36.937Z</time></trkpt><trkpt lat="45.17845577389251" lon="9.449095566134192"><ele>108.5</ele><time>2026-04-26T08:35:38.937Z</time></trkpt><trkpt lat="45.17845874341537" lon="9.44920843190148"><ele>108.33333333333334</ele><time>2026-04-26T08:35:40.937Z</time></trkpt><trkpt lat="45.1784649184138" lon="9.449303361685674"><ele>108.16666666666667</ele><time>2026-04-26T08:35:42.937Z</time></trkpt><trkpt lat="45.178480171192206" lon="9.449427275539131"><ele>108.0</ele><time>2026-04-26T08:35:44.937Z</time></trkpt><trkpt lat="45.17850621392623" lon="9.449557549723446"><ele>108.0</ele><time>2026-04-26T08:35:46.937Z</time></trkpt><trkpt lat="45.178536746693666" lon="9.449695944200089"><ele>108.00000000000001</ele><time>2026-04-26T08:35:48.937Z</time></trkpt><trkpt lat="45.17855570759538" lon="9.449833178349554"><ele>108.00000000000001</ele><time>2026-04-26T08:35:50.937Z</time></trkpt><trkpt lat="45.17855861696527" lon="9.449929229193621"><ele>108.0</ele><time>2026-04-26T08:35:52.937Z</time></trkpt><trkpt lat="45.17856556044424" lon="9.450067900276672"><ele>108.0</ele><time>2026-04-26T08:35:54.937Z</time></trkpt><trkpt lat="45.178578434016366" lon="9.450186241141273"><ele>108.0</ele><time>2026-04-26T08:35:56.937Z</time></trkpt><trkpt lat="45.178596221209865" lon="9.45031702410861"><ele>108.00000000000001</ele><time>2026-04-26T08:35:58.937Z</time></trkpt><trkpt lat="45.178632132668056" lon="9.450435796124843"><ele>108.00000000000001</ele><time>2026-04-26T08:36:00.937Z</time></trkpt><trkpt lat="45.17867677076273" lon="9.450541516459811"><ele>108.0</ele><time>2026-04-26T08:36:02.937Z</time></trkpt><trkpt lat="45.178743921521225" lon="9.450640562114085"><ele>108.0</ele><time>2026-04-26T08:36:04.937Z</time></trkpt><trkpt lat="45.17881938000693" lon="9.450747697081056"><ele>108.33333333333333</ele><time>2026-04-26T08:36:06.937Z</time></trkpt><trkpt lat="45.17886814547728" lon="9.450843766914355"><ele>108.66666666666666</ele><time>2026-04-26T08:36:08.937Z</time></trkpt><trkpt lat="45.17890314466828" lon="9.450996407476993"><ele>109.0</ele><time>2026-04-26T08:36:11.937Z</time></trkpt><trkpt lat="45.178918483491564" lon="9.451100272709573"><ele>109.33333333333333</ele><time>2026-04-26T08:36:13.937Z</time></trkpt><trkpt lat="45.1789284638964" lon="9.451202739178354"><ele>109.66666666666666</ele><time>2026-04-26T08:36:15.937Z</time></trkpt><trkpt lat="45.178945697687496" lon="9.45133558289188"><ele>110.0</ele><time>2026-04-26T08:36:17.937Z</time></trkpt><trkpt lat="45.17897620719253" lon="9.451473221502416"><ele>110.0</ele><time>2026-04-26T08:36:19.936Z</time></trkpt><trkpt lat="45.17901107273376" lon="9.451606437353984"><ele>110.0</ele><time>2026-04-26T08:36:21.936Z</time></trkpt><trkpt lat="45.17902519506051" lon="9.45172992174718"><ele>110.0</ele><time>2026-04-26T08:36:23.936Z</time></trkpt><trkpt lat="45.17904039448073" lon="9.451876200643373"><ele>110.0</ele><time>2026-04-26T08:36:25.936Z</time></trkpt><trkpt lat="45.179050327698235" lon="9.452033302057043"><ele>110.0</ele><time>2026-04-26T08:36:27.936Z</time></trkpt><trkpt lat="45.17905026411433" lon="9.452179094573076"><ele>110.6</ele><time>2026-04-26T08:36:29.936Z</time></trkpt><trkpt lat="45.179046287048614" lon="9.45234461109292"><ele>111.2</ele><time>2026-04-26T08:36:31.936Z</time></trkpt><trkpt lat="45.17903662232983" lon="9.452487570871511"><ele>111.80000000000001</ele><time>2026-04-26T08:36:33.936Z</time></trkpt><trkpt lat="45.17903626982266" lon="9.452639089586821"><ele>112.4</ele><time>2026-04-26T08:36:35.936Z</time></trkpt><trkpt lat="45.17903620101183" lon="9.4527618132369"><ele>113.0</ele><time>2026-04-26T08:36:37.936Z</time></trkpt><trkpt lat="45.17904528701886" lon="9.452873832976927"><ele>113.2</ele><time>2026-04-26T08:36:39.936Z</time></trkpt><trkpt lat="45.179055816815264" lon="9.452980335909999"><ele>113.4</ele><time>2026-04-26T08:36:41.936Z</time></trkpt><trkpt lat="45.179074000884995" lon="9.453095022301982"><ele>113.60000000000001</ele><time>2026-04-26T08:36:43.936Z</time></trkpt><trkpt lat="45.17909317320848" lon="9.453228512325955"><ele>113.80000000000001</ele><time>2026-04-26T08:36:45.936Z</time></trkpt><trkpt lat="45.17912614852638" lon="9.453360149943444"><ele>114.0</ele><time>2026-04-26T08:36:47.936Z</time></trkpt><trkpt lat="45.17917496896798" lon="9.45351388145919"><ele>114.0</ele><time>2026-04-26T08:36:49.936Z</time></trkpt><trkpt lat="45.17919773397327" lon="9.453642003020057"><ele>114.0</ele><time>2026-04-26T08:36:51.936Z</time></trkpt><trkpt lat="45.17920854346556" lon="9.45376530918216"><ele>114.0</ele><time>2026-04-26T08:36:53.936Z</time></trkpt><trkpt lat="45.179177785507356" lon="9.453886843800143"><ele>114.0</ele><time>2026-04-26T08:36:55.936Z</time></trkpt><trkpt lat="45.17913230216464" lon="9.453998282691366"><ele>114.0</ele><time>2026-04-26T08:36:57.936Z</time></trkpt><trkpt lat="45.17907763283875" lon="9.454125250673568"><ele>114.0</ele><time>2026-04-26T08:36:59.936Z</time></trkpt><trkpt lat="45.17903348294273" lon="9.45425917239587"><ele>114.0</ele><time>2026-04-26T08:37:01.936Z</time></trkpt><trkpt lat="45.17901080886664" lon="9.454380062466063"><ele>114.0</ele><time>2026-04-26T08:37:03.936Z</time></trkpt><trkpt lat="45.178983042885044" lon="9.454494726481009"><ele>114.0</ele><time>2026-04-26T08:37:05.936Z</time></trkpt><trkpt lat="45.1789452230864" lon="9.454647749048918"><ele>114.0</ele><time>2026-04-26T08:37:07.936Z</time></trkpt><trkpt lat="45.17888876488307" lon="9.454788143021199"><ele>114.0</ele><time>2026-04-26T08:37:09.936Z</time></trkpt><trkpt lat="45.17884642828936" lon="9.454910200985207"><ele>114.0</ele><time>2026-04-26T08:37:11.937Z</time></trkpt><trkpt lat="45.17880661818035" lon="9.455032071042687"><ele>114.0</ele><time>2026-04-26T08:37:13.937Z</time></trkpt><trkpt lat="45.178796522615585" lon="9.455159015302229"><ele>114.0</ele><time>2026-04-26T08:37:15.937Z</time></trkpt><trkpt lat="45.17881557854198" lon="9.455282114657432"><ele>114.0</ele><time>2026-04-26T08:37:17.937Z</time></trkpt><trkpt lat="45.178839291610515" lon="9.455410351697571"><ele>114.4</ele><time>2026-04-26T08:37:19.937Z</time></trkpt><trkpt lat="45.17884019056165" lon="9.45553998939189"><ele>114.80000000000001</ele><time>2026-04-26T08:37:21.936Z</time></trkpt><trkpt lat="45.178823935731685" lon="9.455658039976312"><ele>115.19999999999999</ele><time>2026-04-26T08:37:23.936Z</time></trkpt><trkpt lat="45.17880573742067" lon="9.455778384331916"><ele>115.6</ele><time>2026-04-26T08:37:25.936Z</time></trkpt><trkpt lat="45.17879792323455" lon="9.455891587158563"><ele>116.0</ele><time>2026-04-26T08:37:27.936Z</time></trkpt><trkpt lat="45.178792344813374" lon="9.456055615885461"><ele>116.0</ele><time>2026-04-26T08:37:29.936Z</time></trkpt><trkpt lat="45.1787867838037" lon="9.456194124326444"><ele>116.0</ele><time>2026-04-26T08:37:31.936Z</time></trkpt><trkpt lat="45.1787895460793" lon="9.456345859428652"><ele>116.0</ele><time>2026-04-26T08:37:33.936Z</time></trkpt><trkpt lat="45.17880709785109" lon="9.456499268190129"><ele>116.0</ele><time>2026-04-26T08:37:35.936Z</time></trkpt><trkpt lat="45.178830932889845" lon="9.456654834773385"><ele>116.0</ele><time>2026-04-26T08:37:37.936Z</time></trkpt><trkpt lat="45.17885395821549" lon="9.456789568585624"><ele>116.0</ele><time>2026-04-26T08:37:39.936Z</time></trkpt><trkpt lat="45.178879925052264" lon="9.456934387147943"><ele>116.0</ele><time>2026-04-26T08:37:41.936Z</time></trkpt><trkpt lat="45.178913457606676" lon="9.457098216538975"><ele>116.0</ele><time>2026-04-26T08:37:43.936Z</time></trkpt><trkpt lat="45.17893587905466" lon="9.45723371638986"><ele>116.0</ele><time>2026-04-26T08:37:45.936Z</time></trkpt><trkpt lat="45.178970587690614" lon="9.45736971052941"><ele>116.0</ele><time>2026-04-26T08:37:47.936Z</time></trkpt><trkpt lat="45.179001678090884" lon="9.457515495350354"><ele>115.6</ele><time>2026-04-26T08:37:49.936Z</time></trkpt><trkpt lat="45.1790444899909" lon="9.457659663211974"><ele>115.19999999999999</ele><time>2026-04-26T08:37:51.936Z</time></trkpt><trkpt lat="45.179093889535196" lon="9.45780994947106"><ele>114.80000000000001</ele><time>2026-04-26T08:37:53.936Z</time></trkpt><trkpt lat="45.1791390874595" lon="9.45794634613388"><ele>114.4</ele><time>2026-04-26T08:37:55.936Z</time></trkpt><trkpt lat="45.179176245055594" lon="9.458032440146138"><ele>114.0</ele><time>2026-04-26T08:37:56.936Z</time></trkpt><trkpt lat="45.17923202393662" lon="9.458182802902863"><ele>113.80000000000001</ele><time>2026-04-26T08:37:58.936Z</time></trkpt><trkpt lat="45.17928123566422" lon="9.458328021448413"><ele>113.60000000000001</ele><time>2026-04-26T08:38:00.936Z</time></trkpt><trkpt lat="45.17931514243634" lon="9.458405004670128"><ele>113.4</ele><time>2026-04-26T08:38:01.936Z</time></trkpt><trkpt lat="45.179367715122545" lon="9.458549927849674"><ele>113.2</ele><time>2026-04-26T08:38:03.936Z</time></trkpt><trkpt lat="45.179428878103295" lon="9.458692274340187"><ele>113.0</ele><time>2026-04-26T08:38:05.936Z</time></trkpt><trkpt lat="45.179484983925455" lon="9.458837549035435"><ele>112.0</ele><time>2026-04-26T08:38:07.936Z</time></trkpt><trkpt lat="45.179545030910084" lon="9.45898529897472"><ele>111.0</ele><time>2026-04-26T08:38:09.935Z</time></trkpt><trkpt lat="45.17959399899149" lon="9.45913359887856"><ele>110.0</ele><time>2026-04-26T08:38:11.935Z</time></trkpt><trkpt lat="45.17964724200823" lon="9.459281094078472"><ele>109.0</ele><time>2026-04-26T08:38:13.935Z</time></trkpt><trkpt lat="45.17969481847532" lon="9.459433293175584"><ele>109.0</ele><time>2026-04-26T08:38:15.935Z</time></trkpt><trkpt lat="45.17973254576267" lon="9.459578344871666"><ele>109.0</ele><time>2026-04-26T08:38:17.935Z</time></trkpt><trkpt lat="45.17976758921881" lon="9.459725807940448"><ele>109.0</ele><time>2026-04-26T08:38:19.935Z</time></trkpt><trkpt lat="45.17980757304384" lon="9.459875544649547"><ele>109.0</ele><time>2026-04-26T08:38:21.935Z</time></trkpt><trkpt lat="45.17984719387133" lon="9.460033959372716"><ele>110.2</ele><time>2026-04-26T08:38:23.935Z</time></trkpt><trkpt lat="45.17987152383693" lon="9.46020287553189"><ele>111.4</ele><time>2026-04-26T08:38:25.935Z</time></trkpt><trkpt lat="45.17989519340038" lon="9.460363089956525"><ele>112.6</ele><time>2026-04-26T08:38:27.935Z</time></trkpt><trkpt lat="45.17990989468109" lon="9.460458022473954"><ele>113.8</ele><time>2026-04-26T08:38:28.935Z</time></trkpt><trkpt lat="45.179920431686426" lon="9.460607704671025"><ele>115.0</ele><time>2026-04-26T08:38:30.935Z</time></trkpt><trkpt lat="45.17992781823412" lon="9.460757549404441"><ele>115.2</ele><time>2026-04-26T08:38:32.935Z</time></trkpt><trkpt lat="45.17992648891224" lon="9.460906787962836"><ele>115.4</ele><time>2026-04-26T08:38:34.935Z</time></trkpt><trkpt lat="45.17992475285749" lon="9.461065844947436"><ele>115.6</ele><time>2026-04-26T08:38:36.935Z</time></trkpt><trkpt lat="45.179918379623196" lon="9.461224150957841"><ele>115.8</ele><time>2026-04-26T08:38:38.935Z</time></trkpt><trkpt lat="45.17991029604065" lon="9.461378301685196"><ele>116.0</ele><time>2026-04-26T08:38:40.935Z</time></trkpt><trkpt lat="45.179889660828266" lon="9.461517018153165"><ele>116.19999999999999</ele><time>2026-04-26T08:38:42.935Z</time></trkpt><trkpt lat="45.17987390698495" lon="9.461659948435393"><ele>116.39999999999999</ele><time>2026-04-26T08:38:44.935Z</time></trkpt><trkpt lat="45.17985896256688" lon="9.461792117325132"><ele>116.6</ele><time>2026-04-26T08:38:46.935Z</time></trkpt><trkpt lat="45.17985698289959" lon="9.461921652878754"><ele>116.8</ele><time>2026-04-26T08:38:48.935Z</time></trkpt><trkpt lat="45.179856307915784" lon="9.462055994965704"><ele>117.0</ele><time>2026-04-26T08:38:50.935Z</time></trkpt><trkpt lat="45.179854640790055" lon="9.46219772972599"><ele>117.8</ele><time>2026-04-26T08:38:52.935Z</time></trkpt><trkpt lat="45.17986948911967" lon="9.462356853132238"><ele>118.6</ele><time>2026-04-26T08:38:54.935Z</time></trkpt><trkpt lat="45.17989386226391" lon="9.462511838343483"><ele>119.39999999999999</ele><time>2026-04-26T08:38:56.935Z</time></trkpt><trkpt lat="45.179915043316406" lon="9.462659576808365"><ele>120.19999999999999</ele><time>2026-04-26T08:38:58.934Z</time></trkpt><trkpt lat="45.17993450320166" lon="9.462802579712722"><ele>121.0</ele><time>2026-04-26T08:39:00.934Z</time></trkpt><trkpt lat="45.179970672115026" lon="9.462952355821864"><ele>121.6</ele><time>2026-04-26T08:39:02.934Z</time></trkpt><trkpt lat="45.180003713501414" lon="9.46309125786962"><ele>122.19999999999999</ele><time>2026-04-26T08:39:04.935Z</time></trkpt><trkpt lat="45.180035364865134" lon="9.463220032831941"><ele>122.80000000000001</ele><time>2026-04-26T08:39:06.935Z</time></trkpt><trkpt lat="45.180056579953686" lon="9.463334539409407"><ele>123.4</ele><time>2026-04-26T08:39:08.934Z</time></trkpt><trkpt lat="45.18008090714388" lon="9.46345776982192"><ele>124.0</ele><time>2026-04-26T08:39:10.935Z</time></trkpt><trkpt lat="45.18009793641801" lon="9.46358582202043"><ele>124.0</ele><time>2026-04-26T08:39:12.935Z</time></trkpt><trkpt lat="45.18009711992652" lon="9.463741662540682"><ele>124.0</ele><time>2026-04-26T08:39:14.935Z</time></trkpt><trkpt lat="45.18008968417439" lon="9.463856130700295"><ele>124.0</ele><time>2026-04-26T08:39:16.935Z</time></trkpt><trkpt lat="45.18008560631159" lon="9.464020105329945"><ele>124.0</ele><time>2026-04-26T08:39:18.934Z</time></trkpt><trkpt lat="45.18007033702809" lon="9.464155577584503"><ele>124.0</ele><time>2026-04-26T08:39:20.934Z</time></trkpt><trkpt lat="45.180062496004794" lon="9.464281637882566"><ele>124.83333333333334</ele><time>2026-04-26T08:39:22.934Z</time></trkpt><trkpt lat="45.18003904673922" lon="9.464370934336435"><ele>125.66666666666667</ele><time>2026-04-26T08:39:24.934Z</time></trkpt><trkpt lat="45.17999527483235" lon="9.464476889755309"><ele>126.5</ele><time>2026-04-26T08:39:26.934Z</time></trkpt><trkpt lat="45.17996334747608" lon="9.46457191972554"><ele>127.33333333333334</ele><time>2026-04-26T08:39:28.934Z</time></trkpt><trkpt lat="45.1799194903047" lon="9.464682938140205"><ele>128.16666666666666</ele><time>2026-04-26T08:39:30.934Z</time></trkpt><trkpt lat="45.179897297735955" lon="9.46477072114454"><ele>129.0</ele><time>2026-04-26T08:39:32.934Z</time></trkpt><trkpt lat="45.1798446480111" lon="9.46487234084441"><ele>129.83333333333334</ele><time>2026-04-26T08:39:35.934Z</time></trkpt><trkpt lat="45.17981312135718" lon="9.464974217788706"><ele>130.66666666666666</ele><time>2026-04-26T08:39:37.934Z</time></trkpt><trkpt lat="45.17978281614552" lon="9.465060864720328"><ele>131.5</ele><time>2026-04-26T08:39:39.934Z</time></trkpt><trkpt lat="45.17974772520762" lon="9.46518500582614"><ele>132.33333333333331</ele><time>2026-04-26T08:39:42.934Z</time></trkpt><trkpt lat="45.17970683591685" lon="9.465273120778141"><ele>133.16666666666666</ele><time>2026-04-26T08:39:44.934Z</time></trkpt><trkpt lat="45.179673683891906" lon="9.46539177379636"><ele>134.0</ele><time>2026-04-26T08:39:47.934Z</time></trkpt><trkpt lat="45.179652515012656" lon="9.465514343729076"><ele>134.0</ele><time>2026-04-26T08:39:50.934Z</time></trkpt><trkpt lat="45.17964137763569" lon="9.46561151935945"><ele>134.0</ele><time>2026-04-26T08:39:53.934Z</time></trkpt><trkpt lat="45.17964677045635" lon="9.465709181071205"><ele>134.0</ele><time>2026-04-26T08:39:55.934Z</time></trkpt><trkpt lat="45.17965940224707" lon="9.465797879167544"><ele>134.0</ele><time>2026-04-26T08:39:57.934Z</time></trkpt><trkpt lat="45.17970383323249" lon="9.465916877349704"><ele>134.0</ele><time>2026-04-26T08:40:00.934Z</time></trkpt><trkpt lat="45.17973364208718" lon="9.466008316990122"><ele>134.0</ele><time>2026-04-26T08:40:02.934Z</time></trkpt><trkpt lat="45.179779728462634" lon="9.466087812560735"><ele>134.0</ele><time>2026-04-26T08:40:04.933Z</time></trkpt><trkpt lat="45.17982818735485" lon="9.466169703306731"><ele>134.16666666666666</ele><time>2026-04-26T08:40:06.933Z</time></trkpt><trkpt lat="45.179876291846774" lon="9.466241606233863"><ele>134.33333333333331</ele><time>2026-04-26T08:40:08.933Z</time></trkpt><trkpt lat="45.179933134489275" lon="9.466321111848519"><ele>134.5</ele><time>2026-04-26T08:40:11.933Z</time></trkpt><trkpt lat="45.179976796762546" lon="9.466419257536778"><ele>134.66666666666666</ele><time>2026-04-26T08:40:14.933Z</time></trkpt><trkpt lat="45.1800306738884" lon="9.466506065353622"><ele>134.83333333333334</ele><time>2026-04-26T08:40:17.933Z</time></trkpt><trkpt lat="45.18008644208659" lon="9.466592316132928"><ele>135.0</ele><time>2026-04-26T08:40:20.933Z</time></trkpt><trkpt lat="45.18013183105374" lon="9.466666535062755"><ele>135.0</ele><time>2026-04-26T08:40:24.933Z</time></trkpt><trkpt lat="45.18018937843073" lon="9.466738716472097"><ele>135.0</ele><time>2026-04-26T08:40:27.933Z</time></trkpt><trkpt lat="45.18026516103786" lon="9.4668088647711"><ele>135.0</ele><time>2026-04-26T08:40:29.933Z</time></trkpt><trkpt lat="45.180355996819685" lon="9.466871284647816"><ele>135.0</ele><time>2026-04-26T08:40:31.933Z</time></trkpt><trkpt lat="45.18047625346798" lon="9.46687003567711"><ele>135.0</ele><time>2026-04-26T08:40:33.933Z</time></trkpt><trkpt lat="45.180571395835116" lon="9.466824976514754"><ele>135.0</ele><time>2026-04-26T08:40:35.933Z</time></trkpt><trkpt lat="45.18064385930865" lon="9.466780235163611"><ele>135.0</ele><time>2026-04-26T08:40:37.933Z</time></trkpt><trkpt lat="45.18071779019614" lon="9.466732042410115"><ele>135.0</ele><time>2026-04-26T08:40:39.933Z</time></trkpt><trkpt lat="45.180779487299645" lon="9.466673897034273"><ele>135.0</ele><time>2026-04-26T08:40:41.933Z</time></trkpt><trkpt lat="45.18084584087491" lon="9.466599268213162"><ele>135.0</ele><time>2026-04-26T08:40:44.933Z</time></trkpt><trkpt lat="45.18091314851165" lon="9.466525861051567"><ele>135.0</ele><time>2026-04-26T08:40:47.933Z</time></trkpt><trkpt lat="45.180981825624706" lon="9.466431768027476"><ele>134.33333333333334</ele><time>2026-04-26T08:40:50.933Z</time></trkpt><trkpt lat="45.18103218020188" lon="9.466359425821675"><ele>133.66666666666666</ele><time>2026-04-26T08:40:52.932Z</time></trkpt><trkpt lat="45.18108675814815" lon="9.466283966084877"><ele>133.0</ele><time>2026-04-26T08:40:54.932Z</time></trkpt><trkpt lat="45.181143841281234" lon="9.466207844907295"><ele>132.33333333333331</ele><time>2026-04-26T08:40:56.932Z</time></trkpt><trkpt lat="45.1812013280975" lon="9.466131710307284"><ele>131.66666666666666</ele><time>2026-04-26T08:40:58.932Z</time></trkpt><trkpt lat="45.18125476249558" lon="9.466061957298347"><ele>131.0</ele><time>2026-04-26T08:41:00.932Z</time></trkpt><trkpt lat="45.181310884642386" lon="9.465977558332549"><ele>131.0</ele><time>2026-04-26T08:41:02.932Z</time></trkpt><trkpt lat="45.181371071401024" lon="9.465890480859054"><ele>131.0</ele><time>2026-04-26T08:41:04.932Z</time></trkpt><trkpt lat="45.18142651597743" lon="9.465806493922136"><ele>131.0</ele><time>2026-04-26T08:41:06.932Z</time></trkpt><trkpt lat="45.181484126462344" lon="9.465721374153341"><ele>131.0</ele><time>2026-04-26T08:41:08.932Z</time></trkpt><trkpt lat="45.181535671044976" lon="9.465648736010587"><ele>131.0</ele><time>2026-04-26T08:41:10.933Z</time></trkpt><trkpt lat="45.181592344293634" lon="9.465570302593866"><ele>131.0</ele><time>2026-04-26T08:41:12.933Z</time></trkpt><trkpt lat="45.18165254109704" lon="9.465497614301878"><ele>129.5</ele><time>2026-04-26T08:41:14.933Z</time></trkpt><trkpt lat="45.181710536798875" lon="9.465428625058566"><ele>128.0</ele><time>2026-04-26T08:41:16.933Z</time></trkpt><trkpt lat="45.18177112722979" lon="9.46536334978485"><ele>126.5</ele><time>2026-04-26T08:41:18.933Z</time></trkpt><trkpt lat="45.18184452542263" lon="9.465289612309641"><ele>125.0</ele><time>2026-04-26T08:41:20.933Z</time></trkpt><trkpt lat="45.18192512341931" lon="9.465218246668627"><ele>123.49999999999999</ele><time>2026-04-26T08:41:22.933Z</time></trkpt><trkpt lat="45.18200512245547" lon="9.465140835271951"><ele>122.0</ele><time>2026-04-26T08:41:24.933Z</time></trkpt><trkpt lat="45.18208152094686" lon="9.465067257618848"><ele>122.0</ele><time>2026-04-26T08:41:26.933Z</time></trkpt><trkpt lat="45.18215655302729" lon="9.464978412530774"><ele>121.99999999999999</ele><time>2026-04-26T08:41:28.933Z</time></trkpt><trkpt lat="45.18222826064685" lon="9.464875931347496"><ele>121.99999999999999</ele><time>2026-04-26T08:41:30.933Z</time></trkpt><trkpt lat="45.1823030409473" lon="9.464763369568583"><ele>122.0</ele><time>2026-04-26T08:41:32.933Z</time></trkpt><trkpt lat="45.18237687033646" lon="9.464651969752955"><ele>122.0</ele><time>2026-04-26T08:41:34.933Z</time></trkpt><trkpt lat="45.182455523096806" lon="9.464524789644853"><ele>121.8</ele><time>2026-04-26T08:41:36.933Z</time></trkpt><trkpt lat="45.18253621079979" lon="9.464404465478385"><ele>121.6</ele><time>2026-04-26T08:41:38.933Z</time></trkpt><trkpt lat="45.182613231460564" lon="9.464287961694252"><ele>121.39999999999999</ele><time>2026-04-26T08:41:40.933Z</time></trkpt><trkpt lat="45.1826887879315" lon="9.464188979153846"><ele>121.19999999999999</ele><time>2026-04-26T08:41:42.933Z</time></trkpt><trkpt lat="45.18276773582362" lon="9.464088101007658"><ele>121.0</ele><time>2026-04-26T08:41:44.933Z</time></trkpt><trkpt lat="45.18285170024113" lon="9.46399336289064"><ele>121.0</ele><time>2026-04-26T08:41:46.933Z</time></trkpt><trkpt lat="45.18294130914059" lon="9.46390414617193"><ele>121.0</ele><time>2026-04-26T08:41:48.933Z</time></trkpt><trkpt lat="45.18302583121615" lon="9.463837201364036"><ele>121.0</ele><time>2026-04-26T08:41:50.933Z</time></trkpt><trkpt lat="45.183109764040154" lon="9.463811250839179"><ele>121.0</ele><time>2026-04-26T08:41:52.933Z</time></trkpt><trkpt lat="45.1831912535309" lon="9.463750620984555"><ele>121.0</ele><time>2026-04-26T08:41:54.932Z</time></trkpt><trkpt lat="45.183250359431696" lon="9.46366774597369"><ele>120.4</ele><time>2026-04-26T08:41:56.932Z</time></trkpt><trkpt lat="45.18329373698705" lon="9.463562514766268"><ele>119.8</ele><time>2026-04-26T08:41:58.932Z</time></trkpt><trkpt lat="45.18332410254145" lon="9.463438098762644"><ele>119.20000000000002</ele><time>2026-04-26T08:42:00.932Z</time></trkpt><trkpt lat="45.18335584815313" lon="9.46329509626003"><ele>118.60000000000001</ele><time>2026-04-26T08:42:02.932Z</time></trkpt><trkpt lat="45.183374906813434" lon="9.463165596048965"><ele>118.0</ele><time>2026-04-26T08:42:04.932Z</time></trkpt><trkpt lat="45.183402785280805" lon="9.46304472422505"><ele>117.80000000000001</ele><time>2026-04-26T08:42:06.932Z</time></trkpt><trkpt lat="45.183456117365395" lon="9.462931996322753"><ele>117.60000000000001</ele><time>2026-04-26T08:42:09.932Z</time></trkpt><trkpt lat="45.18348659580213" lon="9.462810886804158"><ele>117.39999999999999</ele><time>2026-04-26T08:42:11.932Z</time></trkpt><trkpt lat="45.183516289031864" lon="9.46268993071175"><ele>117.19999999999999</ele><time>2026-04-26T08:42:13.932Z</time></trkpt><trkpt lat="45.18356762886775" lon="9.462527115934067"><ele>117.0</ele><time>2026-04-26T08:42:15.932Z</time></trkpt><trkpt lat="45.183603489395686" lon="9.46237795524322"><ele>117.0</ele><time>2026-04-26T08:42:17.932Z</time></trkpt><trkpt lat="45.1836248189606" lon="9.462247534762959"><ele>116.99999999999999</ele><time>2026-04-26T08:42:19.932Z</time></trkpt><trkpt lat="45.1836248209529" lon="9.462100979614188"><ele>116.99999999999999</ele><time>2026-04-26T08:42:21.932Z</time></trkpt><trkpt lat="45.183633268696454" lon="9.46194504675613"><ele>117.0</ele><time>2026-04-26T08:42:23.932Z</time></trkpt><trkpt lat="45.18360511012012" lon="9.461798774595303"><ele>117.0</ele><time>2026-04-26T08:42:25.932Z</time></trkpt><trkpt lat="45.18357273112913" lon="9.461665123135433"><ele>117.19999999999999</ele><time>2026-04-26T08:42:27.932Z</time></trkpt><trkpt lat="45.18353272595788" lon="9.461527715158505"><ele>117.39999999999999</ele><time>2026-04-26T08:42:29.932Z</time></trkpt><trkpt lat="45.18353028219699" lon="9.461371118113398"><ele>117.60000000000001</ele><time>2026-04-26T08:42:31.932Z</time></trkpt><trkpt lat="45.18352895184336" lon="9.461205311579098"><ele>117.80000000000001</ele><time>2026-04-26T08:42:33.932Z</time></trkpt><trkpt lat="45.18353323061563" lon="9.461061282395638"><ele>118.0</ele><time>2026-04-26T08:42:35.932Z</time></trkpt><trkpt lat="45.1835263447547" lon="9.460901269162424"><ele>118.0</ele><time>2026-04-26T08:42:37.932Z</time></trkpt><trkpt lat="45.18352432223531" lon="9.460754551742648"><ele>118.00000000000001</ele><time>2026-04-26T08:42:39.932Z</time></trkpt><trkpt lat="45.18353057327147" lon="9.460586815068275"><ele>118.00000000000001</ele><time>2026-04-26T08:42:41.932Z</time></trkpt><trkpt lat="45.183524558077025" lon="9.460407890934047"><ele>118.0</ele><time>2026-04-26T08:42:43.931Z</time></trkpt><trkpt lat="45.18350624795698" lon="9.460311988047199"><ele>118.0</ele><time>2026-04-26T08:42:44.931Z</time></trkpt><trkpt lat="45.18349224798452" lon="9.460208413384487"><ele>118.2</ele><time>2026-04-26T08:42:45.931Z</time></trkpt><trkpt lat="45.183495708532085" lon="9.460086116821925"><ele>118.4</ele><time>2026-04-26T08:42:46.931Z</time></trkpt><trkpt lat="45.18346330534963" lon="9.459920902987875"><ele>118.60000000000001</ele><time>2026-04-26T08:42:48.931Z</time></trkpt><trkpt lat="45.18343942261869" lon="9.459777671491814"><ele>118.80000000000001</ele><time>2026-04-26T08:42:50.931Z</time></trkpt><trkpt lat="45.1834101258318" lon="9.45968404035046"><ele>119.0</ele><time>2026-04-26T08:42:52.931Z</time></trkpt><trkpt lat="45.183406405843826" lon="9.459569674795407"><ele>118.6</ele><time>2026-04-26T08:42:54.931Z</time></trkpt><trkpt lat="45.18337539475806" lon="9.459379320614373"><ele>118.2</ele><time>2026-04-26T08:42:56.931Z</time></trkpt><trkpt lat="45.18335372963116" lon="9.45929414537728"><ele>117.79999999999998</ele><time>2026-04-26T08:42:57.931Z</time></trkpt><trkpt lat="45.18336537967212" lon="9.459123762816747"><ele>117.39999999999999</ele><time>2026-04-26T08:42:59.931Z</time></trkpt><trkpt lat="45.183373174847326" lon="9.459024214461095"><ele>117.0</ele><time>2026-04-26T08:43:00.931Z</time></trkpt><trkpt lat="45.18336898875491" lon="9.458923026541306"><ele>117.0</ele><time>2026-04-26T08:43:01.931Z</time></trkpt><trkpt lat="45.18339703732397" lon="9.458842745994984"><ele>116.99999999999999</ele><time>2026-04-26T08:43:02.931Z</time></trkpt><trkpt lat="45.183409301776436" lon="9.458748941695747"><ele>116.99999999999999</ele><time>2026-04-26T08:43:03.931Z</time></trkpt><trkpt lat="45.18342257319553" lon="9.45865887736349"><ele>117.0</ele><time>2026-04-26T08:43:04.931Z</time></trkpt><trkpt lat="45.18345234080031" lon="9.458480145811082"><ele>117.0</ele><time>2026-04-26T08:43:06.931Z</time></trkpt><trkpt lat="45.183496206445874" lon="9.458243439088863"><ele>116.8</ele><time>2026-04-26T08:43:09.931Z</time></trkpt><trkpt lat="45.18351665772792" lon="9.458085824572867"><ele>116.6</ele><time>2026-04-26T08:43:11.931Z</time></trkpt><trkpt lat="45.18353909184828" lon="9.457922781563454"><ele>116.39999999999999</ele><time>2026-04-26T08:43:13.931Z</time></trkpt><trkpt lat="45.18356337195162" lon="9.45778458400913"><ele>116.19999999999999</ele><time>2026-04-26T08:43:15.931Z</time></trkpt><trkpt lat="45.18359585855111" lon="9.45763821149456"><ele>116.0</ele><time>2026-04-26T08:43:17.931Z</time></trkpt><trkpt lat="45.18363419674424" lon="9.457494644820432"><ele>115.6</ele><time>2026-04-26T08:43:19.932Z</time></trkpt><trkpt lat="45.183664652741605" lon="9.457336578189663"><ele>115.19999999999999</ele><time>2026-04-26T08:43:21.932Z</time></trkpt><trkpt lat="45.18370439100156" lon="9.457201429416614"><ele>114.80000000000001</ele><time>2026-04-26T08:43:23.931Z</time></trkpt><trkpt lat="45.18374233424208" lon="9.457067304598926"><ele>114.4</ele><time>2026-04-26T08:43:25.932Z</time></trkpt><trkpt lat="45.18377585330389" lon="9.456934100964457"><ele>114.0</ele><time>2026-04-26T08:43:27.931Z</time></trkpt><trkpt lat="45.18380725935097" lon="9.456812268250987"><ele>114.0</ele><time>2026-04-26T08:43:29.932Z</time></trkpt><trkpt lat="45.183843647135056" lon="9.456673348097986"><ele>114.0</ele><time>2026-04-26T08:43:31.931Z</time></trkpt><trkpt lat="45.18386613036493" lon="9.45658908502905"><ele>114.0</ele><time>2026-04-26T08:43:32.931Z</time></trkpt><trkpt lat="45.18390727984996" lon="9.456443623272394"><ele>114.0</ele><time>2026-04-26T08:43:34.931Z</time></trkpt><trkpt lat="45.18394464665201" lon="9.45629295291653"><ele>114.0</ele><time>2026-04-26T08:43:36.931Z</time></trkpt><trkpt lat="45.183966842377274" lon="9.456143626752445"><ele>113.80000000000001</ele><time>2026-04-26T08:43:38.931Z</time></trkpt><trkpt lat="45.18397962895833" lon="9.456012967274898"><ele>113.60000000000001</ele><time>2026-04-26T08:43:40.931Z</time></trkpt><trkpt lat="45.18399187126392" lon="9.45588237767976"><ele>113.4</ele><time>2026-04-26T08:43:42.931Z</time></trkpt><trkpt lat="45.18399771573731" lon="9.455753005251198"><ele>113.2</ele><time>2026-04-26T08:43:44.931Z</time></trkpt><trkpt lat="45.18399753236609" lon="9.45562736279508"><ele>113.0</ele><time>2026-04-26T08:43:46.931Z</time></trkpt><trkpt lat="45.1840024045164" lon="9.45547797614666"><ele>113.0</ele><time>2026-04-26T08:43:48.931Z</time></trkpt><trkpt lat="45.18399386013253" lon="9.455351739143783"><ele>113.00000000000001</ele><time>2026-04-26T08:43:50.931Z</time></trkpt><trkpt lat="45.18398932670631" lon="9.455251906198315"><ele>113.00000000000001</ele><time>2026-04-26T08:43:52.931Z</time></trkpt><trkpt lat="45.18398762349785" lon="9.455106143212701"><ele>113.0</ele><time>2026-04-26T08:43:55.931Z</time></trkpt><trkpt lat="45.18399662945905" lon="9.454954059504557"><ele>113.0</ele><time>2026-04-26T08:43:57.931Z</time></trkpt><trkpt lat="45.18401800197046" lon="9.454818504878103"><ele>113.0</ele><time>2026-04-26T08:43:59.931Z</time></trkpt><trkpt lat="45.18405511689042" lon="9.454685965526952"><ele>113.00000000000001</ele><time>2026-04-26T08:44:01.931Z</time></trkpt><trkpt lat="45.18411003750336" lon="9.454571932542246"><ele>113.00000000000001</ele><time>2026-04-26T08:44:03.931Z</time></trkpt><trkpt lat="45.184173977457355" lon="9.454476984769503"><ele>113.0</ele><time>2026-04-26T08:44:05.931Z</time></trkpt><trkpt lat="45.18423877164022" lon="9.454373686691046"><ele>113.0</ele><time>2026-04-26T08:44:07.931Z</time></trkpt><trkpt lat="45.18430220151899" lon="9.454275454903412"><ele>112.99999999999999</ele><time>2026-04-26T08:44:09.931Z</time></trkpt><trkpt lat="45.18436497624972" lon="9.454189009485878"><ele>113.0</ele><time>2026-04-26T08:44:11.931Z</time></trkpt><trkpt lat="45.18442043360914" lon="9.454096619738564"><ele>113.0</ele><time>2026-04-26T08:44:13.931Z</time></trkpt><trkpt lat="45.184476733363724" lon="9.454000224098557"><ele>113.0</ele><time>2026-04-26T08:44:15.931Z</time></trkpt><trkpt lat="45.18452636125621" lon="9.453906898038486"><ele>112.99999999999999</ele><time>2026-04-26T08:44:17.931Z</time></trkpt><trkpt lat="45.18457649396229" lon="9.453811118127996"><ele>113.0</ele><time>2026-04-26T08:44:19.93Z</time></trkpt><trkpt lat="45.18462347568015" lon="9.453720047354459"><ele>113.14285714285714</ele><time>2026-04-26T08:44:21.93Z</time></trkpt><trkpt lat="45.184666670948914" lon="9.453631535641778"><ele>113.28571428571428</ele><time>2026-04-26T08:44:23.93Z</time></trkpt><trkpt lat="45.184710663138" lon="9.45354258274602"><ele>113.42857142857142</ele><time>2026-04-26T08:44:25.93Z</time></trkpt><trkpt lat="45.18475138589798" lon="9.453459257663736"><ele>113.57142857142857</ele><time>2026-04-26T08:44:27.93Z</time></trkpt><trkpt lat="45.18479259929535" lon="9.453366000993132"><ele>113.7142857142857</ele><time>2026-04-26T08:44:29.93Z</time></trkpt><trkpt lat="45.18483245776287" lon="9.453275140719317"><ele>113.85714285714285</ele><time>2026-04-26T08:44:31.93Z</time></trkpt><trkpt lat="45.18487351246719" lon="9.453194325530188"><ele>114.0</ele><time>2026-04-26T08:44:33.93Z</time></trkpt><trkpt lat="45.18491421947497" lon="9.453112015747948"><ele>114.0</ele><time>2026-04-26T08:44:35.93Z</time></trkpt><trkpt lat="45.18495667955584" lon="9.453001418951096"><ele>114.0</ele><time>2026-04-26T08:44:37.93Z</time></trkpt><trkpt lat="45.185005487471386" lon="9.452892653680225"><ele>114.0</ele><time>2026-04-26T08:44:39.93Z</time></trkpt><trkpt lat="45.18505758598046" lon="9.452771526761603"><ele>114.0</ele><time>2026-04-26T08:44:41.93Z</time></trkpt><trkpt lat="45.185116599342216" lon="9.452639478291843"><ele>114.0</ele><time>2026-04-26T08:44:43.93Z</time></trkpt><trkpt lat="45.18515108722251" lon="9.45256421159001"><ele>113.6</ele><time>2026-04-26T08:44:44.93Z</time></trkpt><trkpt lat="45.185219255057504" lon="9.452434106148122"><ele>113.2</ele><time>2026-04-26T08:44:46.93Z</time></trkpt><trkpt lat="45.185285814238775" lon="9.452303254867136"><ele>112.79999999999998</ele><time>2026-04-26T08:44:48.93Z</time></trkpt><trkpt lat="45.185339643195974" lon="9.452183033172181"><ele>112.39999999999999</ele><time>2026-04-26T08:44:50.93Z</time></trkpt><trkpt lat="45.185384016021004" lon="9.452073126270728"><ele>112.0</ele><time>2026-04-26T08:44:52.93Z</time></trkpt><trkpt lat="45.185416401485696" lon="9.451962115113886"><ele>111.83333333333334</ele><time>2026-04-26T08:44:54.93Z</time></trkpt><trkpt lat="45.18544348584414" lon="9.451861711323353"><ele>111.66666666666667</ele><time>2026-04-26T08:44:56.93Z</time></trkpt><trkpt lat="45.18545916579087" lon="9.451774066514709"><ele>111.5</ele><time>2026-04-26T08:44:58.93Z</time></trkpt><trkpt lat="45.1854708078144" lon="9.451665325450943"><ele>111.33333333333334</ele><time>2026-04-26T08:45:01.93Z</time></trkpt><trkpt lat="45.185490818970145" lon="9.451548379895911"><ele>111.16666666666667</ele><time>2026-04-26T08:45:04.93Z</time></trkpt><trkpt lat="45.185515193434355" lon="9.451451048585133"><ele>111.0</ele><time>2026-04-26T08:45:06.93Z</time></trkpt><trkpt lat="45.1855424879279" lon="9.451339604903993"><ele>111.33333333333333</ele><time>2026-04-26T08:45:08.929Z</time></trkpt><trkpt lat="45.18558837113771" lon="9.451196053268072"><ele>111.66666666666666</ele><time>2026-04-26T08:45:10.929Z</time></trkpt><trkpt lat="45.18562447214248" lon="9.451108342126146"><ele>112.0</ele><time>2026-04-26T08:45:11.929Z</time></trkpt><trkpt lat="45.185655306919855" lon="9.45101810194964"><ele>112.33333333333333</ele><time>2026-04-26T08:45:12.929Z</time></trkpt><trkpt lat="45.18569063985722" lon="9.450925437855163"><ele>112.66666666666666</ele><time>2026-04-26T08:45:13.929Z</time></trkpt><trkpt lat="45.18572496406134" lon="9.450836624751144"><ele>113.0</ele><time>2026-04-26T08:45:14.929Z</time></trkpt><trkpt lat="45.18578473485375" lon="9.45069130691393"><ele>113.0</ele><time>2026-04-26T08:45:16.929Z</time></trkpt><trkpt lat="45.18584077981515" lon="9.450557650851481"><ele>113.00000000000001</ele><time>2026-04-26T08:45:18.929Z</time></trkpt><trkpt lat="45.185895198514025" lon="9.450435796968012"><ele>113.00000000000001</ele><time>2026-04-26T08:45:20.929Z</time></trkpt><trkpt lat="45.18595617427183" lon="9.45031501730808"><ele>113.0</ele><time>2026-04-26T08:45:22.929Z</time></trkpt><trkpt lat="45.18602137238923" lon="9.450192470281255"><ele>113.0</ele><time>2026-04-26T08:45:24.929Z</time></trkpt><trkpt lat="45.18608587838735" lon="9.450073258083638"><ele>113.0</ele><time>2026-04-26T08:45:26.929Z</time></trkpt><trkpt lat="45.18615269923814" lon="9.449953556354172"><ele>113.00000000000001</ele><time>2026-04-26T08:45:28.93Z</time></trkpt><trkpt lat="45.18621787672879" lon="9.449845835789908"><ele>113.00000000000001</ele><time>2026-04-26T08:45:30.929Z</time></trkpt><trkpt lat="45.186294028614604" lon="9.44974482531807"><ele>113.0</ele><time>2026-04-26T08:45:32.93Z</time></trkpt><trkpt lat="45.18637345362025" lon="9.449659514592389"><ele>113.0</ele><time>2026-04-26T08:45:34.93Z</time></trkpt><trkpt lat="45.1864530277598" lon="9.449565933636777"><ele>112.2</ele><time>2026-04-26T08:45:36.929Z</time></trkpt><trkpt lat="45.18654830547449" lon="9.44948361986151"><ele>111.4</ele><time>2026-04-26T08:45:38.929Z</time></trkpt><trkpt lat="45.18665330668202" lon="9.449408013719626"><ele>110.60000000000001</ele><time>2026-04-26T08:45:40.929Z</time></trkpt><trkpt lat="45.186749246355404" lon="9.449332432319576"><ele>109.80000000000001</ele><time>2026-04-26T08:45:42.929Z</time></trkpt><trkpt lat="45.18680855899212" lon="9.449301299999458"><ele>109.0</ele><time>2026-04-26T08:45:43.929Z</time></trkpt><trkpt lat="45.18691500595062" lon="9.449237296161396"><ele>109.0</ele><time>2026-04-26T08:45:45.929Z</time></trkpt><trkpt lat="45.18702001959192" lon="9.449185676796008"><ele>109.0</ele><time>2026-04-26T08:45:47.929Z</time></trkpt><trkpt lat="45.187126028682435" lon="9.4491422761414"><ele>109.0</ele><time>2026-04-26T08:45:49.929Z</time></trkpt><trkpt lat="45.18723499181963" lon="9.449123967135689"><ele>109.0</ele><time>2026-04-26T08:45:51.929Z</time></trkpt><trkpt lat="45.18734102319374" lon="9.449110142791064"><ele>109.0</ele><time>2026-04-26T08:45:53.929Z</time></trkpt><trkpt lat="45.18745378850202" lon="9.44910221087399"><ele>109.2</ele><time>2026-04-26T08:45:55.929Z</time></trkpt><trkpt lat="45.18756357961348" lon="9.44909554900076"><ele>109.4</ele><time>2026-04-26T08:45:57.929Z</time></trkpt><trkpt lat="45.18767097879997" lon="9.449088632534725"><ele>109.6</ele><time>2026-04-26T08:45:59.929Z</time></trkpt><trkpt lat="45.18776534839431" lon="9.449107922787487"><ele>109.8</ele><time>2026-04-26T08:46:01.929Z</time></trkpt><trkpt lat="45.18787188583012" lon="9.449106584657049"><ele>110.0</ele><time>2026-04-26T08:46:03.929Z</time></trkpt><trkpt lat="45.18796664838559" lon="9.449105223682096"><ele>109.99999999999999</ele><time>2026-04-26T08:46:05.929Z</time></trkpt><trkpt lat="45.188064700421705" lon="9.449106828982886"><ele>110.0</ele><time>2026-04-26T08:46:07.929Z</time></trkpt><trkpt lat="45.18816638197186" lon="9.44910286518297"><ele>110.0</ele><time>2026-04-26T08:46:09.929Z</time></trkpt><trkpt lat="45.188231802898244" lon="9.44910295907691"><ele>110.0</ele><time>2026-04-26T08:46:10.929Z</time></trkpt><trkpt lat="45.18829825542569" lon="9.44910596852848"><ele>109.99999999999999</ele><time>2026-04-26T08:46:11.929Z</time></trkpt><trkpt lat="45.18841263387184" lon="9.449100867906212"><ele>110.0</ele><time>2026-04-26T08:46:13.929Z</time></trkpt><trkpt lat="45.18852688847712" lon="9.449094769810282"><ele>110.0</ele><time>2026-04-26T08:46:15.929Z</time></trkpt><trkpt lat="45.1886477645603" lon="9.44909812043842"><ele>110.0</ele><time>2026-04-26T08:46:17.929Z</time></trkpt><trkpt lat="45.188748379512695" lon="9.44909151126332"><ele>110.0</ele><time>2026-04-26T08:46:19.928Z</time></trkpt><trkpt lat="45.18884337498706" lon="9.449086027184054"><ele>110.0</ele><time>2026-04-26T08:46:21.928Z</time></trkpt><trkpt lat="45.18893292529222" lon="9.449080395305398"><ele>110.0</ele><time>2026-04-26T08:46:23.928Z</time></trkpt><trkpt lat="45.18901446153412" lon="9.449078811409692"><ele>110.0</ele><time>2026-04-26T08:46:25.928Z</time></trkpt><trkpt lat="45.18909486412486" lon="9.449088337469794"><ele>110.0</ele><time>2026-04-26T08:46:27.928Z</time></trkpt><trkpt lat="45.1891831662387" lon="9.449057665668056"><ele>110.0</ele><time>2026-04-26T08:46:29.928Z</time></trkpt><trkpt lat="45.189255628044044" lon="9.448972872107287"><ele>110.0</ele><time>2026-04-26T08:46:31.928Z</time></trkpt><trkpt lat="45.18931430850142" lon="9.448855740760699"><ele>110.0</ele><time>2026-04-26T08:46:33.928Z</time></trkpt><trkpt lat="45.1893806568598" lon="9.448766507378233"><ele>109.99999999999999</ele><time>2026-04-26T08:46:35.928Z</time></trkpt><trkpt lat="45.189439175414975" lon="9.448695832090836"><ele>110.0</ele><time>2026-04-26T08:46:37.928Z</time></trkpt><trkpt lat="45.189514996049745" lon="9.448599343104608"><ele>110.0</ele><time>2026-04-26T08:46:39.928Z</time></trkpt><trkpt lat="45.18957229710431" lon="9.448532294491185"><ele>110.0</ele><time>2026-04-26T08:46:41.928Z</time></trkpt><trkpt lat="45.1896291092517" lon="9.448464721824624"><ele>109.99999999999999</ele><time>2026-04-26T08:46:43.928Z</time></trkpt><trkpt lat="45.189697078718986" lon="9.448405166305896"><ele>110.0</ele><time>2026-04-26T08:46:45.928Z</time></trkpt><trkpt lat="45.189760300508205" lon="9.44833910737407"><ele>109.99999999999999</ele><time>2026-04-26T08:46:47.928Z</time></trkpt><trkpt lat="45.18982846210458" lon="9.448264713510266"><ele>110.0</ele><time>2026-04-26T08:46:49.928Z</time></trkpt><trkpt lat="45.18989833144069" lon="9.448198519944167"><ele>110.0</ele><time>2026-04-26T08:46:51.928Z</time></trkpt><trkpt lat="45.18996240659717" lon="9.448133386118535"><ele>110.0</ele><time>2026-04-26T08:46:53.928Z</time></trkpt><trkpt lat="45.19002794122204" lon="9.448087050644824"><ele>109.99999999999999</ele><time>2026-04-26T08:46:55.928Z</time></trkpt><trkpt lat="45.190103164488605" lon="9.44803311970087"><ele>110.0</ele><time>2026-04-26T08:46:57.928Z</time></trkpt><trkpt lat="45.190181187638245" lon="9.447996192551457"><ele>110.16666666666666</ele><time>2026-04-26T08:46:59.928Z</time></trkpt><trkpt lat="45.19024744916635" lon="9.447956629289052"><ele>110.33333333333333</ele><time>2026-04-26T08:47:01.928Z</time></trkpt><trkpt lat="45.190326783292825" lon="9.447905997956779"><ele>110.5</ele><time>2026-04-26T08:47:04.928Z</time></trkpt><trkpt lat="45.190407654146135" lon="9.447858831034958"><ele>110.66666666666666</ele><time>2026-04-26T08:47:07.927Z</time></trkpt><trkpt lat="45.19047394122353" lon="9.44783774445234"><ele>110.83333333333333</ele><time>2026-04-26T08:47:09.927Z</time></trkpt><trkpt lat="45.1905472778986" lon="9.447812352333573"><ele>111.0</ele><time>2026-04-26T08:47:11.927Z</time></trkpt><trkpt lat="45.190618171953886" lon="9.447782305669266"><ele>111.85714285714286</ele><time>2026-04-26T08:47:13.927Z</time></trkpt><trkpt lat="45.190690241839725" lon="9.44775555202618"><ele>112.71428571428572</ele><time>2026-04-26T08:47:15.927Z</time></trkpt><trkpt lat="45.190763441576266" lon="9.447739124208296"><ele>113.57142857142858</ele><time>2026-04-26T08:47:17.927Z</time></trkpt><trkpt lat="45.19082348161394" lon="9.447700684081832"><ele>114.42857142857143</ele><time>2026-04-26T08:47:19.927Z</time></trkpt><trkpt lat="45.190860455625895" lon="9.447618647614096"><ele>115.2857142857143</ele><time>2026-04-26T08:47:21.927Z</time></trkpt><trkpt lat="45.19089985392107" lon="9.447536132863773"><ele>116.14285714285715</ele><time>2026-04-26T08:47:23.927Z</time></trkpt><trkpt lat="45.190894613870896" lon="9.447409126982615"><ele>117.0</ele><time>2026-04-26T08:47:25.927Z</time></trkpt><trkpt lat="45.190910953721286" lon="9.447289357876274"><ele>117.0</ele><time>2026-04-26T08:47:27.927Z</time></trkpt><trkpt lat="45.19092306833631" lon="9.44717460814767"><ele>117.0</ele><time>2026-04-26T08:47:29.928Z</time></trkpt><trkpt lat="45.19094081331982" lon="9.447046355254134"><ele>117.0</ele><time>2026-04-26T08:47:31.928Z</time></trkpt><trkpt lat="45.190938958862795" lon="9.446923456659274"><ele>117.0</ele><time>2026-04-26T08:47:33.928Z</time></trkpt><trkpt lat="45.190955831972715" lon="9.446798780085016"><ele>117.0</ele><time>2026-04-26T08:47:35.927Z</time></trkpt><trkpt lat="45.1909637648669" lon="9.44667739185271"><ele>117.0</ele><time>2026-04-26T08:47:37.928Z</time></trkpt><trkpt lat="45.19097902362424" lon="9.446545130691737"><ele>116.8</ele><time>2026-04-26T08:47:39.928Z</time></trkpt><trkpt lat="45.190990654800174" lon="9.446413756508164"><ele>116.6</ele><time>2026-04-26T08:47:41.927Z</time></trkpt><trkpt lat="45.19099894173189" lon="9.446321302712626"><ele>116.39999999999999</ele><time>2026-04-26T08:47:42.927Z</time></trkpt><trkpt lat="45.19101775297254" lon="9.446179454774907"><ele>116.19999999999999</ele><time>2026-04-26T08:47:44.927Z</time></trkpt><trkpt lat="45.19104652413223" lon="9.446040136425458"><ele>116.0</ele><time>2026-04-26T08:47:46.927Z</time></trkpt><trkpt lat="45.191071172325586" lon="9.445900763723731"><ele>115.66666666666666</ele><time>2026-04-26T08:47:48.927Z</time></trkpt><trkpt lat="45.191089675904124" lon="9.445761586468773"><ele>115.33333333333333</ele><time>2026-04-26T08:47:50.927Z</time></trkpt><trkpt lat="45.1911080970001" lon="9.445653009696507"><ele>115.0</ele><time>2026-04-26T08:47:52.927Z</time></trkpt><trkpt lat="45.1911259283441" lon="9.445525481018217"><ele>114.66666666666666</ele><time>2026-04-26T08:47:54.927Z</time></trkpt><trkpt lat="45.191139601858715" lon="9.44540613123096"><ele>114.33333333333333</ele><time>2026-04-26T08:47:56.927Z</time></trkpt><trkpt lat="45.19115368578857" lon="9.445275994736766"><ele>114.0</ele><time>2026-04-26T08:47:58.927Z</time></trkpt><trkpt lat="45.191162238056485" lon="9.445165194917122"><ele>114.0</ele><time>2026-04-26T08:48:00.927Z</time></trkpt><trkpt lat="45.19117111500677" lon="9.445060789719136"><ele>114.0</ele><time>2026-04-26T08:48:02.927Z</time></trkpt><trkpt lat="45.191187770730224" lon="9.44493302263591"><ele>114.0</ele><time>2026-04-26T08:48:04.927Z</time></trkpt><trkpt lat="45.19119644575915" lon="9.444817240042054"><ele>114.0</ele><time>2026-04-26T08:48:06.927Z</time></trkpt><trkpt lat="45.191203139491435" lon="9.444723296117889"><ele>114.0</ele><time>2026-04-26T08:48:08.927Z</time></trkpt><trkpt lat="45.19121255854447" lon="9.444622657214648"><ele>114.0</ele><time>2026-04-26T08:48:10.927Z</time></trkpt><trkpt lat="45.19122089557384" lon="9.44451729395751"><ele>113.83333333333333</ele><time>2026-04-26T08:48:12.927Z</time></trkpt><trkpt lat="45.19122589346065" lon="9.444422706459672"><ele>113.66666666666666</ele><time>2026-04-26T08:48:14.927Z</time></trkpt><trkpt lat="45.191231110187104" lon="9.444301471679148"><ele>113.5</ele><time>2026-04-26T08:48:16.926Z</time></trkpt><trkpt lat="45.191242750032785" lon="9.444173259079042"><ele>113.33333333333333</ele><time>2026-04-26T08:48:18.926Z</time></trkpt><trkpt lat="45.19125036044523" lon="9.444036759688501"><ele>113.16666666666666</ele><time>2026-04-26T08:48:20.925Z</time></trkpt><trkpt lat="45.19125887374226" lon="9.443914855767831"><ele>113.0</ele><time>2026-04-26T08:48:22.925Z</time></trkpt><trkpt lat="45.19126997798105" lon="9.443779321005886"><ele>112.2</ele><time>2026-04-26T08:48:24.924Z</time></trkpt><trkpt lat="45.19128030501952" lon="9.443634280847194"><ele>111.4</ele><time>2026-04-26T08:48:26.924Z</time></trkpt><trkpt lat="45.191297829124785" lon="9.44350026065895"><ele>110.60000000000001</ele><time>2026-04-26T08:48:28.924Z</time></trkpt><trkpt lat="45.19132750151191" lon="9.443363789489283"><ele>109.80000000000001</ele><time>2026-04-26T08:48:30.924Z</time></trkpt><trkpt lat="45.19136034836677" lon="9.443233324195303"><ele>109.0</ele><time>2026-04-26T08:48:32.923Z</time></trkpt><trkpt lat="45.1913990609143" lon="9.443095590020251"><ele>109.00000000000001</ele><time>2026-04-26T08:48:34.923Z</time></trkpt><trkpt lat="45.19143952286459" lon="9.442979774840637"><ele>109.0</ele><time>2026-04-26T08:48:36.923Z</time></trkpt><trkpt lat="45.19147963746072" lon="9.442850394048733"><ele>109.0</ele><time>2026-04-26T08:48:38.923Z</time></trkpt><trkpt lat="45.19150697520366" lon="9.442737946535814"><ele>109.0</ele><time>2026-04-26T08:48:40.923Z</time></trkpt><trkpt lat="45.191528720297335" lon="9.442626116862192"><ele>109.00000000000001</ele><time>2026-04-26T08:48:42.923Z</time></trkpt><trkpt lat="45.19156211740268" lon="9.442517014643636"><ele>109.0</ele><time>2026-04-26T08:48:44.923Z</time></trkpt><trkpt lat="45.1915837137841" lon="9.44240880782684"><ele>109.83333333333334</ele><time>2026-04-26T08:48:46.922Z</time></trkpt><trkpt lat="45.191596750753824" lon="9.442314397074103"><ele>110.66666666666667</ele><time>2026-04-26T08:48:48.922Z</time></trkpt><trkpt lat="45.19162178417175" lon="9.442204877763121"><ele>111.5</ele><time>2026-04-26T08:48:50.922Z</time></trkpt><trkpt lat="45.191639190956266" lon="9.442093665439366"><ele>112.33333333333334</ele><time>2026-04-26T08:48:52.922Z</time></trkpt><trkpt lat="45.19165741118433" lon="9.441981720218388"><ele>113.16666666666667</ele><time>2026-04-26T08:48:54.922Z</time></trkpt><trkpt lat="45.19167926378821" lon="9.44185535697969"><ele>114.0</ele><time>2026-04-26T08:48:56.922Z</time></trkpt><trkpt lat="45.191688751217235" lon="9.441760319132449"><ele>114.0</ele><time>2026-04-26T08:48:58.922Z</time></trkpt><trkpt lat="45.19171120061227" lon="9.441627415925208"><ele>114.0</ele><time>2026-04-26T08:49:00.922Z</time></trkpt><trkpt lat="45.191744616522804" lon="9.441463532254152"><ele>114.0</ele><time>2026-04-26T08:49:02.922Z</time></trkpt><trkpt lat="45.191798450069555" lon="9.441326072024737"><ele>114.0</ele><time>2026-04-26T08:49:04.922Z</time></trkpt><trkpt lat="45.19185748826112" lon="9.44118626847627"><ele>114.0</ele><time>2026-04-26T08:49:06.922Z</time></trkpt><trkpt lat="45.1919196412633" lon="9.44106386223468"><ele>113.6</ele><time>2026-04-26T08:49:08.922Z</time></trkpt><trkpt lat="45.19198140911395" lon="9.44092486892286"><ele>113.2</ele><time>2026-04-26T08:49:10.922Z</time></trkpt><trkpt lat="45.192043229852636" lon="9.440808430089485"><ele>112.79999999999998</ele><time>2026-04-26T08:49:12.921Z</time></trkpt><trkpt lat="45.19206840237579" lon="9.440721434913058"><ele>112.39999999999999</ele><time>2026-04-26T08:49:13.921Z</time></trkpt><trkpt lat="45.19211002291333" lon="9.440590621526255"><ele>112.0</ele><time>2026-04-26T08:49:15.921Z</time></trkpt><trkpt lat="45.1921235781455" lon="9.44045932675775"><ele>112.00000000000001</ele><time>2026-04-26T08:49:17.921Z</time></trkpt><trkpt lat="45.19213993840925" lon="9.440315519328058"><ele>112.0</ele><time>2026-04-26T08:49:19.921Z</time></trkpt><trkpt lat="45.19214324171518" lon="9.4401896147608"><ele>112.0</ele><time>2026-04-26T08:49:21.921Z</time></trkpt><trkpt lat="45.192151395316635" lon="9.440088281797072"><ele>112.0</ele><time>2026-04-26T08:49:23.921Z</time></trkpt><trkpt lat="45.192171607035576" lon="9.439993631429074"><ele>112.00000000000001</ele><time>2026-04-26T08:49:25.921Z</time></trkpt><trkpt lat="45.192183180617114" lon="9.43990281278574"><ele>112.0</ele><time>2026-04-26T08:49:27.921Z</time></trkpt><trkpt lat="45.19220773885987" lon="9.439779685587938"><ele>112.00000000000001</ele><time>2026-04-26T08:49:29.921Z</time></trkpt><trkpt lat="45.1922403404748" lon="9.439661242445046"><ele>112.0</ele><time>2026-04-26T08:49:31.921Z</time></trkpt><trkpt lat="45.19227574649381" lon="9.4395526283391"><ele>112.0</ele><time>2026-04-26T08:49:33.921Z</time></trkpt><trkpt lat="45.192300855250096" lon="9.439451816299222"><ele>112.0</ele><time>2026-04-26T08:49:35.922Z</time></trkpt><trkpt lat="45.19233637495305" lon="9.439324063930272"><ele>112.00000000000001</ele><time>2026-04-26T08:49:37.922Z</time></trkpt><trkpt lat="45.192363756110375" lon="9.439229764520084"><ele>112.0</ele><time>2026-04-26T08:49:39.922Z</time></trkpt><trkpt lat="45.19239092913071" lon="9.439093483076151"><ele>112.33333333333334</ele><time>2026-04-26T08:49:42.922Z</time></trkpt><trkpt lat="45.19241782518543" lon="9.439005165287222"><ele>112.66666666666667</ele><time>2026-04-26T08:49:45.922Z</time></trkpt><trkpt lat="45.192428298031274" lon="9.4389109826698"><ele>113.0</ele><time>2026-04-26T08:49:49.922Z</time></trkpt><trkpt lat="45.19245294866803" lon="9.438799351048154"><ele>113.33333333333334</ele><time>2026-04-26T08:49:53.922Z</time></trkpt><trkpt lat="45.192463877929356" lon="9.438710864696784"><ele>113.66666666666667</ele><time>2026-04-26T08:49:55.921Z</time></trkpt><trkpt lat="45.192489751148386" lon="9.43860007917984"><ele>114.0</ele><time>2026-04-26T08:49:58.921Z</time></trkpt><trkpt lat="45.192508644498794" lon="9.438479815441239"><ele>114.16666666666667</ele><time>2026-04-26T08:50:00.921Z</time></trkpt><trkpt lat="45.19253158551004" lon="9.43835568292701"><ele>114.33333333333334</ele><time>2026-04-26T08:50:02.921Z</time></trkpt><trkpt lat="45.19254564830118" lon="9.43824723624781"><ele>114.5</ele><time>2026-04-26T08:50:04.921Z</time></trkpt><trkpt lat="45.1925607178389" lon="9.438141015355527"><ele>114.66666666666667</ele><time>2026-04-26T08:50:06.921Z</time></trkpt><trkpt lat="45.192588098305755" lon="9.438009154166865"><ele>114.83333333333334</ele><time>2026-04-26T08:50:08.921Z</time></trkpt><trkpt lat="45.19262116138227" lon="9.437914183577277"><ele>115.0</ele><time>2026-04-26T08:50:10.921Z</time></trkpt><trkpt lat="45.19264685197291" lon="9.437804480967761"><ele>114.6</ele><time>2026-04-26T08:50:12.921Z</time></trkpt><trkpt lat="45.19270570956917" lon="9.437641293652556"><ele>114.2</ele><time>2026-04-26T08:50:14.921Z</time></trkpt><trkpt lat="45.192745831908766" lon="9.437549632233669"><ele>113.80000000000001</ele><time>2026-04-26T08:50:15.921Z</time></trkpt><trkpt lat="45.192784859509295" lon="9.437469664842874"><ele>113.4</ele><time>2026-04-26T08:50:16.921Z</time></trkpt><trkpt lat="45.192850367858746" lon="9.437339662322177"><ele>113.0</ele><time>2026-04-26T08:50:18.921Z</time></trkpt><trkpt lat="45.192883187716674" lon="9.43724635305627"><ele>112.66666666666666</ele><time>2026-04-26T08:50:19.921Z</time></trkpt><trkpt lat="45.19293214288394" lon="9.437128436872387"><ele>112.33333333333333</ele><time>2026-04-26T08:50:21.921Z</time></trkpt><trkpt lat="45.19296521878269" lon="9.43700834143111"><ele>112.0</ele><time>2026-04-26T08:50:23.921Z</time></trkpt><trkpt lat="45.19299593927138" lon="9.436873287017303"><ele>111.66666666666666</ele><time>2026-04-26T08:50:25.921Z</time></trkpt><trkpt lat="45.19301519189372" lon="9.436761947929417"><ele>111.33333333333333</ele><time>2026-04-26T08:50:27.921Z</time></trkpt><trkpt lat="45.193042300449996" lon="9.43666537071864"><ele>111.0</ele><time>2026-04-26T08:50:28.921Z</time></trkpt><trkpt lat="45.19306616958051" lon="9.436571495060726"><ele>111.0</ele><time>2026-04-26T08:50:29.921Z</time></trkpt><trkpt lat="45.193108721051765" lon="9.436418816870464"><ele>111.0</ele><time>2026-04-26T08:50:31.921Z</time></trkpt><trkpt lat="45.1931595503221" lon="9.436270272234268"><ele>111.0</ele><time>2026-04-26T08:50:33.921Z</time></trkpt><trkpt lat="45.19318482211653" lon="9.436181896597875"><ele>111.0</ele><time>2026-04-26T08:50:34.921Z</time></trkpt><trkpt lat="45.19321317660126" lon="9.436098098763143"><ele>111.0</ele><time>2026-04-26T08:50:35.921Z</time></trkpt><trkpt lat="45.193246140094544" lon="9.435987629721552"><ele>111.0</ele><time>2026-04-26T08:50:37.921Z</time></trkpt><trkpt lat="45.19326961892796" lon="9.43590219107711"><ele>110.83333333333333</ele><time>2026-04-26T08:50:46.92Z</time></trkpt><trkpt lat="45.19318981900558" lon="9.43585122139995"><ele>110.66666666666666</ele><time>2026-04-26T08:50:50.92Z</time></trkpt><trkpt lat="45.19309263256326" lon="9.435806237318259"><ele>110.5</ele><time>2026-04-26T08:50:53.92Z</time></trkpt><trkpt lat="45.19302916194708" lon="9.435765166271873"><ele>110.33333333333333</ele><time>2026-04-26T08:50:55.92Z</time></trkpt><trkpt lat="45.19294433179384" lon="9.435718355437148"><ele>110.16666666666666</ele><time>2026-04-26T08:50:58.92Z</time></trkpt><trkpt lat="45.19287753467844" lon="9.43568670656492"><ele>110.0</ele><time>2026-04-26T08:51:00.92Z</time></trkpt><trkpt lat="45.192814107016396" lon="9.435666541491631"><ele>109.99999999999999</ele><time>2026-04-26T08:51:02.92Z</time></trkpt><trkpt lat="45.19274455235429" lon="9.43563531820746"><ele>110.0</ele><time>2026-04-26T08:51:04.92Z</time></trkpt><trkpt lat="45.192680808349955" lon="9.435612217042118"><ele>110.0</ele><time>2026-04-26T08:51:06.92Z</time></trkpt><trkpt lat="45.19260473807075" lon="9.435561466824"><ele>110.0</ele><time>2026-04-26T08:51:09.92Z</time></trkpt><trkpt lat="45.1925890387446" lon="9.435446138867377"><ele>109.99999999999999</ele><time>2026-04-26T08:51:12.92Z</time></trkpt><trkpt lat="45.19261131152796" lon="9.43534492635408"><ele>110.0</ele><time>2026-04-26T08:51:14.92Z</time></trkpt><trkpt lat="45.19262173540938" lon="9.435247770958396"><ele>109.83333333333333</ele><time>2026-04-26T08:51:16.92Z</time></trkpt><trkpt lat="45.19262840067706" lon="9.435149463714003"><ele>109.66666666666666</ele><time>2026-04-26T08:51:18.92Z</time></trkpt><trkpt lat="45.192634710697014" lon="9.435058484632888"><ele>109.5</ele><time>2026-04-26T08:51:20.92Z</time></trkpt><trkpt lat="45.19264759141803" lon="9.434926735926943"><ele>109.33333333333334</ele><time>2026-04-26T08:51:23.92Z</time></trkpt><trkpt lat="45.1926560330457" lon="9.434834586790641"><ele>109.16666666666667</ele><time>2026-04-26T08:51:25.92Z</time></trkpt><trkpt lat="45.1926583045129" lon="9.434723126450416"><ele>109.0</ele><time>2026-04-26T08:51:28.919Z</time></trkpt><trkpt lat="45.192679222798404" lon="9.43454095315739"><ele>109.00000000000001</ele><time>2026-04-26T08:51:31.919Z</time></trkpt><trkpt lat="45.192702884824364" lon="9.434406951288992"><ele>109.0</ele><time>2026-04-26T08:51:33.919Z</time></trkpt><trkpt lat="45.19273063402254" lon="9.434257602438093"><ele>109.0</ele><time>2026-04-26T08:51:35.919Z</time></trkpt><trkpt lat="45.19274222825299" lon="9.43415661000518"><ele>109.0</ele><time>2026-04-26T08:51:36.919Z</time></trkpt><trkpt lat="45.192748246803106" lon="9.4340574925741"><ele>109.00000000000001</ele><time>2026-04-26T08:51:37.919Z</time></trkpt><trkpt lat="45.19275862094609" lon="9.433954813620751"><ele>109.0</ele><time>2026-04-26T08:51:38.919Z</time></trkpt><trkpt lat="45.192770876464955" lon="9.433854349917299"><ele>108.42857142857143</ele><time>2026-04-26T08:51:39.919Z</time></trkpt><trkpt lat="45.192781710204116" lon="9.43375350540065"><ele>107.85714285714286</ele><time>2026-04-26T08:51:40.92Z</time></trkpt><trkpt lat="45.192785417085524" lon="9.433647577343239"><ele>107.28571428571428</ele><time>2026-04-26T08:51:41.92Z</time></trkpt><trkpt lat="45.19278268972753" lon="9.433540514841406"><ele>106.71428571428572</ele><time>2026-04-26T08:51:42.92Z</time></trkpt><trkpt lat="45.192781019853534" lon="9.433431044177684"><ele>106.14285714285714</ele><time>2026-04-26T08:51:43.92Z</time></trkpt><trkpt lat="45.19278018738287" lon="9.433326948686132"><ele>105.57142857142857</ele><time>2026-04-26T08:51:44.92Z</time></trkpt><trkpt lat="45.192784736794124" lon="9.433220746257192"><ele>105.0</ele><time>2026-04-26T08:51:45.92Z</time></trkpt><trkpt lat="45.19278779141928" lon="9.433114230874326"><ele>105.0</ele><time>2026-04-26T08:51:46.919Z</time></trkpt><trkpt lat="45.192792521449704" lon="9.433007047781256"><ele>105.0</ele><time>2026-04-26T08:51:47.92Z</time></trkpt><trkpt lat="45.19279531105294" lon="9.432897797344365"><ele>105.0</ele><time>2026-04-26T08:51:48.92Z</time></trkpt><trkpt lat="45.192804497140685" lon="9.432801205305587"><ele>105.0</ele><time>2026-04-26T08:51:49.92Z</time></trkpt><trkpt lat="45.1928147948071" lon="9.432707348221296"><ele>105.0</ele><time>2026-04-26T08:51:50.92Z</time></trkpt><trkpt lat="45.19282090674168" lon="9.432610624113735"><ele>105.0</ele><time>2026-04-26T08:51:51.92Z</time></trkpt><trkpt lat="45.192823359753675" lon="9.432517299081136"><ele>105.0</ele><time>2026-04-26T08:51:52.919Z</time></trkpt><trkpt lat="45.19282858854826" lon="9.432427559910295"><ele>104.66666666666667</ele><time>2026-04-26T08:51:53.92Z</time></trkpt><trkpt lat="45.19282069070995" lon="9.432283652302205"><ele>104.33333333333334</ele><time>2026-04-26T08:51:55.92Z</time></trkpt><trkpt lat="45.192824157474355" lon="9.432170037006182"><ele>104.0</ele><time>2026-04-26T08:51:57.92Z</time></trkpt><trkpt lat="45.19284280873361" lon="9.432080184887473"><ele>103.66666666666667</ele><time>2026-04-26T08:51:59.919Z</time></trkpt><trkpt lat="45.19285050101347" lon="9.43195681032564"><ele>103.33333333333334</ele><time>2026-04-26T08:52:03.919Z</time></trkpt><trkpt lat="45.19282114209305" lon="9.431861184200148"><ele>103.0</ele><time>2026-04-26T08:52:07.919Z</time></trkpt><trkpt lat="45.192827807669836" lon="9.431755521352121"><ele>103.00000000000001</ele><time>2026-04-26T08:52:09.919Z</time></trkpt><trkpt lat="45.192852991289605" lon="9.431593857883014"><ele>103.0</ele><time>2026-04-26T08:52:12.919Z</time></trkpt><trkpt lat="45.192879608824306" lon="9.43149200298779"><ele>103.0</ele><time>2026-04-26T08:52:13.919Z</time></trkpt><trkpt lat="45.192886264988246" lon="9.431388758596379"><ele>103.0</ele><time>2026-04-26T08:52:14.919Z</time></trkpt><trkpt lat="45.19288846808166" lon="9.4312780757174"><ele>103.00000000000001</ele><time>2026-04-26T08:52:15.919Z</time></trkpt><trkpt lat="45.19288133728204" lon="9.431172286297672"><ele>103.0</ele><time>2026-04-26T08:52:16.919Z</time></trkpt><trkpt lat="45.192868572028175" lon="9.431032215311955"><ele>103.0</ele><time>2026-04-26T08:52:18.919Z</time></trkpt><trkpt lat="45.19286088174507" lon="9.430901197437581"><ele>103.0</ele><time>2026-04-26T08:52:21.919Z</time></trkpt><trkpt lat="45.19286379178559" lon="9.43072338099603"><ele>103.0</ele><time>2026-04-26T08:52:23.919Z</time></trkpt><trkpt lat="45.1928717689714" lon="9.430624247911329"><ele>103.0</ele><time>2026-04-26T08:52:24.919Z</time></trkpt><trkpt lat="45.192874719057485" lon="9.43045550264863"><ele>103.0</ele><time>2026-04-26T08:52:26.919Z</time></trkpt><trkpt lat="45.192879143234755" lon="9.430299541861556"><ele>103.16666666666667</ele><time>2026-04-26T08:52:28.919Z</time></trkpt><trkpt lat="45.19288175949396" lon="9.430180237115932"><ele>103.33333333333334</ele><time>2026-04-26T08:52:30.919Z</time></trkpt><trkpt lat="45.19286691760041" lon="9.430018987900036"><ele>103.5</ele><time>2026-04-26T08:52:32.919Z</time></trkpt><trkpt lat="45.19284543989759" lon="9.429902514876588"><ele>103.66666666666666</ele><time>2026-04-26T08:52:34.919Z</time></trkpt><trkpt lat="45.192824784210835" lon="9.42981325483546"><ele>103.83333333333333</ele><time>2026-04-26T08:52:36.919Z</time></trkpt><trkpt lat="45.19280791354138" lon="9.429689616569746"><ele>104.0</ele><time>2026-04-26T08:52:39.919Z</time></trkpt><trkpt lat="45.192789728038484" lon="9.429589441321399"><ele>104.16666666666666</ele><time>2026-04-26T08:52:41.919Z</time></trkpt><trkpt lat="45.19277806569172" lon="9.429473603721434"><ele>104.33333333333333</ele><time>2026-04-26T08:52:43.919Z</time></trkpt><trkpt lat="45.19276657464241" lon="9.42936402382782"><ele>104.5</ele><time>2026-04-26T08:52:45.918Z</time></trkpt><trkpt lat="45.192768252164484" lon="9.42926560391172"><ele>104.66666666666666</ele><time>2026-04-26T08:52:47.918Z</time></trkpt><trkpt lat="45.19275121734299" lon="9.429155934847934"><ele>104.83333333333333</ele><time>2026-04-26T08:52:49.918Z</time></trkpt><trkpt lat="45.192742965941314" lon="9.429021611770336"><ele>105.0</ele><time>2026-04-26T08:52:51.918Z</time></trkpt><trkpt lat="45.19273182191136" lon="9.428882518329944"><ele>105.0</ele><time>2026-04-26T08:52:53.918Z</time></trkpt><trkpt lat="45.19272447618265" lon="9.428771331505052"><ele>105.0</ele><time>2026-04-26T08:52:55.918Z</time></trkpt><trkpt lat="45.192734015762994" lon="9.428677354930507"><ele>105.0</ele><time>2026-04-26T08:52:57.918Z</time></trkpt><trkpt lat="45.19278792507221" lon="9.4286041366027"><ele>105.0</ele><time>2026-04-26T08:52:59.918Z</time></trkpt><trkpt lat="45.1928620898269" lon="9.42857915590651"><ele>105.0</ele><time>2026-04-26T08:53:01.918Z</time></trkpt><trkpt lat="45.19294895676282" lon="9.428527448440484"><ele>105.0</ele><time>2026-04-26T08:53:04.918Z</time></trkpt><trkpt lat="45.19299198993865" lon="9.428437128531334"><ele>105.0</ele><time>2026-04-26T08:53:06.918Z</time></trkpt><trkpt lat="45.1930553415262" lon="9.428351028279447"><ele>105.0</ele><time>2026-04-26T08:53:08.918Z</time></trkpt><trkpt lat="45.193103025676436" lon="9.428249372731214"><ele>105.0</ele><time>2026-04-26T08:53:11.918Z</time></trkpt><trkpt lat="45.19312522839859" lon="9.428117194666038"><ele>105.0</ele><time>2026-04-26T08:53:14.918Z</time></trkpt><trkpt lat="45.193140637196265" lon="9.428025128029605"><ele>105.0</ele><time>2026-04-26T08:53:16.918Z</time></trkpt><trkpt lat="45.19314898805771" lon="9.427882419602364"><ele>105.0</ele><time>2026-04-26T08:53:19.918Z</time></trkpt><trkpt lat="45.193160428414025" lon="9.427716460447645"><ele>105.0</ele><time>2026-04-26T08:53:21.918Z</time></trkpt><trkpt lat="45.19316499296913" lon="9.427619831976289"><ele>105.0</ele><time>2026-04-26T08:53:22.918Z</time></trkpt><trkpt lat="45.19320046042236" lon="9.427445534494783"><ele>105.0</ele><time>2026-04-26T08:53:24.918Z</time></trkpt><trkpt lat="45.19321724545644" lon="9.427294226856436"><ele>105.0</ele><time>2026-04-26T08:53:26.918Z</time></trkpt><trkpt lat="45.193200434769054" lon="9.427155779703982"><ele>105.0</ele><time>2026-04-26T08:53:28.918Z</time></trkpt><trkpt lat="45.193179717895475" lon="9.427068250605405"><ele>103.0</ele><time>2026-04-26T08:53:30.918Z</time></trkpt><trkpt lat="45.19314191893232" lon="9.426984027497717"><ele>101.0</ele><time>2026-04-26T08:53:31.917Z</time></trkpt><trkpt lat="45.19304770778672" lon="9.426857336102023"><ele>99.0</ele><time>2026-04-26T08:53:33.917Z</time></trkpt><trkpt lat="45.19295203845661" lon="9.42674253445428"><ele>97.0</ele><time>2026-04-26T08:53:35.917Z</time></trkpt><trkpt lat="45.19285657759624" lon="9.426595059631795"><ele>97.0</ele><time>2026-04-26T08:53:37.917Z</time></trkpt><trkpt lat="45.1928014444812" lon="9.426514810536402"><ele>97.0</ele><time>2026-04-26T08:53:38.917Z</time></trkpt><trkpt lat="45.19269228596234" lon="9.426379494031536"><ele>97.0</ele><time>2026-04-26T08:53:40.917Z</time></trkpt><trkpt lat="45.19263317913523" lon="9.426274440787331"><ele>97.0</ele><time>2026-04-26T08:53:41.917Z</time></trkpt><trkpt lat="45.19256744815246" lon="9.42619371795747"><ele>97.0</ele><time>2026-04-26T08:53:42.917Z</time></trkpt><trkpt lat="45.19250749130425" lon="9.426120948544199"><ele>96.42857142857143</ele><time>2026-04-26T08:53:43.917Z</time></trkpt><trkpt lat="45.19244856904621" lon="9.426052892888148"><ele>95.85714285714286</ele><time>2026-04-26T08:53:44.917Z</time></trkpt><trkpt lat="45.19238625039965" lon="9.425994206032364"><ele>95.28571428571429</ele><time>2026-04-26T08:53:45.917Z</time></trkpt><trkpt lat="45.192331101112245" lon="9.425932380026731"><ele>94.71428571428572</ele><time>2026-04-26T08:53:46.918Z</time></trkpt><trkpt lat="45.19227171970087" lon="9.42587563790065"><ele>94.14285714285714</ele><time>2026-04-26T08:53:47.918Z</time></trkpt><trkpt lat="45.19221444366517" lon="9.425818015471082"><ele>93.57142857142858</ele><time>2026-04-26T08:53:48.918Z</time></trkpt><trkpt lat="45.19215277113431" lon="9.425740350737447"><ele>93.0</ele><time>2026-04-26T08:53:49.917Z</time></trkpt><trkpt lat="45.19209438352838" lon="9.425671629722482"><ele>92.66666666666667</ele><time>2026-04-26T08:53:50.918Z</time></trkpt><trkpt lat="45.19203610358225" lon="9.425614220370063"><ele>92.33333333333333</ele><time>2026-04-26T08:53:51.918Z</time></trkpt><trkpt lat="45.19197357734443" lon="9.425564233044701"><ele>92.0</ele><time>2026-04-26T08:53:52.917Z</time></trkpt><trkpt lat="45.191872164686956" lon="9.425526320615726"><ele>91.66666666666666</ele><time>2026-04-26T08:53:54.918Z</time></trkpt><trkpt lat="45.191780671791626" lon="9.425487086604868"><ele>91.33333333333333</ele><time>2026-04-26T08:53:56.917Z</time></trkpt><trkpt lat="45.19172223730033" lon="9.425427788776576"><ele>91.0</ele><time>2026-04-26T08:53:58.918Z</time></trkpt><trkpt lat="45.191632455082406" lon="9.42535639514674"><ele>91.0</ele><time>2026-04-26T08:54:00.918Z</time></trkpt><trkpt lat="45.191532481894406" lon="9.42532112117398"><ele>91.0</ele><time>2026-04-26T08:54:02.918Z</time></trkpt><trkpt lat="45.19143781815984" lon="9.42529366158249"><ele>91.0</ele><time>2026-04-26T08:54:04.918Z</time></trkpt><trkpt lat="45.19133704642692" lon="9.425266796830279"><ele>91.0</ele><time>2026-04-26T08:54:06.918Z</time></trkpt><trkpt lat="45.19125451872521" lon="9.42525065442767"><ele>91.0</ele><time>2026-04-26T08:54:08.917Z</time></trkpt><trkpt lat="45.191189354927964" lon="9.425196080384382"><ele>86.0</ele><time>2026-04-26T08:54:10.917Z</time></trkpt><trkpt lat="45.191167429558135" lon="9.4250871310065"><ele>86.0</ele><time>2026-04-26T08:54:12.917Z</time></trkpt><trkpt lat="45.191173816012544" lon="9.424992195822574"><ele>86.0</ele><time>2026-04-26T08:54:16.917Z</time></trkpt></trkseg></trk></gpx>